<?xml version="1.0" encoding="UTF-8" standalone="no" ?>
<gpx xmlns="http://www.topografix.com/GPX/1/1" xmlns:xsi="http://www.w3.org/2001/XMLSchema-instance" xsi:schemaLocation="http://www.topografix.com/GPX/1/1 http://www.topografix.com/GPX/1/1/gpx.xsd" version="1.1" creator="VisuGPX - https://www.visugpx.com">
  <metadata>
    <name>Saint hilaire du touvet-granier-col du coq-Saint hilaire du touvet </name>
    <desc><![CDATA[File with points/tracks from Locus Map/4.11.0]]></desc>
  </metadata>
  <trk>
    <name><![CDATA[2022-08-13 08:25]]></name>
    <extensions>
      <line xmlns="http://www.topografix.com/GPX/gpx_style/0/2">
        <color>0000FF</color>
        <opacity>0.59</opacity>
        <width>6.0</width>
      </line>
    </extensions>
    <trkseg>
      <trkpt lat="45.31006" lon="5.88734">
        <ele>977.43</ele>
        <time>2022-08-13T06:25:20.000Z</time>
      </trkpt>
      <trkpt lat="45.31018" lon="5.88744">
        <ele>977.51</ele>
        <time>2022-08-13T06:25:25.000Z</time>
      </trkpt>
      <trkpt lat="45.3103" lon="5.88752">
        <ele>977.73</ele>
        <time>2022-08-13T06:25:30.000Z</time>
      </trkpt>
      <trkpt lat="45.31046" lon="5.8875">
        <ele>975.58</ele>
        <time>2022-08-13T06:25:35.000Z</time>
      </trkpt>
      <trkpt lat="45.31067" lon="5.88752">
        <ele>974.36</ele>
        <time>2022-08-13T06:25:40.000Z</time>
      </trkpt>
      <trkpt lat="45.3109" lon="5.88741">
        <ele>978.75</ele>
        <time>2022-08-13T06:25:45.000Z</time>
      </trkpt>
      <trkpt lat="45.31115" lon="5.88744">
        <ele>978.38</ele>
        <time>2022-08-13T06:25:50.000Z</time>
      </trkpt>
      <trkpt lat="45.31142" lon="5.88749">
        <ele>978.3</ele>
        <time>2022-08-13T06:25:55.000Z</time>
      </trkpt>
      <trkpt lat="45.31168" lon="5.88749">
        <ele>978.32</ele>
        <time>2022-08-13T06:26:00.000Z</time>
      </trkpt>
      <trkpt lat="45.31202" lon="5.88749">
        <ele>978.12</ele>
        <time>2022-08-13T06:26:05.000Z</time>
      </trkpt>
      <trkpt lat="45.31244" lon="5.88745">
        <ele>975.49</ele>
        <time>2022-08-13T06:26:10.000Z</time>
      </trkpt>
      <trkpt lat="45.31283" lon="5.88749">
        <ele>973.87</ele>
        <time>2022-08-13T06:26:15.000Z</time>
      </trkpt>
      <trkpt lat="45.31325" lon="5.88756">
        <ele>973.62</ele>
        <time>2022-08-13T06:26:20.000Z</time>
      </trkpt>
      <trkpt lat="45.31368" lon="5.88772">
        <ele>972.15</ele>
        <time>2022-08-13T06:26:25.000Z</time>
      </trkpt>
      <trkpt lat="45.31413" lon="5.88786">
        <ele>972.83</ele>
        <time>2022-08-13T06:26:30.000Z</time>
      </trkpt>
      <trkpt lat="45.31453" lon="5.88793">
        <ele>973.41</ele>
        <time>2022-08-13T06:26:35.000Z</time>
      </trkpt>
      <trkpt lat="45.31488" lon="5.88812">
        <ele>974.44</ele>
        <time>2022-08-13T06:26:40.000Z</time>
      </trkpt>
      <trkpt lat="45.31525" lon="5.88819">
        <ele>972.5</ele>
        <time>2022-08-13T06:26:45.000Z</time>
      </trkpt>
      <trkpt lat="45.31555" lon="5.88829">
        <ele>969.8</ele>
        <time>2022-08-13T06:26:50.000Z</time>
      </trkpt>
      <trkpt lat="45.31586" lon="5.88831">
        <ele>968.46</ele>
        <time>2022-08-13T06:26:55.000Z</time>
      </trkpt>
      <trkpt lat="45.31616" lon="5.88824">
        <ele>970.9</ele>
        <time>2022-08-13T06:27:00.000Z</time>
      </trkpt>
      <trkpt lat="45.31649" lon="5.88819">
        <ele>966.61</ele>
        <time>2022-08-13T06:27:05.000Z</time>
      </trkpt>
      <trkpt lat="45.3167" lon="5.88819">
        <ele>967.73</ele>
        <time>2022-08-13T06:27:10.000Z</time>
      </trkpt>
      <trkpt lat="45.31691" lon="5.88829">
        <ele>966.46</ele>
        <time>2022-08-13T06:27:15.000Z</time>
      </trkpt>
      <trkpt lat="45.3171" lon="5.88842">
        <ele>968.22</ele>
        <time>2022-08-13T06:27:20.000Z</time>
      </trkpt>
      <trkpt lat="45.31733" lon="5.88856">
        <ele>971.7</ele>
        <time>2022-08-13T06:27:25.000Z</time>
      </trkpt>
      <trkpt lat="45.31763" lon="5.88855">
        <ele>969.57</ele>
        <time>2022-08-13T06:27:30.000Z</time>
      </trkpt>
      <trkpt lat="45.31788" lon="5.88873">
        <ele>972.15</ele>
        <time>2022-08-13T06:27:35.000Z</time>
      </trkpt>
      <trkpt lat="45.31814" lon="5.88895">
        <ele>968.4</ele>
        <time>2022-08-13T06:27:40.000Z</time>
      </trkpt>
      <trkpt lat="45.31842" lon="5.88909">
        <ele>965.54</ele>
        <time>2022-08-13T06:27:45.000Z</time>
      </trkpt>
      <trkpt lat="45.31873" lon="5.88927">
        <ele>967.43</ele>
        <time>2022-08-13T06:27:50.000Z</time>
      </trkpt>
      <trkpt lat="45.31895" lon="5.88957">
        <ele>961.09</ele>
        <time>2022-08-13T06:27:55.000Z</time>
      </trkpt>
      <trkpt lat="45.31909" lon="5.88998">
        <ele>961.12</ele>
        <time>2022-08-13T06:28:00.000Z</time>
      </trkpt>
      <trkpt lat="45.31912" lon="5.89038">
        <ele>961.94</ele>
        <time>2022-08-13T06:28:05.000Z</time>
      </trkpt>
      <trkpt lat="45.31906" lon="5.89078">
        <ele>960.31</ele>
        <time>2022-08-13T06:28:10.000Z</time>
      </trkpt>
      <trkpt lat="45.31909" lon="5.89105">
        <ele>958.37</ele>
        <time>2022-08-13T06:28:15.000Z</time>
      </trkpt>
      <trkpt lat="45.3192" lon="5.89132">
        <ele>956.21</ele>
        <time>2022-08-13T06:28:20.000Z</time>
      </trkpt>
      <trkpt lat="45.31942" lon="5.89147">
        <ele>954.38</ele>
        <time>2022-08-13T06:28:25.000Z</time>
      </trkpt>
      <trkpt lat="45.31964" lon="5.89153">
        <ele>952.71</ele>
        <time>2022-08-13T06:28:30.000Z</time>
      </trkpt>
      <trkpt lat="45.3199" lon="5.89167">
        <ele>953.67</ele>
        <time>2022-08-13T06:28:35.000Z</time>
      </trkpt>
      <trkpt lat="45.32014" lon="5.89178">
        <ele>954.15</ele>
        <time>2022-08-13T06:28:40.000Z</time>
      </trkpt>
      <trkpt lat="45.32041" lon="5.89192">
        <ele>953.65</ele>
        <time>2022-08-13T06:28:45.000Z</time>
      </trkpt>
      <trkpt lat="45.32073" lon="5.8922">
        <ele>954.18</ele>
        <time>2022-08-13T06:28:50.000Z</time>
      </trkpt>
      <trkpt lat="45.32102" lon="5.89253">
        <ele>955.77</ele>
        <time>2022-08-13T06:28:55.000Z</time>
      </trkpt>
      <trkpt lat="45.32134" lon="5.89287">
        <ele>954.83</ele>
        <time>2022-08-13T06:29:00.000Z</time>
      </trkpt>
      <trkpt lat="45.32168" lon="5.89325">
        <ele>954.61</ele>
        <time>2022-08-13T06:29:05.000Z</time>
      </trkpt>
      <trkpt lat="45.32203" lon="5.89356">
        <ele>954.35</ele>
        <time>2022-08-13T06:29:10.000Z</time>
      </trkpt>
      <trkpt lat="45.32241" lon="5.89387">
        <ele>957.21</ele>
        <time>2022-08-13T06:29:15.000Z</time>
      </trkpt>
      <trkpt lat="45.32275" lon="5.89423">
        <ele>954.56</ele>
        <time>2022-08-13T06:29:20.000Z</time>
      </trkpt>
      <trkpt lat="45.32311" lon="5.89453">
        <ele>953.18</ele>
        <time>2022-08-13T06:29:25.000Z</time>
      </trkpt>
      <trkpt lat="45.3235" lon="5.89477">
        <ele>951.53</ele>
        <time>2022-08-13T06:29:30.000Z</time>
      </trkpt>
      <trkpt lat="45.32384" lon="5.89518">
        <ele>948.9</ele>
        <time>2022-08-13T06:29:35.000Z</time>
      </trkpt>
      <trkpt lat="45.32422" lon="5.89559">
        <ele>943.12</ele>
        <time>2022-08-13T06:29:40.000Z</time>
      </trkpt>
      <trkpt lat="45.32433" lon="5.89616">
        <ele>942.04</ele>
        <time>2022-08-13T06:29:45.000Z</time>
      </trkpt>
      <trkpt lat="45.32452" lon="5.8967">
        <ele>942.13</ele>
        <time>2022-08-13T06:29:50.000Z</time>
      </trkpt>
      <trkpt lat="45.32478" lon="5.89723">
        <ele>936.04</ele>
        <time>2022-08-13T06:29:55.000Z</time>
      </trkpt>
      <trkpt lat="45.32505" lon="5.89769">
        <ele>940.35</ele>
        <time>2022-08-13T06:30:00.000Z</time>
      </trkpt>
      <trkpt lat="45.32542" lon="5.89801">
        <ele>939.56</ele>
        <time>2022-08-13T06:30:05.000Z</time>
      </trkpt>
      <trkpt lat="45.32571" lon="5.89845">
        <ele>937.11</ele>
        <time>2022-08-13T06:30:10.000Z</time>
      </trkpt>
      <trkpt lat="45.3261" lon="5.89901">
        <ele>939.59</ele>
        <time>2022-08-13T06:30:15.000Z</time>
      </trkpt>
      <trkpt lat="45.32645" lon="5.89954">
        <ele>941.69</ele>
        <time>2022-08-13T06:30:20.000Z</time>
      </trkpt>
      <trkpt lat="45.32673" lon="5.89999">
        <ele>940.72</ele>
        <time>2022-08-13T06:30:25.000Z</time>
      </trkpt>
      <trkpt lat="45.32695" lon="5.90037">
        <ele>937.63</ele>
        <time>2022-08-13T06:30:30.000Z</time>
      </trkpt>
      <trkpt lat="45.32715" lon="5.9007">
        <ele>933.11</ele>
        <time>2022-08-13T06:30:35.000Z</time>
      </trkpt>
      <trkpt lat="45.32731" lon="5.901">
        <ele>932.2</ele>
        <time>2022-08-13T06:30:40.000Z</time>
      </trkpt>
      <trkpt lat="45.32749" lon="5.90129">
        <ele>933.33</ele>
        <time>2022-08-13T06:30:45.000Z</time>
      </trkpt>
      <trkpt lat="45.32769" lon="5.90162">
        <ele>933.82</ele>
        <time>2022-08-13T06:30:50.000Z</time>
      </trkpt>
      <trkpt lat="45.32786" lon="5.90191">
        <ele>927.95</ele>
        <time>2022-08-13T06:30:55.000Z</time>
      </trkpt>
      <trkpt lat="45.328" lon="5.90225">
        <ele>926.01</ele>
        <time>2022-08-13T06:31:00.000Z</time>
      </trkpt>
      <trkpt lat="45.32812" lon="5.90263">
        <ele>929.62</ele>
        <time>2022-08-13T06:31:05.000Z</time>
      </trkpt>
      <trkpt lat="45.32823" lon="5.90301">
        <ele>930.77</ele>
        <time>2022-08-13T06:31:10.000Z</time>
      </trkpt>
      <trkpt lat="45.32834" lon="5.90344">
        <ele>930.57</ele>
        <time>2022-08-13T06:31:15.000Z</time>
      </trkpt>
      <trkpt lat="45.32854" lon="5.90385">
        <ele>930.94</ele>
        <time>2022-08-13T06:31:20.000Z</time>
      </trkpt>
      <trkpt lat="45.32884" lon="5.90387">
        <ele>926.58</ele>
        <time>2022-08-13T06:31:25.000Z</time>
      </trkpt>
      <trkpt lat="45.32895" lon="5.90383">
        <ele>926.56</ele>
        <time>2022-08-13T06:31:30.000Z</time>
      </trkpt>
      <trkpt lat="45.32906" lon="5.90371">
        <ele>925.94</ele>
        <time>2022-08-13T06:31:35.000Z</time>
      </trkpt>
      <trkpt lat="45.32915" lon="5.90359">
        <ele>926.6</ele>
        <time>2022-08-13T06:31:40.000Z</time>
      </trkpt>
      <trkpt lat="45.32926" lon="5.90351">
        <ele>928.52</ele>
        <time>2022-08-13T06:31:45.000Z</time>
      </trkpt>
      <trkpt lat="45.32935" lon="5.90346">
        <ele>921.25</ele>
        <time>2022-08-13T06:32:14.000Z</time>
      </trkpt>
      <trkpt lat="45.3295" lon="5.90339">
        <ele>917.99</ele>
        <time>2022-08-13T06:32:19.000Z</time>
      </trkpt>
      <trkpt lat="45.32966" lon="5.90334">
        <ele>918.1</ele>
        <time>2022-08-13T06:32:24.000Z</time>
      </trkpt>
      <trkpt lat="45.32984" lon="5.90328">
        <ele>922.94</ele>
        <time>2022-08-13T06:32:29.000Z</time>
      </trkpt>
      <trkpt lat="45.33005" lon="5.9032">
        <ele>927</ele>
        <time>2022-08-13T06:32:34.000Z</time>
      </trkpt>
      <trkpt lat="45.33028" lon="5.90313">
        <ele>927.98</ele>
        <time>2022-08-13T06:32:39.000Z</time>
      </trkpt>
      <trkpt lat="45.33047" lon="5.90309">
        <ele>930.5</ele>
        <time>2022-08-13T06:32:44.000Z</time>
      </trkpt>
      <trkpt lat="45.33067" lon="5.90299">
        <ele>930.4</ele>
        <time>2022-08-13T06:32:49.000Z</time>
      </trkpt>
      <trkpt lat="45.33085" lon="5.90286">
        <ele>930.2</ele>
        <time>2022-08-13T06:32:54.000Z</time>
      </trkpt>
      <trkpt lat="45.33104" lon="5.9029">
        <ele>929.58</ele>
        <time>2022-08-13T06:32:59.000Z</time>
      </trkpt>
      <trkpt lat="45.33119" lon="5.90286">
        <ele>930.09</ele>
        <time>2022-08-13T06:33:04.000Z</time>
      </trkpt>
      <trkpt lat="45.33135" lon="5.90277">
        <ele>934.91</ele>
        <time>2022-08-13T06:33:09.000Z</time>
      </trkpt>
      <trkpt lat="45.33148" lon="5.90267">
        <ele>936.96</ele>
        <time>2022-08-13T06:33:14.000Z</time>
      </trkpt>
      <trkpt lat="45.33161" lon="5.90258">
        <ele>935.88</ele>
        <time>2022-08-13T06:33:19.000Z</time>
      </trkpt>
      <trkpt lat="45.33176" lon="5.90247">
        <ele>938.63</ele>
        <time>2022-08-13T06:33:24.000Z</time>
      </trkpt>
      <trkpt lat="45.33188" lon="5.9024">
        <ele>938.87</ele>
        <time>2022-08-13T06:33:29.000Z</time>
      </trkpt>
      <trkpt lat="45.33203" lon="5.90234">
        <ele>942.26</ele>
        <time>2022-08-13T06:33:34.000Z</time>
      </trkpt>
      <trkpt lat="45.33219" lon="5.9023">
        <ele>947.19</ele>
        <time>2022-08-13T06:33:39.000Z</time>
      </trkpt>
      <trkpt lat="45.33232" lon="5.90223">
        <ele>950.19</ele>
        <time>2022-08-13T06:33:44.000Z</time>
      </trkpt>
      <trkpt lat="45.33246" lon="5.90219">
        <ele>948.47</ele>
        <time>2022-08-13T06:33:49.000Z</time>
      </trkpt>
      <trkpt lat="45.33264" lon="5.90214">
        <ele>941.97</ele>
        <time>2022-08-13T06:33:54.000Z</time>
      </trkpt>
      <trkpt lat="45.33283" lon="5.90214">
        <ele>944.35</ele>
        <time>2022-08-13T06:33:59.000Z</time>
      </trkpt>
      <trkpt lat="45.33301" lon="5.90215">
        <ele>946.71</ele>
        <time>2022-08-13T06:34:04.000Z</time>
      </trkpt>
      <trkpt lat="45.33318" lon="5.90219">
        <ele>949.93</ele>
        <time>2022-08-13T06:34:09.000Z</time>
      </trkpt>
      <trkpt lat="45.33335" lon="5.90229">
        <ele>950.72</ele>
        <time>2022-08-13T06:34:14.000Z</time>
      </trkpt>
      <trkpt lat="45.33352" lon="5.9024">
        <ele>952.98</ele>
        <time>2022-08-13T06:34:19.000Z</time>
      </trkpt>
      <trkpt lat="45.33368" lon="5.90254">
        <ele>955.87</ele>
        <time>2022-08-13T06:34:24.000Z</time>
      </trkpt>
      <trkpt lat="45.3338" lon="5.90267">
        <ele>953.91</ele>
        <time>2022-08-13T06:34:29.000Z</time>
      </trkpt>
      <trkpt lat="45.33394" lon="5.90279">
        <ele>955.25</ele>
        <time>2022-08-13T06:34:34.000Z</time>
      </trkpt>
      <trkpt lat="45.33411" lon="5.90286">
        <ele>958.44</ele>
        <time>2022-08-13T06:34:39.000Z</time>
      </trkpt>
      <trkpt lat="45.33427" lon="5.90286">
        <ele>961.04</ele>
        <time>2022-08-13T06:34:44.000Z</time>
      </trkpt>
      <trkpt lat="45.33445" lon="5.90282">
        <ele>962.29</ele>
        <time>2022-08-13T06:34:49.000Z</time>
      </trkpt>
      <trkpt lat="45.33461" lon="5.90273">
        <ele>965.93</ele>
        <time>2022-08-13T06:34:54.000Z</time>
      </trkpt>
      <trkpt lat="45.33479" lon="5.90263">
        <ele>967.7</ele>
        <time>2022-08-13T06:34:59.000Z</time>
      </trkpt>
      <trkpt lat="45.33496" lon="5.90255">
        <ele>969.98</ele>
        <time>2022-08-13T06:35:04.000Z</time>
      </trkpt>
      <trkpt lat="45.33513" lon="5.90251">
        <ele>973.72</ele>
        <time>2022-08-13T06:35:09.000Z</time>
      </trkpt>
      <trkpt lat="45.33529" lon="5.90247">
        <ele>974.6</ele>
        <time>2022-08-13T06:35:14.000Z</time>
      </trkpt>
      <trkpt lat="45.33546" lon="5.90245">
        <ele>972.68</ele>
        <time>2022-08-13T06:35:19.000Z</time>
      </trkpt>
      <trkpt lat="45.33564" lon="5.90238">
        <ele>978.07</ele>
        <time>2022-08-13T06:35:24.000Z</time>
      </trkpt>
      <trkpt lat="45.33582" lon="5.9023">
        <ele>980.03</ele>
        <time>2022-08-13T06:35:29.000Z</time>
      </trkpt>
      <trkpt lat="45.33599" lon="5.90225">
        <ele>979.95</ele>
        <time>2022-08-13T06:35:34.000Z</time>
      </trkpt>
      <trkpt lat="45.33616" lon="5.90227">
        <ele>981.52</ele>
        <time>2022-08-13T06:35:39.000Z</time>
      </trkpt>
      <trkpt lat="45.33632" lon="5.90231">
        <ele>983.66</ele>
        <time>2022-08-13T06:35:44.000Z</time>
      </trkpt>
      <trkpt lat="45.3365" lon="5.90235">
        <ele>986.9</ele>
        <time>2022-08-13T06:35:49.000Z</time>
      </trkpt>
      <trkpt lat="45.33665" lon="5.90238">
        <ele>985.91</ele>
        <time>2022-08-13T06:35:54.000Z</time>
      </trkpt>
      <trkpt lat="45.33682" lon="5.9024">
        <ele>985.79</ele>
        <time>2022-08-13T06:35:59.000Z</time>
      </trkpt>
      <trkpt lat="45.33699" lon="5.90239">
        <ele>986.88</ele>
        <time>2022-08-13T06:36:04.000Z</time>
      </trkpt>
      <trkpt lat="45.33717" lon="5.90235">
        <ele>987.48</ele>
        <time>2022-08-13T06:36:09.000Z</time>
      </trkpt>
      <trkpt lat="45.33734" lon="5.90227">
        <ele>987.51</ele>
        <time>2022-08-13T06:36:14.000Z</time>
      </trkpt>
      <trkpt lat="45.3375" lon="5.90219">
        <ele>990.52</ele>
        <time>2022-08-13T06:36:19.000Z</time>
      </trkpt>
      <trkpt lat="45.33768" lon="5.9021">
        <ele>993.32</ele>
        <time>2022-08-13T06:36:24.000Z</time>
      </trkpt>
      <trkpt lat="45.33785" lon="5.90203">
        <ele>995.81</ele>
        <time>2022-08-13T06:36:29.000Z</time>
      </trkpt>
      <trkpt lat="45.33803" lon="5.90204">
        <ele>997.66</ele>
        <time>2022-08-13T06:36:34.000Z</time>
      </trkpt>
      <trkpt lat="45.33812" lon="5.90227">
        <ele>998.6</ele>
        <time>2022-08-13T06:36:39.000Z</time>
      </trkpt>
      <trkpt lat="45.33815" lon="5.90252">
        <ele>999.55</ele>
        <time>2022-08-13T06:36:44.000Z</time>
      </trkpt>
      <trkpt lat="45.33827" lon="5.90271">
        <ele>1000.02</ele>
        <time>2022-08-13T06:36:49.000Z</time>
      </trkpt>
      <trkpt lat="45.33842" lon="5.90283">
        <ele>999.24</ele>
        <time>2022-08-13T06:36:54.000Z</time>
      </trkpt>
      <trkpt lat="45.33858" lon="5.90296">
        <ele>1000.07</ele>
        <time>2022-08-13T06:36:59.000Z</time>
      </trkpt>
      <trkpt lat="45.33876" lon="5.90315">
        <ele>1002.77</ele>
        <time>2022-08-13T06:37:04.000Z</time>
      </trkpt>
      <trkpt lat="45.33895" lon="5.90329">
        <ele>1003.55</ele>
        <time>2022-08-13T06:37:09.000Z</time>
      </trkpt>
      <trkpt lat="45.33915" lon="5.90339">
        <ele>1002.09</ele>
        <time>2022-08-13T06:37:14.000Z</time>
      </trkpt>
      <trkpt lat="45.33931" lon="5.90349">
        <ele>1001.26</ele>
        <time>2022-08-13T06:37:19.000Z</time>
      </trkpt>
      <trkpt lat="45.33942" lon="5.90354">
        <ele>1008.82</ele>
        <time>2022-08-13T06:38:32.000Z</time>
      </trkpt>
      <trkpt lat="45.3396" lon="5.90358">
        <ele>1007.91</ele>
        <time>2022-08-13T06:38:37.000Z</time>
      </trkpt>
      <trkpt lat="45.3398" lon="5.90361">
        <ele>1004.01</ele>
        <time>2022-08-13T06:38:42.000Z</time>
      </trkpt>
      <trkpt lat="45.34002" lon="5.90367">
        <ele>1001.39</ele>
        <time>2022-08-13T06:38:47.000Z</time>
      </trkpt>
      <trkpt lat="45.34027" lon="5.90365">
        <ele>996.76</ele>
        <time>2022-08-13T06:38:52.000Z</time>
      </trkpt>
      <trkpt lat="45.34056" lon="5.90349">
        <ele>996.13</ele>
        <time>2022-08-13T06:38:57.000Z</time>
      </trkpt>
      <trkpt lat="45.34088" lon="5.90352">
        <ele>997.75</ele>
        <time>2022-08-13T06:39:02.000Z</time>
      </trkpt>
      <trkpt lat="45.34093" lon="5.90392">
        <ele>998.98</ele>
        <time>2022-08-13T06:39:07.000Z</time>
      </trkpt>
      <trkpt lat="45.34095" lon="5.90428">
        <ele>999.38</ele>
        <time>2022-08-13T06:39:12.000Z</time>
      </trkpt>
      <trkpt lat="45.3411" lon="5.90445">
        <ele>1005.19</ele>
        <time>2022-08-13T06:39:17.000Z</time>
      </trkpt>
      <trkpt lat="45.34131" lon="5.90463">
        <ele>998.83</ele>
        <time>2022-08-13T06:39:22.000Z</time>
      </trkpt>
      <trkpt lat="45.34152" lon="5.90479">
        <ele>998.05</ele>
        <time>2022-08-13T06:39:27.000Z</time>
      </trkpt>
      <trkpt lat="45.34174" lon="5.90493">
        <ele>994.93</ele>
        <time>2022-08-13T06:39:32.000Z</time>
      </trkpt>
      <trkpt lat="45.34196" lon="5.90509">
        <ele>998.13</ele>
        <time>2022-08-13T06:39:37.000Z</time>
      </trkpt>
      <trkpt lat="45.34216" lon="5.90522">
        <ele>1000</ele>
        <time>2022-08-13T06:39:42.000Z</time>
      </trkpt>
      <trkpt lat="45.34235" lon="5.90528">
        <ele>1000.04</ele>
        <time>2022-08-13T06:39:47.000Z</time>
      </trkpt>
      <trkpt lat="45.34258" lon="5.90523">
        <ele>998.59</ele>
        <time>2022-08-13T06:39:52.000Z</time>
      </trkpt>
      <trkpt lat="45.34275" lon="5.90509">
        <ele>994.47</ele>
        <time>2022-08-13T06:39:57.000Z</time>
      </trkpt>
      <trkpt lat="45.34293" lon="5.90497">
        <ele>997.11</ele>
        <time>2022-08-13T06:40:02.000Z</time>
      </trkpt>
      <trkpt lat="45.34311" lon="5.90488">
        <ele>998.84</ele>
        <time>2022-08-13T06:40:07.000Z</time>
      </trkpt>
      <trkpt lat="45.34328" lon="5.90493">
        <ele>1004.04</ele>
        <time>2022-08-13T06:40:12.000Z</time>
      </trkpt>
      <trkpt lat="45.3434" lon="5.90511">
        <ele>1011.4</ele>
        <time>2022-08-13T06:40:17.000Z</time>
      </trkpt>
      <trkpt lat="45.34352" lon="5.90527">
        <ele>1012.01</ele>
        <time>2022-08-13T06:40:22.000Z</time>
      </trkpt>
      <trkpt lat="45.34365" lon="5.90542">
        <ele>1014.3</ele>
        <time>2022-08-13T06:40:27.000Z</time>
      </trkpt>
      <trkpt lat="45.34379" lon="5.90551">
        <ele>1013.27</ele>
        <time>2022-08-13T06:40:32.000Z</time>
      </trkpt>
      <trkpt lat="45.34399" lon="5.90553">
        <ele>1012.49</ele>
        <time>2022-08-13T06:40:37.000Z</time>
      </trkpt>
      <trkpt lat="45.34421" lon="5.90545">
        <ele>1011.21</ele>
        <time>2022-08-13T06:40:42.000Z</time>
      </trkpt>
      <trkpt lat="45.34441" lon="5.90549">
        <ele>1010.29</ele>
        <time>2022-08-13T06:40:47.000Z</time>
      </trkpt>
      <trkpt lat="45.34459" lon="5.90562">
        <ele>1011.33</ele>
        <time>2022-08-13T06:40:52.000Z</time>
      </trkpt>
      <trkpt lat="45.34476" lon="5.90579">
        <ele>1011.32</ele>
        <time>2022-08-13T06:40:57.000Z</time>
      </trkpt>
      <trkpt lat="45.34491" lon="5.90601">
        <ele>1012.11</ele>
        <time>2022-08-13T06:41:02.000Z</time>
      </trkpt>
      <trkpt lat="45.34501" lon="5.90625">
        <ele>1011.82</ele>
        <time>2022-08-13T06:41:07.000Z</time>
      </trkpt>
      <trkpt lat="45.34523" lon="5.9064">
        <ele>1012.1</ele>
        <time>2022-08-13T06:41:12.000Z</time>
      </trkpt>
      <trkpt lat="45.34546" lon="5.90638">
        <ele>1011.27</ele>
        <time>2022-08-13T06:41:17.000Z</time>
      </trkpt>
      <trkpt lat="45.34565" lon="5.90661">
        <ele>1007.28</ele>
        <time>2022-08-13T06:41:22.000Z</time>
      </trkpt>
      <trkpt lat="45.3457" lon="5.90695">
        <ele>1006.73</ele>
        <time>2022-08-13T06:41:27.000Z</time>
      </trkpt>
      <trkpt lat="45.34568" lon="5.90731">
        <ele>1004.28</ele>
        <time>2022-08-13T06:41:32.000Z</time>
      </trkpt>
      <trkpt lat="45.34561" lon="5.90763">
        <ele>1007.33</ele>
        <time>2022-08-13T06:41:37.000Z</time>
      </trkpt>
      <trkpt lat="45.34565" lon="5.90792">
        <ele>1010.26</ele>
        <time>2022-08-13T06:41:42.000Z</time>
      </trkpt>
      <trkpt lat="45.34581" lon="5.90805">
        <ele>1013.62</ele>
        <time>2022-08-13T06:41:47.000Z</time>
      </trkpt>
      <trkpt lat="45.34596" lon="5.90814">
        <ele>1015.99</ele>
        <time>2022-08-13T06:41:52.000Z</time>
      </trkpt>
      <trkpt lat="45.34615" lon="5.90823">
        <ele>1012.8</ele>
        <time>2022-08-13T06:41:57.000Z</time>
      </trkpt>
      <trkpt lat="45.3464" lon="5.90832">
        <ele>1013.12</ele>
        <time>2022-08-13T06:42:02.000Z</time>
      </trkpt>
      <trkpt lat="45.34658" lon="5.90842">
        <ele>1015.7</ele>
        <time>2022-08-13T06:42:07.000Z</time>
      </trkpt>
      <trkpt lat="45.34677" lon="5.90863">
        <ele>1015.78</ele>
        <time>2022-08-13T06:42:12.000Z</time>
      </trkpt>
      <trkpt lat="45.34695" lon="5.90891">
        <ele>1013.04</ele>
        <time>2022-08-13T06:42:17.000Z</time>
      </trkpt>
      <trkpt lat="45.34705" lon="5.90918">
        <ele>1010.67</ele>
        <time>2022-08-13T06:42:22.000Z</time>
      </trkpt>
      <trkpt lat="45.34714" lon="5.9095">
        <ele>1009.79</ele>
        <time>2022-08-13T06:42:27.000Z</time>
      </trkpt>
      <trkpt lat="45.34725" lon="5.90985">
        <ele>1012.6</ele>
        <time>2022-08-13T06:42:32.000Z</time>
      </trkpt>
      <trkpt lat="45.34732" lon="5.91016">
        <ele>1009.81</ele>
        <time>2022-08-13T06:42:37.000Z</time>
      </trkpt>
      <trkpt lat="45.34737" lon="5.91051">
        <ele>1011.44</ele>
        <time>2022-08-13T06:42:42.000Z</time>
      </trkpt>
      <trkpt lat="45.34748" lon="5.9109">
        <ele>1010.84</ele>
        <time>2022-08-13T06:42:47.000Z</time>
      </trkpt>
      <trkpt lat="45.34761" lon="5.91135">
        <ele>1011.09</ele>
        <time>2022-08-13T06:42:52.000Z</time>
      </trkpt>
      <trkpt lat="45.3478" lon="5.91166">
        <ele>1010.07</ele>
        <time>2022-08-13T06:42:57.000Z</time>
      </trkpt>
      <trkpt lat="45.34799" lon="5.91187">
        <ele>1010.97</ele>
        <time>2022-08-13T06:43:02.000Z</time>
      </trkpt>
      <trkpt lat="45.34812" lon="5.91213">
        <ele>1011.97</ele>
        <time>2022-08-13T06:43:07.000Z</time>
      </trkpt>
      <trkpt lat="45.34827" lon="5.9124">
        <ele>1008.84</ele>
        <time>2022-08-13T06:43:12.000Z</time>
      </trkpt>
      <trkpt lat="45.34843" lon="5.91262">
        <ele>1011.97</ele>
        <time>2022-08-13T06:43:17.000Z</time>
      </trkpt>
      <trkpt lat="45.34859" lon="5.91277">
        <ele>1013.03</ele>
        <time>2022-08-13T06:43:22.000Z</time>
      </trkpt>
      <trkpt lat="45.34873" lon="5.91288">
        <ele>1014.7</ele>
        <time>2022-08-13T06:43:27.000Z</time>
      </trkpt>
      <trkpt lat="45.34887" lon="5.913">
        <ele>1017.7</ele>
        <time>2022-08-13T06:43:32.000Z</time>
      </trkpt>
      <trkpt lat="45.34901" lon="5.9131">
        <ele>1017.08</ele>
        <time>2022-08-13T06:43:37.000Z</time>
      </trkpt>
      <trkpt lat="45.34921" lon="5.91325">
        <ele>1019.59</ele>
        <time>2022-08-13T06:43:42.000Z</time>
      </trkpt>
      <trkpt lat="45.34939" lon="5.91344">
        <ele>1023.15</ele>
        <time>2022-08-13T06:43:47.000Z</time>
      </trkpt>
      <trkpt lat="45.34958" lon="5.91359">
        <ele>1023.45</ele>
        <time>2022-08-13T06:43:52.000Z</time>
      </trkpt>
      <trkpt lat="45.34977" lon="5.91373">
        <ele>1025.86</ele>
        <time>2022-08-13T06:43:57.000Z</time>
      </trkpt>
      <trkpt lat="45.34997" lon="5.91387">
        <ele>1028.02</ele>
        <time>2022-08-13T06:44:02.000Z</time>
      </trkpt>
      <trkpt lat="45.35017" lon="5.91401">
        <ele>1032.25</ele>
        <time>2022-08-13T06:44:07.000Z</time>
      </trkpt>
      <trkpt lat="45.35035" lon="5.91417">
        <ele>1031.82</ele>
        <time>2022-08-13T06:44:12.000Z</time>
      </trkpt>
      <trkpt lat="45.35056" lon="5.91435">
        <ele>1031.89</ele>
        <time>2022-08-13T06:44:17.000Z</time>
      </trkpt>
      <trkpt lat="45.35077" lon="5.91451">
        <ele>1032.33</ele>
        <time>2022-08-13T06:44:22.000Z</time>
      </trkpt>
      <trkpt lat="45.35097" lon="5.91472">
        <ele>1034.6</ele>
        <time>2022-08-13T06:44:27.000Z</time>
      </trkpt>
      <trkpt lat="45.35115" lon="5.91488">
        <ele>1032.81</ele>
        <time>2022-08-13T06:44:32.000Z</time>
      </trkpt>
      <trkpt lat="45.35138" lon="5.91509">
        <ele>1030.67</ele>
        <time>2022-08-13T06:44:37.000Z</time>
      </trkpt>
      <trkpt lat="45.35158" lon="5.91529">
        <ele>1029.69</ele>
        <time>2022-08-13T06:44:42.000Z</time>
      </trkpt>
      <trkpt lat="45.35177" lon="5.91548">
        <ele>1030.01</ele>
        <time>2022-08-13T06:44:47.000Z</time>
      </trkpt>
      <trkpt lat="45.35201" lon="5.9157">
        <ele>1029.65</ele>
        <time>2022-08-13T06:44:52.000Z</time>
      </trkpt>
      <trkpt lat="45.35221" lon="5.91589">
        <ele>1030.68</ele>
        <time>2022-08-13T06:44:57.000Z</time>
      </trkpt>
      <trkpt lat="45.35242" lon="5.91603">
        <ele>1029.83</ele>
        <time>2022-08-13T06:45:02.000Z</time>
      </trkpt>
      <trkpt lat="45.35258" lon="5.91628">
        <ele>1030.61</ele>
        <time>2022-08-13T06:45:07.000Z</time>
      </trkpt>
      <trkpt lat="45.35279" lon="5.91649">
        <ele>1031.25</ele>
        <time>2022-08-13T06:45:12.000Z</time>
      </trkpt>
      <trkpt lat="45.353" lon="5.9167">
        <ele>1028.13</ele>
        <time>2022-08-13T06:45:17.000Z</time>
      </trkpt>
      <trkpt lat="45.35317" lon="5.91697">
        <ele>1029.98</ele>
        <time>2022-08-13T06:45:22.000Z</time>
      </trkpt>
      <trkpt lat="45.35328" lon="5.91732">
        <ele>1031.16</ele>
        <time>2022-08-13T06:45:27.000Z</time>
      </trkpt>
      <trkpt lat="45.35335" lon="5.91756">
        <ele>1036.55</ele>
        <time>2022-08-13T06:45:32.000Z</time>
      </trkpt>
      <trkpt lat="45.35346" lon="5.91778">
        <ele>1040.9</ele>
        <time>2022-08-13T06:45:37.000Z</time>
      </trkpt>
      <trkpt lat="45.35355" lon="5.91796">
        <ele>1041.77</ele>
        <time>2022-08-13T06:45:42.000Z</time>
      </trkpt>
      <trkpt lat="45.35368" lon="5.91807">
        <ele>1043.44</ele>
        <time>2022-08-13T06:45:47.000Z</time>
      </trkpt>
      <trkpt lat="45.35384" lon="5.91815">
        <ele>1044.97</ele>
        <time>2022-08-13T06:45:52.000Z</time>
      </trkpt>
      <trkpt lat="45.35401" lon="5.91825">
        <ele>1046.4</ele>
        <time>2022-08-13T06:45:57.000Z</time>
      </trkpt>
      <trkpt lat="45.35418" lon="5.9183">
        <ele>1044.07</ele>
        <time>2022-08-13T06:46:02.000Z</time>
      </trkpt>
      <trkpt lat="45.35437" lon="5.9183">
        <ele>1046.18</ele>
        <time>2022-08-13T06:46:07.000Z</time>
      </trkpt>
      <trkpt lat="45.35457" lon="5.91828">
        <ele>1045.99</ele>
        <time>2022-08-13T06:46:12.000Z</time>
      </trkpt>
      <trkpt lat="45.35476" lon="5.91829">
        <ele>1046.31</ele>
        <time>2022-08-13T06:46:17.000Z</time>
      </trkpt>
      <trkpt lat="45.35494" lon="5.91836">
        <ele>1049.87</ele>
        <time>2022-08-13T06:46:22.000Z</time>
      </trkpt>
      <trkpt lat="45.35512" lon="5.91847">
        <ele>1053.16</ele>
        <time>2022-08-13T06:46:27.000Z</time>
      </trkpt>
      <trkpt lat="45.3553" lon="5.91855">
        <ele>1052.29</ele>
        <time>2022-08-13T06:46:32.000Z</time>
      </trkpt>
      <trkpt lat="45.35547" lon="5.91864">
        <ele>1054.66</ele>
        <time>2022-08-13T06:46:37.000Z</time>
      </trkpt>
      <trkpt lat="45.35563" lon="5.91871">
        <ele>1057.9</ele>
        <time>2022-08-13T06:46:42.000Z</time>
      </trkpt>
      <trkpt lat="45.35578" lon="5.91877">
        <ele>1054.71</ele>
        <time>2022-08-13T06:46:47.000Z</time>
      </trkpt>
      <trkpt lat="45.35591" lon="5.91879">
        <ele>1053.78</ele>
        <time>2022-08-13T06:46:52.000Z</time>
      </trkpt>
      <trkpt lat="45.356" lon="5.9187">
        <ele>1061.39</ele>
        <time>2022-08-13T06:48:56.000Z</time>
      </trkpt>
      <trkpt lat="45.35613" lon="5.91866">
        <ele>1060.36</ele>
        <time>2022-08-13T06:49:01.000Z</time>
      </trkpt>
      <trkpt lat="45.35626" lon="5.9186">
        <ele>1059.28</ele>
        <time>2022-08-13T06:49:06.000Z</time>
      </trkpt>
      <trkpt lat="45.3564" lon="5.91852">
        <ele>1057.77</ele>
        <time>2022-08-13T06:49:11.000Z</time>
      </trkpt>
      <trkpt lat="45.35652" lon="5.91844">
        <ele>1054.85</ele>
        <time>2022-08-13T06:49:16.000Z</time>
      </trkpt>
      <trkpt lat="45.35672" lon="5.91833">
        <ele>1052.72</ele>
        <time>2022-08-13T06:49:21.000Z</time>
      </trkpt>
      <trkpt lat="45.35704" lon="5.91812">
        <ele>1050.54</ele>
        <time>2022-08-13T06:49:26.000Z</time>
      </trkpt>
      <trkpt lat="45.35749" lon="5.91797">
        <ele>1048.32</ele>
        <time>2022-08-13T06:49:31.000Z</time>
      </trkpt>
      <trkpt lat="45.35804" lon="5.91787">
        <ele>1049.04</ele>
        <time>2022-08-13T06:49:36.000Z</time>
      </trkpt>
      <trkpt lat="45.3586" lon="5.91783">
        <ele>1047.21</ele>
        <time>2022-08-13T06:49:41.000Z</time>
      </trkpt>
      <trkpt lat="45.35923" lon="5.91784">
        <ele>1044.88</ele>
        <time>2022-08-13T06:49:46.000Z</time>
      </trkpt>
      <trkpt lat="45.35977" lon="5.91796">
        <ele>1042.26</ele>
        <time>2022-08-13T06:49:51.000Z</time>
      </trkpt>
      <trkpt lat="45.36035" lon="5.91836">
        <ele>1037.74</ele>
        <time>2022-08-13T06:49:56.000Z</time>
      </trkpt>
      <trkpt lat="45.36088" lon="5.91892">
        <ele>1030.55</ele>
        <time>2022-08-13T06:50:01.000Z</time>
      </trkpt>
      <trkpt lat="45.36143" lon="5.91941">
        <ele>1027.01</ele>
        <time>2022-08-13T06:50:06.000Z</time>
      </trkpt>
      <trkpt lat="45.362" lon="5.91967">
        <ele>1025.59</ele>
        <time>2022-08-13T06:50:11.000Z</time>
      </trkpt>
      <trkpt lat="45.36258" lon="5.91971">
        <ele>1021.61</ele>
        <time>2022-08-13T06:50:16.000Z</time>
      </trkpt>
      <trkpt lat="45.36314" lon="5.92">
        <ele>1014.33</ele>
        <time>2022-08-13T06:50:21.000Z</time>
      </trkpt>
      <trkpt lat="45.36366" lon="5.92045">
        <ele>1010.18</ele>
        <time>2022-08-13T06:50:26.000Z</time>
      </trkpt>
      <trkpt lat="45.36427" lon="5.92054">
        <ele>1006.38</ele>
        <time>2022-08-13T06:50:31.000Z</time>
      </trkpt>
      <trkpt lat="45.36478" lon="5.92042">
        <ele>1005.13</ele>
        <time>2022-08-13T06:50:36.000Z</time>
      </trkpt>
      <trkpt lat="45.36539" lon="5.92052">
        <ele>1003.1</ele>
        <time>2022-08-13T06:50:41.000Z</time>
      </trkpt>
      <trkpt lat="45.36601" lon="5.92055">
        <ele>1000.79</ele>
        <time>2022-08-13T06:50:46.000Z</time>
      </trkpt>
      <trkpt lat="45.36652" lon="5.9209">
        <ele>997.53</ele>
        <time>2022-08-13T06:50:51.000Z</time>
      </trkpt>
      <trkpt lat="45.36712" lon="5.92109">
        <ele>995.61</ele>
        <time>2022-08-13T06:50:56.000Z</time>
      </trkpt>
      <trkpt lat="45.3677" lon="5.92127">
        <ele>990.47</ele>
        <time>2022-08-13T06:51:01.000Z</time>
      </trkpt>
      <trkpt lat="45.36817" lon="5.92088">
        <ele>980.39</ele>
        <time>2022-08-13T06:51:06.000Z</time>
      </trkpt>
      <trkpt lat="45.3685" lon="5.9209">
        <ele>978.23</ele>
        <time>2022-08-13T06:51:11.000Z</time>
      </trkpt>
      <trkpt lat="45.36856" lon="5.92159">
        <ele>971.5</ele>
        <time>2022-08-13T06:51:16.000Z</time>
      </trkpt>
      <trkpt lat="45.36897" lon="5.9221">
        <ele>963.93</ele>
        <time>2022-08-13T06:51:21.000Z</time>
      </trkpt>
      <trkpt lat="45.36955" lon="5.92249">
        <ele>960.04</ele>
        <time>2022-08-13T06:51:26.000Z</time>
      </trkpt>
      <trkpt lat="45.37018" lon="5.92284">
        <ele>958.26</ele>
        <time>2022-08-13T06:51:31.000Z</time>
      </trkpt>
      <trkpt lat="45.37081" lon="5.92286">
        <ele>948.64</ele>
        <time>2022-08-13T06:51:36.000Z</time>
      </trkpt>
      <trkpt lat="45.3714" lon="5.92264">
        <ele>946.78</ele>
        <time>2022-08-13T06:51:41.000Z</time>
      </trkpt>
      <trkpt lat="45.37201" lon="5.92249">
        <ele>935.38</ele>
        <time>2022-08-13T06:51:46.000Z</time>
      </trkpt>
      <trkpt lat="45.37248" lon="5.92263">
        <ele>932.61</ele>
        <time>2022-08-13T06:51:51.000Z</time>
      </trkpt>
      <trkpt lat="45.37287" lon="5.92314">
        <ele>928.1</ele>
        <time>2022-08-13T06:51:56.000Z</time>
      </trkpt>
      <trkpt lat="45.3734" lon="5.92311">
        <ele>916.59</ele>
        <time>2022-08-13T06:52:01.000Z</time>
      </trkpt>
      <trkpt lat="45.37367" lon="5.92251">
        <ele>910.08</ele>
        <time>2022-08-13T06:52:06.000Z</time>
      </trkpt>
      <trkpt lat="45.37407" lon="5.92205">
        <ele>901.43</ele>
        <time>2022-08-13T06:52:11.000Z</time>
      </trkpt>
      <trkpt lat="45.37432" lon="5.92137">
        <ele>895.47</ele>
        <time>2022-08-13T06:52:16.000Z</time>
      </trkpt>
      <trkpt lat="45.37466" lon="5.92067">
        <ele>893.99</ele>
        <time>2022-08-13T06:52:21.000Z</time>
      </trkpt>
      <trkpt lat="45.37521" lon="5.92048">
        <ele>886.32</ele>
        <time>2022-08-13T06:52:26.000Z</time>
      </trkpt>
      <trkpt lat="45.37559" lon="5.92028">
        <ele>882.96</ele>
        <time>2022-08-13T06:52:31.000Z</time>
      </trkpt>
      <trkpt lat="45.37588" lon="5.92027">
        <ele>882.46</ele>
        <time>2022-08-13T06:52:36.000Z</time>
      </trkpt>
      <trkpt lat="45.37609" lon="5.92027">
        <ele>880.87</ele>
        <time>2022-08-13T06:52:41.000Z</time>
      </trkpt>
      <trkpt lat="45.37625" lon="5.92034">
        <ele>882.51</ele>
        <time>2022-08-13T06:52:46.000Z</time>
      </trkpt>
      <trkpt lat="45.37637" lon="5.92026">
        <ele>881.13</ele>
        <time>2022-08-13T06:52:51.000Z</time>
      </trkpt>
      <trkpt lat="45.37653" lon="5.92024">
        <ele>882.02</ele>
        <time>2022-08-13T06:52:56.000Z</time>
      </trkpt>
      <trkpt lat="45.37669" lon="5.92017">
        <ele>878.69</ele>
        <time>2022-08-13T06:53:01.000Z</time>
      </trkpt>
      <trkpt lat="45.37688" lon="5.92019">
        <ele>881.76</ele>
        <time>2022-08-13T06:53:06.000Z</time>
      </trkpt>
      <trkpt lat="45.37707" lon="5.92029">
        <ele>882.7</ele>
        <time>2022-08-13T06:53:11.000Z</time>
      </trkpt>
      <trkpt lat="45.37722" lon="5.92042">
        <ele>885.6</ele>
        <time>2022-08-13T06:53:16.000Z</time>
      </trkpt>
      <trkpt lat="45.37738" lon="5.92049">
        <ele>884.16</ele>
        <time>2022-08-13T06:53:21.000Z</time>
      </trkpt>
      <trkpt lat="45.37754" lon="5.92058">
        <ele>887.6</ele>
        <time>2022-08-13T06:53:26.000Z</time>
      </trkpt>
      <trkpt lat="45.37774" lon="5.92058">
        <ele>888.75</ele>
        <time>2022-08-13T06:53:31.000Z</time>
      </trkpt>
      <trkpt lat="45.37795" lon="5.92062">
        <ele>891.94</ele>
        <time>2022-08-13T06:53:36.000Z</time>
      </trkpt>
      <trkpt lat="45.37815" lon="5.92071">
        <ele>892.65</ele>
        <time>2022-08-13T06:53:41.000Z</time>
      </trkpt>
      <trkpt lat="45.37834" lon="5.92081">
        <ele>893.72</ele>
        <time>2022-08-13T06:53:46.000Z</time>
      </trkpt>
      <trkpt lat="45.37849" lon="5.92097">
        <ele>891.76</ele>
        <time>2022-08-13T06:53:51.000Z</time>
      </trkpt>
      <trkpt lat="45.37865" lon="5.92118">
        <ele>892.74</ele>
        <time>2022-08-13T06:53:56.000Z</time>
      </trkpt>
      <trkpt lat="45.37886" lon="5.92134">
        <ele>895.18</ele>
        <time>2022-08-13T06:54:01.000Z</time>
      </trkpt>
      <trkpt lat="45.37908" lon="5.92149">
        <ele>895.15</ele>
        <time>2022-08-13T06:54:06.000Z</time>
      </trkpt>
      <trkpt lat="45.37924" lon="5.92155">
        <ele>891.78</ele>
        <time>2022-08-13T06:54:11.000Z</time>
      </trkpt>
      <trkpt lat="45.37948" lon="5.92162">
        <ele>893.3</ele>
        <time>2022-08-13T06:54:16.000Z</time>
      </trkpt>
      <trkpt lat="45.37964" lon="5.92178">
        <ele>893.27</ele>
        <time>2022-08-13T06:54:21.000Z</time>
      </trkpt>
      <trkpt lat="45.37984" lon="5.92185">
        <ele>887.03</ele>
        <time>2022-08-13T06:54:26.000Z</time>
      </trkpt>
      <trkpt lat="45.38008" lon="5.92177">
        <ele>887.34</ele>
        <time>2022-08-13T06:54:31.000Z</time>
      </trkpt>
      <trkpt lat="45.38032" lon="5.92169">
        <ele>887.49</ele>
        <time>2022-08-13T06:54:36.000Z</time>
      </trkpt>
      <trkpt lat="45.38043" lon="5.92184">
        <ele>887.52</ele>
        <time>2022-08-13T06:54:41.000Z</time>
      </trkpt>
      <trkpt lat="45.38047" lon="5.92197">
        <ele>885.57</ele>
        <time>2022-08-13T06:54:47.000Z</time>
      </trkpt>
      <trkpt lat="45.38045" lon="5.92227">
        <ele>881.41</ele>
        <time>2022-08-13T06:54:52.000Z</time>
      </trkpt>
      <trkpt lat="45.38038" lon="5.92283">
        <ele>880.68</ele>
        <time>2022-08-13T06:54:57.000Z</time>
      </trkpt>
      <trkpt lat="45.38019" lon="5.92347">
        <ele>883.63</ele>
        <time>2022-08-13T06:55:02.000Z</time>
      </trkpt>
      <trkpt lat="45.37976" lon="5.92411">
        <ele>881.04</ele>
        <time>2022-08-13T06:55:07.000Z</time>
      </trkpt>
      <trkpt lat="45.37959" lon="5.92488">
        <ele>878.32</ele>
        <time>2022-08-13T06:55:12.000Z</time>
      </trkpt>
      <trkpt lat="45.37926" lon="5.92541">
        <ele>878.66</ele>
        <time>2022-08-13T06:55:17.000Z</time>
      </trkpt>
      <trkpt lat="45.37899" lon="5.92593">
        <ele>885.48</ele>
        <time>2022-08-13T06:55:22.000Z</time>
      </trkpt>
      <trkpt lat="45.37894" lon="5.92649">
        <ele>889.05</ele>
        <time>2022-08-13T06:55:27.000Z</time>
      </trkpt>
      <trkpt lat="45.37913" lon="5.92702">
        <ele>886.46</ele>
        <time>2022-08-13T06:55:32.000Z</time>
      </trkpt>
      <trkpt lat="45.37939" lon="5.92754">
        <ele>882.35</ele>
        <time>2022-08-13T06:55:37.000Z</time>
      </trkpt>
      <trkpt lat="45.37981" lon="5.92774">
        <ele>881.94</ele>
        <time>2022-08-13T06:55:42.000Z</time>
      </trkpt>
      <trkpt lat="45.3802" lon="5.92772">
        <ele>884.63</ele>
        <time>2022-08-13T06:55:47.000Z</time>
      </trkpt>
      <trkpt lat="45.38051" lon="5.92802">
        <ele>879.66</ele>
        <time>2022-08-13T06:55:52.000Z</time>
      </trkpt>
      <trkpt lat="45.38079" lon="5.92838">
        <ele>868.54</ele>
        <time>2022-08-13T06:55:57.000Z</time>
      </trkpt>
      <trkpt lat="45.38118" lon="5.92861">
        <ele>870.59</ele>
        <time>2022-08-13T06:56:02.000Z</time>
      </trkpt>
      <trkpt lat="45.38148" lon="5.92897">
        <ele>870.63</ele>
        <time>2022-08-13T06:56:07.000Z</time>
      </trkpt>
      <trkpt lat="45.38166" lon="5.92949">
        <ele>869.74</ele>
        <time>2022-08-13T06:56:12.000Z</time>
      </trkpt>
      <trkpt lat="45.3819" lon="5.92997">
        <ele>871.3</ele>
        <time>2022-08-13T06:56:17.000Z</time>
      </trkpt>
      <trkpt lat="45.38219" lon="5.93032">
        <ele>874.19</ele>
        <time>2022-08-13T06:56:22.000Z</time>
      </trkpt>
      <trkpt lat="45.38255" lon="5.93069">
        <ele>873.82</ele>
        <time>2022-08-13T06:56:27.000Z</time>
      </trkpt>
      <trkpt lat="45.38292" lon="5.93104">
        <ele>872.93</ele>
        <time>2022-08-13T06:56:32.000Z</time>
      </trkpt>
      <trkpt lat="45.38329" lon="5.93127">
        <ele>872.77</ele>
        <time>2022-08-13T06:56:37.000Z</time>
      </trkpt>
      <trkpt lat="45.38367" lon="5.93146">
        <ele>871.97</ele>
        <time>2022-08-13T06:56:42.000Z</time>
      </trkpt>
      <trkpt lat="45.38393" lon="5.9318">
        <ele>871.1</ele>
        <time>2022-08-13T06:56:47.000Z</time>
      </trkpt>
      <trkpt lat="45.38412" lon="5.93208">
        <ele>868.48</ele>
        <time>2022-08-13T06:56:52.000Z</time>
      </trkpt>
      <trkpt lat="45.38417" lon="5.93223">
        <ele>867.94</ele>
        <time>2022-08-13T06:56:57.000Z</time>
      </trkpt>
      <trkpt lat="45.38425" lon="5.93235">
        <ele>867.01</ele>
        <time>2022-08-13T06:57:04.000Z</time>
      </trkpt>
      <trkpt lat="45.38444" lon="5.93263">
        <ele>866.1</ele>
        <time>2022-08-13T06:57:09.000Z</time>
      </trkpt>
      <trkpt lat="45.38466" lon="5.93301">
        <ele>864.72</ele>
        <time>2022-08-13T06:57:14.000Z</time>
      </trkpt>
      <trkpt lat="45.38488" lon="5.93337">
        <ele>859.96</ele>
        <time>2022-08-13T06:57:19.000Z</time>
      </trkpt>
      <trkpt lat="45.38516" lon="5.93385">
        <ele>858.44</ele>
        <time>2022-08-13T06:57:24.000Z</time>
      </trkpt>
      <trkpt lat="45.38517" lon="5.93448">
        <ele>855.22</ele>
        <time>2022-08-13T06:57:29.000Z</time>
      </trkpt>
      <trkpt lat="45.38548" lon="5.93428">
        <ele>855.53</ele>
        <time>2022-08-13T06:57:34.000Z</time>
      </trkpt>
      <trkpt lat="45.38566" lon="5.93359">
        <ele>849.96</ele>
        <time>2022-08-13T06:57:39.000Z</time>
      </trkpt>
      <trkpt lat="45.38562" lon="5.93287">
        <ele>849.89</ele>
        <time>2022-08-13T06:57:44.000Z</time>
      </trkpt>
      <trkpt lat="45.38598" lon="5.93273">
        <ele>846.89</ele>
        <time>2022-08-13T06:57:49.000Z</time>
      </trkpt>
      <trkpt lat="45.38608" lon="5.93226">
        <ele>843.93</ele>
        <time>2022-08-13T06:57:54.000Z</time>
      </trkpt>
      <trkpt lat="45.38622" lon="5.93172">
        <ele>841.84</ele>
        <time>2022-08-13T06:57:59.000Z</time>
      </trkpt>
      <trkpt lat="45.38649" lon="5.93203">
        <ele>839.11</ele>
        <time>2022-08-13T06:58:04.000Z</time>
      </trkpt>
      <trkpt lat="45.38694" lon="5.93242">
        <ele>832.84</ele>
        <time>2022-08-13T06:58:09.000Z</time>
      </trkpt>
      <trkpt lat="45.38738" lon="5.93295">
        <ele>832.71</ele>
        <time>2022-08-13T06:58:14.000Z</time>
      </trkpt>
      <trkpt lat="45.38759" lon="5.93277">
        <ele>832.5</ele>
        <time>2022-08-13T06:58:19.000Z</time>
      </trkpt>
      <trkpt lat="45.38784" lon="5.93279">
        <ele>823.51</ele>
        <time>2022-08-13T06:58:24.000Z</time>
      </trkpt>
      <trkpt lat="45.38809" lon="5.93317">
        <ele>819.82</ele>
        <time>2022-08-13T06:58:29.000Z</time>
      </trkpt>
      <trkpt lat="45.38856" lon="5.93354">
        <ele>813.35</ele>
        <time>2022-08-13T06:58:34.000Z</time>
      </trkpt>
      <trkpt lat="45.38907" lon="5.93385">
        <ele>813.44</ele>
        <time>2022-08-13T06:58:39.000Z</time>
      </trkpt>
      <trkpt lat="45.38958" lon="5.93411">
        <ele>806.49</ele>
        <time>2022-08-13T06:58:44.000Z</time>
      </trkpt>
      <trkpt lat="45.38976" lon="5.93378">
        <ele>799.67</ele>
        <time>2022-08-13T06:58:49.000Z</time>
      </trkpt>
      <trkpt lat="45.38987" lon="5.93321">
        <ele>798.29</ele>
        <time>2022-08-13T06:58:54.000Z</time>
      </trkpt>
      <trkpt lat="45.39015" lon="5.9334">
        <ele>797.39</ele>
        <time>2022-08-13T06:58:59.000Z</time>
      </trkpt>
      <trkpt lat="45.39035" lon="5.93386">
        <ele>793.14</ele>
        <time>2022-08-13T06:59:04.000Z</time>
      </trkpt>
      <trkpt lat="45.39056" lon="5.93432">
        <ele>789.01</ele>
        <time>2022-08-13T06:59:09.000Z</time>
      </trkpt>
      <trkpt lat="45.39063" lon="5.9348">
        <ele>788.76</ele>
        <time>2022-08-13T06:59:14.000Z</time>
      </trkpt>
      <trkpt lat="45.39081" lon="5.93529">
        <ele>790.01</ele>
        <time>2022-08-13T06:59:19.000Z</time>
      </trkpt>
      <trkpt lat="45.39109" lon="5.93556">
        <ele>789.35</ele>
        <time>2022-08-13T06:59:24.000Z</time>
      </trkpt>
      <trkpt lat="45.39141" lon="5.93581">
        <ele>786.29</ele>
        <time>2022-08-13T06:59:29.000Z</time>
      </trkpt>
      <trkpt lat="45.39169" lon="5.93612">
        <ele>788.84</ele>
        <time>2022-08-13T06:59:34.000Z</time>
      </trkpt>
      <trkpt lat="45.39196" lon="5.93645">
        <ele>788.11</ele>
        <time>2022-08-13T06:59:39.000Z</time>
      </trkpt>
      <trkpt lat="45.39222" lon="5.9368">
        <ele>786.6</ele>
        <time>2022-08-13T06:59:44.000Z</time>
      </trkpt>
      <trkpt lat="45.39253" lon="5.93704">
        <ele>787.03</ele>
        <time>2022-08-13T06:59:49.000Z</time>
      </trkpt>
      <trkpt lat="45.39289" lon="5.93716">
        <ele>783.91</ele>
        <time>2022-08-13T06:59:54.000Z</time>
      </trkpt>
      <trkpt lat="45.39323" lon="5.93722">
        <ele>780.43</ele>
        <time>2022-08-13T06:59:59.000Z</time>
      </trkpt>
      <trkpt lat="45.39359" lon="5.9372">
        <ele>776.94</ele>
        <time>2022-08-13T07:00:04.000Z</time>
      </trkpt>
      <trkpt lat="45.39395" lon="5.9371">
        <ele>776.46</ele>
        <time>2022-08-13T07:00:09.000Z</time>
      </trkpt>
      <trkpt lat="45.3942" lon="5.93685">
        <ele>774.83</ele>
        <time>2022-08-13T07:00:14.000Z</time>
      </trkpt>
      <trkpt lat="45.3943" lon="5.93648">
        <ele>772.13</ele>
        <time>2022-08-13T07:00:19.000Z</time>
      </trkpt>
      <trkpt lat="45.39445" lon="5.93618">
        <ele>774.2</ele>
        <time>2022-08-13T07:00:24.000Z</time>
      </trkpt>
      <trkpt lat="45.3947" lon="5.93608">
        <ele>778.58</ele>
        <time>2022-08-13T07:00:29.000Z</time>
      </trkpt>
      <trkpt lat="45.39494" lon="5.93597">
        <ele>780.68</ele>
        <time>2022-08-13T07:00:34.000Z</time>
      </trkpt>
      <trkpt lat="45.39516" lon="5.93606">
        <ele>785.22</ele>
        <time>2022-08-13T07:00:39.000Z</time>
      </trkpt>
      <trkpt lat="45.39526" lon="5.93635">
        <ele>782.91</ele>
        <time>2022-08-13T07:00:44.000Z</time>
      </trkpt>
      <trkpt lat="45.3953" lon="5.93669">
        <ele>783.79</ele>
        <time>2022-08-13T07:00:49.000Z</time>
      </trkpt>
      <trkpt lat="45.39547" lon="5.93698">
        <ele>787.53</ele>
        <time>2022-08-13T07:00:54.000Z</time>
      </trkpt>
      <trkpt lat="45.39572" lon="5.93711">
        <ele>789.31</ele>
        <time>2022-08-13T07:00:59.000Z</time>
      </trkpt>
      <trkpt lat="45.39597" lon="5.93731">
        <ele>788.4</ele>
        <time>2022-08-13T07:01:04.000Z</time>
      </trkpt>
      <trkpt lat="45.39618" lon="5.93749">
        <ele>788.69</ele>
        <time>2022-08-13T07:01:09.000Z</time>
      </trkpt>
      <trkpt lat="45.3963" lon="5.93783">
        <ele>787.77</ele>
        <time>2022-08-13T07:01:14.000Z</time>
      </trkpt>
      <trkpt lat="45.39616" lon="5.93807">
        <ele>782.18</ele>
        <time>2022-08-13T07:01:19.000Z</time>
      </trkpt>
      <trkpt lat="45.39594" lon="5.93829">
        <ele>778.79</ele>
        <time>2022-08-13T07:01:24.000Z</time>
      </trkpt>
      <trkpt lat="45.3957" lon="5.93849">
        <ele>780.06</ele>
        <time>2022-08-13T07:01:29.000Z</time>
      </trkpt>
      <trkpt lat="45.39557" lon="5.9387">
        <ele>779.09</ele>
        <time>2022-08-13T07:01:34.000Z</time>
      </trkpt>
      <trkpt lat="45.39563" lon="5.93904">
        <ele>776.89</ele>
        <time>2022-08-13T07:01:39.000Z</time>
      </trkpt>
      <trkpt lat="45.39569" lon="5.93925">
        <ele>779.85</ele>
        <time>2022-08-13T07:01:44.000Z</time>
      </trkpt>
      <trkpt lat="45.39571" lon="5.93944">
        <ele>783.34</ele>
        <time>2022-08-13T07:01:49.000Z</time>
      </trkpt>
      <trkpt lat="45.39557" lon="5.9395">
        <ele>780.67</ele>
        <time>2022-08-13T07:01:54.000Z</time>
      </trkpt>
      <trkpt lat="45.39539" lon="5.93952">
        <ele>782.25</ele>
        <time>2022-08-13T07:01:59.000Z</time>
      </trkpt>
      <trkpt lat="45.39516" lon="5.93974">
        <ele>779.79</ele>
        <time>2022-08-13T07:02:04.000Z</time>
      </trkpt>
      <trkpt lat="45.39497" lon="5.93997">
        <ele>780.62</ele>
        <time>2022-08-13T07:02:09.000Z</time>
      </trkpt>
      <trkpt lat="45.39484" lon="5.94029">
        <ele>775.46</ele>
        <time>2022-08-13T07:02:14.000Z</time>
      </trkpt>
      <trkpt lat="45.39479" lon="5.94069">
        <ele>775.41</ele>
        <time>2022-08-13T07:02:19.000Z</time>
      </trkpt>
      <trkpt lat="45.39451" lon="5.94097">
        <ele>778.35</ele>
        <time>2022-08-13T07:02:24.000Z</time>
      </trkpt>
      <trkpt lat="45.39421" lon="5.94107">
        <ele>781.99</ele>
        <time>2022-08-13T07:02:29.000Z</time>
      </trkpt>
      <trkpt lat="45.39393" lon="5.94139">
        <ele>778.53</ele>
        <time>2022-08-13T07:02:34.000Z</time>
      </trkpt>
      <trkpt lat="45.39372" lon="5.94164">
        <ele>773.41</ele>
        <time>2022-08-13T07:02:39.000Z</time>
      </trkpt>
      <trkpt lat="45.39355" lon="5.94175">
        <ele>774.93</ele>
        <time>2022-08-13T07:02:44.000Z</time>
      </trkpt>
      <trkpt lat="45.39344" lon="5.9419">
        <ele>774.5</ele>
        <time>2022-08-13T07:02:49.000Z</time>
      </trkpt>
      <trkpt lat="45.39352" lon="5.94216">
        <ele>781.37</ele>
        <time>2022-08-13T07:02:54.000Z</time>
      </trkpt>
      <trkpt lat="45.39368" lon="5.9423">
        <ele>782.2</ele>
        <time>2022-08-13T07:02:59.000Z</time>
      </trkpt>
      <trkpt lat="45.39383" lon="5.94244">
        <ele>782.64</ele>
        <time>2022-08-13T07:03:04.000Z</time>
      </trkpt>
      <trkpt lat="45.3939" lon="5.94267">
        <ele>782.66</ele>
        <time>2022-08-13T07:03:09.000Z</time>
      </trkpt>
      <trkpt lat="45.39395" lon="5.94291">
        <ele>783.51</ele>
        <time>2022-08-13T07:03:14.000Z</time>
      </trkpt>
      <trkpt lat="45.39401" lon="5.94313">
        <ele>783.84</ele>
        <time>2022-08-13T07:03:19.000Z</time>
      </trkpt>
      <trkpt lat="45.3941" lon="5.94335">
        <ele>785.87</ele>
        <time>2022-08-13T07:03:24.000Z</time>
      </trkpt>
      <trkpt lat="45.39419" lon="5.94357">
        <ele>789</ele>
        <time>2022-08-13T07:03:29.000Z</time>
      </trkpt>
      <trkpt lat="45.39426" lon="5.9438">
        <ele>791.51</ele>
        <time>2022-08-13T07:03:34.000Z</time>
      </trkpt>
      <trkpt lat="45.39428" lon="5.94404">
        <ele>792.82</ele>
        <time>2022-08-13T07:03:39.000Z</time>
      </trkpt>
      <trkpt lat="45.3943" lon="5.94429">
        <ele>795.47</ele>
        <time>2022-08-13T07:03:44.000Z</time>
      </trkpt>
      <trkpt lat="45.39433" lon="5.94451">
        <ele>795.98</ele>
        <time>2022-08-13T07:03:49.000Z</time>
      </trkpt>
      <trkpt lat="45.39439" lon="5.94473">
        <ele>798.53</ele>
        <time>2022-08-13T07:03:54.000Z</time>
      </trkpt>
      <trkpt lat="45.39446" lon="5.94496">
        <ele>798.07</ele>
        <time>2022-08-13T07:03:59.000Z</time>
      </trkpt>
      <trkpt lat="45.39455" lon="5.94516">
        <ele>801.16</ele>
        <time>2022-08-13T07:04:04.000Z</time>
      </trkpt>
      <trkpt lat="45.39467" lon="5.94534">
        <ele>804.15</ele>
        <time>2022-08-13T07:04:09.000Z</time>
      </trkpt>
      <trkpt lat="45.39478" lon="5.94553">
        <ele>807.75</ele>
        <time>2022-08-13T07:04:14.000Z</time>
      </trkpt>
      <trkpt lat="45.39489" lon="5.94574">
        <ele>809.24</ele>
        <time>2022-08-13T07:04:19.000Z</time>
      </trkpt>
      <trkpt lat="45.39505" lon="5.94583">
        <ele>811.04</ele>
        <time>2022-08-13T07:04:24.000Z</time>
      </trkpt>
      <trkpt lat="45.39516" lon="5.94561">
        <ele>807.27</ele>
        <time>2022-08-13T07:04:29.000Z</time>
      </trkpt>
      <trkpt lat="45.3951" lon="5.94531">
        <ele>805.29</ele>
        <time>2022-08-13T07:04:34.000Z</time>
      </trkpt>
      <trkpt lat="45.39507" lon="5.94501">
        <ele>806.17</ele>
        <time>2022-08-13T07:04:39.000Z</time>
      </trkpt>
      <trkpt lat="45.39502" lon="5.9447">
        <ele>805.21</ele>
        <time>2022-08-13T07:04:44.000Z</time>
      </trkpt>
      <trkpt lat="45.39498" lon="5.94436">
        <ele>807.08</ele>
        <time>2022-08-13T07:04:49.000Z</time>
      </trkpt>
      <trkpt lat="45.39495" lon="5.94396">
        <ele>806.72</ele>
        <time>2022-08-13T07:04:54.000Z</time>
      </trkpt>
      <trkpt lat="45.39487" lon="5.94357">
        <ele>807.74</ele>
        <time>2022-08-13T07:04:59.000Z</time>
      </trkpt>
      <trkpt lat="45.3948" lon="5.94319">
        <ele>808.61</ele>
        <time>2022-08-13T07:05:04.000Z</time>
      </trkpt>
      <trkpt lat="45.39482" lon="5.94291">
        <ele>810.45</ele>
        <time>2022-08-13T07:05:09.000Z</time>
      </trkpt>
      <trkpt lat="45.39493" lon="5.94273">
        <ele>811.77</ele>
        <time>2022-08-13T07:05:14.000Z</time>
      </trkpt>
      <trkpt lat="45.39509" lon="5.94265">
        <ele>809.99</ele>
        <time>2022-08-13T07:05:19.000Z</time>
      </trkpt>
      <trkpt lat="45.39525" lon="5.94256">
        <ele>813.67</ele>
        <time>2022-08-13T07:05:24.000Z</time>
      </trkpt>
      <trkpt lat="45.39541" lon="5.94246">
        <ele>817.77</ele>
        <time>2022-08-13T07:05:29.000Z</time>
      </trkpt>
      <trkpt lat="45.39555" lon="5.94231">
        <ele>818.94</ele>
        <time>2022-08-13T07:05:34.000Z</time>
      </trkpt>
      <trkpt lat="45.39567" lon="5.94212">
        <ele>822.38</ele>
        <time>2022-08-13T07:05:39.000Z</time>
      </trkpt>
      <trkpt lat="45.39579" lon="5.94191">
        <ele>825.89</ele>
        <time>2022-08-13T07:05:44.000Z</time>
      </trkpt>
      <trkpt lat="45.39589" lon="5.94169">
        <ele>827.63</ele>
        <time>2022-08-13T07:05:49.000Z</time>
      </trkpt>
      <trkpt lat="45.39597" lon="5.94147">
        <ele>826.7</ele>
        <time>2022-08-13T07:05:54.000Z</time>
      </trkpt>
      <trkpt lat="45.39606" lon="5.94126">
        <ele>828.86</ele>
        <time>2022-08-13T07:05:59.000Z</time>
      </trkpt>
      <trkpt lat="45.39619" lon="5.94109">
        <ele>832.2</ele>
        <time>2022-08-13T07:06:04.000Z</time>
      </trkpt>
      <trkpt lat="45.3963" lon="5.94126">
        <ele>832.94</ele>
        <time>2022-08-13T07:06:09.000Z</time>
      </trkpt>
      <trkpt lat="45.3962" lon="5.94149">
        <ele>832.11</ele>
        <time>2022-08-13T07:06:14.000Z</time>
      </trkpt>
      <trkpt lat="45.39613" lon="5.94173">
        <ele>833.45</ele>
        <time>2022-08-13T07:06:19.000Z</time>
      </trkpt>
      <trkpt lat="45.39616" lon="5.94198">
        <ele>834.41</ele>
        <time>2022-08-13T07:06:24.000Z</time>
      </trkpt>
      <trkpt lat="45.39622" lon="5.94221">
        <ele>838.09</ele>
        <time>2022-08-13T07:06:29.000Z</time>
      </trkpt>
      <trkpt lat="45.39627" lon="5.94242">
        <ele>838.18</ele>
        <time>2022-08-13T07:06:34.000Z</time>
      </trkpt>
      <trkpt lat="45.39632" lon="5.94264">
        <ele>839.78</ele>
        <time>2022-08-13T07:06:39.000Z</time>
      </trkpt>
      <trkpt lat="45.39636" lon="5.9429">
        <ele>842.25</ele>
        <time>2022-08-13T07:06:44.000Z</time>
      </trkpt>
      <trkpt lat="45.39639" lon="5.94315">
        <ele>844.16</ele>
        <time>2022-08-13T07:06:49.000Z</time>
      </trkpt>
      <trkpt lat="45.39641" lon="5.94341">
        <ele>846.83</ele>
        <time>2022-08-13T07:06:54.000Z</time>
      </trkpt>
      <trkpt lat="45.39643" lon="5.94366">
        <ele>849.26</ele>
        <time>2022-08-13T07:06:59.000Z</time>
      </trkpt>
      <trkpt lat="45.39642" lon="5.94391">
        <ele>854.38</ele>
        <time>2022-08-13T07:07:04.000Z</time>
      </trkpt>
      <trkpt lat="45.3964" lon="5.94417">
        <ele>856.11</ele>
        <time>2022-08-13T07:07:09.000Z</time>
      </trkpt>
      <trkpt lat="45.39636" lon="5.94443">
        <ele>860.13</ele>
        <time>2022-08-13T07:07:14.000Z</time>
      </trkpt>
      <trkpt lat="45.39636" lon="5.94467">
        <ele>859.62</ele>
        <time>2022-08-13T07:07:19.000Z</time>
      </trkpt>
      <trkpt lat="45.39649" lon="5.9448">
        <ele>859.16</ele>
        <time>2022-08-13T07:07:24.000Z</time>
      </trkpt>
      <trkpt lat="45.39668" lon="5.94469">
        <ele>863.12</ele>
        <time>2022-08-13T07:07:29.000Z</time>
      </trkpt>
      <trkpt lat="45.39682" lon="5.94451">
        <ele>868.06</ele>
        <time>2022-08-13T07:07:34.000Z</time>
      </trkpt>
      <trkpt lat="45.39698" lon="5.94435">
        <ele>871.64</ele>
        <time>2022-08-13T07:07:39.000Z</time>
      </trkpt>
      <trkpt lat="45.39712" lon="5.9442">
        <ele>873.87</ele>
        <time>2022-08-13T07:07:44.000Z</time>
      </trkpt>
      <trkpt lat="45.39725" lon="5.94403">
        <ele>873.76</ele>
        <time>2022-08-13T07:07:49.000Z</time>
      </trkpt>
      <trkpt lat="45.39739" lon="5.9439">
        <ele>872.58</ele>
        <time>2022-08-13T07:07:54.000Z</time>
      </trkpt>
      <trkpt lat="45.39754" lon="5.94377">
        <ele>874.86</ele>
        <time>2022-08-13T07:07:59.000Z</time>
      </trkpt>
      <trkpt lat="45.39769" lon="5.94364">
        <ele>875.96</ele>
        <time>2022-08-13T07:08:04.000Z</time>
      </trkpt>
      <trkpt lat="45.39785" lon="5.94352">
        <ele>877.38</ele>
        <time>2022-08-13T07:08:09.000Z</time>
      </trkpt>
      <trkpt lat="45.398" lon="5.94341">
        <ele>878.19</ele>
        <time>2022-08-13T07:08:14.000Z</time>
      </trkpt>
      <trkpt lat="45.39816" lon="5.94334">
        <ele>880.52</ele>
        <time>2022-08-13T07:08:19.000Z</time>
      </trkpt>
      <trkpt lat="45.39834" lon="5.94335">
        <ele>884.56</ele>
        <time>2022-08-13T07:08:24.000Z</time>
      </trkpt>
      <trkpt lat="45.39852" lon="5.94341">
        <ele>888.96</ele>
        <time>2022-08-13T07:08:29.000Z</time>
      </trkpt>
      <trkpt lat="45.3987" lon="5.94352">
        <ele>893.22</ele>
        <time>2022-08-13T07:08:34.000Z</time>
      </trkpt>
      <trkpt lat="45.39886" lon="5.94366">
        <ele>894.18</ele>
        <time>2022-08-13T07:08:39.000Z</time>
      </trkpt>
      <trkpt lat="45.39904" lon="5.94377">
        <ele>897.5</ele>
        <time>2022-08-13T07:08:44.000Z</time>
      </trkpt>
      <trkpt lat="45.39924" lon="5.94391">
        <ele>896.06</ele>
        <time>2022-08-13T07:08:49.000Z</time>
      </trkpt>
      <trkpt lat="45.39947" lon="5.94406">
        <ele>895.76</ele>
        <time>2022-08-13T07:08:54.000Z</time>
      </trkpt>
      <trkpt lat="45.39973" lon="5.94421">
        <ele>898.99</ele>
        <time>2022-08-13T07:08:59.000Z</time>
      </trkpt>
      <trkpt lat="45.39999" lon="5.94438">
        <ele>898.64</ele>
        <time>2022-08-13T07:09:04.000Z</time>
      </trkpt>
      <trkpt lat="45.40027" lon="5.94458">
        <ele>898.41</ele>
        <time>2022-08-13T07:09:09.000Z</time>
      </trkpt>
      <trkpt lat="45.40054" lon="5.94477">
        <ele>898.32</ele>
        <time>2022-08-13T07:09:14.000Z</time>
      </trkpt>
      <trkpt lat="45.40081" lon="5.94495">
        <ele>897.75</ele>
        <time>2022-08-13T07:09:19.000Z</time>
      </trkpt>
      <trkpt lat="45.40111" lon="5.94511">
        <ele>901.05</ele>
        <time>2022-08-13T07:09:24.000Z</time>
      </trkpt>
      <trkpt lat="45.40145" lon="5.94528">
        <ele>903.45</ele>
        <time>2022-08-13T07:09:29.000Z</time>
      </trkpt>
      <trkpt lat="45.40175" lon="5.94536">
        <ele>908.55</ele>
        <time>2022-08-13T07:09:34.000Z</time>
      </trkpt>
      <trkpt lat="45.40196" lon="5.94542">
        <ele>908.64</ele>
        <time>2022-08-13T07:09:39.000Z</time>
      </trkpt>
      <trkpt lat="45.40216" lon="5.94548">
        <ele>911.36</ele>
        <time>2022-08-13T07:09:44.000Z</time>
      </trkpt>
      <trkpt lat="45.40234" lon="5.94554">
        <ele>914.18</ele>
        <time>2022-08-13T07:09:49.000Z</time>
      </trkpt>
      <trkpt lat="45.40252" lon="5.9456">
        <ele>914.24</ele>
        <time>2022-08-13T07:09:54.000Z</time>
      </trkpt>
      <trkpt lat="45.40269" lon="5.94565">
        <ele>913.05</ele>
        <time>2022-08-13T07:09:59.000Z</time>
      </trkpt>
      <trkpt lat="45.40287" lon="5.94571">
        <ele>912.85</ele>
        <time>2022-08-13T07:10:04.000Z</time>
      </trkpt>
      <trkpt lat="45.40305" lon="5.94576">
        <ele>912.02</ele>
        <time>2022-08-13T07:10:09.000Z</time>
      </trkpt>
      <trkpt lat="45.40322" lon="5.94583">
        <ele>913.29</ele>
        <time>2022-08-13T07:10:14.000Z</time>
      </trkpt>
      <trkpt lat="45.40343" lon="5.94588">
        <ele>916.53</ele>
        <time>2022-08-13T07:10:19.000Z</time>
      </trkpt>
      <trkpt lat="45.40364" lon="5.94594">
        <ele>916.06</ele>
        <time>2022-08-13T07:10:24.000Z</time>
      </trkpt>
      <trkpt lat="45.40386" lon="5.94599">
        <ele>916.73</ele>
        <time>2022-08-13T07:10:29.000Z</time>
      </trkpt>
      <trkpt lat="45.40408" lon="5.94607">
        <ele>917.98</ele>
        <time>2022-08-13T07:10:34.000Z</time>
      </trkpt>
      <trkpt lat="45.4043" lon="5.94613">
        <ele>919.72</ele>
        <time>2022-08-13T07:10:39.000Z</time>
      </trkpt>
      <trkpt lat="45.40449" lon="5.9462">
        <ele>920.87</ele>
        <time>2022-08-13T07:10:44.000Z</time>
      </trkpt>
      <trkpt lat="45.40469" lon="5.94622">
        <ele>922.32</ele>
        <time>2022-08-13T07:10:49.000Z</time>
      </trkpt>
      <trkpt lat="45.40493" lon="5.94619">
        <ele>923.95</ele>
        <time>2022-08-13T07:10:54.000Z</time>
      </trkpt>
      <trkpt lat="45.40516" lon="5.94616">
        <ele>925.94</ele>
        <time>2022-08-13T07:10:59.000Z</time>
      </trkpt>
      <trkpt lat="45.40539" lon="5.94617">
        <ele>927.01</ele>
        <time>2022-08-13T07:11:04.000Z</time>
      </trkpt>
      <trkpt lat="45.40557" lon="5.94618">
        <ele>926.1</ele>
        <time>2022-08-13T07:11:09.000Z</time>
      </trkpt>
      <trkpt lat="45.40583" lon="5.94617">
        <ele>924.32</ele>
        <time>2022-08-13T07:11:14.000Z</time>
      </trkpt>
      <trkpt lat="45.40604" lon="5.9462">
        <ele>925.42</ele>
        <time>2022-08-13T07:11:19.000Z</time>
      </trkpt>
      <trkpt lat="45.40626" lon="5.94621">
        <ele>923.46</ele>
        <time>2022-08-13T07:11:24.000Z</time>
      </trkpt>
      <trkpt lat="45.4065" lon="5.94625">
        <ele>926.54</ele>
        <time>2022-08-13T07:11:29.000Z</time>
      </trkpt>
      <trkpt lat="45.4067" lon="5.94627">
        <ele>926.9</ele>
        <time>2022-08-13T07:11:34.000Z</time>
      </trkpt>
      <trkpt lat="45.4069" lon="5.94635">
        <ele>926.24</ele>
        <time>2022-08-13T07:11:39.000Z</time>
      </trkpt>
      <trkpt lat="45.4071" lon="5.94646">
        <ele>929.3</ele>
        <time>2022-08-13T07:11:44.000Z</time>
      </trkpt>
      <trkpt lat="45.40729" lon="5.94657">
        <ele>933.41</ele>
        <time>2022-08-13T07:11:49.000Z</time>
      </trkpt>
      <trkpt lat="45.40748" lon="5.94667">
        <ele>937.91</ele>
        <time>2022-08-13T07:11:54.000Z</time>
      </trkpt>
      <trkpt lat="45.40768" lon="5.94678">
        <ele>940.34</ele>
        <time>2022-08-13T07:11:59.000Z</time>
      </trkpt>
      <trkpt lat="45.40788" lon="5.94689">
        <ele>938.79</ele>
        <time>2022-08-13T07:12:04.000Z</time>
      </trkpt>
      <trkpt lat="45.4081" lon="5.94699">
        <ele>938.79</ele>
        <time>2022-08-13T07:12:09.000Z</time>
      </trkpt>
      <trkpt lat="45.40832" lon="5.9471">
        <ele>940.71</ele>
        <time>2022-08-13T07:12:14.000Z</time>
      </trkpt>
      <trkpt lat="45.40851" lon="5.94717">
        <ele>938.8</ele>
        <time>2022-08-13T07:12:19.000Z</time>
      </trkpt>
      <trkpt lat="45.40871" lon="5.94727">
        <ele>940.23</ele>
        <time>2022-08-13T07:12:24.000Z</time>
      </trkpt>
      <trkpt lat="45.40888" lon="5.94739">
        <ele>935.47</ele>
        <time>2022-08-13T07:12:29.000Z</time>
      </trkpt>
      <trkpt lat="45.40905" lon="5.94752">
        <ele>938.39</ele>
        <time>2022-08-13T07:12:34.000Z</time>
      </trkpt>
      <trkpt lat="45.40914" lon="5.94756">
        <ele>949.56</ele>
        <time>2022-08-13T07:15:36.000Z</time>
      </trkpt>
      <trkpt lat="45.40924" lon="5.94761">
        <ele>950.89</ele>
        <time>2022-08-13T07:15:45.000Z</time>
      </trkpt>
      <trkpt lat="45.4094" lon="5.94771">
        <ele>950.26</ele>
        <time>2022-08-13T07:15:50.000Z</time>
      </trkpt>
      <trkpt lat="45.40958" lon="5.94777">
        <ele>948.76</ele>
        <time>2022-08-13T07:15:55.000Z</time>
      </trkpt>
      <trkpt lat="45.40977" lon="5.94784">
        <ele>947.53</ele>
        <time>2022-08-13T07:16:00.000Z</time>
      </trkpt>
      <trkpt lat="45.40995" lon="5.94793">
        <ele>946.57</ele>
        <time>2022-08-13T07:16:05.000Z</time>
      </trkpt>
      <trkpt lat="45.41014" lon="5.94799">
        <ele>946.2</ele>
        <time>2022-08-13T07:16:10.000Z</time>
      </trkpt>
      <trkpt lat="45.41031" lon="5.94781">
        <ele>946.38</ele>
        <time>2022-08-13T07:16:15.000Z</time>
      </trkpt>
      <trkpt lat="45.41056" lon="5.94776">
        <ele>943.97</ele>
        <time>2022-08-13T07:16:20.000Z</time>
      </trkpt>
      <trkpt lat="45.41068" lon="5.94796">
        <ele>942.58</ele>
        <time>2022-08-13T07:16:25.000Z</time>
      </trkpt>
      <trkpt lat="45.41086" lon="5.94818">
        <ele>939.17</ele>
        <time>2022-08-13T07:16:30.000Z</time>
      </trkpt>
      <trkpt lat="45.41125" lon="5.94831">
        <ele>942.47</ele>
        <time>2022-08-13T07:16:35.000Z</time>
      </trkpt>
      <trkpt lat="45.41141" lon="5.94862">
        <ele>945.05</ele>
        <time>2022-08-13T07:16:40.000Z</time>
      </trkpt>
      <trkpt lat="45.41152" lon="5.94904">
        <ele>944.37</ele>
        <time>2022-08-13T07:16:45.000Z</time>
      </trkpt>
      <trkpt lat="45.41177" lon="5.94946">
        <ele>942.34</ele>
        <time>2022-08-13T07:16:50.000Z</time>
      </trkpt>
      <trkpt lat="45.41205" lon="5.94981">
        <ele>943.36</ele>
        <time>2022-08-13T07:16:55.000Z</time>
      </trkpt>
      <trkpt lat="45.41235" lon="5.94971">
        <ele>942.54</ele>
        <time>2022-08-13T07:17:00.000Z</time>
      </trkpt>
      <trkpt lat="45.41265" lon="5.9495">
        <ele>942.64</ele>
        <time>2022-08-13T07:17:05.000Z</time>
      </trkpt>
      <trkpt lat="45.41276" lon="5.94978">
        <ele>940.95</ele>
        <time>2022-08-13T07:17:10.000Z</time>
      </trkpt>
      <trkpt lat="45.41261" lon="5.95025">
        <ele>940.02</ele>
        <time>2022-08-13T07:17:15.000Z</time>
      </trkpt>
      <trkpt lat="45.41254" lon="5.95081">
        <ele>936.95</ele>
        <time>2022-08-13T07:17:20.000Z</time>
      </trkpt>
      <trkpt lat="45.41272" lon="5.95128">
        <ele>936</ele>
        <time>2022-08-13T07:17:25.000Z</time>
      </trkpt>
      <trkpt lat="45.41316" lon="5.9515">
        <ele>937.96</ele>
        <time>2022-08-13T07:17:30.000Z</time>
      </trkpt>
      <trkpt lat="45.41353" lon="5.95168">
        <ele>936.91</ele>
        <time>2022-08-13T07:17:35.000Z</time>
      </trkpt>
      <trkpt lat="45.41381" lon="5.95177">
        <ele>936.57</ele>
        <time>2022-08-13T07:17:40.000Z</time>
      </trkpt>
      <trkpt lat="45.41409" lon="5.95173">
        <ele>935.1</ele>
        <time>2022-08-13T07:17:45.000Z</time>
      </trkpt>
      <trkpt lat="45.41426" lon="5.95189">
        <ele>938.91</ele>
        <time>2022-08-13T07:17:50.000Z</time>
      </trkpt>
      <trkpt lat="45.41437" lon="5.95211">
        <ele>939.71</ele>
        <time>2022-08-13T07:17:55.000Z</time>
      </trkpt>
      <trkpt lat="45.41457" lon="5.95217">
        <ele>937.54</ele>
        <time>2022-08-13T07:18:00.000Z</time>
      </trkpt>
      <trkpt lat="45.41472" lon="5.95237">
        <ele>934.9</ele>
        <time>2022-08-13T07:18:05.000Z</time>
      </trkpt>
      <trkpt lat="45.41481" lon="5.95266">
        <ele>932.55</ele>
        <time>2022-08-13T07:18:10.000Z</time>
      </trkpt>
      <trkpt lat="45.41496" lon="5.95288">
        <ele>937.37</ele>
        <time>2022-08-13T07:18:15.000Z</time>
      </trkpt>
      <trkpt lat="45.41516" lon="5.95303">
        <ele>936.52</ele>
        <time>2022-08-13T07:18:20.000Z</time>
      </trkpt>
      <trkpt lat="45.41534" lon="5.95318">
        <ele>937.98</ele>
        <time>2022-08-13T07:18:25.000Z</time>
      </trkpt>
      <trkpt lat="45.41552" lon="5.95332">
        <ele>941.59</ele>
        <time>2022-08-13T07:18:30.000Z</time>
      </trkpt>
      <trkpt lat="45.41567" lon="5.95347">
        <ele>942.59</ele>
        <time>2022-08-13T07:18:35.000Z</time>
      </trkpt>
      <trkpt lat="45.41591" lon="5.95361">
        <ele>945.52</ele>
        <time>2022-08-13T07:18:40.000Z</time>
      </trkpt>
      <trkpt lat="45.4161" lon="5.95382">
        <ele>945.97</ele>
        <time>2022-08-13T07:18:45.000Z</time>
      </trkpt>
      <trkpt lat="45.41625" lon="5.95406">
        <ele>941.91</ele>
        <time>2022-08-13T07:18:50.000Z</time>
      </trkpt>
      <trkpt lat="45.41641" lon="5.95439">
        <ele>944.36</ele>
        <time>2022-08-13T07:18:55.000Z</time>
      </trkpt>
      <trkpt lat="45.41655" lon="5.95467">
        <ele>944.5</ele>
        <time>2022-08-13T07:19:00.000Z</time>
      </trkpt>
      <trkpt lat="45.41672" lon="5.95491">
        <ele>945.43</ele>
        <time>2022-08-13T07:19:05.000Z</time>
      </trkpt>
      <trkpt lat="45.41688" lon="5.95512">
        <ele>943.19</ele>
        <time>2022-08-13T07:19:10.000Z</time>
      </trkpt>
      <trkpt lat="45.41705" lon="5.9553">
        <ele>942.53</ele>
        <time>2022-08-13T07:19:15.000Z</time>
      </trkpt>
      <trkpt lat="45.41723" lon="5.95551">
        <ele>944.05</ele>
        <time>2022-08-13T07:19:20.000Z</time>
      </trkpt>
      <trkpt lat="45.41742" lon="5.95573">
        <ele>946.96</ele>
        <time>2022-08-13T07:19:25.000Z</time>
      </trkpt>
      <trkpt lat="45.4176" lon="5.95593">
        <ele>947.41</ele>
        <time>2022-08-13T07:19:30.000Z</time>
      </trkpt>
      <trkpt lat="45.41776" lon="5.95614">
        <ele>947.11</ele>
        <time>2022-08-13T07:19:35.000Z</time>
      </trkpt>
      <trkpt lat="45.4179" lon="5.95639">
        <ele>946.27</ele>
        <time>2022-08-13T07:19:40.000Z</time>
      </trkpt>
      <trkpt lat="45.41817" lon="5.95666">
        <ele>946.19</ele>
        <time>2022-08-13T07:19:45.000Z</time>
      </trkpt>
      <trkpt lat="45.4185" lon="5.9568">
        <ele>944.86</ele>
        <time>2022-08-13T07:19:50.000Z</time>
      </trkpt>
      <trkpt lat="45.41856" lon="5.95716">
        <ele>941.97</ele>
        <time>2022-08-13T07:19:55.000Z</time>
      </trkpt>
      <trkpt lat="45.41864" lon="5.95739">
        <ele>938.82</ele>
        <time>2022-08-13T07:20:00.000Z</time>
      </trkpt>
      <trkpt lat="45.41876" lon="5.95761">
        <ele>938.69</ele>
        <time>2022-08-13T07:20:05.000Z</time>
      </trkpt>
      <trkpt lat="45.41887" lon="5.95781">
        <ele>938.73</ele>
        <time>2022-08-13T07:20:10.000Z</time>
      </trkpt>
      <trkpt lat="45.41899" lon="5.95795">
        <ele>938.59</ele>
        <time>2022-08-13T07:20:15.000Z</time>
      </trkpt>
      <trkpt lat="45.41911" lon="5.95812">
        <ele>939.28</ele>
        <time>2022-08-13T07:20:20.000Z</time>
      </trkpt>
      <trkpt lat="45.41923" lon="5.95838">
        <ele>938.71</ele>
        <time>2022-08-13T07:20:25.000Z</time>
      </trkpt>
      <trkpt lat="45.41937" lon="5.95866">
        <ele>940</ele>
        <time>2022-08-13T07:20:30.000Z</time>
      </trkpt>
      <trkpt lat="45.41961" lon="5.95882">
        <ele>941.08</ele>
        <time>2022-08-13T07:20:35.000Z</time>
      </trkpt>
      <trkpt lat="45.41988" lon="5.95892">
        <ele>940.35</ele>
        <time>2022-08-13T07:20:40.000Z</time>
      </trkpt>
      <trkpt lat="45.42012" lon="5.95924">
        <ele>938.52</ele>
        <time>2022-08-13T07:20:45.000Z</time>
      </trkpt>
      <trkpt lat="45.42049" lon="5.95954">
        <ele>936.09</ele>
        <time>2022-08-13T07:20:50.000Z</time>
      </trkpt>
      <trkpt lat="45.42085" lon="5.95955">
        <ele>934.61</ele>
        <time>2022-08-13T07:20:55.000Z</time>
      </trkpt>
      <trkpt lat="45.42106" lon="5.95909">
        <ele>936.82</ele>
        <time>2022-08-13T07:21:00.000Z</time>
      </trkpt>
      <trkpt lat="45.4213" lon="5.95873">
        <ele>933.81</ele>
        <time>2022-08-13T07:21:05.000Z</time>
      </trkpt>
      <trkpt lat="45.4216" lon="5.95885">
        <ele>935.77</ele>
        <time>2022-08-13T07:21:10.000Z</time>
      </trkpt>
      <trkpt lat="45.4216" lon="5.95917">
        <ele>936.1</ele>
        <time>2022-08-13T07:21:15.000Z</time>
      </trkpt>
      <trkpt lat="45.42155" lon="5.95951">
        <ele>935.03</ele>
        <time>2022-08-13T07:21:20.000Z</time>
      </trkpt>
      <trkpt lat="45.42155" lon="5.95978">
        <ele>932.77</ele>
        <time>2022-08-13T07:21:25.000Z</time>
      </trkpt>
      <trkpt lat="45.42153" lon="5.96005">
        <ele>930.8</ele>
        <time>2022-08-13T07:21:30.000Z</time>
      </trkpt>
      <trkpt lat="45.42156" lon="5.96033">
        <ele>934.04</ele>
        <time>2022-08-13T07:21:35.000Z</time>
      </trkpt>
      <trkpt lat="45.42168" lon="5.96057">
        <ele>937.15</ele>
        <time>2022-08-13T07:21:40.000Z</time>
      </trkpt>
      <trkpt lat="45.42185" lon="5.96071">
        <ele>937.39</ele>
        <time>2022-08-13T07:21:45.000Z</time>
      </trkpt>
      <trkpt lat="45.42206" lon="5.96075">
        <ele>944.8</ele>
        <time>2022-08-13T07:21:50.000Z</time>
      </trkpt>
      <trkpt lat="45.42232" lon="5.96078">
        <ele>945.99</ele>
        <time>2022-08-13T07:21:55.000Z</time>
      </trkpt>
      <trkpt lat="45.42247" lon="5.96077">
        <ele>942.09</ele>
        <time>2022-08-13T07:22:00.000Z</time>
      </trkpt>
      <trkpt lat="45.42269" lon="5.96081">
        <ele>947.14</ele>
        <time>2022-08-13T07:22:05.000Z</time>
      </trkpt>
      <trkpt lat="45.42293" lon="5.96084">
        <ele>951.33</ele>
        <time>2022-08-13T07:22:10.000Z</time>
      </trkpt>
      <trkpt lat="45.42315" lon="5.96085">
        <ele>953.19</ele>
        <time>2022-08-13T07:22:15.000Z</time>
      </trkpt>
      <trkpt lat="45.42335" lon="5.96089">
        <ele>955.42</ele>
        <time>2022-08-13T07:22:20.000Z</time>
      </trkpt>
      <trkpt lat="45.42355" lon="5.96086">
        <ele>952.98</ele>
        <time>2022-08-13T07:22:25.000Z</time>
      </trkpt>
      <trkpt lat="45.42374" lon="5.9608">
        <ele>957.49</ele>
        <time>2022-08-13T07:22:30.000Z</time>
      </trkpt>
      <trkpt lat="45.42397" lon="5.96067">
        <ele>959.76</ele>
        <time>2022-08-13T07:22:35.000Z</time>
      </trkpt>
      <trkpt lat="45.42417" lon="5.9606">
        <ele>962.77</ele>
        <time>2022-08-13T07:22:40.000Z</time>
      </trkpt>
      <trkpt lat="45.42438" lon="5.96053">
        <ele>963.16</ele>
        <time>2022-08-13T07:22:45.000Z</time>
      </trkpt>
      <trkpt lat="45.4246" lon="5.96047">
        <ele>964.97</ele>
        <time>2022-08-13T07:22:50.000Z</time>
      </trkpt>
      <trkpt lat="45.42483" lon="5.96037">
        <ele>963.33</ele>
        <time>2022-08-13T07:22:55.000Z</time>
      </trkpt>
      <trkpt lat="45.42506" lon="5.9603">
        <ele>963.34</ele>
        <time>2022-08-13T07:23:00.000Z</time>
      </trkpt>
      <trkpt lat="45.42526" lon="5.96025">
        <ele>965.59</ele>
        <time>2022-08-13T07:23:05.000Z</time>
      </trkpt>
      <trkpt lat="45.42545" lon="5.9602">
        <ele>968.93</ele>
        <time>2022-08-13T07:23:10.000Z</time>
      </trkpt>
      <trkpt lat="45.42566" lon="5.96014">
        <ele>970.28</ele>
        <time>2022-08-13T07:23:15.000Z</time>
      </trkpt>
      <trkpt lat="45.42585" lon="5.96009">
        <ele>970.95</ele>
        <time>2022-08-13T07:23:20.000Z</time>
      </trkpt>
      <trkpt lat="45.42607" lon="5.96004">
        <ele>969.13</ele>
        <time>2022-08-13T07:23:25.000Z</time>
      </trkpt>
      <trkpt lat="45.42629" lon="5.95997">
        <ele>968.88</ele>
        <time>2022-08-13T07:23:30.000Z</time>
      </trkpt>
      <trkpt lat="45.42656" lon="5.95986">
        <ele>968.99</ele>
        <time>2022-08-13T07:23:35.000Z</time>
      </trkpt>
      <trkpt lat="45.42683" lon="5.95977">
        <ele>967.69</ele>
        <time>2022-08-13T07:23:40.000Z</time>
      </trkpt>
      <trkpt lat="45.42717" lon="5.95974">
        <ele>967.08</ele>
        <time>2022-08-13T07:23:45.000Z</time>
      </trkpt>
      <trkpt lat="45.42747" lon="5.95975">
        <ele>967.66</ele>
        <time>2022-08-13T07:23:50.000Z</time>
      </trkpt>
      <trkpt lat="45.4277" lon="5.9598">
        <ele>969.99</ele>
        <time>2022-08-13T07:23:55.000Z</time>
      </trkpt>
      <trkpt lat="45.4279" lon="5.95983">
        <ele>969.24</ele>
        <time>2022-08-13T07:24:00.000Z</time>
      </trkpt>
      <trkpt lat="45.42812" lon="5.95988">
        <ele>968.37</ele>
        <time>2022-08-13T07:24:05.000Z</time>
      </trkpt>
      <trkpt lat="45.42833" lon="5.95996">
        <ele>968.14</ele>
        <time>2022-08-13T07:24:10.000Z</time>
      </trkpt>
      <trkpt lat="45.42853" lon="5.96007">
        <ele>968.93</ele>
        <time>2022-08-13T07:24:15.000Z</time>
      </trkpt>
      <trkpt lat="45.42875" lon="5.96018">
        <ele>967.8</ele>
        <time>2022-08-13T07:24:20.000Z</time>
      </trkpt>
      <trkpt lat="45.42896" lon="5.96029">
        <ele>967.43</ele>
        <time>2022-08-13T07:24:25.000Z</time>
      </trkpt>
      <trkpt lat="45.42912" lon="5.96039">
        <ele>967.07</ele>
        <time>2022-08-13T07:24:30.000Z</time>
      </trkpt>
      <trkpt lat="45.42922" lon="5.96039">
        <ele>961.47</ele>
        <time>2022-08-13T07:28:44.000Z</time>
      </trkpt>
      <trkpt lat="45.42938" lon="5.96048">
        <ele>961.86</ele>
        <time>2022-08-13T07:28:49.000Z</time>
      </trkpt>
      <trkpt lat="45.42968" lon="5.96063">
        <ele>961.06</ele>
        <time>2022-08-13T07:28:54.000Z</time>
      </trkpt>
      <trkpt lat="45.43003" lon="5.96076">
        <ele>962.77</ele>
        <time>2022-08-13T07:28:59.000Z</time>
      </trkpt>
      <trkpt lat="45.4305" lon="5.96082">
        <ele>960.85</ele>
        <time>2022-08-13T07:29:04.000Z</time>
      </trkpt>
      <trkpt lat="45.43104" lon="5.9609">
        <ele>959.19</ele>
        <time>2022-08-13T07:29:09.000Z</time>
      </trkpt>
      <trkpt lat="45.43156" lon="5.96099">
        <ele>960.84</ele>
        <time>2022-08-13T07:29:14.000Z</time>
      </trkpt>
      <trkpt lat="45.43199" lon="5.96111">
        <ele>956.48</ele>
        <time>2022-08-13T07:29:19.000Z</time>
      </trkpt>
      <trkpt lat="45.43243" lon="5.96129">
        <ele>953.78</ele>
        <time>2022-08-13T07:29:24.000Z</time>
      </trkpt>
      <trkpt lat="45.4328" lon="5.96146">
        <ele>951.66</ele>
        <time>2022-08-13T07:29:29.000Z</time>
      </trkpt>
      <trkpt lat="45.43318" lon="5.96161">
        <ele>952.37</ele>
        <time>2022-08-13T07:29:34.000Z</time>
      </trkpt>
      <trkpt lat="45.43358" lon="5.96172">
        <ele>949.41</ele>
        <time>2022-08-13T07:29:39.000Z</time>
      </trkpt>
      <trkpt lat="45.43403" lon="5.96184">
        <ele>947.25</ele>
        <time>2022-08-13T07:29:44.000Z</time>
      </trkpt>
      <trkpt lat="45.43442" lon="5.96212">
        <ele>946.89</ele>
        <time>2022-08-13T07:29:49.000Z</time>
      </trkpt>
      <trkpt lat="45.43472" lon="5.96235">
        <ele>941.97</ele>
        <time>2022-08-13T07:29:54.000Z</time>
      </trkpt>
      <trkpt lat="45.43517" lon="5.96247">
        <ele>936.84</ele>
        <time>2022-08-13T07:29:59.000Z</time>
      </trkpt>
      <trkpt lat="45.43565" lon="5.96266">
        <ele>932.38</ele>
        <time>2022-08-13T07:30:04.000Z</time>
      </trkpt>
      <trkpt lat="45.43612" lon="5.96285">
        <ele>928.96</ele>
        <time>2022-08-13T07:30:09.000Z</time>
      </trkpt>
      <trkpt lat="45.4367" lon="5.963">
        <ele>921.47</ele>
        <time>2022-08-13T07:30:14.000Z</time>
      </trkpt>
      <trkpt lat="45.43731" lon="5.963">
        <ele>917.69</ele>
        <time>2022-08-13T07:30:19.000Z</time>
      </trkpt>
      <trkpt lat="45.43779" lon="5.96309">
        <ele>915.62</ele>
        <time>2022-08-13T07:30:24.000Z</time>
      </trkpt>
      <trkpt lat="45.43811" lon="5.96315">
        <ele>912.51</ele>
        <time>2022-08-13T07:30:29.000Z</time>
      </trkpt>
      <trkpt lat="45.43797" lon="5.96269">
        <ele>907.68</ele>
        <time>2022-08-13T07:30:34.000Z</time>
      </trkpt>
      <trkpt lat="45.43774" lon="5.96212">
        <ele>902.99</ele>
        <time>2022-08-13T07:30:39.000Z</time>
      </trkpt>
      <trkpt lat="45.43737" lon="5.96152">
        <ele>900.09</ele>
        <time>2022-08-13T07:30:44.000Z</time>
      </trkpt>
      <trkpt lat="45.43704" lon="5.96095">
        <ele>894.96</ele>
        <time>2022-08-13T07:30:49.000Z</time>
      </trkpt>
      <trkpt lat="45.43688" lon="5.96054">
        <ele>894.21</ele>
        <time>2022-08-13T07:30:54.000Z</time>
      </trkpt>
      <trkpt lat="45.43724" lon="5.96065">
        <ele>888.73</ele>
        <time>2022-08-13T07:30:59.000Z</time>
      </trkpt>
      <trkpt lat="45.4376" lon="5.96054">
        <ele>889.2</ele>
        <time>2022-08-13T07:31:04.000Z</time>
      </trkpt>
      <trkpt lat="45.4381" lon="5.9604">
        <ele>879.46</ele>
        <time>2022-08-13T07:31:09.000Z</time>
      </trkpt>
      <trkpt lat="45.43869" lon="5.9602">
        <ele>875.75</ele>
        <time>2022-08-13T07:31:14.000Z</time>
      </trkpt>
      <trkpt lat="45.43916" lon="5.95978">
        <ele>873.17</ele>
        <time>2022-08-13T07:31:19.000Z</time>
      </trkpt>
      <trkpt lat="45.43948" lon="5.9591">
        <ele>870.56</ele>
        <time>2022-08-13T07:31:24.000Z</time>
      </trkpt>
      <trkpt lat="45.43965" lon="5.95862">
        <ele>866.28</ele>
        <time>2022-08-13T07:31:29.000Z</time>
      </trkpt>
      <trkpt lat="45.43975" lon="5.95811">
        <ele>865.85</ele>
        <time>2022-08-13T07:31:34.000Z</time>
      </trkpt>
      <trkpt lat="45.43995" lon="5.95742">
        <ele>858.86</ele>
        <time>2022-08-13T07:31:39.000Z</time>
      </trkpt>
      <trkpt lat="45.44028" lon="5.95786">
        <ele>852.13</ele>
        <time>2022-08-13T07:31:44.000Z</time>
      </trkpt>
      <trkpt lat="45.44063" lon="5.95827">
        <ele>852.84</ele>
        <time>2022-08-13T07:31:49.000Z</time>
      </trkpt>
      <trkpt lat="45.44105" lon="5.95834">
        <ele>852.96</ele>
        <time>2022-08-13T07:31:54.000Z</time>
      </trkpt>
      <trkpt lat="45.44128" lon="5.95869">
        <ele>854.11</ele>
        <time>2022-08-13T07:31:59.000Z</time>
      </trkpt>
      <trkpt lat="45.44147" lon="5.95914">
        <ele>853.76</ele>
        <time>2022-08-13T07:32:04.000Z</time>
      </trkpt>
      <trkpt lat="45.44158" lon="5.95957">
        <ele>851.91</ele>
        <time>2022-08-13T07:32:09.000Z</time>
      </trkpt>
      <trkpt lat="45.44185" lon="5.9599">
        <ele>851.98</ele>
        <time>2022-08-13T07:32:14.000Z</time>
      </trkpt>
      <trkpt lat="45.44218" lon="5.96011">
        <ele>849.92</ele>
        <time>2022-08-13T07:32:19.000Z</time>
      </trkpt>
      <trkpt lat="45.44242" lon="5.96048">
        <ele>848.51</ele>
        <time>2022-08-13T07:32:24.000Z</time>
      </trkpt>
      <trkpt lat="45.44266" lon="5.96077">
        <ele>848.74</ele>
        <time>2022-08-13T07:32:29.000Z</time>
      </trkpt>
      <trkpt lat="45.44296" lon="5.96108">
        <ele>851.65</ele>
        <time>2022-08-13T07:32:34.000Z</time>
      </trkpt>
      <trkpt lat="45.44323" lon="5.96135">
        <ele>850.11</ele>
        <time>2022-08-13T07:32:39.000Z</time>
      </trkpt>
      <trkpt lat="45.4433" lon="5.96173">
        <ele>849.97</ele>
        <time>2022-08-13T07:32:44.000Z</time>
      </trkpt>
      <trkpt lat="45.44333" lon="5.9621">
        <ele>849.99</ele>
        <time>2022-08-13T07:32:49.000Z</time>
      </trkpt>
      <trkpt lat="45.44343" lon="5.96237">
        <ele>850.94</ele>
        <time>2022-08-13T07:32:54.000Z</time>
      </trkpt>
      <trkpt lat="45.44357" lon="5.96256">
        <ele>850.22</ele>
        <time>2022-08-13T07:32:59.000Z</time>
      </trkpt>
      <trkpt lat="45.4437" lon="5.96276">
        <ele>846.61</ele>
        <time>2022-08-13T07:33:04.000Z</time>
      </trkpt>
      <trkpt lat="45.44383" lon="5.96296">
        <ele>846.25</ele>
        <time>2022-08-13T07:33:09.000Z</time>
      </trkpt>
      <trkpt lat="45.44396" lon="5.96318">
        <ele>844.51</ele>
        <time>2022-08-13T07:33:14.000Z</time>
      </trkpt>
      <trkpt lat="45.44412" lon="5.96343">
        <ele>848.58</ele>
        <time>2022-08-13T07:33:19.000Z</time>
      </trkpt>
      <trkpt lat="45.4443" lon="5.96366">
        <ele>849.84</ele>
        <time>2022-08-13T07:33:24.000Z</time>
      </trkpt>
      <trkpt lat="45.44446" lon="5.96384">
        <ele>852.12</ele>
        <time>2022-08-13T07:33:29.000Z</time>
      </trkpt>
      <trkpt lat="45.44442" lon="5.96371">
        <ele>853.57</ele>
        <time>2022-08-13T07:33:40.000Z</time>
      </trkpt>
      <trkpt lat="45.44435" lon="5.96382">
        <ele>848.12</ele>
        <time>2022-08-13T07:33:51.000Z</time>
      </trkpt>
      <trkpt lat="45.44444" lon="5.96386">
        <ele>850.55</ele>
        <time>2022-08-13T07:34:51.000Z</time>
      </trkpt>
      <trkpt lat="45.44454" lon="5.9642">
        <ele>855</ele>
        <time>2022-08-13T07:34:56.000Z</time>
      </trkpt>
      <trkpt lat="45.44462" lon="5.96462">
        <ele>855.76</ele>
        <time>2022-08-13T07:35:01.000Z</time>
      </trkpt>
      <trkpt lat="45.44478" lon="5.96495">
        <ele>857.55</ele>
        <time>2022-08-13T07:35:06.000Z</time>
      </trkpt>
      <trkpt lat="45.44511" lon="5.96515">
        <ele>856.11</ele>
        <time>2022-08-13T07:35:11.000Z</time>
      </trkpt>
      <trkpt lat="45.4455" lon="5.96539">
        <ele>851.5</ele>
        <time>2022-08-13T07:35:16.000Z</time>
      </trkpt>
      <trkpt lat="45.44594" lon="5.9657">
        <ele>847.23</ele>
        <time>2022-08-13T07:35:21.000Z</time>
      </trkpt>
      <trkpt lat="45.44639" lon="5.96616">
        <ele>842.02</ele>
        <time>2022-08-13T07:35:26.000Z</time>
      </trkpt>
      <trkpt lat="45.44693" lon="5.96641">
        <ele>837.38</ele>
        <time>2022-08-13T07:35:31.000Z</time>
      </trkpt>
      <trkpt lat="45.44754" lon="5.96648">
        <ele>835.02</ele>
        <time>2022-08-13T07:35:36.000Z</time>
      </trkpt>
      <trkpt lat="45.44805" lon="5.96669">
        <ele>834.14</ele>
        <time>2022-08-13T07:35:41.000Z</time>
      </trkpt>
      <trkpt lat="45.44846" lon="5.96633">
        <ele>829.18</ele>
        <time>2022-08-13T07:35:46.000Z</time>
      </trkpt>
      <trkpt lat="45.44891" lon="5.96586">
        <ele>824.59</ele>
        <time>2022-08-13T07:35:51.000Z</time>
      </trkpt>
      <trkpt lat="45.4493" lon="5.96514">
        <ele>819.21</ele>
        <time>2022-08-13T07:35:56.000Z</time>
      </trkpt>
      <trkpt lat="45.44932" lon="5.96456">
        <ele>812.72</ele>
        <time>2022-08-13T07:36:01.000Z</time>
      </trkpt>
      <trkpt lat="45.44925" lon="5.96384">
        <ele>808.76</ele>
        <time>2022-08-13T07:36:06.000Z</time>
      </trkpt>
      <trkpt lat="45.44959" lon="5.96326">
        <ele>809.86</ele>
        <time>2022-08-13T07:36:11.000Z</time>
      </trkpt>
      <trkpt lat="45.44998" lon="5.96289">
        <ele>804.87</ele>
        <time>2022-08-13T07:36:16.000Z</time>
      </trkpt>
      <trkpt lat="45.45032" lon="5.96331">
        <ele>795.73</ele>
        <time>2022-08-13T07:36:21.000Z</time>
      </trkpt>
      <trkpt lat="45.45068" lon="5.96393">
        <ele>791.34</ele>
        <time>2022-08-13T07:36:26.000Z</time>
      </trkpt>
      <trkpt lat="45.45097" lon="5.96463">
        <ele>786.26</ele>
        <time>2022-08-13T07:36:31.000Z</time>
      </trkpt>
      <trkpt lat="45.45139" lon="5.96508">
        <ele>782.92</ele>
        <time>2022-08-13T07:36:36.000Z</time>
      </trkpt>
      <trkpt lat="45.45187" lon="5.96489">
        <ele>782.15</ele>
        <time>2022-08-13T07:36:41.000Z</time>
      </trkpt>
      <trkpt lat="45.45222" lon="5.96446">
        <ele>781.03</ele>
        <time>2022-08-13T07:36:46.000Z</time>
      </trkpt>
      <trkpt lat="45.45253" lon="5.96405">
        <ele>777.93</ele>
        <time>2022-08-13T07:36:51.000Z</time>
      </trkpt>
      <trkpt lat="45.45271" lon="5.9635">
        <ele>775.26</ele>
        <time>2022-08-13T07:36:56.000Z</time>
      </trkpt>
      <trkpt lat="45.45298" lon="5.96308">
        <ele>773.36</ele>
        <time>2022-08-13T07:37:01.000Z</time>
      </trkpt>
      <trkpt lat="45.45328" lon="5.96275">
        <ele>767.83</ele>
        <time>2022-08-13T07:37:06.000Z</time>
      </trkpt>
      <trkpt lat="45.45342" lon="5.96231">
        <ele>766.32</ele>
        <time>2022-08-13T07:37:11.000Z</time>
      </trkpt>
      <trkpt lat="45.45349" lon="5.96185">
        <ele>765.22</ele>
        <time>2022-08-13T07:37:16.000Z</time>
      </trkpt>
      <trkpt lat="45.45351" lon="5.96131">
        <ele>767.91</ele>
        <time>2022-08-13T07:37:21.000Z</time>
      </trkpt>
      <trkpt lat="45.45355" lon="5.9608">
        <ele>767.13</ele>
        <time>2022-08-13T07:37:26.000Z</time>
      </trkpt>
      <trkpt lat="45.45369" lon="5.96035">
        <ele>762.08</ele>
        <time>2022-08-13T07:37:31.000Z</time>
      </trkpt>
      <trkpt lat="45.45396" lon="5.95995">
        <ele>759.66</ele>
        <time>2022-08-13T07:37:36.000Z</time>
      </trkpt>
      <trkpt lat="45.45415" lon="5.9594">
        <ele>759.38</ele>
        <time>2022-08-13T07:37:41.000Z</time>
      </trkpt>
      <trkpt lat="45.45424" lon="5.95878">
        <ele>758.22</ele>
        <time>2022-08-13T07:37:46.000Z</time>
      </trkpt>
      <trkpt lat="45.4543" lon="5.95816">
        <ele>757.05</ele>
        <time>2022-08-13T07:37:51.000Z</time>
      </trkpt>
      <trkpt lat="45.45467" lon="5.95762">
        <ele>759.44</ele>
        <time>2022-08-13T07:37:56.000Z</time>
      </trkpt>
      <trkpt lat="45.45488" lon="5.95707">
        <ele>756.84</ele>
        <time>2022-08-13T07:38:01.000Z</time>
      </trkpt>
      <trkpt lat="45.45493" lon="5.9564">
        <ele>751.43</ele>
        <time>2022-08-13T07:38:06.000Z</time>
      </trkpt>
      <trkpt lat="45.45525" lon="5.95586">
        <ele>750.71</ele>
        <time>2022-08-13T07:38:11.000Z</time>
      </trkpt>
      <trkpt lat="45.45524" lon="5.95518">
        <ele>752.66</ele>
        <time>2022-08-13T07:38:16.000Z</time>
      </trkpt>
      <trkpt lat="45.45558" lon="5.95495">
        <ele>749.54</ele>
        <time>2022-08-13T07:38:21.000Z</time>
      </trkpt>
      <trkpt lat="45.45589" lon="5.95525">
        <ele>749.13</ele>
        <time>2022-08-13T07:38:26.000Z</time>
      </trkpt>
      <trkpt lat="45.45612" lon="5.95573">
        <ele>742.45</ele>
        <time>2022-08-13T07:38:31.000Z</time>
      </trkpt>
      <trkpt lat="45.45635" lon="5.95612">
        <ele>744.97</ele>
        <time>2022-08-13T07:38:36.000Z</time>
      </trkpt>
      <trkpt lat="45.45649" lon="5.95637">
        <ele>745.86</ele>
        <time>2022-08-13T07:38:41.000Z</time>
      </trkpt>
      <trkpt lat="45.45661" lon="5.95662">
        <ele>745.32</ele>
        <time>2022-08-13T07:38:46.000Z</time>
      </trkpt>
      <trkpt lat="45.45673" lon="5.95693">
        <ele>743.09</ele>
        <time>2022-08-13T07:38:51.000Z</time>
      </trkpt>
      <trkpt lat="45.45696" lon="5.95727">
        <ele>737.86</ele>
        <time>2022-08-13T07:38:56.000Z</time>
      </trkpt>
      <trkpt lat="45.45719" lon="5.95759">
        <ele>734.93</ele>
        <time>2022-08-13T07:39:01.000Z</time>
      </trkpt>
      <trkpt lat="45.45712" lon="5.95808">
        <ele>734.56</ele>
        <time>2022-08-13T07:39:06.000Z</time>
      </trkpt>
      <trkpt lat="45.45731" lon="5.95851">
        <ele>731.14</ele>
        <time>2022-08-13T07:39:11.000Z</time>
      </trkpt>
      <trkpt lat="45.45748" lon="5.95913">
        <ele>724.28</ele>
        <time>2022-08-13T07:39:16.000Z</time>
      </trkpt>
      <trkpt lat="45.45778" lon="5.95968">
        <ele>721.54</ele>
        <time>2022-08-13T07:39:21.000Z</time>
      </trkpt>
      <trkpt lat="45.45793" lon="5.96038">
        <ele>728.88</ele>
        <time>2022-08-13T07:39:26.000Z</time>
      </trkpt>
      <trkpt lat="45.45789" lon="5.96092">
        <ele>727.53</ele>
        <time>2022-08-13T07:39:31.000Z</time>
      </trkpt>
      <trkpt lat="45.45791" lon="5.96142">
        <ele>726.11</ele>
        <time>2022-08-13T07:39:36.000Z</time>
      </trkpt>
      <trkpt lat="45.45802" lon="5.96204">
        <ele>721.96</ele>
        <time>2022-08-13T07:39:41.000Z</time>
      </trkpt>
      <trkpt lat="45.45819" lon="5.96266">
        <ele>721.62</ele>
        <time>2022-08-13T07:39:46.000Z</time>
      </trkpt>
      <trkpt lat="45.45837" lon="5.96331">
        <ele>720.62</ele>
        <time>2022-08-13T07:39:51.000Z</time>
      </trkpt>
      <trkpt lat="45.45834" lon="5.96408">
        <ele>718.91</ele>
        <time>2022-08-13T07:39:56.000Z</time>
      </trkpt>
      <trkpt lat="45.45826" lon="5.96473">
        <ele>713.96</ele>
        <time>2022-08-13T07:40:01.000Z</time>
      </trkpt>
      <trkpt lat="45.4585" lon="5.96545">
        <ele>714.13</ele>
        <time>2022-08-13T07:40:06.000Z</time>
      </trkpt>
      <trkpt lat="45.45876" lon="5.96611">
        <ele>711.16</ele>
        <time>2022-08-13T07:40:11.000Z</time>
      </trkpt>
      <trkpt lat="45.45899" lon="5.96675">
        <ele>712.21</ele>
        <time>2022-08-13T07:40:16.000Z</time>
      </trkpt>
      <trkpt lat="45.45914" lon="5.96727">
        <ele>708.35</ele>
        <time>2022-08-13T07:40:21.000Z</time>
      </trkpt>
      <trkpt lat="45.45952" lon="5.96743">
        <ele>707.18</ele>
        <time>2022-08-13T07:40:26.000Z</time>
      </trkpt>
      <trkpt lat="45.45982" lon="5.96751">
        <ele>703.24</ele>
        <time>2022-08-13T07:40:31.000Z</time>
      </trkpt>
      <trkpt lat="45.46006" lon="5.96741">
        <ele>703.77</ele>
        <time>2022-08-13T07:40:36.000Z</time>
      </trkpt>
      <trkpt lat="45.46038" lon="5.96717">
        <ele>701.99</ele>
        <time>2022-08-13T07:40:41.000Z</time>
      </trkpt>
      <trkpt lat="45.46078" lon="5.96685">
        <ele>695.44</ele>
        <time>2022-08-13T07:40:46.000Z</time>
      </trkpt>
      <trkpt lat="45.46124" lon="5.9665">
        <ele>686.53</ele>
        <time>2022-08-13T07:40:51.000Z</time>
      </trkpt>
      <trkpt lat="45.46173" lon="5.96615">
        <ele>679.66</ele>
        <time>2022-08-13T07:40:56.000Z</time>
      </trkpt>
      <trkpt lat="45.46219" lon="5.96615">
        <ele>670.36</ele>
        <time>2022-08-13T07:41:01.000Z</time>
      </trkpt>
      <trkpt lat="45.46276" lon="5.96626">
        <ele>663.41</ele>
        <time>2022-08-13T07:41:06.000Z</time>
      </trkpt>
      <trkpt lat="45.46337" lon="5.96637">
        <ele>657.93</ele>
        <time>2022-08-13T07:41:11.000Z</time>
      </trkpt>
      <trkpt lat="45.464" lon="5.9663">
        <ele>651.67</ele>
        <time>2022-08-13T07:41:16.000Z</time>
      </trkpt>
      <trkpt lat="45.46465" lon="5.96649">
        <ele>649.63</ele>
        <time>2022-08-13T07:41:21.000Z</time>
      </trkpt>
      <trkpt lat="45.4653" lon="5.9666">
        <ele>644.17</ele>
        <time>2022-08-13T07:41:26.000Z</time>
      </trkpt>
      <trkpt lat="45.46591" lon="5.96647">
        <ele>635.18</ele>
        <time>2022-08-13T07:41:31.000Z</time>
      </trkpt>
      <trkpt lat="45.4665" lon="5.96654">
        <ele>628.09</ele>
        <time>2022-08-13T07:41:36.000Z</time>
      </trkpt>
      <trkpt lat="45.46704" lon="5.96649">
        <ele>621.26</ele>
        <time>2022-08-13T07:41:41.000Z</time>
      </trkpt>
      <trkpt lat="45.46747" lon="5.96627">
        <ele>614.98</ele>
        <time>2022-08-13T07:41:46.000Z</time>
      </trkpt>
      <trkpt lat="45.46801" lon="5.96605">
        <ele>611.5</ele>
        <time>2022-08-13T07:41:51.000Z</time>
      </trkpt>
      <trkpt lat="45.46843" lon="5.96553">
        <ele>610.7</ele>
        <time>2022-08-13T07:41:56.000Z</time>
      </trkpt>
      <trkpt lat="45.46878" lon="5.9649">
        <ele>612.95</ele>
        <time>2022-08-13T07:42:01.000Z</time>
      </trkpt>
      <trkpt lat="45.46926" lon="5.96478">
        <ele>612.96</ele>
        <time>2022-08-13T07:42:06.000Z</time>
      </trkpt>
      <trkpt lat="45.46981" lon="5.96478">
        <ele>610.93</ele>
        <time>2022-08-13T07:42:11.000Z</time>
      </trkpt>
      <trkpt lat="45.47051" lon="5.96484">
        <ele>603.42</ele>
        <time>2022-08-13T07:42:16.000Z</time>
      </trkpt>
      <trkpt lat="45.47117" lon="5.96482">
        <ele>594.07</ele>
        <time>2022-08-13T07:42:21.000Z</time>
      </trkpt>
      <trkpt lat="45.47179" lon="5.96492">
        <ele>587.73</ele>
        <time>2022-08-13T07:42:26.000Z</time>
      </trkpt>
      <trkpt lat="45.4724" lon="5.96512">
        <ele>582.56</ele>
        <time>2022-08-13T07:42:31.000Z</time>
      </trkpt>
      <trkpt lat="45.47298" lon="5.96529">
        <ele>573.5</ele>
        <time>2022-08-13T07:42:36.000Z</time>
      </trkpt>
      <trkpt lat="45.47349" lon="5.96567">
        <ele>566.74</ele>
        <time>2022-08-13T07:42:41.000Z</time>
      </trkpt>
      <trkpt lat="45.47375" lon="5.96642">
        <ele>551.65</ele>
        <time>2022-08-13T07:42:46.000Z</time>
      </trkpt>
      <trkpt lat="45.47419" lon="5.9668">
        <ele>545.01</ele>
        <time>2022-08-13T07:42:51.000Z</time>
      </trkpt>
      <trkpt lat="45.47467" lon="5.96678">
        <ele>542.41</ele>
        <time>2022-08-13T07:42:56.000Z</time>
      </trkpt>
      <trkpt lat="45.47531" lon="5.96659">
        <ele>541.1</ele>
        <time>2022-08-13T07:43:01.000Z</time>
      </trkpt>
      <trkpt lat="45.47587" lon="5.96639">
        <ele>535.12</ele>
        <time>2022-08-13T07:43:06.000Z</time>
      </trkpt>
      <trkpt lat="45.47648" lon="5.96621">
        <ele>533.19</ele>
        <time>2022-08-13T07:43:11.000Z</time>
      </trkpt>
      <trkpt lat="45.47689" lon="5.96617">
        <ele>532.78</ele>
        <time>2022-08-13T07:43:16.000Z</time>
      </trkpt>
      <trkpt lat="45.47731" lon="5.96591">
        <ele>527.17</ele>
        <time>2022-08-13T07:43:24.000Z</time>
      </trkpt>
      <trkpt lat="45.47765" lon="5.96545">
        <ele>523.96</ele>
        <time>2022-08-13T07:43:40.000Z</time>
      </trkpt>
      <trkpt lat="45.47766" lon="5.96525">
        <ele>525.35</ele>
        <time>2022-08-13T07:43:45.000Z</time>
      </trkpt>
      <trkpt lat="45.47765" lon="5.96499">
        <ele>526.74</ele>
        <time>2022-08-13T07:43:50.000Z</time>
      </trkpt>
      <trkpt lat="45.47759" lon="5.96446">
        <ele>529.47</ele>
        <time>2022-08-13T07:44:01.000Z</time>
      </trkpt>
      <trkpt lat="45.47756" lon="5.96428">
        <ele>526.92</ele>
        <time>2022-08-13T07:44:06.000Z</time>
      </trkpt>
      <trkpt lat="45.47753" lon="5.96407">
        <ele>529.03</ele>
        <time>2022-08-13T07:44:11.000Z</time>
      </trkpt>
      <trkpt lat="45.4775" lon="5.96381">
        <ele>536.67</ele>
        <time>2022-08-13T07:44:16.000Z</time>
      </trkpt>
      <trkpt lat="45.47745" lon="5.96355">
        <ele>539.76</ele>
        <time>2022-08-13T07:44:21.000Z</time>
      </trkpt>
      <trkpt lat="45.47745" lon="5.96331">
        <ele>542.41</ele>
        <time>2022-08-13T07:44:26.000Z</time>
      </trkpt>
      <trkpt lat="45.47745" lon="5.96308">
        <ele>539.25</ele>
        <time>2022-08-13T07:44:31.000Z</time>
      </trkpt>
      <trkpt lat="45.47747" lon="5.96281">
        <ele>540.18</ele>
        <time>2022-08-13T07:44:36.000Z</time>
      </trkpt>
      <trkpt lat="45.47749" lon="5.96254">
        <ele>540.27</ele>
        <time>2022-08-13T07:44:41.000Z</time>
      </trkpt>
      <trkpt lat="45.47751" lon="5.96231">
        <ele>545.67</ele>
        <time>2022-08-13T07:44:46.000Z</time>
      </trkpt>
      <trkpt lat="45.47749" lon="5.96205">
        <ele>541.83</ele>
        <time>2022-08-13T07:44:51.000Z</time>
      </trkpt>
      <trkpt lat="45.47746" lon="5.96178">
        <ele>538.79</ele>
        <time>2022-08-13T07:44:56.000Z</time>
      </trkpt>
      <trkpt lat="45.47744" lon="5.96153">
        <ele>541.01</ele>
        <time>2022-08-13T07:45:01.000Z</time>
      </trkpt>
      <trkpt lat="45.47745" lon="5.96124">
        <ele>547.17</ele>
        <time>2022-08-13T07:45:06.000Z</time>
      </trkpt>
      <trkpt lat="45.47748" lon="5.96098">
        <ele>548.72</ele>
        <time>2022-08-13T07:45:11.000Z</time>
      </trkpt>
      <trkpt lat="45.47754" lon="5.96073">
        <ele>550.14</ele>
        <time>2022-08-13T07:45:16.000Z</time>
      </trkpt>
      <trkpt lat="45.47759" lon="5.96048">
        <ele>549.4</ele>
        <time>2022-08-13T07:45:21.000Z</time>
      </trkpt>
      <trkpt lat="45.47764" lon="5.96025">
        <ele>550.77</ele>
        <time>2022-08-13T07:45:26.000Z</time>
      </trkpt>
      <trkpt lat="45.47768" lon="5.96003">
        <ele>552.86</ele>
        <time>2022-08-13T07:45:31.000Z</time>
      </trkpt>
      <trkpt lat="45.47767" lon="5.95978">
        <ele>555.16</ele>
        <time>2022-08-13T07:45:36.000Z</time>
      </trkpt>
      <trkpt lat="45.47768" lon="5.95957">
        <ele>558.87</ele>
        <time>2022-08-13T07:45:41.000Z</time>
      </trkpt>
      <trkpt lat="45.47766" lon="5.95936">
        <ele>560.84</ele>
        <time>2022-08-13T07:45:46.000Z</time>
      </trkpt>
      <trkpt lat="45.47764" lon="5.95913">
        <ele>559.98</ele>
        <time>2022-08-13T07:45:51.000Z</time>
      </trkpt>
      <trkpt lat="45.47763" lon="5.95889">
        <ele>562.88</ele>
        <time>2022-08-13T07:45:56.000Z</time>
      </trkpt>
      <trkpt lat="45.47764" lon="5.95867">
        <ele>567.25</ele>
        <time>2022-08-13T07:46:01.000Z</time>
      </trkpt>
      <trkpt lat="45.47765" lon="5.95844">
        <ele>568.3</ele>
        <time>2022-08-13T07:46:06.000Z</time>
      </trkpt>
      <trkpt lat="45.47769" lon="5.95819">
        <ele>570.02</ele>
        <time>2022-08-13T07:46:11.000Z</time>
      </trkpt>
      <trkpt lat="45.47768" lon="5.95797">
        <ele>571.03</ele>
        <time>2022-08-13T07:46:16.000Z</time>
      </trkpt>
      <trkpt lat="45.47768" lon="5.95773">
        <ele>576.01</ele>
        <time>2022-08-13T07:46:21.000Z</time>
      </trkpt>
      <trkpt lat="45.47769" lon="5.95751">
        <ele>580.49</ele>
        <time>2022-08-13T07:46:26.000Z</time>
      </trkpt>
      <trkpt lat="45.47775" lon="5.95726">
        <ele>583.23</ele>
        <time>2022-08-13T07:46:31.000Z</time>
      </trkpt>
      <trkpt lat="45.47781" lon="5.95704">
        <ele>586.62</ele>
        <time>2022-08-13T07:46:36.000Z</time>
      </trkpt>
      <trkpt lat="45.47788" lon="5.95685">
        <ele>589.44</ele>
        <time>2022-08-13T07:46:41.000Z</time>
      </trkpt>
      <trkpt lat="45.47796" lon="5.95667">
        <ele>589.78</ele>
        <time>2022-08-13T07:46:46.000Z</time>
      </trkpt>
      <trkpt lat="45.47805" lon="5.95649">
        <ele>587.83</ele>
        <time>2022-08-13T07:46:51.000Z</time>
      </trkpt>
      <trkpt lat="45.47814" lon="5.9563">
        <ele>589.65</ele>
        <time>2022-08-13T07:46:56.000Z</time>
      </trkpt>
      <trkpt lat="45.47824" lon="5.95614">
        <ele>589.06</ele>
        <time>2022-08-13T07:47:01.000Z</time>
      </trkpt>
      <trkpt lat="45.47833" lon="5.95604">
        <ele>588.36</ele>
        <time>2022-08-13T07:47:06.000Z</time>
      </trkpt>
      <trkpt lat="45.47844" lon="5.95592">
        <ele>587.5</ele>
        <time>2022-08-13T07:47:11.000Z</time>
      </trkpt>
      <trkpt lat="45.47858" lon="5.95572">
        <ele>588.51</ele>
        <time>2022-08-13T07:47:16.000Z</time>
      </trkpt>
      <trkpt lat="45.47892" lon="5.95527">
        <ele>593.35</ele>
        <time>2022-08-13T07:47:33.000Z</time>
      </trkpt>
      <trkpt lat="45.47904" lon="5.95509">
        <ele>596.33</ele>
        <time>2022-08-13T07:47:38.000Z</time>
      </trkpt>
      <trkpt lat="45.47914" lon="5.95491">
        <ele>596.5</ele>
        <time>2022-08-13T07:47:43.000Z</time>
      </trkpt>
      <trkpt lat="45.47924" lon="5.95475">
        <ele>594.06</ele>
        <time>2022-08-13T07:47:48.000Z</time>
      </trkpt>
      <trkpt lat="45.47934" lon="5.95461">
        <ele>592.94</ele>
        <time>2022-08-13T07:47:53.000Z</time>
      </trkpt>
      <trkpt lat="45.47946" lon="5.95448">
        <ele>595.64</ele>
        <time>2022-08-13T07:47:58.000Z</time>
      </trkpt>
      <trkpt lat="45.4796" lon="5.95431">
        <ele>600.94</ele>
        <time>2022-08-13T07:48:03.000Z</time>
      </trkpt>
      <trkpt lat="45.47973" lon="5.95413">
        <ele>603.75</ele>
        <time>2022-08-13T07:48:08.000Z</time>
      </trkpt>
      <trkpt lat="45.47988" lon="5.95394">
        <ele>606.34</ele>
        <time>2022-08-13T07:48:13.000Z</time>
      </trkpt>
      <trkpt lat="45.48" lon="5.95382">
        <ele>613.27</ele>
        <time>2022-08-13T07:48:18.000Z</time>
      </trkpt>
      <trkpt lat="45.48015" lon="5.95369">
        <ele>619.06</ele>
        <time>2022-08-13T07:48:23.000Z</time>
      </trkpt>
      <trkpt lat="45.48033" lon="5.95356">
        <ele>623.62</ele>
        <time>2022-08-13T07:48:28.000Z</time>
      </trkpt>
      <trkpt lat="45.48045" lon="5.95342">
        <ele>629.68</ele>
        <time>2022-08-13T07:48:33.000Z</time>
      </trkpt>
      <trkpt lat="45.48057" lon="5.95319">
        <ele>627.43</ele>
        <time>2022-08-13T07:48:38.000Z</time>
      </trkpt>
      <trkpt lat="45.4807" lon="5.95298">
        <ele>627.52</ele>
        <time>2022-08-13T07:48:43.000Z</time>
      </trkpt>
      <trkpt lat="45.48084" lon="5.95277">
        <ele>627.56</ele>
        <time>2022-08-13T07:48:48.000Z</time>
      </trkpt>
      <trkpt lat="45.48098" lon="5.95224">
        <ele>628.41</ele>
        <time>2022-08-13T07:48:56.000Z</time>
      </trkpt>
      <trkpt lat="45.48099" lon="5.95202">
        <ele>623.84</ele>
        <time>2022-08-13T07:49:01.000Z</time>
      </trkpt>
      <trkpt lat="45.48093" lon="5.95169">
        <ele>624.05</ele>
        <time>2022-08-13T07:49:06.000Z</time>
      </trkpt>
      <trkpt lat="45.4809" lon="5.95144">
        <ele>621.26</ele>
        <time>2022-08-13T07:49:11.000Z</time>
      </trkpt>
      <trkpt lat="45.48084" lon="5.95123">
        <ele>622.65</ele>
        <time>2022-08-13T07:49:16.000Z</time>
      </trkpt>
      <trkpt lat="45.4808" lon="5.951">
        <ele>625.05</ele>
        <time>2022-08-13T07:49:21.000Z</time>
      </trkpt>
      <trkpt lat="45.48072" lon="5.95074">
        <ele>626.44</ele>
        <time>2022-08-13T07:49:26.000Z</time>
      </trkpt>
      <trkpt lat="45.48063" lon="5.95051">
        <ele>630.45</ele>
        <time>2022-08-13T07:49:31.000Z</time>
      </trkpt>
      <trkpt lat="45.48059" lon="5.95029">
        <ele>628.91</ele>
        <time>2022-08-13T07:49:36.000Z</time>
      </trkpt>
      <trkpt lat="45.48061" lon="5.94991">
        <ele>626.07</ele>
        <time>2022-08-13T07:49:41.000Z</time>
      </trkpt>
      <trkpt lat="45.48054" lon="5.94961">
        <ele>626.23</ele>
        <time>2022-08-13T07:49:46.000Z</time>
      </trkpt>
      <trkpt lat="45.48059" lon="5.94928">
        <ele>625.33</ele>
        <time>2022-08-13T07:49:51.000Z</time>
      </trkpt>
      <trkpt lat="45.48059" lon="5.94873">
        <ele>627.56</ele>
        <time>2022-08-13T07:50:01.000Z</time>
      </trkpt>
      <trkpt lat="45.4804" lon="5.94857">
        <ele>634.22</ele>
        <time>2022-08-13T07:50:06.000Z</time>
      </trkpt>
      <trkpt lat="45.4802" lon="5.94865">
        <ele>642.66</ele>
        <time>2022-08-13T07:50:11.000Z</time>
      </trkpt>
      <trkpt lat="45.48015" lon="5.94895">
        <ele>651.52</ele>
        <time>2022-08-13T07:50:16.000Z</time>
      </trkpt>
      <trkpt lat="45.48015" lon="5.94927">
        <ele>650.71</ele>
        <time>2022-08-13T07:50:21.000Z</time>
      </trkpt>
      <trkpt lat="45.48012" lon="5.9496">
        <ele>651.83</ele>
        <time>2022-08-13T07:50:26.000Z</time>
      </trkpt>
      <trkpt lat="45.48013" lon="5.9499">
        <ele>656.18</ele>
        <time>2022-08-13T07:50:31.000Z</time>
      </trkpt>
      <trkpt lat="45.48011" lon="5.95017">
        <ele>657.25</ele>
        <time>2022-08-13T07:50:36.000Z</time>
      </trkpt>
      <trkpt lat="45.48012" lon="5.95042">
        <ele>659.71</ele>
        <time>2022-08-13T07:50:41.000Z</time>
      </trkpt>
      <trkpt lat="45.48015" lon="5.95064">
        <ele>659.82</ele>
        <time>2022-08-13T07:50:46.000Z</time>
      </trkpt>
      <trkpt lat="45.48015" lon="5.95087">
        <ele>661.67</ele>
        <time>2022-08-13T07:50:51.000Z</time>
      </trkpt>
      <trkpt lat="45.48015" lon="5.95118">
        <ele>662.76</ele>
        <time>2022-08-13T07:50:56.000Z</time>
      </trkpt>
      <trkpt lat="45.48016" lon="5.95141">
        <ele>664.23</ele>
        <time>2022-08-13T07:51:01.000Z</time>
      </trkpt>
      <trkpt lat="45.48009" lon="5.95167">
        <ele>666.78</ele>
        <time>2022-08-13T07:51:06.000Z</time>
      </trkpt>
      <trkpt lat="45.47996" lon="5.95183">
        <ele>670.42</ele>
        <time>2022-08-13T07:51:11.000Z</time>
      </trkpt>
      <trkpt lat="45.4798" lon="5.95181">
        <ele>671.71</ele>
        <time>2022-08-13T07:51:16.000Z</time>
      </trkpt>
      <trkpt lat="45.47964" lon="5.95172">
        <ele>671.17</ele>
        <time>2022-08-13T07:51:21.000Z</time>
      </trkpt>
      <trkpt lat="45.47951" lon="5.95157">
        <ele>664.41</ele>
        <time>2022-08-13T07:51:26.000Z</time>
      </trkpt>
      <trkpt lat="45.47936" lon="5.9514">
        <ele>656.61</ele>
        <time>2022-08-13T07:51:31.000Z</time>
      </trkpt>
      <trkpt lat="45.4792" lon="5.95128">
        <ele>660.45</ele>
        <time>2022-08-13T07:51:36.000Z</time>
      </trkpt>
      <trkpt lat="45.47906" lon="5.95124">
        <ele>660.23</ele>
        <time>2022-08-13T07:51:41.000Z</time>
      </trkpt>
      <trkpt lat="45.47889" lon="5.95116">
        <ele>659.78</ele>
        <time>2022-08-13T07:51:46.000Z</time>
      </trkpt>
      <trkpt lat="45.47871" lon="5.95111">
        <ele>662.68</ele>
        <time>2022-08-13T07:51:51.000Z</time>
      </trkpt>
      <trkpt lat="45.47854" lon="5.95106">
        <ele>665.62</ele>
        <time>2022-08-13T07:51:56.000Z</time>
      </trkpt>
      <trkpt lat="45.47839" lon="5.95096">
        <ele>666.99</ele>
        <time>2022-08-13T07:52:01.000Z</time>
      </trkpt>
      <trkpt lat="45.47824" lon="5.95085">
        <ele>667.23</ele>
        <time>2022-08-13T07:52:06.000Z</time>
      </trkpt>
      <trkpt lat="45.47805" lon="5.9508">
        <ele>668.26</ele>
        <time>2022-08-13T07:52:11.000Z</time>
      </trkpt>
      <trkpt lat="45.47785" lon="5.95076">
        <ele>666.19</ele>
        <time>2022-08-13T07:52:16.000Z</time>
      </trkpt>
      <trkpt lat="45.47768" lon="5.95075">
        <ele>669.46</ele>
        <time>2022-08-13T07:52:21.000Z</time>
      </trkpt>
      <trkpt lat="45.47754" lon="5.95066">
        <ele>667.89</ele>
        <time>2022-08-13T07:52:26.000Z</time>
      </trkpt>
      <trkpt lat="45.47741" lon="5.95046">
        <ele>669.29</ele>
        <time>2022-08-13T07:52:31.000Z</time>
      </trkpt>
      <trkpt lat="45.47738" lon="5.95027">
        <ele>667.42</ele>
        <time>2022-08-13T07:52:36.000Z</time>
      </trkpt>
      <trkpt lat="45.47739" lon="5.95009">
        <ele>667.12</ele>
        <time>2022-08-13T07:52:41.000Z</time>
      </trkpt>
      <trkpt lat="45.47737" lon="5.94989">
        <ele>663.83</ele>
        <time>2022-08-13T07:52:46.000Z</time>
      </trkpt>
      <trkpt lat="45.47744" lon="5.94966">
        <ele>663.34</ele>
        <time>2022-08-13T07:52:51.000Z</time>
      </trkpt>
      <trkpt lat="45.47757" lon="5.94963">
        <ele>669.78</ele>
        <time>2022-08-13T07:52:56.000Z</time>
      </trkpt>
      <trkpt lat="45.47764" lon="5.94976">
        <ele>676.87</ele>
        <time>2022-08-13T07:53:01.000Z</time>
      </trkpt>
      <trkpt lat="45.47772" lon="5.94993">
        <ele>683.66</ele>
        <time>2022-08-13T07:53:06.000Z</time>
      </trkpt>
      <trkpt lat="45.47786" lon="5.95">
        <ele>692.31</ele>
        <time>2022-08-13T07:53:11.000Z</time>
      </trkpt>
      <trkpt lat="45.47806" lon="5.94995">
        <ele>694.15</ele>
        <time>2022-08-13T07:53:16.000Z</time>
      </trkpt>
      <trkpt lat="45.47817" lon="5.9497">
        <ele>694.52</ele>
        <time>2022-08-13T07:53:21.000Z</time>
      </trkpt>
      <trkpt lat="45.47808" lon="5.94934">
        <ele>695.35</ele>
        <time>2022-08-13T07:53:26.000Z</time>
      </trkpt>
      <trkpt lat="45.47799" lon="5.94909">
        <ele>692.28</ele>
        <time>2022-08-13T07:53:31.000Z</time>
      </trkpt>
      <trkpt lat="45.47798" lon="5.94882">
        <ele>690.28</ele>
        <time>2022-08-13T07:53:36.000Z</time>
      </trkpt>
      <trkpt lat="45.47804" lon="5.94856">
        <ele>688.76</ele>
        <time>2022-08-13T07:53:41.000Z</time>
      </trkpt>
      <trkpt lat="45.47812" lon="5.9483">
        <ele>689.96</ele>
        <time>2022-08-13T07:53:46.000Z</time>
      </trkpt>
      <trkpt lat="45.47816" lon="5.94813">
        <ele>690.47</ele>
        <time>2022-08-13T07:53:51.000Z</time>
      </trkpt>
      <trkpt lat="45.47818" lon="5.9479">
        <ele>691.99</ele>
        <time>2022-08-13T07:53:56.000Z</time>
      </trkpt>
      <trkpt lat="45.47818" lon="5.94768">
        <ele>687.86</ele>
        <time>2022-08-13T07:54:01.000Z</time>
      </trkpt>
      <trkpt lat="45.47816" lon="5.94746">
        <ele>690.1</ele>
        <time>2022-08-13T07:54:06.000Z</time>
      </trkpt>
      <trkpt lat="45.47815" lon="5.9473">
        <ele>684.99</ele>
        <time>2022-08-13T07:54:11.000Z</time>
      </trkpt>
      <trkpt lat="45.47807" lon="5.94701">
        <ele>691.96</ele>
        <time>2022-08-13T07:54:16.000Z</time>
      </trkpt>
      <trkpt lat="45.47799" lon="5.94677">
        <ele>698</ele>
        <time>2022-08-13T07:54:21.000Z</time>
      </trkpt>
      <trkpt lat="45.47795" lon="5.94651">
        <ele>699.9</ele>
        <time>2022-08-13T07:54:26.000Z</time>
      </trkpt>
      <trkpt lat="45.47787" lon="5.94626">
        <ele>704.73</ele>
        <time>2022-08-13T07:54:31.000Z</time>
      </trkpt>
      <trkpt lat="45.47772" lon="5.94605">
        <ele>707.51</ele>
        <time>2022-08-13T07:54:36.000Z</time>
      </trkpt>
      <trkpt lat="45.47764" lon="5.94585">
        <ele>707.7</ele>
        <time>2022-08-13T07:54:41.000Z</time>
      </trkpt>
      <trkpt lat="45.47757" lon="5.94564">
        <ele>708.9</ele>
        <time>2022-08-13T07:54:46.000Z</time>
      </trkpt>
      <trkpt lat="45.47752" lon="5.94539">
        <ele>710.75</ele>
        <time>2022-08-13T07:54:51.000Z</time>
      </trkpt>
      <trkpt lat="45.47749" lon="5.94516">
        <ele>712.47</ele>
        <time>2022-08-13T07:54:56.000Z</time>
      </trkpt>
      <trkpt lat="45.47759" lon="5.94497">
        <ele>717.12</ele>
        <time>2022-08-13T07:55:01.000Z</time>
      </trkpt>
      <trkpt lat="45.4777" lon="5.94485">
        <ele>719.32</ele>
        <time>2022-08-13T07:55:06.000Z</time>
      </trkpt>
      <trkpt lat="45.47781" lon="5.94474">
        <ele>721.52</ele>
        <time>2022-08-13T07:55:11.000Z</time>
      </trkpt>
      <trkpt lat="45.47792" lon="5.94455">
        <ele>724.07</ele>
        <time>2022-08-13T07:55:16.000Z</time>
      </trkpt>
      <trkpt lat="45.47802" lon="5.94431">
        <ele>729.64</ele>
        <time>2022-08-13T07:55:21.000Z</time>
      </trkpt>
      <trkpt lat="45.47807" lon="5.94407">
        <ele>732.4</ele>
        <time>2022-08-13T07:55:26.000Z</time>
      </trkpt>
      <trkpt lat="45.4781" lon="5.94379">
        <ele>735.58</ele>
        <time>2022-08-13T07:55:31.000Z</time>
      </trkpt>
      <trkpt lat="45.4782" lon="5.94362">
        <ele>738.29</ele>
        <time>2022-08-13T07:55:36.000Z</time>
      </trkpt>
      <trkpt lat="45.47831" lon="5.94348">
        <ele>744.43</ele>
        <time>2022-08-13T07:55:41.000Z</time>
      </trkpt>
      <trkpt lat="45.47839" lon="5.94335">
        <ele>746.53</ele>
        <time>2022-08-13T07:55:46.000Z</time>
      </trkpt>
      <trkpt lat="45.47847" lon="5.94314">
        <ele>748.39</ele>
        <time>2022-08-13T07:55:51.000Z</time>
      </trkpt>
      <trkpt lat="45.47847" lon="5.94286">
        <ele>749.28</ele>
        <time>2022-08-13T07:55:56.000Z</time>
      </trkpt>
      <trkpt lat="45.47838" lon="5.94269">
        <ele>754.04</ele>
        <time>2022-08-13T07:56:01.000Z</time>
      </trkpt>
      <trkpt lat="45.47826" lon="5.94253">
        <ele>758.67</ele>
        <time>2022-08-13T07:56:06.000Z</time>
      </trkpt>
      <trkpt lat="45.47812" lon="5.94246">
        <ele>757.36</ele>
        <time>2022-08-13T07:56:11.000Z</time>
      </trkpt>
      <trkpt lat="45.47798" lon="5.9424">
        <ele>759.97</ele>
        <time>2022-08-13T07:56:16.000Z</time>
      </trkpt>
      <trkpt lat="45.47784" lon="5.94241">
        <ele>763.83</ele>
        <time>2022-08-13T07:56:21.000Z</time>
      </trkpt>
      <trkpt lat="45.47769" lon="5.94244">
        <ele>763.57</ele>
        <time>2022-08-13T07:56:26.000Z</time>
      </trkpt>
      <trkpt lat="45.47754" lon="5.94248">
        <ele>765.25</ele>
        <time>2022-08-13T07:56:31.000Z</time>
      </trkpt>
      <trkpt lat="45.47739" lon="5.94251">
        <ele>767.33</ele>
        <time>2022-08-13T07:56:36.000Z</time>
      </trkpt>
      <trkpt lat="45.47722" lon="5.94248">
        <ele>770.74</ele>
        <time>2022-08-13T07:56:41.000Z</time>
      </trkpt>
      <trkpt lat="45.47706" lon="5.94241">
        <ele>773.02</ele>
        <time>2022-08-13T07:56:46.000Z</time>
      </trkpt>
      <trkpt lat="45.4769" lon="5.94232">
        <ele>773.19</ele>
        <time>2022-08-13T07:56:51.000Z</time>
      </trkpt>
      <trkpt lat="45.47678" lon="5.9422">
        <ele>773.23</ele>
        <time>2022-08-13T07:56:56.000Z</time>
      </trkpt>
      <trkpt lat="45.47664" lon="5.94214">
        <ele>772.39</ele>
        <time>2022-08-13T07:57:01.000Z</time>
      </trkpt>
      <trkpt lat="45.47654" lon="5.94215">
        <ele>776.66</ele>
        <time>2022-08-13T07:57:07.000Z</time>
      </trkpt>
      <trkpt lat="45.47642" lon="5.94217">
        <ele>780.12</ele>
        <time>2022-08-13T07:57:12.000Z</time>
      </trkpt>
      <trkpt lat="45.47627" lon="5.94209">
        <ele>779.89</ele>
        <time>2022-08-13T07:57:17.000Z</time>
      </trkpt>
      <trkpt lat="45.4762" lon="5.94194">
        <ele>780.59</ele>
        <time>2022-08-13T07:57:22.000Z</time>
      </trkpt>
      <trkpt lat="45.47628" lon="5.94177">
        <ele>783.87</ele>
        <time>2022-08-13T07:57:27.000Z</time>
      </trkpt>
      <trkpt lat="45.47636" lon="5.94163">
        <ele>786.75</ele>
        <time>2022-08-13T07:57:32.000Z</time>
      </trkpt>
      <trkpt lat="45.47647" lon="5.9415">
        <ele>789.09</ele>
        <time>2022-08-13T07:57:37.000Z</time>
      </trkpt>
      <trkpt lat="45.47656" lon="5.94141">
        <ele>795.25</ele>
        <time>2022-08-13T07:57:42.000Z</time>
      </trkpt>
      <trkpt lat="45.47667" lon="5.94131">
        <ele>801.48</ele>
        <time>2022-08-13T07:57:47.000Z</time>
      </trkpt>
      <trkpt lat="45.47681" lon="5.94122">
        <ele>803.1</ele>
        <time>2022-08-13T07:57:52.000Z</time>
      </trkpt>
      <trkpt lat="45.47697" lon="5.94123">
        <ele>808.63</ele>
        <time>2022-08-13T07:57:57.000Z</time>
      </trkpt>
      <trkpt lat="45.47714" lon="5.94126">
        <ele>810.67</ele>
        <time>2022-08-13T07:58:02.000Z</time>
      </trkpt>
      <trkpt lat="45.47728" lon="5.9412">
        <ele>810.35</ele>
        <time>2022-08-13T07:58:07.000Z</time>
      </trkpt>
      <trkpt lat="45.47738" lon="5.94102">
        <ele>809.68</ele>
        <time>2022-08-13T07:58:12.000Z</time>
      </trkpt>
      <trkpt lat="45.47746" lon="5.9408">
        <ele>809.36</ele>
        <time>2022-08-13T07:58:17.000Z</time>
      </trkpt>
      <trkpt lat="45.47748" lon="5.9406">
        <ele>809.86</ele>
        <time>2022-08-13T07:58:22.000Z</time>
      </trkpt>
      <trkpt lat="45.47744" lon="5.9403">
        <ele>807.52</ele>
        <time>2022-08-13T07:58:27.000Z</time>
      </trkpt>
      <trkpt lat="45.47744" lon="5.94008">
        <ele>810.88</ele>
        <time>2022-08-13T07:58:32.000Z</time>
      </trkpt>
      <trkpt lat="45.47746" lon="5.93983">
        <ele>813.52</ele>
        <time>2022-08-13T07:58:37.000Z</time>
      </trkpt>
      <trkpt lat="45.47745" lon="5.93949">
        <ele>813</ele>
        <time>2022-08-13T07:58:42.000Z</time>
      </trkpt>
      <trkpt lat="45.47741" lon="5.93929">
        <ele>812.04</ele>
        <time>2022-08-13T07:58:47.000Z</time>
      </trkpt>
      <trkpt lat="45.47748" lon="5.93909">
        <ele>814.4</ele>
        <time>2022-08-13T07:58:52.000Z</time>
      </trkpt>
      <trkpt lat="45.47755" lon="5.93893">
        <ele>812.75</ele>
        <time>2022-08-13T07:58:57.000Z</time>
      </trkpt>
      <trkpt lat="45.47759" lon="5.93874">
        <ele>812.65</ele>
        <time>2022-08-13T07:59:02.000Z</time>
      </trkpt>
      <trkpt lat="45.47765" lon="5.93855">
        <ele>813.85</ele>
        <time>2022-08-13T07:59:07.000Z</time>
      </trkpt>
      <trkpt lat="45.47771" lon="5.93835">
        <ele>816.32</ele>
        <time>2022-08-13T07:59:12.000Z</time>
      </trkpt>
      <trkpt lat="45.47778" lon="5.93814">
        <ele>822.88</ele>
        <time>2022-08-13T07:59:17.000Z</time>
      </trkpt>
      <trkpt lat="45.47786" lon="5.93793">
        <ele>829.52</ele>
        <time>2022-08-13T07:59:22.000Z</time>
      </trkpt>
      <trkpt lat="45.47796" lon="5.93772">
        <ele>834.1</ele>
        <time>2022-08-13T07:59:27.000Z</time>
      </trkpt>
      <trkpt lat="45.47805" lon="5.93748">
        <ele>832.01</ele>
        <time>2022-08-13T07:59:32.000Z</time>
      </trkpt>
      <trkpt lat="45.47811" lon="5.93727">
        <ele>831.38</ele>
        <time>2022-08-13T07:59:37.000Z</time>
      </trkpt>
      <trkpt lat="45.47818" lon="5.93703">
        <ele>836.39</ele>
        <time>2022-08-13T07:59:42.000Z</time>
      </trkpt>
      <trkpt lat="45.47826" lon="5.93685">
        <ele>837.57</ele>
        <time>2022-08-13T07:59:47.000Z</time>
      </trkpt>
      <trkpt lat="45.47837" lon="5.9367">
        <ele>837.02</ele>
        <time>2022-08-13T07:59:52.000Z</time>
      </trkpt>
      <trkpt lat="45.47849" lon="5.93662">
        <ele>839.36</ele>
        <time>2022-08-13T07:59:57.000Z</time>
      </trkpt>
      <trkpt lat="45.47862" lon="5.93656">
        <ele>846.04</ele>
        <time>2022-08-13T08:00:02.000Z</time>
      </trkpt>
      <trkpt lat="45.47875" lon="5.93653">
        <ele>848.75</ele>
        <time>2022-08-13T08:00:07.000Z</time>
      </trkpt>
      <trkpt lat="45.47888" lon="5.93641">
        <ele>849.29</ele>
        <time>2022-08-13T08:00:12.000Z</time>
      </trkpt>
      <trkpt lat="45.47899" lon="5.93628">
        <ele>855.06</ele>
        <time>2022-08-13T08:00:17.000Z</time>
      </trkpt>
      <trkpt lat="45.47907" lon="5.93611">
        <ele>856.65</ele>
        <time>2022-08-13T08:00:22.000Z</time>
      </trkpt>
      <trkpt lat="45.47912" lon="5.93587">
        <ele>860.45</ele>
        <time>2022-08-13T08:00:27.000Z</time>
      </trkpt>
      <trkpt lat="45.47899" lon="5.93575">
        <ele>867.57</ele>
        <time>2022-08-13T08:00:32.000Z</time>
      </trkpt>
      <trkpt lat="45.47888" lon="5.93578">
        <ele>869.03</ele>
        <time>2022-08-13T08:00:37.000Z</time>
      </trkpt>
      <trkpt lat="45.47871" lon="5.93574">
        <ele>869.15</ele>
        <time>2022-08-13T08:00:42.000Z</time>
      </trkpt>
      <trkpt lat="45.47853" lon="5.93561">
        <ele>871.5</ele>
        <time>2022-08-13T08:00:47.000Z</time>
      </trkpt>
      <trkpt lat="45.47847" lon="5.93542">
        <ele>872.33</ele>
        <time>2022-08-13T08:00:52.000Z</time>
      </trkpt>
      <trkpt lat="45.47839" lon="5.93523">
        <ele>873.46</ele>
        <time>2022-08-13T08:00:57.000Z</time>
      </trkpt>
      <trkpt lat="45.47825" lon="5.93506">
        <ele>875.43</ele>
        <time>2022-08-13T08:01:02.000Z</time>
      </trkpt>
      <trkpt lat="45.47808" lon="5.935">
        <ele>877.95</ele>
        <time>2022-08-13T08:01:07.000Z</time>
      </trkpt>
      <trkpt lat="45.47796" lon="5.93496">
        <ele>880.31</ele>
        <time>2022-08-13T08:01:12.000Z</time>
      </trkpt>
      <trkpt lat="45.47781" lon="5.93486">
        <ele>882.71</ele>
        <time>2022-08-13T08:01:17.000Z</time>
      </trkpt>
      <trkpt lat="45.47767" lon="5.93477">
        <ele>884.52</ele>
        <time>2022-08-13T08:01:22.000Z</time>
      </trkpt>
      <trkpt lat="45.47752" lon="5.93464">
        <ele>880.41</ele>
        <time>2022-08-13T08:01:27.000Z</time>
      </trkpt>
      <trkpt lat="45.47741" lon="5.93447">
        <ele>879.91</ele>
        <time>2022-08-13T08:01:32.000Z</time>
      </trkpt>
      <trkpt lat="45.47733" lon="5.93426">
        <ele>882.32</ele>
        <time>2022-08-13T08:01:37.000Z</time>
      </trkpt>
      <trkpt lat="45.47733" lon="5.93412">
        <ele>885.12</ele>
        <time>2022-08-13T08:01:42.000Z</time>
      </trkpt>
      <trkpt lat="45.47741" lon="5.93402">
        <ele>897.98</ele>
        <time>2022-08-13T08:03:58.000Z</time>
      </trkpt>
      <trkpt lat="45.47756" lon="5.93391">
        <ele>902.14</ele>
        <time>2022-08-13T08:04:03.000Z</time>
      </trkpt>
      <trkpt lat="45.47771" lon="5.93388">
        <ele>901.3</ele>
        <time>2022-08-13T08:04:08.000Z</time>
      </trkpt>
      <trkpt lat="45.47787" lon="5.93393">
        <ele>901.36</ele>
        <time>2022-08-13T08:04:13.000Z</time>
      </trkpt>
      <trkpt lat="45.47805" lon="5.93398">
        <ele>900.96</ele>
        <time>2022-08-13T08:04:18.000Z</time>
      </trkpt>
      <trkpt lat="45.47825" lon="5.9338">
        <ele>904.37</ele>
        <time>2022-08-13T08:04:23.000Z</time>
      </trkpt>
      <trkpt lat="45.47824" lon="5.93357">
        <ele>905.91</ele>
        <time>2022-08-13T08:04:28.000Z</time>
      </trkpt>
      <trkpt lat="45.47809" lon="5.9334">
        <ele>906.84</ele>
        <time>2022-08-13T08:04:33.000Z</time>
      </trkpt>
      <trkpt lat="45.47794" lon="5.93326">
        <ele>905.63</ele>
        <time>2022-08-13T08:04:38.000Z</time>
      </trkpt>
      <trkpt lat="45.47779" lon="5.93312">
        <ele>906.1</ele>
        <time>2022-08-13T08:04:43.000Z</time>
      </trkpt>
      <trkpt lat="45.47771" lon="5.93294">
        <ele>904.03</ele>
        <time>2022-08-13T08:04:48.000Z</time>
      </trkpt>
      <trkpt lat="45.47764" lon="5.93265">
        <ele>903.54</ele>
        <time>2022-08-13T08:04:53.000Z</time>
      </trkpt>
      <trkpt lat="45.47774" lon="5.9324">
        <ele>903.84</ele>
        <time>2022-08-13T08:04:58.000Z</time>
      </trkpt>
      <trkpt lat="45.4778" lon="5.93218">
        <ele>905.15</ele>
        <time>2022-08-13T08:05:03.000Z</time>
      </trkpt>
      <trkpt lat="45.47783" lon="5.93193">
        <ele>905.31</ele>
        <time>2022-08-13T08:05:08.000Z</time>
      </trkpt>
      <trkpt lat="45.47785" lon="5.93169">
        <ele>907.14</ele>
        <time>2022-08-13T08:05:13.000Z</time>
      </trkpt>
      <trkpt lat="45.47787" lon="5.93139">
        <ele>902.9</ele>
        <time>2022-08-13T08:05:18.000Z</time>
      </trkpt>
      <trkpt lat="45.47791" lon="5.93109">
        <ele>905.57</ele>
        <time>2022-08-13T08:05:23.000Z</time>
      </trkpt>
      <trkpt lat="45.47791" lon="5.93084">
        <ele>905.46</ele>
        <time>2022-08-13T08:05:28.000Z</time>
      </trkpt>
      <trkpt lat="45.47787" lon="5.93057">
        <ele>907.13</ele>
        <time>2022-08-13T08:05:33.000Z</time>
      </trkpt>
      <trkpt lat="45.47784" lon="5.93031">
        <ele>908.72</ele>
        <time>2022-08-13T08:05:38.000Z</time>
      </trkpt>
      <trkpt lat="45.47785" lon="5.93004">
        <ele>912.76</ele>
        <time>2022-08-13T08:05:43.000Z</time>
      </trkpt>
      <trkpt lat="45.47788" lon="5.92983">
        <ele>912.87</ele>
        <time>2022-08-13T08:05:48.000Z</time>
      </trkpt>
      <trkpt lat="45.47789" lon="5.92958">
        <ele>917.44</ele>
        <time>2022-08-13T08:05:53.000Z</time>
      </trkpt>
      <trkpt lat="45.47786" lon="5.92933">
        <ele>917.09</ele>
        <time>2022-08-13T08:05:58.000Z</time>
      </trkpt>
      <trkpt lat="45.47779" lon="5.92909">
        <ele>919.11</ele>
        <time>2022-08-13T08:06:03.000Z</time>
      </trkpt>
      <trkpt lat="45.47771" lon="5.92884">
        <ele>924.34</ele>
        <time>2022-08-13T08:06:08.000Z</time>
      </trkpt>
      <trkpt lat="45.4777" lon="5.92861">
        <ele>926.82</ele>
        <time>2022-08-13T08:06:13.000Z</time>
      </trkpt>
      <trkpt lat="45.47762" lon="5.92842">
        <ele>928.98</ele>
        <time>2022-08-13T08:06:18.000Z</time>
      </trkpt>
      <trkpt lat="45.47754" lon="5.92823">
        <ele>929.59</ele>
        <time>2022-08-13T08:06:23.000Z</time>
      </trkpt>
      <trkpt lat="45.47749" lon="5.928">
        <ele>926.7</ele>
        <time>2022-08-13T08:06:28.000Z</time>
      </trkpt>
      <trkpt lat="45.47749" lon="5.92775">
        <ele>925.02</ele>
        <time>2022-08-13T08:06:33.000Z</time>
      </trkpt>
      <trkpt lat="45.4775" lon="5.9275">
        <ele>926.26</ele>
        <time>2022-08-13T08:06:38.000Z</time>
      </trkpt>
      <trkpt lat="45.47752" lon="5.92721">
        <ele>930.51</ele>
        <time>2022-08-13T08:06:43.000Z</time>
      </trkpt>
      <trkpt lat="45.47748" lon="5.92695">
        <ele>936.54</ele>
        <time>2022-08-13T08:06:48.000Z</time>
      </trkpt>
      <trkpt lat="45.47742" lon="5.92671">
        <ele>934.29</ele>
        <time>2022-08-13T08:06:53.000Z</time>
      </trkpt>
      <trkpt lat="45.4774" lon="5.92648">
        <ele>934.94</ele>
        <time>2022-08-13T08:06:58.000Z</time>
      </trkpt>
      <trkpt lat="45.4774" lon="5.92622">
        <ele>936.38</ele>
        <time>2022-08-13T08:07:03.000Z</time>
      </trkpt>
      <trkpt lat="45.47739" lon="5.92599">
        <ele>937.81</ele>
        <time>2022-08-13T08:07:08.000Z</time>
      </trkpt>
      <trkpt lat="45.47735" lon="5.92573">
        <ele>945.52</ele>
        <time>2022-08-13T08:07:13.000Z</time>
      </trkpt>
      <trkpt lat="45.47727" lon="5.92548">
        <ele>950.38</ele>
        <time>2022-08-13T08:07:18.000Z</time>
      </trkpt>
      <trkpt lat="45.47722" lon="5.92525">
        <ele>952.1</ele>
        <time>2022-08-13T08:07:23.000Z</time>
      </trkpt>
      <trkpt lat="45.47723" lon="5.92502">
        <ele>955.25</ele>
        <time>2022-08-13T08:07:28.000Z</time>
      </trkpt>
      <trkpt lat="45.47731" lon="5.92482">
        <ele>954.44</ele>
        <time>2022-08-13T08:07:33.000Z</time>
      </trkpt>
      <trkpt lat="45.47738" lon="5.92465">
        <ele>953.04</ele>
        <time>2022-08-13T08:07:38.000Z</time>
      </trkpt>
      <trkpt lat="45.47746" lon="5.92443">
        <ele>948.85</ele>
        <time>2022-08-13T08:07:43.000Z</time>
      </trkpt>
      <trkpt lat="45.47749" lon="5.9242">
        <ele>949.63</ele>
        <time>2022-08-13T08:07:48.000Z</time>
      </trkpt>
      <trkpt lat="45.47744" lon="5.92395">
        <ele>953.92</ele>
        <time>2022-08-13T08:07:53.000Z</time>
      </trkpt>
      <trkpt lat="45.47738" lon="5.92373">
        <ele>953.29</ele>
        <time>2022-08-13T08:07:58.000Z</time>
      </trkpt>
      <trkpt lat="45.47732" lon="5.92351">
        <ele>956.82</ele>
        <time>2022-08-13T08:08:03.000Z</time>
      </trkpt>
      <trkpt lat="45.47729" lon="5.92326">
        <ele>957.82</ele>
        <time>2022-08-13T08:08:08.000Z</time>
      </trkpt>
      <trkpt lat="45.47724" lon="5.92302">
        <ele>956.97</ele>
        <time>2022-08-13T08:08:13.000Z</time>
      </trkpt>
      <trkpt lat="45.47717" lon="5.92279">
        <ele>959.59</ele>
        <time>2022-08-13T08:08:18.000Z</time>
      </trkpt>
      <trkpt lat="45.47713" lon="5.92254">
        <ele>963.5</ele>
        <time>2022-08-13T08:08:23.000Z</time>
      </trkpt>
      <trkpt lat="45.47719" lon="5.92228">
        <ele>965.78</ele>
        <time>2022-08-13T08:08:28.000Z</time>
      </trkpt>
      <trkpt lat="45.47726" lon="5.92209">
        <ele>967.18</ele>
        <time>2022-08-13T08:08:33.000Z</time>
      </trkpt>
      <trkpt lat="45.47732" lon="5.92193">
        <ele>969.43</ele>
        <time>2022-08-13T08:08:38.000Z</time>
      </trkpt>
      <trkpt lat="45.4774" lon="5.92178">
        <ele>976.1</ele>
        <time>2022-08-13T08:08:43.000Z</time>
      </trkpt>
      <trkpt lat="45.47753" lon="5.92168">
        <ele>981.63</ele>
        <time>2022-08-13T08:08:48.000Z</time>
      </trkpt>
      <trkpt lat="45.47767" lon="5.92156">
        <ele>988.54</ele>
        <time>2022-08-13T08:08:53.000Z</time>
      </trkpt>
      <trkpt lat="45.47782" lon="5.92145">
        <ele>992.99</ele>
        <time>2022-08-13T08:08:58.000Z</time>
      </trkpt>
      <trkpt lat="45.47798" lon="5.92134">
        <ele>997.68</ele>
        <time>2022-08-13T08:09:03.000Z</time>
      </trkpt>
      <trkpt lat="45.47813" lon="5.92126">
        <ele>1002.18</ele>
        <time>2022-08-13T08:09:08.000Z</time>
      </trkpt>
      <trkpt lat="45.47828" lon="5.92121">
        <ele>1007.53</ele>
        <time>2022-08-13T08:09:13.000Z</time>
      </trkpt>
      <trkpt lat="45.4784" lon="5.92118">
        <ele>1011.45</ele>
        <time>2022-08-13T08:09:18.000Z</time>
      </trkpt>
      <trkpt lat="45.47853" lon="5.92115">
        <ele>1014.63</ele>
        <time>2022-08-13T08:09:23.000Z</time>
      </trkpt>
      <trkpt lat="45.47866" lon="5.92108">
        <ele>1016.82</ele>
        <time>2022-08-13T08:09:28.000Z</time>
      </trkpt>
      <trkpt lat="45.4788" lon="5.92105">
        <ele>1019.7</ele>
        <time>2022-08-13T08:09:33.000Z</time>
      </trkpt>
      <trkpt lat="45.47893" lon="5.92099">
        <ele>1018.36</ele>
        <time>2022-08-13T08:09:38.000Z</time>
      </trkpt>
      <trkpt lat="45.47911" lon="5.9209">
        <ele>1019.94</ele>
        <time>2022-08-13T08:09:43.000Z</time>
      </trkpt>
      <trkpt lat="45.47925" lon="5.92067">
        <ele>1021.36</ele>
        <time>2022-08-13T08:09:48.000Z</time>
      </trkpt>
      <trkpt lat="45.47935" lon="5.92045">
        <ele>1023.07</ele>
        <time>2022-08-13T08:09:53.000Z</time>
      </trkpt>
      <trkpt lat="45.47946" lon="5.92029">
        <ele>1021.81</ele>
        <time>2022-08-13T08:09:58.000Z</time>
      </trkpt>
      <trkpt lat="45.47958" lon="5.92015">
        <ele>1023.98</ele>
        <time>2022-08-13T08:10:03.000Z</time>
      </trkpt>
      <trkpt lat="45.4797" lon="5.92009">
        <ele>1028.2</ele>
        <time>2022-08-13T08:10:08.000Z</time>
      </trkpt>
      <trkpt lat="45.47984" lon="5.9201">
        <ele>1026.28</ele>
        <time>2022-08-13T08:10:13.000Z</time>
      </trkpt>
      <trkpt lat="45.47994" lon="5.92016">
        <ele>1027.57</ele>
        <time>2022-08-13T08:10:18.000Z</time>
      </trkpt>
      <trkpt lat="45.4801" lon="5.92023">
        <ele>1027.53</ele>
        <time>2022-08-13T08:10:23.000Z</time>
      </trkpt>
      <trkpt lat="45.48021" lon="5.92025">
        <ele>1026.05</ele>
        <time>2022-08-13T08:10:28.000Z</time>
      </trkpt>
      <trkpt lat="45.48035" lon="5.92024">
        <ele>1029.77</ele>
        <time>2022-08-13T08:10:33.000Z</time>
      </trkpt>
      <trkpt lat="45.48052" lon="5.92018">
        <ele>1033.01</ele>
        <time>2022-08-13T08:10:38.000Z</time>
      </trkpt>
      <trkpt lat="45.48066" lon="5.92006">
        <ele>1034.5</ele>
        <time>2022-08-13T08:10:43.000Z</time>
      </trkpt>
      <trkpt lat="45.48077" lon="5.9199">
        <ele>1035.94</ele>
        <time>2022-08-13T08:10:48.000Z</time>
      </trkpt>
      <trkpt lat="45.48086" lon="5.91974">
        <ele>1034.07</ele>
        <time>2022-08-13T08:10:53.000Z</time>
      </trkpt>
      <trkpt lat="45.48097" lon="5.91956">
        <ele>1032.54</ele>
        <time>2022-08-13T08:10:58.000Z</time>
      </trkpt>
      <trkpt lat="45.48108" lon="5.91941">
        <ele>1034.19</ele>
        <time>2022-08-13T08:11:03.000Z</time>
      </trkpt>
      <trkpt lat="45.48122" lon="5.91926">
        <ele>1035.16</ele>
        <time>2022-08-13T08:11:08.000Z</time>
      </trkpt>
      <trkpt lat="45.48131" lon="5.91913">
        <ele>1036.56</ele>
        <time>2022-08-13T08:11:13.000Z</time>
      </trkpt>
      <trkpt lat="45.48134" lon="5.91896">
        <ele>1040.18</ele>
        <time>2022-08-13T08:11:18.000Z</time>
      </trkpt>
      <trkpt lat="45.48131" lon="5.91879">
        <ele>1047.79</ele>
        <time>2022-08-13T08:11:23.000Z</time>
      </trkpt>
      <trkpt lat="45.48119" lon="5.91872">
        <ele>1048.91</ele>
        <time>2022-08-13T08:11:28.000Z</time>
      </trkpt>
      <trkpt lat="45.48105" lon="5.91866">
        <ele>1053.32</ele>
        <time>2022-08-13T08:11:33.000Z</time>
      </trkpt>
      <trkpt lat="45.4809" lon="5.91858">
        <ele>1054.46</ele>
        <time>2022-08-13T08:11:38.000Z</time>
      </trkpt>
      <trkpt lat="45.48069" lon="5.91851">
        <ele>1057.86</ele>
        <time>2022-08-13T08:11:43.000Z</time>
      </trkpt>
      <trkpt lat="45.48057" lon="5.91842">
        <ele>1058.75</ele>
        <time>2022-08-13T08:11:48.000Z</time>
      </trkpt>
      <trkpt lat="45.48048" lon="5.91845">
        <ele>1061.51</ele>
        <time>2022-08-13T08:11:55.000Z</time>
      </trkpt>
      <trkpt lat="45.48028" lon="5.91846">
        <ele>1056.61</ele>
        <time>2022-08-13T08:12:00.000Z</time>
      </trkpt>
      <trkpt lat="45.48015" lon="5.91839">
        <ele>1059.05</ele>
        <time>2022-08-13T08:12:05.000Z</time>
      </trkpt>
      <trkpt lat="45.48023" lon="5.9182">
        <ele>1062.93</ele>
        <time>2022-08-13T08:12:10.000Z</time>
      </trkpt>
      <trkpt lat="45.48038" lon="5.91808">
        <ele>1063.44</ele>
        <time>2022-08-13T08:12:15.000Z</time>
      </trkpt>
      <trkpt lat="45.48053" lon="5.91795">
        <ele>1064.74</ele>
        <time>2022-08-13T08:12:20.000Z</time>
      </trkpt>
      <trkpt lat="45.48061" lon="5.91779">
        <ele>1069.41</ele>
        <time>2022-08-13T08:12:25.000Z</time>
      </trkpt>
      <trkpt lat="45.48068" lon="5.91759">
        <ele>1069.26</ele>
        <time>2022-08-13T08:12:30.000Z</time>
      </trkpt>
      <trkpt lat="45.48079" lon="5.91751">
        <ele>1066.63</ele>
        <time>2022-08-13T08:12:35.000Z</time>
      </trkpt>
      <trkpt lat="45.48092" lon="5.91747">
        <ele>1069.12</ele>
        <time>2022-08-13T08:12:40.000Z</time>
      </trkpt>
      <trkpt lat="45.48106" lon="5.91744">
        <ele>1072.28</ele>
        <time>2022-08-13T08:12:45.000Z</time>
      </trkpt>
      <trkpt lat="45.48121" lon="5.91744">
        <ele>1077.97</ele>
        <time>2022-08-13T08:12:50.000Z</time>
      </trkpt>
      <trkpt lat="45.4814" lon="5.91746">
        <ele>1081.7</ele>
        <time>2022-08-13T08:12:55.000Z</time>
      </trkpt>
      <trkpt lat="45.48155" lon="5.91752">
        <ele>1081.97</ele>
        <time>2022-08-13T08:13:00.000Z</time>
      </trkpt>
      <trkpt lat="45.48171" lon="5.91752">
        <ele>1083.27</ele>
        <time>2022-08-13T08:13:05.000Z</time>
      </trkpt>
      <trkpt lat="45.48188" lon="5.9174">
        <ele>1084.99</ele>
        <time>2022-08-13T08:13:10.000Z</time>
      </trkpt>
      <trkpt lat="45.48197" lon="5.91723">
        <ele>1085.25</ele>
        <time>2022-08-13T08:13:15.000Z</time>
      </trkpt>
      <trkpt lat="45.48202" lon="5.91703">
        <ele>1088.05</ele>
        <time>2022-08-13T08:13:20.000Z</time>
      </trkpt>
      <trkpt lat="45.48202" lon="5.91672">
        <ele>1089.88</ele>
        <time>2022-08-13T08:13:25.000Z</time>
      </trkpt>
      <trkpt lat="45.48202" lon="5.91638">
        <ele>1094.01</ele>
        <time>2022-08-13T08:13:30.000Z</time>
      </trkpt>
      <trkpt lat="45.48191" lon="5.91608">
        <ele>1096.33</ele>
        <time>2022-08-13T08:13:35.000Z</time>
      </trkpt>
      <trkpt lat="45.48185" lon="5.91591">
        <ele>1099.99</ele>
        <time>2022-08-13T08:13:40.000Z</time>
      </trkpt>
      <trkpt lat="45.48179" lon="5.9157">
        <ele>1102.2</ele>
        <time>2022-08-13T08:13:45.000Z</time>
      </trkpt>
      <trkpt lat="45.4817" lon="5.91549">
        <ele>1104.03</ele>
        <time>2022-08-13T08:13:50.000Z</time>
      </trkpt>
      <trkpt lat="45.48158" lon="5.91534">
        <ele>1103.77</ele>
        <time>2022-08-13T08:13:55.000Z</time>
      </trkpt>
      <trkpt lat="45.48142" lon="5.91525">
        <ele>1108.04</ele>
        <time>2022-08-13T08:14:00.000Z</time>
      </trkpt>
      <trkpt lat="45.48126" lon="5.91523">
        <ele>1108.11</ele>
        <time>2022-08-13T08:14:05.000Z</time>
      </trkpt>
      <trkpt lat="45.48111" lon="5.91527">
        <ele>1108.6</ele>
        <time>2022-08-13T08:14:10.000Z</time>
      </trkpt>
      <trkpt lat="45.48092" lon="5.91528">
        <ele>1108.09</ele>
        <time>2022-08-13T08:14:15.000Z</time>
      </trkpt>
      <trkpt lat="45.48073" lon="5.91525">
        <ele>1109.65</ele>
        <time>2022-08-13T08:14:20.000Z</time>
      </trkpt>
      <trkpt lat="45.48057" lon="5.91511">
        <ele>1108.29</ele>
        <time>2022-08-13T08:14:25.000Z</time>
      </trkpt>
      <trkpt lat="45.48045" lon="5.91502">
        <ele>1109.94</ele>
        <time>2022-08-13T08:14:30.000Z</time>
      </trkpt>
      <trkpt lat="45.48036" lon="5.91504">
        <ele>1119.42</ele>
        <time>2022-08-13T08:14:55.000Z</time>
      </trkpt>
      <trkpt lat="45.48045" lon="5.91503">
        <ele>1132.46</ele>
        <time>2022-08-13T08:18:50.000Z</time>
      </trkpt>
      <trkpt lat="45.48042" lon="5.9149">
        <ele>1131.45</ele>
        <time>2022-08-13T08:18:55.000Z</time>
      </trkpt>
      <trkpt lat="45.48033" lon="5.91482">
        <ele>1132.22</ele>
        <time>2022-08-13T08:19:00.000Z</time>
      </trkpt>
      <trkpt lat="45.48023" lon="5.91475">
        <ele>1130.42</ele>
        <time>2022-08-13T08:19:06.000Z</time>
      </trkpt>
      <trkpt lat="45.48013" lon="5.9147">
        <ele>1128.89</ele>
        <time>2022-08-13T08:19:11.000Z</time>
      </trkpt>
      <trkpt lat="45.48007" lon="5.9146">
        <ele>1126.44</ele>
        <time>2022-08-13T08:19:16.000Z</time>
      </trkpt>
      <trkpt lat="45.48001" lon="5.91449">
        <ele>1124.24</ele>
        <time>2022-08-13T08:19:21.000Z</time>
      </trkpt>
      <trkpt lat="45.47995" lon="5.91437">
        <ele>1123.65</ele>
        <time>2022-08-13T08:19:26.000Z</time>
      </trkpt>
      <trkpt lat="45.47984" lon="5.91418">
        <ele>1121.79</ele>
        <time>2022-08-13T08:19:31.000Z</time>
      </trkpt>
      <trkpt lat="45.4797" lon="5.91391">
        <ele>1121.52</ele>
        <time>2022-08-13T08:19:36.000Z</time>
      </trkpt>
      <trkpt lat="45.47953" lon="5.91358">
        <ele>1122.51</ele>
        <time>2022-08-13T08:19:41.000Z</time>
      </trkpt>
      <trkpt lat="45.47931" lon="5.91321">
        <ele>1125.87</ele>
        <time>2022-08-13T08:19:46.000Z</time>
      </trkpt>
      <trkpt lat="45.47899" lon="5.91276">
        <ele>1123.76</ele>
        <time>2022-08-13T08:19:51.000Z</time>
      </trkpt>
      <trkpt lat="45.47863" lon="5.91226">
        <ele>1121.16</ele>
        <time>2022-08-13T08:19:56.000Z</time>
      </trkpt>
      <trkpt lat="45.47838" lon="5.91176">
        <ele>1116.47</ele>
        <time>2022-08-13T08:20:01.000Z</time>
      </trkpt>
      <trkpt lat="45.47807" lon="5.91117">
        <ele>1111.5</ele>
        <time>2022-08-13T08:20:06.000Z</time>
      </trkpt>
      <trkpt lat="45.4778" lon="5.91033">
        <ele>1109.57</ele>
        <time>2022-08-13T08:20:11.000Z</time>
      </trkpt>
      <trkpt lat="45.47737" lon="5.90975">
        <ele>1104.61</ele>
        <time>2022-08-13T08:20:16.000Z</time>
      </trkpt>
      <trkpt lat="45.47691" lon="5.90902">
        <ele>1100.14</ele>
        <time>2022-08-13T08:20:21.000Z</time>
      </trkpt>
      <trkpt lat="45.47636" lon="5.90838">
        <ele>1099.51</ele>
        <time>2022-08-13T08:20:26.000Z</time>
      </trkpt>
      <trkpt lat="45.47583" lon="5.9077">
        <ele>1089.36</ele>
        <time>2022-08-13T08:20:31.000Z</time>
      </trkpt>
      <trkpt lat="45.47545" lon="5.90707">
        <ele>1082.31</ele>
        <time>2022-08-13T08:20:36.000Z</time>
      </trkpt>
      <trkpt lat="45.47515" lon="5.90633">
        <ele>1076.83</ele>
        <time>2022-08-13T08:20:41.000Z</time>
      </trkpt>
      <trkpt lat="45.47473" lon="5.90621">
        <ele>1076.65</ele>
        <time>2022-08-13T08:20:46.000Z</time>
      </trkpt>
      <trkpt lat="45.47437" lon="5.90659">
        <ele>1074.78</ele>
        <time>2022-08-13T08:20:51.000Z</time>
      </trkpt>
      <trkpt lat="45.47385" lon="5.90675">
        <ele>1070.61</ele>
        <time>2022-08-13T08:20:56.000Z</time>
      </trkpt>
      <trkpt lat="45.47338" lon="5.90649">
        <ele>1066.97</ele>
        <time>2022-08-13T08:21:01.000Z</time>
      </trkpt>
      <trkpt lat="45.47296" lon="5.90614">
        <ele>1060.88</ele>
        <time>2022-08-13T08:21:06.000Z</time>
      </trkpt>
      <trkpt lat="45.47254" lon="5.90576">
        <ele>1060.79</ele>
        <time>2022-08-13T08:21:11.000Z</time>
      </trkpt>
      <trkpt lat="45.47203" lon="5.90551">
        <ele>1058.67</ele>
        <time>2022-08-13T08:21:16.000Z</time>
      </trkpt>
      <trkpt lat="45.47155" lon="5.90501">
        <ele>1057.22</ele>
        <time>2022-08-13T08:21:21.000Z</time>
      </trkpt>
      <trkpt lat="45.47103" lon="5.90451">
        <ele>1051.2</ele>
        <time>2022-08-13T08:21:26.000Z</time>
      </trkpt>
      <trkpt lat="45.47064" lon="5.90378">
        <ele>1050.02</ele>
        <time>2022-08-13T08:21:31.000Z</time>
      </trkpt>
      <trkpt lat="45.47037" lon="5.90297">
        <ele>1049.01</ele>
        <time>2022-08-13T08:21:36.000Z</time>
      </trkpt>
      <trkpt lat="45.4698" lon="5.9028">
        <ele>1044.85</ele>
        <time>2022-08-13T08:21:41.000Z</time>
      </trkpt>
      <trkpt lat="45.46923" lon="5.90247">
        <ele>1039.53</ele>
        <time>2022-08-13T08:21:46.000Z</time>
      </trkpt>
      <trkpt lat="45.4687" lon="5.90187">
        <ele>1036.79</ele>
        <time>2022-08-13T08:21:51.000Z</time>
      </trkpt>
      <trkpt lat="45.46819" lon="5.90141">
        <ele>1032.36</ele>
        <time>2022-08-13T08:21:56.000Z</time>
      </trkpt>
      <trkpt lat="45.46766" lon="5.90084">
        <ele>1027.66</ele>
        <time>2022-08-13T08:22:01.000Z</time>
      </trkpt>
      <trkpt lat="45.46721" lon="5.90032">
        <ele>1020.67</ele>
        <time>2022-08-13T08:22:06.000Z</time>
      </trkpt>
      <trkpt lat="45.46662" lon="5.90004">
        <ele>1014.53</ele>
        <time>2022-08-13T08:22:11.000Z</time>
      </trkpt>
      <trkpt lat="45.4661" lon="5.89992">
        <ele>1010.39</ele>
        <time>2022-08-13T08:22:16.000Z</time>
      </trkpt>
      <trkpt lat="45.46565" lon="5.90018">
        <ele>1006.59</ele>
        <time>2022-08-13T08:22:21.000Z</time>
      </trkpt>
      <trkpt lat="45.46521" lon="5.89981">
        <ele>998.43</ele>
        <time>2022-08-13T08:22:26.000Z</time>
      </trkpt>
      <trkpt lat="45.46457" lon="5.8997">
        <ele>992.46</ele>
        <time>2022-08-13T08:22:31.000Z</time>
      </trkpt>
      <trkpt lat="45.46392" lon="5.89949">
        <ele>988.49</ele>
        <time>2022-08-13T08:22:36.000Z</time>
      </trkpt>
      <trkpt lat="45.46353" lon="5.89884">
        <ele>983.5</ele>
        <time>2022-08-13T08:22:41.000Z</time>
      </trkpt>
      <trkpt lat="45.46329" lon="5.89823">
        <ele>979.59</ele>
        <time>2022-08-13T08:22:46.000Z</time>
      </trkpt>
      <trkpt lat="45.46301" lon="5.89777">
        <ele>979.66</ele>
        <time>2022-08-13T08:22:51.000Z</time>
      </trkpt>
      <trkpt lat="45.46316" lon="5.89763">
        <ele>977.62</ele>
        <time>2022-08-13T08:22:56.000Z</time>
      </trkpt>
      <trkpt lat="45.46353" lon="5.89797">
        <ele>975.48</ele>
        <time>2022-08-13T08:23:01.000Z</time>
      </trkpt>
      <trkpt lat="45.46401" lon="5.89825">
        <ele>973.64</ele>
        <time>2022-08-13T08:23:06.000Z</time>
      </trkpt>
      <trkpt lat="45.464" lon="5.89792">
        <ele>970.22</ele>
        <time>2022-08-13T08:23:11.000Z</time>
      </trkpt>
      <trkpt lat="45.46357" lon="5.8974">
        <ele>965.51</ele>
        <time>2022-08-13T08:23:16.000Z</time>
      </trkpt>
      <trkpt lat="45.46304" lon="5.89689">
        <ele>959.87</ele>
        <time>2022-08-13T08:23:21.000Z</time>
      </trkpt>
      <trkpt lat="45.46256" lon="5.89627">
        <ele>954.45</ele>
        <time>2022-08-13T08:23:26.000Z</time>
      </trkpt>
      <trkpt lat="45.46189" lon="5.8963">
        <ele>950.91</ele>
        <time>2022-08-13T08:23:31.000Z</time>
      </trkpt>
      <trkpt lat="45.46115" lon="5.89612">
        <ele>942.3</ele>
        <time>2022-08-13T08:23:36.000Z</time>
      </trkpt>
      <trkpt lat="45.46053" lon="5.89542">
        <ele>936.4</ele>
        <time>2022-08-13T08:23:41.000Z</time>
      </trkpt>
      <trkpt lat="45.46004" lon="5.89466">
        <ele>930.53</ele>
        <time>2022-08-13T08:23:46.000Z</time>
      </trkpt>
      <trkpt lat="45.45952" lon="5.89438">
        <ele>928.57</ele>
        <time>2022-08-13T08:23:51.000Z</time>
      </trkpt>
      <trkpt lat="45.45907" lon="5.89377">
        <ele>925.24</ele>
        <time>2022-08-13T08:23:56.000Z</time>
      </trkpt>
      <trkpt lat="45.45862" lon="5.89311">
        <ele>922.21</ele>
        <time>2022-08-13T08:24:01.000Z</time>
      </trkpt>
      <trkpt lat="45.45813" lon="5.8925">
        <ele>919.47</ele>
        <time>2022-08-13T08:24:06.000Z</time>
      </trkpt>
      <trkpt lat="45.45768" lon="5.89184">
        <ele>919.07</ele>
        <time>2022-08-13T08:24:11.000Z</time>
      </trkpt>
      <trkpt lat="45.45719" lon="5.89128">
        <ele>915.6</ele>
        <time>2022-08-13T08:24:16.000Z</time>
      </trkpt>
      <trkpt lat="45.45667" lon="5.89065">
        <ele>911.01</ele>
        <time>2022-08-13T08:24:21.000Z</time>
      </trkpt>
      <trkpt lat="45.4563" lon="5.88975">
        <ele>909.92</ele>
        <time>2022-08-13T08:24:26.000Z</time>
      </trkpt>
      <trkpt lat="45.45603" lon="5.88877">
        <ele>904.18</ele>
        <time>2022-08-13T08:24:31.000Z</time>
      </trkpt>
      <trkpt lat="45.45589" lon="5.88769">
        <ele>897.03</ele>
        <time>2022-08-13T08:24:36.000Z</time>
      </trkpt>
      <trkpt lat="45.45554" lon="5.88675">
        <ele>889.96</ele>
        <time>2022-08-13T08:24:41.000Z</time>
      </trkpt>
      <trkpt lat="45.45553" lon="5.88578">
        <ele>887.51</ele>
        <time>2022-08-13T08:24:46.000Z</time>
      </trkpt>
      <trkpt lat="45.45503" lon="5.88514">
        <ele>884.08</ele>
        <time>2022-08-13T08:24:51.000Z</time>
      </trkpt>
      <trkpt lat="45.45445" lon="5.88454">
        <ele>876.97</ele>
        <time>2022-08-13T08:24:56.000Z</time>
      </trkpt>
      <trkpt lat="45.45384" lon="5.88412">
        <ele>869.26</ele>
        <time>2022-08-13T08:25:01.000Z</time>
      </trkpt>
      <trkpt lat="45.45321" lon="5.88433">
        <ele>866.52</ele>
        <time>2022-08-13T08:25:06.000Z</time>
      </trkpt>
      <trkpt lat="45.45265" lon="5.8841">
        <ele>861.84</ele>
        <time>2022-08-13T08:25:11.000Z</time>
      </trkpt>
      <trkpt lat="45.45229" lon="5.88392">
        <ele>857.57</ele>
        <time>2022-08-13T08:25:16.000Z</time>
      </trkpt>
      <trkpt lat="45.45191" lon="5.88389">
        <ele>852.7</ele>
        <time>2022-08-13T08:25:21.000Z</time>
      </trkpt>
      <trkpt lat="45.45144" lon="5.88382">
        <ele>852.12</ele>
        <time>2022-08-13T08:25:26.000Z</time>
      </trkpt>
      <trkpt lat="45.45104" lon="5.88364">
        <ele>846.83</ele>
        <time>2022-08-13T08:25:31.000Z</time>
      </trkpt>
      <trkpt lat="45.45064" lon="5.88342">
        <ele>841.82</ele>
        <time>2022-08-13T08:25:36.000Z</time>
      </trkpt>
      <trkpt lat="45.45023" lon="5.8832">
        <ele>839.37</ele>
        <time>2022-08-13T08:25:41.000Z</time>
      </trkpt>
      <trkpt lat="45.44992" lon="5.8828">
        <ele>836.92</ele>
        <time>2022-08-13T08:25:46.000Z</time>
      </trkpt>
      <trkpt lat="45.44963" lon="5.88256">
        <ele>838.91</ele>
        <time>2022-08-13T08:25:51.000Z</time>
      </trkpt>
      <trkpt lat="45.44937" lon="5.88237">
        <ele>839.15</ele>
        <time>2022-08-13T08:25:56.000Z</time>
      </trkpt>
      <trkpt lat="45.44908" lon="5.88211">
        <ele>836.87</ele>
        <time>2022-08-13T08:26:01.000Z</time>
      </trkpt>
      <trkpt lat="45.44882" lon="5.88175">
        <ele>835.34</ele>
        <time>2022-08-13T08:26:06.000Z</time>
      </trkpt>
      <trkpt lat="45.44856" lon="5.88139">
        <ele>831.27</ele>
        <time>2022-08-13T08:26:11.000Z</time>
      </trkpt>
      <trkpt lat="45.44822" lon="5.88111">
        <ele>832.11</ele>
        <time>2022-08-13T08:26:16.000Z</time>
      </trkpt>
      <trkpt lat="45.44789" lon="5.88081">
        <ele>831.14</ele>
        <time>2022-08-13T08:26:21.000Z</time>
      </trkpt>
      <trkpt lat="45.44754" lon="5.88046">
        <ele>834.09</ele>
        <time>2022-08-13T08:26:26.000Z</time>
      </trkpt>
      <trkpt lat="45.44716" lon="5.88019">
        <ele>835.85</ele>
        <time>2022-08-13T08:26:31.000Z</time>
      </trkpt>
      <trkpt lat="45.44671" lon="5.88016">
        <ele>835.45</ele>
        <time>2022-08-13T08:26:36.000Z</time>
      </trkpt>
      <trkpt lat="45.44625" lon="5.88025">
        <ele>832.74</ele>
        <time>2022-08-13T08:26:41.000Z</time>
      </trkpt>
      <trkpt lat="45.44583" lon="5.88017">
        <ele>833.65</ele>
        <time>2022-08-13T08:26:46.000Z</time>
      </trkpt>
      <trkpt lat="45.44541" lon="5.87999">
        <ele>830.35</ele>
        <time>2022-08-13T08:26:51.000Z</time>
      </trkpt>
      <trkpt lat="45.44492" lon="5.87989">
        <ele>827.68</ele>
        <time>2022-08-13T08:26:56.000Z</time>
      </trkpt>
      <trkpt lat="45.4444" lon="5.87994">
        <ele>821.92</ele>
        <time>2022-08-13T08:27:01.000Z</time>
      </trkpt>
      <trkpt lat="45.44391" lon="5.88048">
        <ele>818.24</ele>
        <time>2022-08-13T08:27:06.000Z</time>
      </trkpt>
      <trkpt lat="45.44328" lon="5.88027">
        <ele>817.83</ele>
        <time>2022-08-13T08:27:11.000Z</time>
      </trkpt>
      <trkpt lat="45.4426" lon="5.88005">
        <ele>818.98</ele>
        <time>2022-08-13T08:27:16.000Z</time>
      </trkpt>
      <trkpt lat="45.44182" lon="5.87972">
        <ele>817.05</ele>
        <time>2022-08-13T08:27:21.000Z</time>
      </trkpt>
      <trkpt lat="45.441" lon="5.87946">
        <ele>816.02</ele>
        <time>2022-08-13T08:27:26.000Z</time>
      </trkpt>
      <trkpt lat="45.44029" lon="5.87903">
        <ele>805.86</ele>
        <time>2022-08-13T08:27:31.000Z</time>
      </trkpt>
      <trkpt lat="45.43955" lon="5.8785">
        <ele>802.24</ele>
        <time>2022-08-13T08:27:36.000Z</time>
      </trkpt>
      <trkpt lat="45.43879" lon="5.87813">
        <ele>799.15</ele>
        <time>2022-08-13T08:27:41.000Z</time>
      </trkpt>
      <trkpt lat="45.43815" lon="5.87759">
        <ele>793.77</ele>
        <time>2022-08-13T08:27:46.000Z</time>
      </trkpt>
      <trkpt lat="45.43752" lon="5.8773">
        <ele>786.93</ele>
        <time>2022-08-13T08:27:51.000Z</time>
      </trkpt>
      <trkpt lat="45.4368" lon="5.8773">
        <ele>785.61</ele>
        <time>2022-08-13T08:27:56.000Z</time>
      </trkpt>
      <trkpt lat="45.43624" lon="5.87711">
        <ele>782.17</ele>
        <time>2022-08-13T08:28:01.000Z</time>
      </trkpt>
      <trkpt lat="45.43574" lon="5.87683">
        <ele>778.37</ele>
        <time>2022-08-13T08:28:06.000Z</time>
      </trkpt>
      <trkpt lat="45.43514" lon="5.87663">
        <ele>775.32</ele>
        <time>2022-08-13T08:28:11.000Z</time>
      </trkpt>
      <trkpt lat="45.43456" lon="5.87632">
        <ele>769.46</ele>
        <time>2022-08-13T08:28:16.000Z</time>
      </trkpt>
      <trkpt lat="45.43442" lon="5.87447">
        <ele>765.35</ele>
        <time>2022-08-13T08:28:26.000Z</time>
      </trkpt>
      <trkpt lat="45.43418" lon="5.87358">
        <ele>765.43</ele>
        <time>2022-08-13T08:28:31.000Z</time>
      </trkpt>
      <trkpt lat="45.43375" lon="5.87282">
        <ele>756.21</ele>
        <time>2022-08-13T08:28:36.000Z</time>
      </trkpt>
      <trkpt lat="45.43338" lon="5.87217">
        <ele>746.79</ele>
        <time>2022-08-13T08:28:41.000Z</time>
      </trkpt>
      <trkpt lat="45.43283" lon="5.872">
        <ele>739.65</ele>
        <time>2022-08-13T08:28:46.000Z</time>
      </trkpt>
      <trkpt lat="45.43245" lon="5.87166">
        <ele>739.3</ele>
        <time>2022-08-13T08:28:51.000Z</time>
      </trkpt>
      <trkpt lat="45.43203" lon="5.87104">
        <ele>741.6</ele>
        <time>2022-08-13T08:28:56.000Z</time>
      </trkpt>
      <trkpt lat="45.43145" lon="5.87059">
        <ele>737.7</ele>
        <time>2022-08-13T08:29:01.000Z</time>
      </trkpt>
      <trkpt lat="45.43079" lon="5.87025">
        <ele>734.55</ele>
        <time>2022-08-13T08:29:06.000Z</time>
      </trkpt>
      <trkpt lat="45.43012" lon="5.86981">
        <ele>733.48</ele>
        <time>2022-08-13T08:29:11.000Z</time>
      </trkpt>
      <trkpt lat="45.42944" lon="5.86943">
        <ele>729.07</ele>
        <time>2022-08-13T08:29:16.000Z</time>
      </trkpt>
      <trkpt lat="45.42876" lon="5.86938">
        <ele>724.61</ele>
        <time>2022-08-13T08:29:21.000Z</time>
      </trkpt>
      <trkpt lat="45.42811" lon="5.86919">
        <ele>718.75</ele>
        <time>2022-08-13T08:29:26.000Z</time>
      </trkpt>
      <trkpt lat="45.42808" lon="5.86814">
        <ele>711.15</ele>
        <time>2022-08-13T08:29:31.000Z</time>
      </trkpt>
      <trkpt lat="45.42799" lon="5.86752">
        <ele>707.86</ele>
        <time>2022-08-13T08:29:36.000Z</time>
      </trkpt>
      <trkpt lat="45.42756" lon="5.8673">
        <ele>701.54</ele>
        <time>2022-08-13T08:29:41.000Z</time>
      </trkpt>
      <trkpt lat="45.42717" lon="5.86704">
        <ele>703.34</ele>
        <time>2022-08-13T08:29:46.000Z</time>
      </trkpt>
      <trkpt lat="45.42657" lon="5.86685">
        <ele>701.28</ele>
        <time>2022-08-13T08:29:51.000Z</time>
      </trkpt>
      <trkpt lat="45.42602" lon="5.86663">
        <ele>699.44</ele>
        <time>2022-08-13T08:29:56.000Z</time>
      </trkpt>
      <trkpt lat="45.42541" lon="5.86666">
        <ele>701.18</ele>
        <time>2022-08-13T08:30:01.000Z</time>
      </trkpt>
      <trkpt lat="45.4251" lon="5.8662">
        <ele>697.11</ele>
        <time>2022-08-13T08:30:06.000Z</time>
      </trkpt>
      <trkpt lat="45.42509" lon="5.86543">
        <ele>691.68</ele>
        <time>2022-08-13T08:30:11.000Z</time>
      </trkpt>
      <trkpt lat="45.42495" lon="5.86467">
        <ele>688.81</ele>
        <time>2022-08-13T08:30:16.000Z</time>
      </trkpt>
      <trkpt lat="45.42461" lon="5.86427">
        <ele>673.27</ele>
        <time>2022-08-13T08:30:21.000Z</time>
      </trkpt>
      <trkpt lat="45.42419" lon="5.86382">
        <ele>674.17</ele>
        <time>2022-08-13T08:30:26.000Z</time>
      </trkpt>
      <trkpt lat="45.42397" lon="5.86316">
        <ele>677.85</ele>
        <time>2022-08-13T08:30:31.000Z</time>
      </trkpt>
      <trkpt lat="45.4236" lon="5.86266">
        <ele>679.18</ele>
        <time>2022-08-13T08:30:36.000Z</time>
      </trkpt>
      <trkpt lat="45.42324" lon="5.86225">
        <ele>680.34</ele>
        <time>2022-08-13T08:30:41.000Z</time>
      </trkpt>
      <trkpt lat="45.42285" lon="5.86183">
        <ele>677.98</ele>
        <time>2022-08-13T08:30:46.000Z</time>
      </trkpt>
      <trkpt lat="45.42236" lon="5.86161">
        <ele>680</ele>
        <time>2022-08-13T08:30:51.000Z</time>
      </trkpt>
      <trkpt lat="45.42191" lon="5.8615">
        <ele>677.13</ele>
        <time>2022-08-13T08:30:56.000Z</time>
      </trkpt>
      <trkpt lat="45.42148" lon="5.86137">
        <ele>674.45</ele>
        <time>2022-08-13T08:31:01.000Z</time>
      </trkpt>
      <trkpt lat="45.42115" lon="5.86094">
        <ele>673.57</ele>
        <time>2022-08-13T08:31:06.000Z</time>
      </trkpt>
      <trkpt lat="45.42114" lon="5.86026">
        <ele>667.56</ele>
        <time>2022-08-13T08:31:11.000Z</time>
      </trkpt>
      <trkpt lat="45.42119" lon="5.85964">
        <ele>667.2</ele>
        <time>2022-08-13T08:31:16.000Z</time>
      </trkpt>
      <trkpt lat="45.42116" lon="5.85902">
        <ele>665.68</ele>
        <time>2022-08-13T08:31:21.000Z</time>
      </trkpt>
      <trkpt lat="45.42088" lon="5.85854">
        <ele>665.7</ele>
        <time>2022-08-13T08:31:26.000Z</time>
      </trkpt>
      <trkpt lat="45.42047" lon="5.85828">
        <ele>661.64</ele>
        <time>2022-08-13T08:31:31.000Z</time>
      </trkpt>
      <trkpt lat="45.42008" lon="5.85803">
        <ele>661.07</ele>
        <time>2022-08-13T08:31:36.000Z</time>
      </trkpt>
      <trkpt lat="45.41965" lon="5.85778">
        <ele>659.15</ele>
        <time>2022-08-13T08:31:41.000Z</time>
      </trkpt>
      <trkpt lat="45.41932" lon="5.85741">
        <ele>656.57</ele>
        <time>2022-08-13T08:31:46.000Z</time>
      </trkpt>
      <trkpt lat="45.41907" lon="5.85697">
        <ele>656.81</ele>
        <time>2022-08-13T08:31:51.000Z</time>
      </trkpt>
      <trkpt lat="45.41882" lon="5.85653">
        <ele>656.2</ele>
        <time>2022-08-13T08:31:56.000Z</time>
      </trkpt>
      <trkpt lat="45.41854" lon="5.85617">
        <ele>656.13</ele>
        <time>2022-08-13T08:32:01.000Z</time>
      </trkpt>
      <trkpt lat="45.41832" lon="5.8558">
        <ele>655.53</ele>
        <time>2022-08-13T08:32:06.000Z</time>
      </trkpt>
      <trkpt lat="45.41807" lon="5.85543">
        <ele>654.42</ele>
        <time>2022-08-13T08:32:11.000Z</time>
      </trkpt>
      <trkpt lat="45.41791" lon="5.85525">
        <ele>654.92</ele>
        <time>2022-08-13T08:32:16.000Z</time>
      </trkpt>
      <trkpt lat="45.41793" lon="5.85512">
        <ele>647.72</ele>
        <time>2022-08-13T08:44:36.000Z</time>
      </trkpt>
      <trkpt lat="45.4179" lon="5.85495">
        <ele>646.49</ele>
        <time>2022-08-13T08:44:41.000Z</time>
      </trkpt>
      <trkpt lat="45.41776" lon="5.85482">
        <ele>643.92</ele>
        <time>2022-08-13T08:44:46.000Z</time>
      </trkpt>
      <trkpt lat="45.41761" lon="5.85473">
        <ele>643.94</ele>
        <time>2022-08-13T08:44:51.000Z</time>
      </trkpt>
      <trkpt lat="45.41746" lon="5.85468">
        <ele>644.42</ele>
        <time>2022-08-13T08:44:56.000Z</time>
      </trkpt>
      <trkpt lat="45.4173" lon="5.8547">
        <ele>641.85</ele>
        <time>2022-08-13T08:45:01.000Z</time>
      </trkpt>
      <trkpt lat="45.41715" lon="5.85467">
        <ele>643.31</ele>
        <time>2022-08-13T08:45:06.000Z</time>
      </trkpt>
      <trkpt lat="45.41699" lon="5.85462">
        <ele>640.12</ele>
        <time>2022-08-13T08:45:11.000Z</time>
      </trkpt>
      <trkpt lat="45.41683" lon="5.85452">
        <ele>638.12</ele>
        <time>2022-08-13T08:45:16.000Z</time>
      </trkpt>
      <trkpt lat="45.41669" lon="5.85446">
        <ele>640.25</ele>
        <time>2022-08-13T08:45:21.000Z</time>
      </trkpt>
      <trkpt lat="45.41658" lon="5.85433">
        <ele>635.7</ele>
        <time>2022-08-13T08:45:26.000Z</time>
      </trkpt>
      <trkpt lat="45.41641" lon="5.85428">
        <ele>638.77</ele>
        <time>2022-08-13T08:45:31.000Z</time>
      </trkpt>
      <trkpt lat="45.41622" lon="5.85441">
        <ele>639.53</ele>
        <time>2022-08-13T08:45:36.000Z</time>
      </trkpt>
      <trkpt lat="45.41606" lon="5.85454">
        <ele>641.77</ele>
        <time>2022-08-13T08:45:41.000Z</time>
      </trkpt>
      <trkpt lat="45.41586" lon="5.8546">
        <ele>647.41</ele>
        <time>2022-08-13T08:45:46.000Z</time>
      </trkpt>
      <trkpt lat="45.41567" lon="5.85466">
        <ele>646.28</ele>
        <time>2022-08-13T08:45:51.000Z</time>
      </trkpt>
      <trkpt lat="45.4155" lon="5.8547">
        <ele>645.26</ele>
        <time>2022-08-13T08:45:56.000Z</time>
      </trkpt>
      <trkpt lat="45.41534" lon="5.85465">
        <ele>642.87</ele>
        <time>2022-08-13T08:46:01.000Z</time>
      </trkpt>
      <trkpt lat="45.41516" lon="5.85466">
        <ele>644.58</ele>
        <time>2022-08-13T08:46:06.000Z</time>
      </trkpt>
      <trkpt lat="45.41494" lon="5.85463">
        <ele>644.27</ele>
        <time>2022-08-13T08:46:11.000Z</time>
      </trkpt>
      <trkpt lat="45.41477" lon="5.85459">
        <ele>644.25</ele>
        <time>2022-08-13T08:46:16.000Z</time>
      </trkpt>
      <trkpt lat="45.41459" lon="5.85459">
        <ele>640.87</ele>
        <time>2022-08-13T08:46:21.000Z</time>
      </trkpt>
      <trkpt lat="45.41438" lon="5.85468">
        <ele>636.91</ele>
        <time>2022-08-13T08:46:26.000Z</time>
      </trkpt>
      <trkpt lat="45.4142" lon="5.85458">
        <ele>638.11</ele>
        <time>2022-08-13T08:46:31.000Z</time>
      </trkpt>
      <trkpt lat="45.41407" lon="5.85448">
        <ele>638.88</ele>
        <time>2022-08-13T08:46:36.000Z</time>
      </trkpt>
      <trkpt lat="45.41387" lon="5.85438">
        <ele>640.13</ele>
        <time>2022-08-13T08:46:41.000Z</time>
      </trkpt>
      <trkpt lat="45.41371" lon="5.85421">
        <ele>640.02</ele>
        <time>2022-08-13T08:46:46.000Z</time>
      </trkpt>
      <trkpt lat="45.41352" lon="5.85403">
        <ele>644.07</ele>
        <time>2022-08-13T08:46:51.000Z</time>
      </trkpt>
      <trkpt lat="45.41333" lon="5.8539">
        <ele>642.86</ele>
        <time>2022-08-13T08:46:56.000Z</time>
      </trkpt>
      <trkpt lat="45.41315" lon="5.85375">
        <ele>647.48</ele>
        <time>2022-08-13T08:47:01.000Z</time>
      </trkpt>
      <trkpt lat="45.41294" lon="5.85367">
        <ele>650.04</ele>
        <time>2022-08-13T08:47:06.000Z</time>
      </trkpt>
      <trkpt lat="45.41274" lon="5.85358">
        <ele>649.45</ele>
        <time>2022-08-13T08:47:11.000Z</time>
      </trkpt>
      <trkpt lat="45.41256" lon="5.85349">
        <ele>648.96</ele>
        <time>2022-08-13T08:47:16.000Z</time>
      </trkpt>
      <trkpt lat="45.41237" lon="5.85341">
        <ele>645.64</ele>
        <time>2022-08-13T08:47:21.000Z</time>
      </trkpt>
      <trkpt lat="45.41219" lon="5.85332">
        <ele>645.52</ele>
        <time>2022-08-13T08:47:26.000Z</time>
      </trkpt>
      <trkpt lat="45.41203" lon="5.85342">
        <ele>647.91</ele>
        <time>2022-08-13T08:47:31.000Z</time>
      </trkpt>
      <trkpt lat="45.41189" lon="5.85368">
        <ele>653.81</ele>
        <time>2022-08-13T08:47:36.000Z</time>
      </trkpt>
      <trkpt lat="45.41188" lon="5.85394">
        <ele>653.47</ele>
        <time>2022-08-13T08:47:41.000Z</time>
      </trkpt>
      <trkpt lat="45.41204" lon="5.85405">
        <ele>655.44</ele>
        <time>2022-08-13T08:47:46.000Z</time>
      </trkpt>
      <trkpt lat="45.4122" lon="5.85414">
        <ele>658.18</ele>
        <time>2022-08-13T08:47:51.000Z</time>
      </trkpt>
      <trkpt lat="45.41234" lon="5.85428">
        <ele>662.05</ele>
        <time>2022-08-13T08:47:56.000Z</time>
      </trkpt>
      <trkpt lat="45.41241" lon="5.85453">
        <ele>663.29</ele>
        <time>2022-08-13T08:48:01.000Z</time>
      </trkpt>
      <trkpt lat="45.41242" lon="5.85479">
        <ele>665.74</ele>
        <time>2022-08-13T08:48:06.000Z</time>
      </trkpt>
      <trkpt lat="45.41256" lon="5.85496">
        <ele>667.63</ele>
        <time>2022-08-13T08:48:11.000Z</time>
      </trkpt>
      <trkpt lat="45.41262" lon="5.85521">
        <ele>670.92</ele>
        <time>2022-08-13T08:48:16.000Z</time>
      </trkpt>
      <trkpt lat="45.41253" lon="5.85544">
        <ele>672.63</ele>
        <time>2022-08-13T08:48:21.000Z</time>
      </trkpt>
      <trkpt lat="45.41235" lon="5.85556">
        <ele>670.68</ele>
        <time>2022-08-13T08:48:26.000Z</time>
      </trkpt>
      <trkpt lat="45.41216" lon="5.85565">
        <ele>667.12</ele>
        <time>2022-08-13T08:48:31.000Z</time>
      </trkpt>
      <trkpt lat="45.41201" lon="5.85574">
        <ele>667.81</ele>
        <time>2022-08-13T08:48:36.000Z</time>
      </trkpt>
      <trkpt lat="45.41186" lon="5.85583">
        <ele>670.1</ele>
        <time>2022-08-13T08:48:41.000Z</time>
      </trkpt>
      <trkpt lat="45.41169" lon="5.85591">
        <ele>672.41</ele>
        <time>2022-08-13T08:48:46.000Z</time>
      </trkpt>
      <trkpt lat="45.41151" lon="5.85605">
        <ele>675.45</ele>
        <time>2022-08-13T08:48:51.000Z</time>
      </trkpt>
      <trkpt lat="45.41136" lon="5.85615">
        <ele>677.43</ele>
        <time>2022-08-13T08:48:56.000Z</time>
      </trkpt>
      <trkpt lat="45.41123" lon="5.85628">
        <ele>687.29</ele>
        <time>2022-08-13T08:49:01.000Z</time>
      </trkpt>
      <trkpt lat="45.41112" lon="5.85646">
        <ele>693.68</ele>
        <time>2022-08-13T08:49:06.000Z</time>
      </trkpt>
      <trkpt lat="45.41101" lon="5.85665">
        <ele>694.65</ele>
        <time>2022-08-13T08:49:11.000Z</time>
      </trkpt>
      <trkpt lat="45.4109" lon="5.85682">
        <ele>693.45</ele>
        <time>2022-08-13T08:49:16.000Z</time>
      </trkpt>
      <trkpt lat="45.41077" lon="5.85698">
        <ele>694.2</ele>
        <time>2022-08-13T08:49:21.000Z</time>
      </trkpt>
      <trkpt lat="45.4106" lon="5.85705">
        <ele>698.13</ele>
        <time>2022-08-13T08:49:26.000Z</time>
      </trkpt>
      <trkpt lat="45.41042" lon="5.8571">
        <ele>700.39</ele>
        <time>2022-08-13T08:49:31.000Z</time>
      </trkpt>
      <trkpt lat="45.41023" lon="5.85708">
        <ele>701.03</ele>
        <time>2022-08-13T08:49:36.000Z</time>
      </trkpt>
      <trkpt lat="45.41016" lon="5.8569">
        <ele>701.1</ele>
        <time>2022-08-13T08:49:41.000Z</time>
      </trkpt>
      <trkpt lat="45.4103" lon="5.85671">
        <ele>703.89</ele>
        <time>2022-08-13T08:49:46.000Z</time>
      </trkpt>
      <trkpt lat="45.41045" lon="5.85653">
        <ele>707.48</ele>
        <time>2022-08-13T08:49:51.000Z</time>
      </trkpt>
      <trkpt lat="45.41056" lon="5.8563">
        <ele>711.11</ele>
        <time>2022-08-13T08:49:56.000Z</time>
      </trkpt>
      <trkpt lat="45.41063" lon="5.85604">
        <ele>713.28</ele>
        <time>2022-08-13T08:50:01.000Z</time>
      </trkpt>
      <trkpt lat="45.41057" lon="5.85582">
        <ele>715.48</ele>
        <time>2022-08-13T08:50:06.000Z</time>
      </trkpt>
      <trkpt lat="45.41035" lon="5.85586">
        <ele>717.24</ele>
        <time>2022-08-13T08:50:11.000Z</time>
      </trkpt>
      <trkpt lat="45.41017" lon="5.85594">
        <ele>718.07</ele>
        <time>2022-08-13T08:50:16.000Z</time>
      </trkpt>
      <trkpt lat="45.41002" lon="5.85579">
        <ele>719.55</ele>
        <time>2022-08-13T08:50:21.000Z</time>
      </trkpt>
      <trkpt lat="45.40996" lon="5.85556">
        <ele>719.79</ele>
        <time>2022-08-13T08:50:26.000Z</time>
      </trkpt>
      <trkpt lat="45.40987" lon="5.85536">
        <ele>718.25</ele>
        <time>2022-08-13T08:50:31.000Z</time>
      </trkpt>
      <trkpt lat="45.40972" lon="5.85522">
        <ele>718.43</ele>
        <time>2022-08-13T08:50:36.000Z</time>
      </trkpt>
      <trkpt lat="45.40956" lon="5.8551">
        <ele>720.03</ele>
        <time>2022-08-13T08:50:41.000Z</time>
      </trkpt>
      <trkpt lat="45.40941" lon="5.85497">
        <ele>721.85</ele>
        <time>2022-08-13T08:50:46.000Z</time>
      </trkpt>
      <trkpt lat="45.40926" lon="5.85485">
        <ele>723.72</ele>
        <time>2022-08-13T08:50:51.000Z</time>
      </trkpt>
      <trkpt lat="45.40912" lon="5.85473">
        <ele>727.25</ele>
        <time>2022-08-13T08:50:56.000Z</time>
      </trkpt>
      <trkpt lat="45.40898" lon="5.85457">
        <ele>728.28</ele>
        <time>2022-08-13T08:51:01.000Z</time>
      </trkpt>
      <trkpt lat="45.40882" lon="5.85449">
        <ele>728.3</ele>
        <time>2022-08-13T08:51:06.000Z</time>
      </trkpt>
      <trkpt lat="45.40868" lon="5.85463">
        <ele>730.59</ele>
        <time>2022-08-13T08:51:11.000Z</time>
      </trkpt>
      <trkpt lat="45.40876" lon="5.85489">
        <ele>732.94</ele>
        <time>2022-08-13T08:51:16.000Z</time>
      </trkpt>
      <trkpt lat="45.40888" lon="5.8551">
        <ele>736.14</ele>
        <time>2022-08-13T08:51:21.000Z</time>
      </trkpt>
      <trkpt lat="45.40897" lon="5.85535">
        <ele>741.82</ele>
        <time>2022-08-13T08:51:26.000Z</time>
      </trkpt>
      <trkpt lat="45.40903" lon="5.85559">
        <ele>741.43</ele>
        <time>2022-08-13T08:51:31.000Z</time>
      </trkpt>
      <trkpt lat="45.40908" lon="5.85584">
        <ele>741.22</ele>
        <time>2022-08-13T08:51:36.000Z</time>
      </trkpt>
      <trkpt lat="45.40912" lon="5.85608">
        <ele>743.8</ele>
        <time>2022-08-13T08:51:41.000Z</time>
      </trkpt>
      <trkpt lat="45.40901" lon="5.85622">
        <ele>745.59</ele>
        <time>2022-08-13T08:51:46.000Z</time>
      </trkpt>
      <trkpt lat="45.40882" lon="5.85622">
        <ele>748.63</ele>
        <time>2022-08-13T08:51:51.000Z</time>
      </trkpt>
      <trkpt lat="45.40861" lon="5.85628">
        <ele>748.59</ele>
        <time>2022-08-13T08:51:56.000Z</time>
      </trkpt>
      <trkpt lat="45.40842" lon="5.85641">
        <ele>750.93</ele>
        <time>2022-08-13T08:52:01.000Z</time>
      </trkpt>
      <trkpt lat="45.40826" lon="5.85661">
        <ele>751.81</ele>
        <time>2022-08-13T08:52:06.000Z</time>
      </trkpt>
      <trkpt lat="45.40807" lon="5.85676">
        <ele>752.83</ele>
        <time>2022-08-13T08:52:11.000Z</time>
      </trkpt>
      <trkpt lat="45.4079" lon="5.85686">
        <ele>754.27</ele>
        <time>2022-08-13T08:52:16.000Z</time>
      </trkpt>
      <trkpt lat="45.40769" lon="5.85698">
        <ele>753.92</ele>
        <time>2022-08-13T08:52:21.000Z</time>
      </trkpt>
      <trkpt lat="45.4075" lon="5.85712">
        <ele>755.41</ele>
        <time>2022-08-13T08:52:26.000Z</time>
      </trkpt>
      <trkpt lat="45.4073" lon="5.85727">
        <ele>757.9</ele>
        <time>2022-08-13T08:52:31.000Z</time>
      </trkpt>
      <trkpt lat="45.40709" lon="5.8574">
        <ele>759.26</ele>
        <time>2022-08-13T08:52:36.000Z</time>
      </trkpt>
      <trkpt lat="45.40687" lon="5.85735">
        <ele>761.43</ele>
        <time>2022-08-13T08:52:41.000Z</time>
      </trkpt>
      <trkpt lat="45.40668" lon="5.85714">
        <ele>759.6</ele>
        <time>2022-08-13T08:52:46.000Z</time>
      </trkpt>
      <trkpt lat="45.40652" lon="5.85692">
        <ele>759.27</ele>
        <time>2022-08-13T08:52:51.000Z</time>
      </trkpt>
      <trkpt lat="45.40634" lon="5.85669">
        <ele>761.25</ele>
        <time>2022-08-13T08:52:56.000Z</time>
      </trkpt>
      <trkpt lat="45.40618" lon="5.85645">
        <ele>762.6</ele>
        <time>2022-08-13T08:53:01.000Z</time>
      </trkpt>
      <trkpt lat="45.40596" lon="5.85632">
        <ele>764.16</ele>
        <time>2022-08-13T08:53:06.000Z</time>
      </trkpt>
      <trkpt lat="45.40575" lon="5.8563">
        <ele>763.88</ele>
        <time>2022-08-13T08:53:11.000Z</time>
      </trkpt>
      <trkpt lat="45.40555" lon="5.85632">
        <ele>762.88</ele>
        <time>2022-08-13T08:53:16.000Z</time>
      </trkpt>
      <trkpt lat="45.40536" lon="5.85633">
        <ele>763.18</ele>
        <time>2022-08-13T08:53:21.000Z</time>
      </trkpt>
      <trkpt lat="45.40515" lon="5.85634">
        <ele>764.42</ele>
        <time>2022-08-13T08:53:26.000Z</time>
      </trkpt>
      <trkpt lat="45.40493" lon="5.85637">
        <ele>765.68</ele>
        <time>2022-08-13T08:53:31.000Z</time>
      </trkpt>
      <trkpt lat="45.4047" lon="5.8564">
        <ele>768.37</ele>
        <time>2022-08-13T08:53:36.000Z</time>
      </trkpt>
      <trkpt lat="45.40451" lon="5.85642">
        <ele>771.28</ele>
        <time>2022-08-13T08:53:41.000Z</time>
      </trkpt>
      <trkpt lat="45.40428" lon="5.85647">
        <ele>770.55</ele>
        <time>2022-08-13T08:53:46.000Z</time>
      </trkpt>
      <trkpt lat="45.40411" lon="5.85655">
        <ele>770.29</ele>
        <time>2022-08-13T08:53:51.000Z</time>
      </trkpt>
      <trkpt lat="45.40391" lon="5.85667">
        <ele>773.68</ele>
        <time>2022-08-13T08:53:56.000Z</time>
      </trkpt>
      <trkpt lat="45.40369" lon="5.85674">
        <ele>774.64</ele>
        <time>2022-08-13T08:54:01.000Z</time>
      </trkpt>
      <trkpt lat="45.40351" lon="5.85671">
        <ele>778.32</ele>
        <time>2022-08-13T08:54:06.000Z</time>
      </trkpt>
      <trkpt lat="45.4033" lon="5.85671">
        <ele>780.91</ele>
        <time>2022-08-13T08:54:11.000Z</time>
      </trkpt>
      <trkpt lat="45.40311" lon="5.85677">
        <ele>779.86</ele>
        <time>2022-08-13T08:54:16.000Z</time>
      </trkpt>
      <trkpt lat="45.40303" lon="5.85705">
        <ele>780.54</ele>
        <time>2022-08-13T08:54:21.000Z</time>
      </trkpt>
      <trkpt lat="45.40299" lon="5.85726">
        <ele>781.89</ele>
        <time>2022-08-13T08:54:26.000Z</time>
      </trkpt>
      <trkpt lat="45.40293" lon="5.85749">
        <ele>783.81</ele>
        <time>2022-08-13T08:54:31.000Z</time>
      </trkpt>
      <trkpt lat="45.40287" lon="5.85773">
        <ele>787.67</ele>
        <time>2022-08-13T08:54:36.000Z</time>
      </trkpt>
      <trkpt lat="45.40278" lon="5.85793">
        <ele>788.82</ele>
        <time>2022-08-13T08:54:41.000Z</time>
      </trkpt>
      <trkpt lat="45.40263" lon="5.85806">
        <ele>791.04</ele>
        <time>2022-08-13T08:54:46.000Z</time>
      </trkpt>
      <trkpt lat="45.40245" lon="5.85808">
        <ele>791.59</ele>
        <time>2022-08-13T08:54:51.000Z</time>
      </trkpt>
      <trkpt lat="45.40227" lon="5.858">
        <ele>789.5</ele>
        <time>2022-08-13T08:54:56.000Z</time>
      </trkpt>
      <trkpt lat="45.40211" lon="5.85791">
        <ele>791.27</ele>
        <time>2022-08-13T08:55:01.000Z</time>
      </trkpt>
      <trkpt lat="45.40195" lon="5.8578">
        <ele>793.61</ele>
        <time>2022-08-13T08:55:06.000Z</time>
      </trkpt>
      <trkpt lat="45.40179" lon="5.85769">
        <ele>794.62</ele>
        <time>2022-08-13T08:55:11.000Z</time>
      </trkpt>
      <trkpt lat="45.40163" lon="5.85756">
        <ele>796.94</ele>
        <time>2022-08-13T08:55:16.000Z</time>
      </trkpt>
      <trkpt lat="45.40147" lon="5.85745">
        <ele>801.11</ele>
        <time>2022-08-13T08:55:21.000Z</time>
      </trkpt>
      <trkpt lat="45.40131" lon="5.85736">
        <ele>801.73</ele>
        <time>2022-08-13T08:55:26.000Z</time>
      </trkpt>
      <trkpt lat="45.40114" lon="5.85728">
        <ele>802.12</ele>
        <time>2022-08-13T08:55:31.000Z</time>
      </trkpt>
      <trkpt lat="45.40098" lon="5.85722">
        <ele>804.71</ele>
        <time>2022-08-13T08:55:36.000Z</time>
      </trkpt>
      <trkpt lat="45.40079" lon="5.85717">
        <ele>807.32</ele>
        <time>2022-08-13T08:55:41.000Z</time>
      </trkpt>
      <trkpt lat="45.40062" lon="5.85711">
        <ele>808.65</ele>
        <time>2022-08-13T08:55:46.000Z</time>
      </trkpt>
      <trkpt lat="45.40045" lon="5.85707">
        <ele>810.71</ele>
        <time>2022-08-13T08:55:51.000Z</time>
      </trkpt>
      <trkpt lat="45.40028" lon="5.85707">
        <ele>811.63</ele>
        <time>2022-08-13T08:55:56.000Z</time>
      </trkpt>
      <trkpt lat="45.40009" lon="5.85713">
        <ele>809.68</ele>
        <time>2022-08-13T08:56:01.000Z</time>
      </trkpt>
      <trkpt lat="45.39991" lon="5.85715">
        <ele>808.05</ele>
        <time>2022-08-13T08:56:06.000Z</time>
      </trkpt>
      <trkpt lat="45.39979" lon="5.85712">
        <ele>808.31</ele>
        <time>2022-08-13T08:56:11.000Z</time>
      </trkpt>
      <trkpt lat="45.39965" lon="5.85709">
        <ele>809.29</ele>
        <time>2022-08-13T08:56:16.000Z</time>
      </trkpt>
      <trkpt lat="45.39953" lon="5.85702">
        <ele>812.04</ele>
        <time>2022-08-13T08:56:21.000Z</time>
      </trkpt>
      <trkpt lat="45.39944" lon="5.85694">
        <ele>810.88</ele>
        <time>2022-08-13T08:56:27.000Z</time>
      </trkpt>
      <trkpt lat="45.39933" lon="5.85687">
        <ele>810.85</ele>
        <time>2022-08-13T08:56:32.000Z</time>
      </trkpt>
      <trkpt lat="45.39914" lon="5.8568">
        <ele>809.67</ele>
        <time>2022-08-13T08:56:37.000Z</time>
      </trkpt>
      <trkpt lat="45.39895" lon="5.8567">
        <ele>809.17</ele>
        <time>2022-08-13T08:56:42.000Z</time>
      </trkpt>
      <trkpt lat="45.3987" lon="5.85664">
        <ele>808.13</ele>
        <time>2022-08-13T08:56:47.000Z</time>
      </trkpt>
      <trkpt lat="45.39848" lon="5.85656">
        <ele>806.81</ele>
        <time>2022-08-13T08:56:52.000Z</time>
      </trkpt>
      <trkpt lat="45.39833" lon="5.85647">
        <ele>810.04</ele>
        <time>2022-08-13T08:56:57.000Z</time>
      </trkpt>
      <trkpt lat="45.39812" lon="5.85644">
        <ele>813.46</ele>
        <time>2022-08-13T08:57:02.000Z</time>
      </trkpt>
      <trkpt lat="45.39791" lon="5.85648">
        <ele>813.94</ele>
        <time>2022-08-13T08:57:07.000Z</time>
      </trkpt>
      <trkpt lat="45.39771" lon="5.85655">
        <ele>813.42</ele>
        <time>2022-08-13T08:57:12.000Z</time>
      </trkpt>
      <trkpt lat="45.39752" lon="5.8566">
        <ele>812.85</ele>
        <time>2022-08-13T08:57:17.000Z</time>
      </trkpt>
      <trkpt lat="45.39731" lon="5.85657">
        <ele>811.27</ele>
        <time>2022-08-13T08:57:22.000Z</time>
      </trkpt>
      <trkpt lat="45.39714" lon="5.85646">
        <ele>811.92</ele>
        <time>2022-08-13T08:57:27.000Z</time>
      </trkpt>
      <trkpt lat="45.39702" lon="5.85633">
        <ele>809.18</ele>
        <time>2022-08-13T08:57:32.000Z</time>
      </trkpt>
      <trkpt lat="45.39688" lon="5.85615">
        <ele>812.42</ele>
        <time>2022-08-13T08:57:37.000Z</time>
      </trkpt>
      <trkpt lat="45.39663" lon="5.85593">
        <ele>811.86</ele>
        <time>2022-08-13T08:57:42.000Z</time>
      </trkpt>
      <trkpt lat="45.39642" lon="5.85581">
        <ele>818.02</ele>
        <time>2022-08-13T08:57:47.000Z</time>
      </trkpt>
      <trkpt lat="45.39627" lon="5.85572">
        <ele>818.35</ele>
        <time>2022-08-13T08:57:52.000Z</time>
      </trkpt>
      <trkpt lat="45.3961" lon="5.85565">
        <ele>821.17</ele>
        <time>2022-08-13T08:57:57.000Z</time>
      </trkpt>
      <trkpt lat="45.39588" lon="5.85564">
        <ele>818.51</ele>
        <time>2022-08-13T08:58:02.000Z</time>
      </trkpt>
      <trkpt lat="45.39575" lon="5.85557">
        <ele>818.49</ele>
        <time>2022-08-13T08:58:07.000Z</time>
      </trkpt>
      <trkpt lat="45.39563" lon="5.8555">
        <ele>815.85</ele>
        <time>2022-08-13T08:58:12.000Z</time>
      </trkpt>
      <trkpt lat="45.39548" lon="5.85544">
        <ele>813.35</ele>
        <time>2022-08-13T08:58:17.000Z</time>
      </trkpt>
      <trkpt lat="45.3953" lon="5.8554">
        <ele>813.35</ele>
        <time>2022-08-13T08:58:22.000Z</time>
      </trkpt>
      <trkpt lat="45.39509" lon="5.85538">
        <ele>818.34</ele>
        <time>2022-08-13T08:58:27.000Z</time>
      </trkpt>
      <trkpt lat="45.3949" lon="5.85538">
        <ele>820.85</ele>
        <time>2022-08-13T08:58:32.000Z</time>
      </trkpt>
      <trkpt lat="45.39471" lon="5.85539">
        <ele>818.05</ele>
        <time>2022-08-13T08:58:37.000Z</time>
      </trkpt>
      <trkpt lat="45.39456" lon="5.85537">
        <ele>817.05</ele>
        <time>2022-08-13T08:58:42.000Z</time>
      </trkpt>
      <trkpt lat="45.39423" lon="5.85516">
        <ele>820</ele>
        <time>2022-08-13T08:58:47.000Z</time>
      </trkpt>
      <trkpt lat="45.39402" lon="5.85496">
        <ele>819</ele>
        <time>2022-08-13T08:58:52.000Z</time>
      </trkpt>
      <trkpt lat="45.39382" lon="5.85488">
        <ele>818.49</ele>
        <time>2022-08-13T08:58:57.000Z</time>
      </trkpt>
      <trkpt lat="45.39347" lon="5.85468">
        <ele>823.69</ele>
        <time>2022-08-13T08:59:02.000Z</time>
      </trkpt>
      <trkpt lat="45.39318" lon="5.85457">
        <ele>825.45</ele>
        <time>2022-08-13T08:59:07.000Z</time>
      </trkpt>
      <trkpt lat="45.393" lon="5.85449">
        <ele>828.61</ele>
        <time>2022-08-13T08:59:12.000Z</time>
      </trkpt>
      <trkpt lat="45.39287" lon="5.85436">
        <ele>830.86</ele>
        <time>2022-08-13T08:59:17.000Z</time>
      </trkpt>
      <trkpt lat="45.39261" lon="5.85427">
        <ele>833.41</ele>
        <time>2022-08-13T08:59:22.000Z</time>
      </trkpt>
      <trkpt lat="45.39242" lon="5.85413">
        <ele>832.02</ele>
        <time>2022-08-13T08:59:27.000Z</time>
      </trkpt>
      <trkpt lat="45.39216" lon="5.85404">
        <ele>832.17</ele>
        <time>2022-08-13T08:59:32.000Z</time>
      </trkpt>
      <trkpt lat="45.39188" lon="5.85406">
        <ele>835.41</ele>
        <time>2022-08-13T08:59:37.000Z</time>
      </trkpt>
      <trkpt lat="45.39151" lon="5.85406">
        <ele>834.59</ele>
        <time>2022-08-13T08:59:42.000Z</time>
      </trkpt>
      <trkpt lat="45.39133" lon="5.85394">
        <ele>840.33</ele>
        <time>2022-08-13T08:59:47.000Z</time>
      </trkpt>
      <trkpt lat="45.39111" lon="5.85389">
        <ele>840.84</ele>
        <time>2022-08-13T08:59:52.000Z</time>
      </trkpt>
      <trkpt lat="45.3909" lon="5.85383">
        <ele>844.47</ele>
        <time>2022-08-13T08:59:57.000Z</time>
      </trkpt>
      <trkpt lat="45.39072" lon="5.85374">
        <ele>842.64</ele>
        <time>2022-08-13T09:00:02.000Z</time>
      </trkpt>
      <trkpt lat="45.39047" lon="5.85376">
        <ele>851.77</ele>
        <time>2022-08-13T09:00:07.000Z</time>
      </trkpt>
      <trkpt lat="45.39029" lon="5.85373">
        <ele>854.55</ele>
        <time>2022-08-13T09:00:12.000Z</time>
      </trkpt>
      <trkpt lat="45.39005" lon="5.85376">
        <ele>854.49</ele>
        <time>2022-08-13T09:00:17.000Z</time>
      </trkpt>
      <trkpt lat="45.38983" lon="5.85371">
        <ele>855.19</ele>
        <time>2022-08-13T09:00:22.000Z</time>
      </trkpt>
      <trkpt lat="45.38963" lon="5.85355">
        <ele>856.92</ele>
        <time>2022-08-13T09:00:27.000Z</time>
      </trkpt>
      <trkpt lat="45.38935" lon="5.8534">
        <ele>857.23</ele>
        <time>2022-08-13T09:00:32.000Z</time>
      </trkpt>
      <trkpt lat="45.38909" lon="5.85328">
        <ele>857.01</ele>
        <time>2022-08-13T09:00:37.000Z</time>
      </trkpt>
      <trkpt lat="45.38888" lon="5.85315">
        <ele>859.87</ele>
        <time>2022-08-13T09:00:42.000Z</time>
      </trkpt>
      <trkpt lat="45.3886" lon="5.85308">
        <ele>860.76</ele>
        <time>2022-08-13T09:00:47.000Z</time>
      </trkpt>
      <trkpt lat="45.38847" lon="5.85294">
        <ele>863.96</ele>
        <time>2022-08-13T09:00:52.000Z</time>
      </trkpt>
      <trkpt lat="45.38824" lon="5.85294">
        <ele>867.59</ele>
        <time>2022-08-13T09:00:57.000Z</time>
      </trkpt>
      <trkpt lat="45.38799" lon="5.85288">
        <ele>871.67</ele>
        <time>2022-08-13T09:01:02.000Z</time>
      </trkpt>
      <trkpt lat="45.38773" lon="5.85288">
        <ele>876.99</ele>
        <time>2022-08-13T09:01:07.000Z</time>
      </trkpt>
      <trkpt lat="45.38748" lon="5.85285">
        <ele>879.45</ele>
        <time>2022-08-13T09:01:12.000Z</time>
      </trkpt>
      <trkpt lat="45.38724" lon="5.85283">
        <ele>877.83</ele>
        <time>2022-08-13T09:01:17.000Z</time>
      </trkpt>
      <trkpt lat="45.38702" lon="5.8528">
        <ele>879.01</ele>
        <time>2022-08-13T09:01:22.000Z</time>
      </trkpt>
      <trkpt lat="45.38681" lon="5.85283">
        <ele>875.5</ele>
        <time>2022-08-13T09:01:27.000Z</time>
      </trkpt>
      <trkpt lat="45.38657" lon="5.85281">
        <ele>873.05</ele>
        <time>2022-08-13T09:01:32.000Z</time>
      </trkpt>
      <trkpt lat="45.38632" lon="5.8528">
        <ele>873.81</ele>
        <time>2022-08-13T09:01:37.000Z</time>
      </trkpt>
      <trkpt lat="45.3861" lon="5.85278">
        <ele>875.09</ele>
        <time>2022-08-13T09:01:42.000Z</time>
      </trkpt>
      <trkpt lat="45.38591" lon="5.85276">
        <ele>874.53</ele>
        <time>2022-08-13T09:01:47.000Z</time>
      </trkpt>
      <trkpt lat="45.38572" lon="5.85276">
        <ele>876.05</ele>
        <time>2022-08-13T09:01:52.000Z</time>
      </trkpt>
      <trkpt lat="45.3855" lon="5.85278">
        <ele>877.07</ele>
        <time>2022-08-13T09:01:57.000Z</time>
      </trkpt>
      <trkpt lat="45.38529" lon="5.85283">
        <ele>883.6</ele>
        <time>2022-08-13T09:02:02.000Z</time>
      </trkpt>
      <trkpt lat="45.38516" lon="5.85286">
        <ele>884.48</ele>
        <time>2022-08-13T09:02:07.000Z</time>
      </trkpt>
      <trkpt lat="45.38499" lon="5.85296">
        <ele>887.72</ele>
        <time>2022-08-13T09:02:12.000Z</time>
      </trkpt>
      <trkpt lat="45.38476" lon="5.8531">
        <ele>883.83</ele>
        <time>2022-08-13T09:02:17.000Z</time>
      </trkpt>
      <trkpt lat="45.38458" lon="5.85324">
        <ele>884.08</ele>
        <time>2022-08-13T09:02:22.000Z</time>
      </trkpt>
      <trkpt lat="45.38446" lon="5.85344">
        <ele>886.04</ele>
        <time>2022-08-13T09:02:27.000Z</time>
      </trkpt>
      <trkpt lat="45.38423" lon="5.85363">
        <ele>887.07</ele>
        <time>2022-08-13T09:02:32.000Z</time>
      </trkpt>
      <trkpt lat="45.38404" lon="5.8537">
        <ele>890.1</ele>
        <time>2022-08-13T09:02:37.000Z</time>
      </trkpt>
      <trkpt lat="45.38382" lon="5.85382">
        <ele>890.06</ele>
        <time>2022-08-13T09:02:42.000Z</time>
      </trkpt>
      <trkpt lat="45.3836" lon="5.85403">
        <ele>888.72</ele>
        <time>2022-08-13T09:02:47.000Z</time>
      </trkpt>
      <trkpt lat="45.38334" lon="5.85412">
        <ele>893.49</ele>
        <time>2022-08-13T09:02:52.000Z</time>
      </trkpt>
      <trkpt lat="45.38319" lon="5.85427">
        <ele>894.41</ele>
        <time>2022-08-13T09:02:57.000Z</time>
      </trkpt>
      <trkpt lat="45.3831" lon="5.85425">
        <ele>925.37</ele>
        <time>2022-08-13T09:06:25.000Z</time>
      </trkpt>
      <trkpt lat="45.38297" lon="5.85432">
        <ele>920.35</ele>
        <time>2022-08-13T09:06:30.000Z</time>
      </trkpt>
      <trkpt lat="45.38277" lon="5.85444">
        <ele>921.27</ele>
        <time>2022-08-13T09:06:35.000Z</time>
      </trkpt>
      <trkpt lat="45.38252" lon="5.85462">
        <ele>923.57</ele>
        <time>2022-08-13T09:06:40.000Z</time>
      </trkpt>
      <trkpt lat="45.38226" lon="5.85478">
        <ele>923.97</ele>
        <time>2022-08-13T09:06:45.000Z</time>
      </trkpt>
      <trkpt lat="45.38188" lon="5.85495">
        <ele>921.34</ele>
        <time>2022-08-13T09:06:50.000Z</time>
      </trkpt>
      <trkpt lat="45.3815" lon="5.85503">
        <ele>920.64</ele>
        <time>2022-08-13T09:06:55.000Z</time>
      </trkpt>
      <trkpt lat="45.38113" lon="5.85501">
        <ele>917</ele>
        <time>2022-08-13T09:07:00.000Z</time>
      </trkpt>
      <trkpt lat="45.38064" lon="5.85545">
        <ele>916.42</ele>
        <time>2022-08-13T09:07:05.000Z</time>
      </trkpt>
      <trkpt lat="45.38017" lon="5.85552">
        <ele>915.8</ele>
        <time>2022-08-13T09:07:10.000Z</time>
      </trkpt>
      <trkpt lat="45.37963" lon="5.85552">
        <ele>912.6</ele>
        <time>2022-08-13T09:07:15.000Z</time>
      </trkpt>
      <trkpt lat="45.37916" lon="5.85586">
        <ele>908.89</ele>
        <time>2022-08-13T09:07:20.000Z</time>
      </trkpt>
      <trkpt lat="45.37862" lon="5.85584">
        <ele>909.84</ele>
        <time>2022-08-13T09:07:25.000Z</time>
      </trkpt>
      <trkpt lat="45.37858" lon="5.85528">
        <ele>909.35</ele>
        <time>2022-08-13T09:07:30.000Z</time>
      </trkpt>
      <trkpt lat="45.37889" lon="5.85486">
        <ele>913.36</ele>
        <time>2022-08-13T09:07:35.000Z</time>
      </trkpt>
      <trkpt lat="45.37915" lon="5.85462">
        <ele>917.81</ele>
        <time>2022-08-13T09:07:40.000Z</time>
      </trkpt>
      <trkpt lat="45.37923" lon="5.85431">
        <ele>916.26</ele>
        <time>2022-08-13T09:07:45.000Z</time>
      </trkpt>
      <trkpt lat="45.37937" lon="5.85404">
        <ele>919.19</ele>
        <time>2022-08-13T09:07:50.000Z</time>
      </trkpt>
      <trkpt lat="45.37958" lon="5.85397">
        <ele>918.01</ele>
        <time>2022-08-13T09:07:55.000Z</time>
      </trkpt>
      <trkpt lat="45.37975" lon="5.85377">
        <ele>914.9</ele>
        <time>2022-08-13T09:08:00.000Z</time>
      </trkpt>
      <trkpt lat="45.37995" lon="5.85365">
        <ele>912.05</ele>
        <time>2022-08-13T09:08:05.000Z</time>
      </trkpt>
      <trkpt lat="45.3801" lon="5.85353">
        <ele>909.49</ele>
        <time>2022-08-13T09:08:10.000Z</time>
      </trkpt>
      <trkpt lat="45.38025" lon="5.85331">
        <ele>908.05</ele>
        <time>2022-08-13T09:08:15.000Z</time>
      </trkpt>
      <trkpt lat="45.38034" lon="5.85307">
        <ele>904.4</ele>
        <time>2022-08-13T09:08:20.000Z</time>
      </trkpt>
      <trkpt lat="45.38048" lon="5.85276">
        <ele>908.93</ele>
        <time>2022-08-13T09:08:25.000Z</time>
      </trkpt>
      <trkpt lat="45.38059" lon="5.85256">
        <ele>911.01</ele>
        <time>2022-08-13T09:08:30.000Z</time>
      </trkpt>
      <trkpt lat="45.38074" lon="5.85236">
        <ele>913.05</ele>
        <time>2022-08-13T09:08:35.000Z</time>
      </trkpt>
      <trkpt lat="45.38088" lon="5.85219">
        <ele>917.23</ele>
        <time>2022-08-13T09:08:40.000Z</time>
      </trkpt>
      <trkpt lat="45.38103" lon="5.85195">
        <ele>917.02</ele>
        <time>2022-08-13T09:08:45.000Z</time>
      </trkpt>
      <trkpt lat="45.38098" lon="5.85155">
        <ele>916.63</ele>
        <time>2022-08-13T09:08:50.000Z</time>
      </trkpt>
      <trkpt lat="45.38091" lon="5.85128">
        <ele>918.49</ele>
        <time>2022-08-13T09:08:55.000Z</time>
      </trkpt>
      <trkpt lat="45.38072" lon="5.85092">
        <ele>915.68</ele>
        <time>2022-08-13T09:09:00.000Z</time>
      </trkpt>
      <trkpt lat="45.38069" lon="5.85068">
        <ele>921.37</ele>
        <time>2022-08-13T09:09:05.000Z</time>
      </trkpt>
      <trkpt lat="45.38055" lon="5.85028">
        <ele>920.75</ele>
        <time>2022-08-13T09:09:10.000Z</time>
      </trkpt>
      <trkpt lat="45.38027" lon="5.85001">
        <ele>918.44</ele>
        <time>2022-08-13T09:09:15.000Z</time>
      </trkpt>
      <trkpt lat="45.37992" lon="5.84974">
        <ele>921.88</ele>
        <time>2022-08-13T09:09:20.000Z</time>
      </trkpt>
      <trkpt lat="45.37961" lon="5.8496">
        <ele>922.7</ele>
        <time>2022-08-13T09:09:25.000Z</time>
      </trkpt>
      <trkpt lat="45.37941" lon="5.84965">
        <ele>924.74</ele>
        <time>2022-08-13T09:09:30.000Z</time>
      </trkpt>
      <trkpt lat="45.37923" lon="5.84957">
        <ele>923.57</ele>
        <time>2022-08-13T09:09:35.000Z</time>
      </trkpt>
      <trkpt lat="45.37905" lon="5.84948">
        <ele>927.6</ele>
        <time>2022-08-13T09:09:40.000Z</time>
      </trkpt>
      <trkpt lat="45.37891" lon="5.84933">
        <ele>930.44</ele>
        <time>2022-08-13T09:09:45.000Z</time>
      </trkpt>
      <trkpt lat="45.37872" lon="5.84922">
        <ele>929.63</ele>
        <time>2022-08-13T09:09:50.000Z</time>
      </trkpt>
      <trkpt lat="45.37858" lon="5.84909">
        <ele>928.21</ele>
        <time>2022-08-13T09:09:55.000Z</time>
      </trkpt>
      <trkpt lat="45.37844" lon="5.84894">
        <ele>925.77</ele>
        <time>2022-08-13T09:10:00.000Z</time>
      </trkpt>
      <trkpt lat="45.37832" lon="5.84877">
        <ele>926.6</ele>
        <time>2022-08-13T09:10:05.000Z</time>
      </trkpt>
      <trkpt lat="45.37821" lon="5.84859">
        <ele>925.03</ele>
        <time>2022-08-13T09:10:10.000Z</time>
      </trkpt>
      <trkpt lat="45.37811" lon="5.84843">
        <ele>923.91</ele>
        <time>2022-08-13T09:10:15.000Z</time>
      </trkpt>
      <trkpt lat="45.37799" lon="5.8483">
        <ele>928.99</ele>
        <time>2022-08-13T09:10:20.000Z</time>
      </trkpt>
      <trkpt lat="45.37785" lon="5.84817">
        <ele>933.53</ele>
        <time>2022-08-13T09:10:25.000Z</time>
      </trkpt>
      <trkpt lat="45.37769" lon="5.84803">
        <ele>934.84</ele>
        <time>2022-08-13T09:10:30.000Z</time>
      </trkpt>
      <trkpt lat="45.37755" lon="5.84792">
        <ele>938.07</ele>
        <time>2022-08-13T09:10:35.000Z</time>
      </trkpt>
      <trkpt lat="45.3774" lon="5.8478">
        <ele>938.69</ele>
        <time>2022-08-13T09:10:40.000Z</time>
      </trkpt>
      <trkpt lat="45.37722" lon="5.8477">
        <ele>937.43</ele>
        <time>2022-08-13T09:10:45.000Z</time>
      </trkpt>
      <trkpt lat="45.37708" lon="5.84757">
        <ele>937.5</ele>
        <time>2022-08-13T09:10:50.000Z</time>
      </trkpt>
      <trkpt lat="45.37692" lon="5.84747">
        <ele>940.23</ele>
        <time>2022-08-13T09:10:55.000Z</time>
      </trkpt>
      <trkpt lat="45.37674" lon="5.84736">
        <ele>940.44</ele>
        <time>2022-08-13T09:11:00.000Z</time>
      </trkpt>
      <trkpt lat="45.37658" lon="5.84724">
        <ele>940.96</ele>
        <time>2022-08-13T09:11:05.000Z</time>
      </trkpt>
      <trkpt lat="45.37643" lon="5.84712">
        <ele>940.18</ele>
        <time>2022-08-13T09:11:10.000Z</time>
      </trkpt>
      <trkpt lat="45.37626" lon="5.84702">
        <ele>942.64</ele>
        <time>2022-08-13T09:11:15.000Z</time>
      </trkpt>
      <trkpt lat="45.37609" lon="5.84692">
        <ele>943.15</ele>
        <time>2022-08-13T09:11:20.000Z</time>
      </trkpt>
      <trkpt lat="45.37592" lon="5.84681">
        <ele>950.06</ele>
        <time>2022-08-13T09:11:25.000Z</time>
      </trkpt>
      <trkpt lat="45.37577" lon="5.84668">
        <ele>952.22</ele>
        <time>2022-08-13T09:11:30.000Z</time>
      </trkpt>
      <trkpt lat="45.37561" lon="5.84656">
        <ele>952.83</ele>
        <time>2022-08-13T09:11:35.000Z</time>
      </trkpt>
      <trkpt lat="45.37549" lon="5.84646">
        <ele>957.11</ele>
        <time>2022-08-13T09:11:40.000Z</time>
      </trkpt>
      <trkpt lat="45.37537" lon="5.84637">
        <ele>958.7</ele>
        <time>2022-08-13T09:11:45.000Z</time>
      </trkpt>
      <trkpt lat="45.37521" lon="5.84623">
        <ele>960.95</ele>
        <time>2022-08-13T09:11:50.000Z</time>
      </trkpt>
      <trkpt lat="45.37509" lon="5.84601">
        <ele>961.16</ele>
        <time>2022-08-13T09:11:55.000Z</time>
      </trkpt>
      <trkpt lat="45.37497" lon="5.84581">
        <ele>963.49</ele>
        <time>2022-08-13T09:12:00.000Z</time>
      </trkpt>
      <trkpt lat="45.37486" lon="5.84561">
        <ele>964.74</ele>
        <time>2022-08-13T09:12:05.000Z</time>
      </trkpt>
      <trkpt lat="45.37474" lon="5.84543">
        <ele>969.23</ele>
        <time>2022-08-13T09:12:10.000Z</time>
      </trkpt>
      <trkpt lat="45.37462" lon="5.84524">
        <ele>970.99</ele>
        <time>2022-08-13T09:12:15.000Z</time>
      </trkpt>
      <trkpt lat="45.37449" lon="5.84507">
        <ele>972.07</ele>
        <time>2022-08-13T09:12:20.000Z</time>
      </trkpt>
      <trkpt lat="45.37438" lon="5.84489">
        <ele>974.19</ele>
        <time>2022-08-13T09:12:25.000Z</time>
      </trkpt>
      <trkpt lat="45.37429" lon="5.84474">
        <ele>975.82</ele>
        <time>2022-08-13T09:12:30.000Z</time>
      </trkpt>
      <trkpt lat="45.37416" lon="5.84456">
        <ele>976.99</ele>
        <time>2022-08-13T09:12:35.000Z</time>
      </trkpt>
      <trkpt lat="45.37407" lon="5.84439">
        <ele>977.05</ele>
        <time>2022-08-13T09:12:40.000Z</time>
      </trkpt>
      <trkpt lat="45.37398" lon="5.84424">
        <ele>978.11</ele>
        <time>2022-08-13T09:12:45.000Z</time>
      </trkpt>
      <trkpt lat="45.37388" lon="5.84409">
        <ele>976.78</ele>
        <time>2022-08-13T09:12:50.000Z</time>
      </trkpt>
      <trkpt lat="45.37375" lon="5.84397">
        <ele>980.1</ele>
        <time>2022-08-13T09:12:55.000Z</time>
      </trkpt>
      <trkpt lat="45.37363" lon="5.84386">
        <ele>985.38</ele>
        <time>2022-08-13T09:13:00.000Z</time>
      </trkpt>
      <trkpt lat="45.37347" lon="5.84375">
        <ele>985.64</ele>
        <time>2022-08-13T09:13:05.000Z</time>
      </trkpt>
      <trkpt lat="45.37329" lon="5.84363">
        <ele>986.35</ele>
        <time>2022-08-13T09:13:10.000Z</time>
      </trkpt>
      <trkpt lat="45.37318" lon="5.84351">
        <ele>987.97</ele>
        <time>2022-08-13T09:13:15.000Z</time>
      </trkpt>
      <trkpt lat="45.37309" lon="5.84337">
        <ele>990.39</ele>
        <time>2022-08-13T09:13:20.000Z</time>
      </trkpt>
      <trkpt lat="45.37283" lon="5.84316">
        <ele>994.97</ele>
        <time>2022-08-13T09:13:28.000Z</time>
      </trkpt>
      <trkpt lat="45.37268" lon="5.84304">
        <ele>994.52</ele>
        <time>2022-08-13T09:13:33.000Z</time>
      </trkpt>
      <trkpt lat="45.37256" lon="5.84289">
        <ele>999.76</ele>
        <time>2022-08-13T09:13:38.000Z</time>
      </trkpt>
      <trkpt lat="45.37244" lon="5.84267">
        <ele>1002.22</ele>
        <time>2022-08-13T09:13:43.000Z</time>
      </trkpt>
      <trkpt lat="45.37214" lon="5.84249">
        <ele>1005.73</ele>
        <time>2022-08-13T09:13:48.000Z</time>
      </trkpt>
      <trkpt lat="45.37203" lon="5.84236">
        <ele>1005.92</ele>
        <time>2022-08-13T09:13:53.000Z</time>
      </trkpt>
      <trkpt lat="45.3719" lon="5.84227">
        <ele>1003.71</ele>
        <time>2022-08-13T09:13:58.000Z</time>
      </trkpt>
      <trkpt lat="45.37173" lon="5.84218">
        <ele>1002.72</ele>
        <time>2022-08-13T09:14:03.000Z</time>
      </trkpt>
      <trkpt lat="45.37154" lon="5.84202">
        <ele>999.99</ele>
        <time>2022-08-13T09:14:08.000Z</time>
      </trkpt>
      <trkpt lat="45.37143" lon="5.84184">
        <ele>1000.08</ele>
        <time>2022-08-13T09:14:13.000Z</time>
      </trkpt>
      <trkpt lat="45.37125" lon="5.84179">
        <ele>1003.9</ele>
        <time>2022-08-13T09:14:18.000Z</time>
      </trkpt>
      <trkpt lat="45.37105" lon="5.8417">
        <ele>1004.58</ele>
        <time>2022-08-13T09:14:23.000Z</time>
      </trkpt>
      <trkpt lat="45.37089" lon="5.84159">
        <ele>1004.17</ele>
        <time>2022-08-13T09:14:28.000Z</time>
      </trkpt>
      <trkpt lat="45.37074" lon="5.84144">
        <ele>1001.67</ele>
        <time>2022-08-13T09:14:33.000Z</time>
      </trkpt>
      <trkpt lat="45.37063" lon="5.84127">
        <ele>1005.97</ele>
        <time>2022-08-13T09:14:38.000Z</time>
      </trkpt>
      <trkpt lat="45.37044" lon="5.84105">
        <ele>1007.12</ele>
        <time>2022-08-13T09:14:43.000Z</time>
      </trkpt>
      <trkpt lat="45.37034" lon="5.84088">
        <ele>1010.77</ele>
        <time>2022-08-13T09:14:48.000Z</time>
      </trkpt>
      <trkpt lat="45.37036" lon="5.84067">
        <ele>1011.59</ele>
        <time>2022-08-13T09:14:53.000Z</time>
      </trkpt>
      <trkpt lat="45.3703" lon="5.84046">
        <ele>1012.37</ele>
        <time>2022-08-13T09:14:58.000Z</time>
      </trkpt>
      <trkpt lat="45.37027" lon="5.84026">
        <ele>1018.22</ele>
        <time>2022-08-13T09:15:03.000Z</time>
      </trkpt>
      <trkpt lat="45.37021" lon="5.84002">
        <ele>1021.69</ele>
        <time>2022-08-13T09:15:08.000Z</time>
      </trkpt>
      <trkpt lat="45.37011" lon="5.83978">
        <ele>1022.21</ele>
        <time>2022-08-13T09:15:13.000Z</time>
      </trkpt>
      <trkpt lat="45.37006" lon="5.83955">
        <ele>1026.69</ele>
        <time>2022-08-13T09:15:18.000Z</time>
      </trkpt>
      <trkpt lat="45.37005" lon="5.83927">
        <ele>1030.34</ele>
        <time>2022-08-13T09:15:23.000Z</time>
      </trkpt>
      <trkpt lat="45.37019" lon="5.83906">
        <ele>1037.96</ele>
        <time>2022-08-13T09:15:28.000Z</time>
      </trkpt>
      <trkpt lat="45.37037" lon="5.83894">
        <ele>1041.87</ele>
        <time>2022-08-13T09:15:33.000Z</time>
      </trkpt>
      <trkpt lat="45.37053" lon="5.8389">
        <ele>1044.11</ele>
        <time>2022-08-13T09:15:38.000Z</time>
      </trkpt>
      <trkpt lat="45.37069" lon="5.83893">
        <ele>1047.66</ele>
        <time>2022-08-13T09:15:43.000Z</time>
      </trkpt>
      <trkpt lat="45.37086" lon="5.839">
        <ele>1047.65</ele>
        <time>2022-08-13T09:15:48.000Z</time>
      </trkpt>
      <trkpt lat="45.37106" lon="5.839">
        <ele>1046.4</ele>
        <time>2022-08-13T09:15:53.000Z</time>
      </trkpt>
      <trkpt lat="45.3712" lon="5.83893">
        <ele>1046.55</ele>
        <time>2022-08-13T09:15:58.000Z</time>
      </trkpt>
      <trkpt lat="45.37134" lon="5.8388">
        <ele>1047.81</ele>
        <time>2022-08-13T09:16:03.000Z</time>
      </trkpt>
      <trkpt lat="45.37149" lon="5.83861">
        <ele>1050.44</ele>
        <time>2022-08-13T09:16:08.000Z</time>
      </trkpt>
      <trkpt lat="45.37149" lon="5.83837">
        <ele>1051.2</ele>
        <time>2022-08-13T09:16:13.000Z</time>
      </trkpt>
      <trkpt lat="45.37128" lon="5.83823">
        <ele>1054.59</ele>
        <time>2022-08-13T09:16:18.000Z</time>
      </trkpt>
      <trkpt lat="45.37106" lon="5.83828">
        <ele>1055.99</ele>
        <time>2022-08-13T09:16:23.000Z</time>
      </trkpt>
      <trkpt lat="45.37089" lon="5.83835">
        <ele>1056.56</ele>
        <time>2022-08-13T09:16:28.000Z</time>
      </trkpt>
      <trkpt lat="45.37075" lon="5.8383">
        <ele>1057.86</ele>
        <time>2022-08-13T09:16:33.000Z</time>
      </trkpt>
      <trkpt lat="45.37065" lon="5.83809">
        <ele>1059.54</ele>
        <time>2022-08-13T09:16:38.000Z</time>
      </trkpt>
      <trkpt lat="45.37055" lon="5.83786">
        <ele>1060.74</ele>
        <time>2022-08-13T09:16:43.000Z</time>
      </trkpt>
      <trkpt lat="45.37043" lon="5.83764">
        <ele>1062.44</ele>
        <time>2022-08-13T09:16:48.000Z</time>
      </trkpt>
      <trkpt lat="45.37029" lon="5.83745">
        <ele>1065.37</ele>
        <time>2022-08-13T09:16:53.000Z</time>
      </trkpt>
      <trkpt lat="45.37016" lon="5.83726">
        <ele>1066.76</ele>
        <time>2022-08-13T09:16:58.000Z</time>
      </trkpt>
      <trkpt lat="45.37003" lon="5.83704">
        <ele>1064.83</ele>
        <time>2022-08-13T09:17:03.000Z</time>
      </trkpt>
      <trkpt lat="45.36993" lon="5.83693">
        <ele>1066.34</ele>
        <time>2022-08-13T09:17:08.000Z</time>
      </trkpt>
      <trkpt lat="45.36974" lon="5.83664">
        <ele>1067.93</ele>
        <time>2022-08-13T09:17:13.000Z</time>
      </trkpt>
      <trkpt lat="45.36956" lon="5.83649">
        <ele>1071.31</ele>
        <time>2022-08-13T09:17:18.000Z</time>
      </trkpt>
      <trkpt lat="45.36938" lon="5.83645">
        <ele>1074.4</ele>
        <time>2022-08-13T09:17:23.000Z</time>
      </trkpt>
      <trkpt lat="45.36921" lon="5.83645">
        <ele>1080.11</ele>
        <time>2022-08-13T09:17:28.000Z</time>
      </trkpt>
      <trkpt lat="45.36902" lon="5.83643">
        <ele>1082.06</ele>
        <time>2022-08-13T09:17:33.000Z</time>
      </trkpt>
      <trkpt lat="45.36886" lon="5.83635">
        <ele>1082.59</ele>
        <time>2022-08-13T09:17:38.000Z</time>
      </trkpt>
      <trkpt lat="45.36872" lon="5.83637">
        <ele>1088.68</ele>
        <time>2022-08-13T09:17:43.000Z</time>
      </trkpt>
      <trkpt lat="45.36857" lon="5.83632">
        <ele>1093.05</ele>
        <time>2022-08-13T09:17:48.000Z</time>
      </trkpt>
      <trkpt lat="45.3684" lon="5.83621">
        <ele>1094.12</ele>
        <time>2022-08-13T09:17:53.000Z</time>
      </trkpt>
      <trkpt lat="45.36826" lon="5.83611">
        <ele>1093.56</ele>
        <time>2022-08-13T09:17:58.000Z</time>
      </trkpt>
      <trkpt lat="45.36808" lon="5.83585">
        <ele>1093.89</ele>
        <time>2022-08-13T09:18:03.000Z</time>
      </trkpt>
      <trkpt lat="45.368" lon="5.83563">
        <ele>1098.84</ele>
        <time>2022-08-13T09:18:08.000Z</time>
      </trkpt>
      <trkpt lat="45.36795" lon="5.83541">
        <ele>1100.61</ele>
        <time>2022-08-13T09:18:13.000Z</time>
      </trkpt>
      <trkpt lat="45.36789" lon="5.83516">
        <ele>1100.55</ele>
        <time>2022-08-13T09:18:18.000Z</time>
      </trkpt>
      <trkpt lat="45.36778" lon="5.83493">
        <ele>1100.74</ele>
        <time>2022-08-13T09:18:23.000Z</time>
      </trkpt>
      <trkpt lat="45.36762" lon="5.83472">
        <ele>1101.12</ele>
        <time>2022-08-13T09:18:28.000Z</time>
      </trkpt>
      <trkpt lat="45.36747" lon="5.83459">
        <ele>1103.06</ele>
        <time>2022-08-13T09:18:33.000Z</time>
      </trkpt>
      <trkpt lat="45.36728" lon="5.83453">
        <ele>1106.94</ele>
        <time>2022-08-13T09:18:38.000Z</time>
      </trkpt>
      <trkpt lat="45.36709" lon="5.83446">
        <ele>1110.51</ele>
        <time>2022-08-13T09:18:43.000Z</time>
      </trkpt>
      <trkpt lat="45.3669" lon="5.83439">
        <ele>1114.56</ele>
        <time>2022-08-13T09:18:48.000Z</time>
      </trkpt>
      <trkpt lat="45.3667" lon="5.83438">
        <ele>1118.25</ele>
        <time>2022-08-13T09:18:53.000Z</time>
      </trkpt>
      <trkpt lat="45.36651" lon="5.83438">
        <ele>1123.78</ele>
        <time>2022-08-13T09:18:58.000Z</time>
      </trkpt>
      <trkpt lat="45.36633" lon="5.83442">
        <ele>1126.75</ele>
        <time>2022-08-13T09:19:03.000Z</time>
      </trkpt>
      <trkpt lat="45.36616" lon="5.83441">
        <ele>1132.66</ele>
        <time>2022-08-13T09:19:08.000Z</time>
      </trkpt>
      <trkpt lat="45.36597" lon="5.83437">
        <ele>1135.14</ele>
        <time>2022-08-13T09:19:13.000Z</time>
      </trkpt>
      <trkpt lat="45.36579" lon="5.83432">
        <ele>1138.26</ele>
        <time>2022-08-13T09:19:18.000Z</time>
      </trkpt>
      <trkpt lat="45.36561" lon="5.83424">
        <ele>1139.2</ele>
        <time>2022-08-13T09:19:23.000Z</time>
      </trkpt>
      <trkpt lat="45.36547" lon="5.83419">
        <ele>1139.92</ele>
        <time>2022-08-13T09:19:28.000Z</time>
      </trkpt>
      <trkpt lat="45.36539" lon="5.83412">
        <ele>1138.13</ele>
        <time>2022-08-13T09:19:33.000Z</time>
      </trkpt>
      <trkpt lat="45.36546" lon="5.83403">
        <ele>1147.47</ele>
        <time>2022-08-13T09:20:09.000Z</time>
      </trkpt>
      <trkpt lat="45.36537" lon="5.83401">
        <ele>1140.99</ele>
        <time>2022-08-13T09:24:53.000Z</time>
      </trkpt>
      <trkpt lat="45.3653" lon="5.83409">
        <ele>1136.68</ele>
        <time>2022-08-13T09:28:22.000Z</time>
      </trkpt>
      <trkpt lat="45.36527" lon="5.83396">
        <ele>1131.74</ele>
        <time>2022-08-13T09:28:46.000Z</time>
      </trkpt>
      <trkpt lat="45.36503" lon="5.83373">
        <ele>1129.18</ele>
        <time>2022-08-13T09:28:51.000Z</time>
      </trkpt>
      <trkpt lat="45.36489" lon="5.83354">
        <ele>1127.24</ele>
        <time>2022-08-13T09:28:56.000Z</time>
      </trkpt>
      <trkpt lat="45.36471" lon="5.83346">
        <ele>1124.52</ele>
        <time>2022-08-13T09:29:01.000Z</time>
      </trkpt>
      <trkpt lat="45.36442" lon="5.83318">
        <ele>1123.67</ele>
        <time>2022-08-13T09:29:06.000Z</time>
      </trkpt>
      <trkpt lat="45.36406" lon="5.83275">
        <ele>1117.33</ele>
        <time>2022-08-13T09:29:11.000Z</time>
      </trkpt>
      <trkpt lat="45.36375" lon="5.83207">
        <ele>1113.08</ele>
        <time>2022-08-13T09:29:16.000Z</time>
      </trkpt>
      <trkpt lat="45.36322" lon="5.83149">
        <ele>1105.94</ele>
        <time>2022-08-13T09:29:21.000Z</time>
      </trkpt>
      <trkpt lat="45.36265" lon="5.83088">
        <ele>1105.64</ele>
        <time>2022-08-13T09:29:26.000Z</time>
      </trkpt>
      <trkpt lat="45.36216" lon="5.83029">
        <ele>1099.95</ele>
        <time>2022-08-13T09:29:31.000Z</time>
      </trkpt>
      <trkpt lat="45.36158" lon="5.82995">
        <ele>1097.64</ele>
        <time>2022-08-13T09:29:36.000Z</time>
      </trkpt>
      <trkpt lat="45.36086" lon="5.82981">
        <ele>1092.62</ele>
        <time>2022-08-13T09:29:41.000Z</time>
      </trkpt>
      <trkpt lat="45.36008" lon="5.82973">
        <ele>1085.27</ele>
        <time>2022-08-13T09:29:46.000Z</time>
      </trkpt>
      <trkpt lat="45.35929" lon="5.82972">
        <ele>1077.01</ele>
        <time>2022-08-13T09:29:51.000Z</time>
      </trkpt>
      <trkpt lat="45.35858" lon="5.83002">
        <ele>1070.97</ele>
        <time>2022-08-13T09:29:56.000Z</time>
      </trkpt>
      <trkpt lat="45.35815" lon="5.82925">
        <ele>1063.59</ele>
        <time>2022-08-13T09:30:01.000Z</time>
      </trkpt>
      <trkpt lat="45.35788" lon="5.82811">
        <ele>1061.94</ele>
        <time>2022-08-13T09:30:06.000Z</time>
      </trkpt>
      <trkpt lat="45.3575" lon="5.82696">
        <ele>1054.89</ele>
        <time>2022-08-13T09:30:11.000Z</time>
      </trkpt>
      <trkpt lat="45.35699" lon="5.82609">
        <ele>1040.4</ele>
        <time>2022-08-13T09:30:16.000Z</time>
      </trkpt>
      <trkpt lat="45.35684" lon="5.82544">
        <ele>1033.92</ele>
        <time>2022-08-13T09:30:21.000Z</time>
      </trkpt>
      <trkpt lat="45.35626" lon="5.82526">
        <ele>1028.29</ele>
        <time>2022-08-13T09:30:26.000Z</time>
      </trkpt>
      <trkpt lat="45.35559" lon="5.82485">
        <ele>1023.18</ele>
        <time>2022-08-13T09:30:31.000Z</time>
      </trkpt>
      <trkpt lat="45.35496" lon="5.82427">
        <ele>1015.31</ele>
        <time>2022-08-13T09:30:36.000Z</time>
      </trkpt>
      <trkpt lat="45.35439" lon="5.82367">
        <ele>998.82</ele>
        <time>2022-08-13T09:30:41.000Z</time>
      </trkpt>
      <trkpt lat="45.35385" lon="5.82291">
        <ele>985.02</ele>
        <time>2022-08-13T09:30:46.000Z</time>
      </trkpt>
      <trkpt lat="45.35316" lon="5.82244">
        <ele>981.34</ele>
        <time>2022-08-13T09:30:51.000Z</time>
      </trkpt>
      <trkpt lat="45.35257" lon="5.82192">
        <ele>976.71</ele>
        <time>2022-08-13T09:30:56.000Z</time>
      </trkpt>
      <trkpt lat="45.35188" lon="5.82133">
        <ele>967.09</ele>
        <time>2022-08-13T09:31:01.000Z</time>
      </trkpt>
      <trkpt lat="45.3513" lon="5.82055">
        <ele>956.91</ele>
        <time>2022-08-13T09:31:06.000Z</time>
      </trkpt>
      <trkpt lat="45.35089" lon="5.81957">
        <ele>942.1</ele>
        <time>2022-08-13T09:31:11.000Z</time>
      </trkpt>
      <trkpt lat="45.35022" lon="5.81948">
        <ele>939.5</ele>
        <time>2022-08-13T09:31:16.000Z</time>
      </trkpt>
      <trkpt lat="45.34957" lon="5.81926">
        <ele>933.99</ele>
        <time>2022-08-13T09:31:21.000Z</time>
      </trkpt>
      <trkpt lat="45.34893" lon="5.81896">
        <ele>931.13</ele>
        <time>2022-08-13T09:31:26.000Z</time>
      </trkpt>
      <trkpt lat="45.34841" lon="5.81834">
        <ele>928.78</ele>
        <time>2022-08-13T09:31:31.000Z</time>
      </trkpt>
      <trkpt lat="45.34805" lon="5.81759">
        <ele>916.21</ele>
        <time>2022-08-13T09:31:36.000Z</time>
      </trkpt>
      <trkpt lat="45.34747" lon="5.81706">
        <ele>911.93</ele>
        <time>2022-08-13T09:31:41.000Z</time>
      </trkpt>
      <trkpt lat="45.34677" lon="5.81684">
        <ele>904.83</ele>
        <time>2022-08-13T09:31:46.000Z</time>
      </trkpt>
      <trkpt lat="45.34615" lon="5.81683">
        <ele>899.98</ele>
        <time>2022-08-13T09:31:51.000Z</time>
      </trkpt>
      <trkpt lat="45.34574" lon="5.81686">
        <ele>898.61</ele>
        <time>2022-08-13T09:31:56.000Z</time>
      </trkpt>
      <trkpt lat="45.34578" lon="5.81627">
        <ele>893.9</ele>
        <time>2022-08-13T09:32:01.000Z</time>
      </trkpt>
      <trkpt lat="45.34537" lon="5.81616">
        <ele>892.78</ele>
        <time>2022-08-13T09:32:06.000Z</time>
      </trkpt>
      <trkpt lat="45.34492" lon="5.8161">
        <ele>892.62</ele>
        <time>2022-08-13T09:32:11.000Z</time>
      </trkpt>
      <trkpt lat="45.34448" lon="5.81597">
        <ele>890.55</ele>
        <time>2022-08-13T09:32:16.000Z</time>
      </trkpt>
      <trkpt lat="45.34408" lon="5.81562">
        <ele>885.62</ele>
        <time>2022-08-13T09:32:21.000Z</time>
      </trkpt>
      <trkpt lat="45.34371" lon="5.81525">
        <ele>883.49</ele>
        <time>2022-08-13T09:32:26.000Z</time>
      </trkpt>
      <trkpt lat="45.34347" lon="5.81495">
        <ele>882.18</ele>
        <time>2022-08-13T09:32:31.000Z</time>
      </trkpt>
      <trkpt lat="45.34339" lon="5.81459">
        <ele>880.94</ele>
        <time>2022-08-13T09:32:36.000Z</time>
      </trkpt>
      <trkpt lat="45.34335" lon="5.81428">
        <ele>880.17</ele>
        <time>2022-08-13T09:32:41.000Z</time>
      </trkpt>
      <trkpt lat="45.34314" lon="5.81419">
        <ele>881.35</ele>
        <time>2022-08-13T09:32:46.000Z</time>
      </trkpt>
      <trkpt lat="45.3429" lon="5.81408">
        <ele>878.51</ele>
        <time>2022-08-13T09:32:51.000Z</time>
      </trkpt>
      <trkpt lat="45.34271" lon="5.81401">
        <ele>877.61</ele>
        <time>2022-08-13T09:32:56.000Z</time>
      </trkpt>
      <trkpt lat="45.34249" lon="5.8139">
        <ele>876.86</ele>
        <time>2022-08-13T09:33:01.000Z</time>
      </trkpt>
      <trkpt lat="45.34238" lon="5.81385">
        <ele>875.89</ele>
        <time>2022-08-13T09:33:06.000Z</time>
      </trkpt>
      <trkpt lat="45.34228" lon="5.81394">
        <ele>879.75</ele>
        <time>2022-08-13T09:35:46.000Z</time>
      </trkpt>
      <trkpt lat="45.3421" lon="5.81401">
        <ele>880.45</ele>
        <time>2022-08-13T09:35:51.000Z</time>
      </trkpt>
      <trkpt lat="45.34197" lon="5.81375">
        <ele>881.64</ele>
        <time>2022-08-13T09:35:56.000Z</time>
      </trkpt>
      <trkpt lat="45.34175" lon="5.81342">
        <ele>883.28</ele>
        <time>2022-08-13T09:36:01.000Z</time>
      </trkpt>
      <trkpt lat="45.34143" lon="5.81316">
        <ele>883.96</ele>
        <time>2022-08-13T09:36:06.000Z</time>
      </trkpt>
      <trkpt lat="45.34123" lon="5.81275">
        <ele>882.13</ele>
        <time>2022-08-13T09:36:11.000Z</time>
      </trkpt>
      <trkpt lat="45.34126" lon="5.81216">
        <ele>878.16</ele>
        <time>2022-08-13T09:36:16.000Z</time>
      </trkpt>
      <trkpt lat="45.341" lon="5.81177">
        <ele>874.27</ele>
        <time>2022-08-13T09:36:21.000Z</time>
      </trkpt>
      <trkpt lat="45.34073" lon="5.81236">
        <ele>870.34</ele>
        <time>2022-08-13T09:36:26.000Z</time>
      </trkpt>
      <trkpt lat="45.34091" lon="5.81331">
        <ele>861.29</ele>
        <time>2022-08-13T09:36:31.000Z</time>
      </trkpt>
      <trkpt lat="45.34082" lon="5.81408">
        <ele>852.22</ele>
        <time>2022-08-13T09:36:36.000Z</time>
      </trkpt>
      <trkpt lat="45.34058" lon="5.81363">
        <ele>844.06</ele>
        <time>2022-08-13T09:36:41.000Z</time>
      </trkpt>
      <trkpt lat="45.34043" lon="5.81275">
        <ele>839.75</ele>
        <time>2022-08-13T09:36:46.000Z</time>
      </trkpt>
      <trkpt lat="45.34028" lon="5.8118">
        <ele>834.22</ele>
        <time>2022-08-13T09:36:51.000Z</time>
      </trkpt>
      <trkpt lat="45.34015" lon="5.81088">
        <ele>828.14</ele>
        <time>2022-08-13T09:36:56.000Z</time>
      </trkpt>
      <trkpt lat="45.33992" lon="5.81025">
        <ele>823.22</ele>
        <time>2022-08-13T09:37:01.000Z</time>
      </trkpt>
      <trkpt lat="45.34018" lon="5.80967">
        <ele>818.17</ele>
        <time>2022-08-13T09:37:06.000Z</time>
      </trkpt>
      <trkpt lat="45.34051" lon="5.8091">
        <ele>812.93</ele>
        <time>2022-08-13T09:37:11.000Z</time>
      </trkpt>
      <trkpt lat="45.34026" lon="5.80882">
        <ele>810.89</ele>
        <time>2022-08-13T09:37:16.000Z</time>
      </trkpt>
      <trkpt lat="45.34004" lon="5.80825">
        <ele>805.41</ele>
        <time>2022-08-13T09:37:21.000Z</time>
      </trkpt>
      <trkpt lat="45.33981" lon="5.80775">
        <ele>802.45</ele>
        <time>2022-08-13T09:37:26.000Z</time>
      </trkpt>
      <trkpt lat="45.33946" lon="5.80756">
        <ele>799.06</ele>
        <time>2022-08-13T09:37:31.000Z</time>
      </trkpt>
      <trkpt lat="45.33911" lon="5.80744">
        <ele>800.4</ele>
        <time>2022-08-13T09:37:36.000Z</time>
      </trkpt>
      <trkpt lat="45.33874" lon="5.80746">
        <ele>800.33</ele>
        <time>2022-08-13T09:37:41.000Z</time>
      </trkpt>
      <trkpt lat="45.33845" lon="5.8075">
        <ele>800.94</ele>
        <time>2022-08-13T09:37:46.000Z</time>
      </trkpt>
      <trkpt lat="45.33823" lon="5.80735">
        <ele>802.59</ele>
        <time>2022-08-13T09:37:51.000Z</time>
      </trkpt>
      <trkpt lat="45.33799" lon="5.80726">
        <ele>797.58</ele>
        <time>2022-08-13T09:37:56.000Z</time>
      </trkpt>
      <trkpt lat="45.33781" lon="5.80724">
        <ele>799.11</ele>
        <time>2022-08-13T09:38:01.000Z</time>
      </trkpt>
      <trkpt lat="45.33754" lon="5.80721">
        <ele>795.1</ele>
        <time>2022-08-13T09:38:06.000Z</time>
      </trkpt>
      <trkpt lat="45.33732" lon="5.8072">
        <ele>795.44</ele>
        <time>2022-08-13T09:38:11.000Z</time>
      </trkpt>
      <trkpt lat="45.33713" lon="5.80715">
        <ele>798.21</ele>
        <time>2022-08-13T09:38:16.000Z</time>
      </trkpt>
      <trkpt lat="45.33687" lon="5.80707">
        <ele>801.42</ele>
        <time>2022-08-13T09:38:21.000Z</time>
      </trkpt>
      <trkpt lat="45.33662" lon="5.80704">
        <ele>801.18</ele>
        <time>2022-08-13T09:38:26.000Z</time>
      </trkpt>
      <trkpt lat="45.33642" lon="5.80703">
        <ele>798.78</ele>
        <time>2022-08-13T09:38:31.000Z</time>
      </trkpt>
      <trkpt lat="45.33625" lon="5.80704">
        <ele>801.31</ele>
        <time>2022-08-13T09:38:36.000Z</time>
      </trkpt>
      <trkpt lat="45.33602" lon="5.80715">
        <ele>804.1</ele>
        <time>2022-08-13T09:38:41.000Z</time>
      </trkpt>
      <trkpt lat="45.33583" lon="5.80723">
        <ele>807.87</ele>
        <time>2022-08-13T09:38:46.000Z</time>
      </trkpt>
      <trkpt lat="45.33562" lon="5.80729">
        <ele>807.37</ele>
        <time>2022-08-13T09:38:51.000Z</time>
      </trkpt>
      <trkpt lat="45.33544" lon="5.80735">
        <ele>806.69</ele>
        <time>2022-08-13T09:38:56.000Z</time>
      </trkpt>
      <trkpt lat="45.33524" lon="5.80741">
        <ele>806.15</ele>
        <time>2022-08-13T09:39:01.000Z</time>
      </trkpt>
      <trkpt lat="45.33506" lon="5.80748">
        <ele>807.23</ele>
        <time>2022-08-13T09:39:06.000Z</time>
      </trkpt>
      <trkpt lat="45.33486" lon="5.80752">
        <ele>807.93</ele>
        <time>2022-08-13T09:39:11.000Z</time>
      </trkpt>
      <trkpt lat="45.33463" lon="5.80749">
        <ele>806.54</ele>
        <time>2022-08-13T09:39:16.000Z</time>
      </trkpt>
      <trkpt lat="45.33442" lon="5.80742">
        <ele>808.64</ele>
        <time>2022-08-13T09:39:21.000Z</time>
      </trkpt>
      <trkpt lat="45.3342" lon="5.80735">
        <ele>810.72</ele>
        <time>2022-08-13T09:39:26.000Z</time>
      </trkpt>
      <trkpt lat="45.33397" lon="5.80724">
        <ele>812.49</ele>
        <time>2022-08-13T09:39:31.000Z</time>
      </trkpt>
      <trkpt lat="45.33371" lon="5.80712">
        <ele>815.19</ele>
        <time>2022-08-13T09:39:36.000Z</time>
      </trkpt>
      <trkpt lat="45.33348" lon="5.80692">
        <ele>815.93</ele>
        <time>2022-08-13T09:39:41.000Z</time>
      </trkpt>
      <trkpt lat="45.33325" lon="5.80666">
        <ele>816.25</ele>
        <time>2022-08-13T09:39:46.000Z</time>
      </trkpt>
      <trkpt lat="45.33306" lon="5.80645">
        <ele>815.35</ele>
        <time>2022-08-13T09:39:51.000Z</time>
      </trkpt>
      <trkpt lat="45.33289" lon="5.80631">
        <ele>814.29</ele>
        <time>2022-08-13T09:39:56.000Z</time>
      </trkpt>
      <trkpt lat="45.3327" lon="5.80623">
        <ele>815.81</ele>
        <time>2022-08-13T09:40:01.000Z</time>
      </trkpt>
      <trkpt lat="45.33251" lon="5.80627">
        <ele>814.88</ele>
        <time>2022-08-13T09:40:06.000Z</time>
      </trkpt>
      <trkpt lat="45.33241" lon="5.80655">
        <ele>816.37</ele>
        <time>2022-08-13T09:40:11.000Z</time>
      </trkpt>
      <trkpt lat="45.33235" lon="5.8068">
        <ele>817.57</ele>
        <time>2022-08-13T09:40:16.000Z</time>
      </trkpt>
      <trkpt lat="45.33227" lon="5.80705">
        <ele>819.09</ele>
        <time>2022-08-13T09:40:21.000Z</time>
      </trkpt>
      <trkpt lat="45.33222" lon="5.80729">
        <ele>822.76</ele>
        <time>2022-08-13T09:40:26.000Z</time>
      </trkpt>
      <trkpt lat="45.33224" lon="5.80754">
        <ele>824.76</ele>
        <time>2022-08-13T09:40:31.000Z</time>
      </trkpt>
      <trkpt lat="45.33227" lon="5.80779">
        <ele>827.18</ele>
        <time>2022-08-13T09:40:36.000Z</time>
      </trkpt>
      <trkpt lat="45.3322" lon="5.808">
        <ele>826.75</ele>
        <time>2022-08-13T09:40:41.000Z</time>
      </trkpt>
      <trkpt lat="45.33204" lon="5.80814">
        <ele>829.67</ele>
        <time>2022-08-13T09:40:46.000Z</time>
      </trkpt>
      <trkpt lat="45.33185" lon="5.80812">
        <ele>828.74</ele>
        <time>2022-08-13T09:40:51.000Z</time>
      </trkpt>
      <trkpt lat="45.33165" lon="5.80806">
        <ele>831.8</ele>
        <time>2022-08-13T09:40:56.000Z</time>
      </trkpt>
      <trkpt lat="45.33147" lon="5.80797">
        <ele>831.96</ele>
        <time>2022-08-13T09:41:01.000Z</time>
      </trkpt>
      <trkpt lat="45.33133" lon="5.80781">
        <ele>833.39</ele>
        <time>2022-08-13T09:41:06.000Z</time>
      </trkpt>
      <trkpt lat="45.33117" lon="5.80768">
        <ele>834.77</ele>
        <time>2022-08-13T09:41:11.000Z</time>
      </trkpt>
      <trkpt lat="45.33101" lon="5.80763">
        <ele>833.91</ele>
        <time>2022-08-13T09:41:16.000Z</time>
      </trkpt>
      <trkpt lat="45.33086" lon="5.8077">
        <ele>835.76</ele>
        <time>2022-08-13T09:41:21.000Z</time>
      </trkpt>
      <trkpt lat="45.33071" lon="5.8079">
        <ele>840.62</ele>
        <time>2022-08-13T09:41:26.000Z</time>
      </trkpt>
      <trkpt lat="45.33056" lon="5.808">
        <ele>840.59</ele>
        <time>2022-08-13T09:41:31.000Z</time>
      </trkpt>
      <trkpt lat="45.33043" lon="5.80809">
        <ele>838.01</ele>
        <time>2022-08-13T09:41:36.000Z</time>
      </trkpt>
      <trkpt lat="45.33026" lon="5.80822">
        <ele>836.32</ele>
        <time>2022-08-13T09:41:41.000Z</time>
      </trkpt>
      <trkpt lat="45.33007" lon="5.80823">
        <ele>841.39</ele>
        <time>2022-08-13T09:41:46.000Z</time>
      </trkpt>
      <trkpt lat="45.32986" lon="5.80818">
        <ele>843.53</ele>
        <time>2022-08-13T09:41:51.000Z</time>
      </trkpt>
      <trkpt lat="45.32968" lon="5.80813">
        <ele>843.98</ele>
        <time>2022-08-13T09:41:56.000Z</time>
      </trkpt>
      <trkpt lat="45.32947" lon="5.80804">
        <ele>844.85</ele>
        <time>2022-08-13T09:42:01.000Z</time>
      </trkpt>
      <trkpt lat="45.3293" lon="5.80795">
        <ele>848.76</ele>
        <time>2022-08-13T09:42:06.000Z</time>
      </trkpt>
      <trkpt lat="45.32914" lon="5.8079">
        <ele>848.75</ele>
        <time>2022-08-13T09:42:11.000Z</time>
      </trkpt>
      <trkpt lat="45.32895" lon="5.80786">
        <ele>851.42</ele>
        <time>2022-08-13T09:42:16.000Z</time>
      </trkpt>
      <trkpt lat="45.32878" lon="5.80777">
        <ele>853.7</ele>
        <time>2022-08-13T09:42:21.000Z</time>
      </trkpt>
      <trkpt lat="45.32864" lon="5.80763">
        <ele>855.23</ele>
        <time>2022-08-13T09:42:26.000Z</time>
      </trkpt>
      <trkpt lat="45.3285" lon="5.80746">
        <ele>855.61</ele>
        <time>2022-08-13T09:42:31.000Z</time>
      </trkpt>
      <trkpt lat="45.32837" lon="5.80729">
        <ele>856.45</ele>
        <time>2022-08-13T09:42:36.000Z</time>
      </trkpt>
      <trkpt lat="45.32823" lon="5.80714">
        <ele>856.17</ele>
        <time>2022-08-13T09:42:41.000Z</time>
      </trkpt>
      <trkpt lat="45.32809" lon="5.80696">
        <ele>856.69</ele>
        <time>2022-08-13T09:42:46.000Z</time>
      </trkpt>
      <trkpt lat="45.32792" lon="5.80685">
        <ele>859.02</ele>
        <time>2022-08-13T09:42:51.000Z</time>
      </trkpt>
      <trkpt lat="45.32773" lon="5.80681">
        <ele>863.49</ele>
        <time>2022-08-13T09:42:56.000Z</time>
      </trkpt>
      <trkpt lat="45.32754" lon="5.80679">
        <ele>864.11</ele>
        <time>2022-08-13T09:43:01.000Z</time>
      </trkpt>
      <trkpt lat="45.32733" lon="5.80675">
        <ele>868</ele>
        <time>2022-08-13T09:43:06.000Z</time>
      </trkpt>
      <trkpt lat="45.32713" lon="5.80674">
        <ele>870.52</ele>
        <time>2022-08-13T09:43:11.000Z</time>
      </trkpt>
      <trkpt lat="45.32691" lon="5.80675">
        <ele>871.92</ele>
        <time>2022-08-13T09:43:16.000Z</time>
      </trkpt>
      <trkpt lat="45.32668" lon="5.80676">
        <ele>873.37</ele>
        <time>2022-08-13T09:43:21.000Z</time>
      </trkpt>
      <trkpt lat="45.32644" lon="5.80675">
        <ele>874.81</ele>
        <time>2022-08-13T09:43:26.000Z</time>
      </trkpt>
      <trkpt lat="45.32619" lon="5.80675">
        <ele>875.03</ele>
        <time>2022-08-13T09:43:31.000Z</time>
      </trkpt>
      <trkpt lat="45.32594" lon="5.80674">
        <ele>876.57</ele>
        <time>2022-08-13T09:43:36.000Z</time>
      </trkpt>
      <trkpt lat="45.32569" lon="5.80674">
        <ele>876.95</ele>
        <time>2022-08-13T09:43:41.000Z</time>
      </trkpt>
      <trkpt lat="45.32541" lon="5.80672">
        <ele>875.95</ele>
        <time>2022-08-13T09:43:46.000Z</time>
      </trkpt>
      <trkpt lat="45.32514" lon="5.8067">
        <ele>876.36</ele>
        <time>2022-08-13T09:43:51.000Z</time>
      </trkpt>
      <trkpt lat="45.32485" lon="5.8067">
        <ele>877.02</ele>
        <time>2022-08-13T09:43:56.000Z</time>
      </trkpt>
      <trkpt lat="45.32459" lon="5.80665">
        <ele>877.71</ele>
        <time>2022-08-13T09:44:01.000Z</time>
      </trkpt>
      <trkpt lat="45.32431" lon="5.8066">
        <ele>880.67</ele>
        <time>2022-08-13T09:44:06.000Z</time>
      </trkpt>
      <trkpt lat="45.32401" lon="5.80655">
        <ele>881.26</ele>
        <time>2022-08-13T09:44:11.000Z</time>
      </trkpt>
      <trkpt lat="45.32382" lon="5.80653">
        <ele>879.32</ele>
        <time>2022-08-13T09:44:16.000Z</time>
      </trkpt>
      <trkpt lat="45.32379" lon="5.80632">
        <ele>883.27</ele>
        <time>2022-08-13T09:44:21.000Z</time>
      </trkpt>
      <trkpt lat="45.32382" lon="5.80619">
        <ele>880.03</ele>
        <time>2022-08-13T09:44:29.000Z</time>
      </trkpt>
      <trkpt lat="45.32391" lon="5.80613">
        <ele>881.22</ele>
        <time>2022-08-13T09:47:19.000Z</time>
      </trkpt>
      <trkpt lat="45.32383" lon="5.8062">
        <ele>887.22</ele>
        <time>2022-08-13T09:50:04.000Z</time>
      </trkpt>
      <trkpt lat="45.32386" lon="5.80607">
        <ele>883.33</ele>
        <time>2022-08-13T11:45:01.000Z</time>
      </trkpt>
      <trkpt lat="45.32388" lon="5.80622">
        <ele>888.36</ele>
        <time>2022-08-13T11:48:17.000Z</time>
      </trkpt>
      <trkpt lat="45.32378" lon="5.80636">
        <ele>888.56</ele>
        <time>2022-08-13T11:48:22.000Z</time>
      </trkpt>
      <trkpt lat="45.32366" lon="5.80645">
        <ele>890.42</ele>
        <time>2022-08-13T11:48:27.000Z</time>
      </trkpt>
      <trkpt lat="45.32353" lon="5.80646">
        <ele>889.93</ele>
        <time>2022-08-13T11:48:32.000Z</time>
      </trkpt>
      <trkpt lat="45.32344" lon="5.80642">
        <ele>888.33</ele>
        <time>2022-08-13T11:48:37.000Z</time>
      </trkpt>
      <trkpt lat="45.3234" lon="5.80628">
        <ele>885.92</ele>
        <time>2022-08-13T11:48:42.000Z</time>
      </trkpt>
      <trkpt lat="45.32342" lon="5.80614">
        <ele>886.85</ele>
        <time>2022-08-13T11:48:47.000Z</time>
      </trkpt>
      <trkpt lat="45.32337" lon="5.80627">
        <ele>888.51</ele>
        <time>2022-08-13T11:48:55.000Z</time>
      </trkpt>
      <trkpt lat="45.32328" lon="5.80623">
        <ele>888.94</ele>
        <time>2022-08-13T11:49:09.000Z</time>
      </trkpt>
      <trkpt lat="45.32319" lon="5.80618">
        <ele>889.26</ele>
        <time>2022-08-13T11:51:32.000Z</time>
      </trkpt>
      <trkpt lat="45.32313" lon="5.80629">
        <ele>890.79</ele>
        <time>2022-08-13T11:52:23.000Z</time>
      </trkpt>
      <trkpt lat="45.32303" lon="5.80636">
        <ele>890.18</ele>
        <time>2022-08-13T11:52:28.000Z</time>
      </trkpt>
      <trkpt lat="45.32292" lon="5.80647">
        <ele>891.13</ele>
        <time>2022-08-13T11:52:33.000Z</time>
      </trkpt>
      <trkpt lat="45.32277" lon="5.80648">
        <ele>891.32</ele>
        <time>2022-08-13T11:52:38.000Z</time>
      </trkpt>
      <trkpt lat="45.32265" lon="5.8065">
        <ele>891.57</ele>
        <time>2022-08-13T11:52:43.000Z</time>
      </trkpt>
      <trkpt lat="45.32251" lon="5.80652">
        <ele>893.35</ele>
        <time>2022-08-13T11:52:48.000Z</time>
      </trkpt>
      <trkpt lat="45.32235" lon="5.80653">
        <ele>893.51</ele>
        <time>2022-08-13T11:52:53.000Z</time>
      </trkpt>
      <trkpt lat="45.32221" lon="5.80653">
        <ele>893.98</ele>
        <time>2022-08-13T11:52:58.000Z</time>
      </trkpt>
      <trkpt lat="45.32204" lon="5.80655">
        <ele>895.12</ele>
        <time>2022-08-13T11:53:03.000Z</time>
      </trkpt>
      <trkpt lat="45.32188" lon="5.80653">
        <ele>893.82</ele>
        <time>2022-08-13T11:53:08.000Z</time>
      </trkpt>
      <trkpt lat="45.32172" lon="5.80652">
        <ele>893.26</ele>
        <time>2022-08-13T11:53:13.000Z</time>
      </trkpt>
      <trkpt lat="45.32156" lon="5.80651">
        <ele>894.53</ele>
        <time>2022-08-13T11:53:18.000Z</time>
      </trkpt>
      <trkpt lat="45.32137" lon="5.80649">
        <ele>893.06</ele>
        <time>2022-08-13T11:53:23.000Z</time>
      </trkpt>
      <trkpt lat="45.32119" lon="5.80649">
        <ele>891.68</ele>
        <time>2022-08-13T11:53:28.000Z</time>
      </trkpt>
      <trkpt lat="45.32099" lon="5.80649">
        <ele>891.19</ele>
        <time>2022-08-13T11:53:33.000Z</time>
      </trkpt>
      <trkpt lat="45.32078" lon="5.80649">
        <ele>891.1</ele>
        <time>2022-08-13T11:53:38.000Z</time>
      </trkpt>
      <trkpt lat="45.32059" lon="5.8065">
        <ele>892.3</ele>
        <time>2022-08-13T11:53:43.000Z</time>
      </trkpt>
      <trkpt lat="45.32039" lon="5.80651">
        <ele>893.74</ele>
        <time>2022-08-13T11:53:48.000Z</time>
      </trkpt>
      <trkpt lat="45.32016" lon="5.80652">
        <ele>893.73</ele>
        <time>2022-08-13T11:53:53.000Z</time>
      </trkpt>
      <trkpt lat="45.31996" lon="5.80654">
        <ele>894.22</ele>
        <time>2022-08-13T11:53:58.000Z</time>
      </trkpt>
      <trkpt lat="45.31976" lon="5.80656">
        <ele>895.82</ele>
        <time>2022-08-13T11:54:03.000Z</time>
      </trkpt>
      <trkpt lat="45.31957" lon="5.80657">
        <ele>896.48</ele>
        <time>2022-08-13T11:54:08.000Z</time>
      </trkpt>
      <trkpt lat="45.31938" lon="5.80662">
        <ele>895.03</ele>
        <time>2022-08-13T11:54:13.000Z</time>
      </trkpt>
      <trkpt lat="45.31916" lon="5.80667">
        <ele>895.09</ele>
        <time>2022-08-13T11:54:18.000Z</time>
      </trkpt>
      <trkpt lat="45.31896" lon="5.80669">
        <ele>894.5</ele>
        <time>2022-08-13T11:54:23.000Z</time>
      </trkpt>
      <trkpt lat="45.31874" lon="5.8067">
        <ele>893.86</ele>
        <time>2022-08-13T11:54:28.000Z</time>
      </trkpt>
      <trkpt lat="45.31852" lon="5.80672">
        <ele>893.08</ele>
        <time>2022-08-13T11:54:33.000Z</time>
      </trkpt>
      <trkpt lat="45.31833" lon="5.80683">
        <ele>894.54</ele>
        <time>2022-08-13T11:54:38.000Z</time>
      </trkpt>
      <trkpt lat="45.3182" lon="5.80708">
        <ele>895.77</ele>
        <time>2022-08-13T11:54:43.000Z</time>
      </trkpt>
      <trkpt lat="45.31815" lon="5.80741">
        <ele>896.06</ele>
        <time>2022-08-13T11:54:48.000Z</time>
      </trkpt>
      <trkpt lat="45.31813" lon="5.8077">
        <ele>899.13</ele>
        <time>2022-08-13T11:54:53.000Z</time>
      </trkpt>
      <trkpt lat="45.31812" lon="5.80799">
        <ele>900.88</ele>
        <time>2022-08-13T11:54:58.000Z</time>
      </trkpt>
      <trkpt lat="45.31814" lon="5.80826">
        <ele>902.52</ele>
        <time>2022-08-13T11:55:03.000Z</time>
      </trkpt>
      <trkpt lat="45.31829" lon="5.80846">
        <ele>902.06</ele>
        <time>2022-08-13T11:55:08.000Z</time>
      </trkpt>
      <trkpt lat="45.31849" lon="5.80858">
        <ele>901.9</ele>
        <time>2022-08-13T11:55:13.000Z</time>
      </trkpt>
      <trkpt lat="45.3187" lon="5.80867">
        <ele>898.35</ele>
        <time>2022-08-13T11:55:18.000Z</time>
      </trkpt>
      <trkpt lat="45.31892" lon="5.80874">
        <ele>895.99</ele>
        <time>2022-08-13T11:55:23.000Z</time>
      </trkpt>
      <trkpt lat="45.31915" lon="5.80877">
        <ele>892.85</ele>
        <time>2022-08-13T11:55:28.000Z</time>
      </trkpt>
      <trkpt lat="45.31936" lon="5.80884">
        <ele>892.2</ele>
        <time>2022-08-13T11:55:33.000Z</time>
      </trkpt>
      <trkpt lat="45.31947" lon="5.8091">
        <ele>893.05</ele>
        <time>2022-08-13T11:55:38.000Z</time>
      </trkpt>
      <trkpt lat="45.31933" lon="5.80934">
        <ele>895.81</ele>
        <time>2022-08-13T11:55:43.000Z</time>
      </trkpt>
      <trkpt lat="45.3191" lon="5.8093">
        <ele>897.65</ele>
        <time>2022-08-13T11:55:48.000Z</time>
      </trkpt>
      <trkpt lat="45.31893" lon="5.80914">
        <ele>899.2</ele>
        <time>2022-08-13T11:55:53.000Z</time>
      </trkpt>
      <trkpt lat="45.31874" lon="5.80901">
        <ele>900.72</ele>
        <time>2022-08-13T11:55:58.000Z</time>
      </trkpt>
      <trkpt lat="45.31853" lon="5.80901">
        <ele>901.85</ele>
        <time>2022-08-13T11:56:03.000Z</time>
      </trkpt>
      <trkpt lat="45.31833" lon="5.80903">
        <ele>903.53</ele>
        <time>2022-08-13T11:56:08.000Z</time>
      </trkpt>
      <trkpt lat="45.31815" lon="5.809">
        <ele>903.06</ele>
        <time>2022-08-13T11:56:13.000Z</time>
      </trkpt>
      <trkpt lat="45.31797" lon="5.80896">
        <ele>904.66</ele>
        <time>2022-08-13T11:56:18.000Z</time>
      </trkpt>
      <trkpt lat="45.31779" lon="5.80892">
        <ele>905.87</ele>
        <time>2022-08-13T11:56:23.000Z</time>
      </trkpt>
      <trkpt lat="45.31765" lon="5.80885">
        <ele>906.71</ele>
        <time>2022-08-13T11:56:28.000Z</time>
      </trkpt>
      <trkpt lat="45.3175" lon="5.80878">
        <ele>909.72</ele>
        <time>2022-08-13T11:56:33.000Z</time>
      </trkpt>
      <trkpt lat="45.31734" lon="5.80873">
        <ele>912.27</ele>
        <time>2022-08-13T11:56:38.000Z</time>
      </trkpt>
      <trkpt lat="45.31719" lon="5.80868">
        <ele>910.47</ele>
        <time>2022-08-13T11:56:43.000Z</time>
      </trkpt>
      <trkpt lat="45.31702" lon="5.80864">
        <ele>909.01</ele>
        <time>2022-08-13T11:56:48.000Z</time>
      </trkpt>
      <trkpt lat="45.31685" lon="5.80865">
        <ele>908.82</ele>
        <time>2022-08-13T11:56:53.000Z</time>
      </trkpt>
      <trkpt lat="45.31666" lon="5.80869">
        <ele>908.35</ele>
        <time>2022-08-13T11:56:58.000Z</time>
      </trkpt>
      <trkpt lat="45.31645" lon="5.80875">
        <ele>908.53</ele>
        <time>2022-08-13T11:57:03.000Z</time>
      </trkpt>
      <trkpt lat="45.31625" lon="5.80878">
        <ele>909.13</ele>
        <time>2022-08-13T11:57:08.000Z</time>
      </trkpt>
      <trkpt lat="45.31606" lon="5.80878">
        <ele>909.68</ele>
        <time>2022-08-13T11:57:13.000Z</time>
      </trkpt>
      <trkpt lat="45.31588" lon="5.8088">
        <ele>910.84</ele>
        <time>2022-08-13T11:57:18.000Z</time>
      </trkpt>
      <trkpt lat="45.31572" lon="5.80888">
        <ele>911.71</ele>
        <time>2022-08-13T11:57:23.000Z</time>
      </trkpt>
      <trkpt lat="45.31557" lon="5.80898">
        <ele>913.67</ele>
        <time>2022-08-13T11:57:28.000Z</time>
      </trkpt>
      <trkpt lat="45.31539" lon="5.80905">
        <ele>915.93</ele>
        <time>2022-08-13T11:57:33.000Z</time>
      </trkpt>
      <trkpt lat="45.3152" lon="5.80912">
        <ele>918.35</ele>
        <time>2022-08-13T11:57:38.000Z</time>
      </trkpt>
      <trkpt lat="45.31502" lon="5.80922">
        <ele>920.02</ele>
        <time>2022-08-13T11:57:43.000Z</time>
      </trkpt>
      <trkpt lat="45.31485" lon="5.80933">
        <ele>921.05</ele>
        <time>2022-08-13T11:57:48.000Z</time>
      </trkpt>
      <trkpt lat="45.31469" lon="5.80947">
        <ele>921.02</ele>
        <time>2022-08-13T11:57:53.000Z</time>
      </trkpt>
      <trkpt lat="45.31446" lon="5.80956">
        <ele>920.57</ele>
        <time>2022-08-13T11:57:58.000Z</time>
      </trkpt>
      <trkpt lat="45.31423" lon="5.80958">
        <ele>921.35</ele>
        <time>2022-08-13T11:58:03.000Z</time>
      </trkpt>
      <trkpt lat="45.314" lon="5.80957">
        <ele>920.63</ele>
        <time>2022-08-13T11:58:08.000Z</time>
      </trkpt>
      <trkpt lat="45.31378" lon="5.80955">
        <ele>921.18</ele>
        <time>2022-08-13T11:58:13.000Z</time>
      </trkpt>
      <trkpt lat="45.31358" lon="5.80959">
        <ele>921.24</ele>
        <time>2022-08-13T11:58:18.000Z</time>
      </trkpt>
      <trkpt lat="45.31343" lon="5.80958">
        <ele>922.75</ele>
        <time>2022-08-13T11:58:23.000Z</time>
      </trkpt>
      <trkpt lat="45.31329" lon="5.80955">
        <ele>923.73</ele>
        <time>2022-08-13T11:58:28.000Z</time>
      </trkpt>
      <trkpt lat="45.31314" lon="5.80951">
        <ele>926.47</ele>
        <time>2022-08-13T11:58:33.000Z</time>
      </trkpt>
      <trkpt lat="45.31299" lon="5.80956">
        <ele>928.1</ele>
        <time>2022-08-13T11:58:38.000Z</time>
      </trkpt>
      <trkpt lat="45.31288" lon="5.80963">
        <ele>933.08</ele>
        <time>2022-08-13T11:58:43.000Z</time>
      </trkpt>
      <trkpt lat="45.31274" lon="5.80972">
        <ele>934.53</ele>
        <time>2022-08-13T11:58:48.000Z</time>
      </trkpt>
      <trkpt lat="45.31258" lon="5.80979">
        <ele>932.61</ele>
        <time>2022-08-13T11:58:53.000Z</time>
      </trkpt>
      <trkpt lat="45.31247" lon="5.8098">
        <ele>936.71</ele>
        <time>2022-08-13T11:58:58.000Z</time>
      </trkpt>
      <trkpt lat="45.31234" lon="5.80979">
        <ele>940.71</ele>
        <time>2022-08-13T11:59:03.000Z</time>
      </trkpt>
      <trkpt lat="45.31222" lon="5.8098">
        <ele>941.45</ele>
        <time>2022-08-13T11:59:08.000Z</time>
      </trkpt>
      <trkpt lat="45.31205" lon="5.80984">
        <ele>944.86</ele>
        <time>2022-08-13T11:59:13.000Z</time>
      </trkpt>
      <trkpt lat="45.31187" lon="5.80989">
        <ele>947.27</ele>
        <time>2022-08-13T11:59:18.000Z</time>
      </trkpt>
      <trkpt lat="45.31171" lon="5.80995">
        <ele>953.15</ele>
        <time>2022-08-13T11:59:23.000Z</time>
      </trkpt>
      <trkpt lat="45.31155" lon="5.80999">
        <ele>955.19</ele>
        <time>2022-08-13T11:59:28.000Z</time>
      </trkpt>
      <trkpt lat="45.31136" lon="5.80999">
        <ele>959.35</ele>
        <time>2022-08-13T11:59:33.000Z</time>
      </trkpt>
      <trkpt lat="45.31118" lon="5.80999">
        <ele>962.45</ele>
        <time>2022-08-13T11:59:38.000Z</time>
      </trkpt>
      <trkpt lat="45.31099" lon="5.81002">
        <ele>962.61</ele>
        <time>2022-08-13T11:59:43.000Z</time>
      </trkpt>
      <trkpt lat="45.31074" lon="5.81014">
        <ele>962.08</ele>
        <time>2022-08-13T11:59:48.000Z</time>
      </trkpt>
      <trkpt lat="45.31051" lon="5.81024">
        <ele>961.96</ele>
        <time>2022-08-13T11:59:53.000Z</time>
      </trkpt>
      <trkpt lat="45.31025" lon="5.81034">
        <ele>960.23</ele>
        <time>2022-08-13T11:59:58.000Z</time>
      </trkpt>
      <trkpt lat="45.31002" lon="5.8104">
        <ele>960.2</ele>
        <time>2022-08-13T12:00:03.000Z</time>
      </trkpt>
      <trkpt lat="45.30982" lon="5.81047">
        <ele>962.66</ele>
        <time>2022-08-13T12:00:08.000Z</time>
      </trkpt>
      <trkpt lat="45.3096" lon="5.81048">
        <ele>962.69</ele>
        <time>2022-08-13T12:00:13.000Z</time>
      </trkpt>
      <trkpt lat="45.30943" lon="5.81053">
        <ele>961.9</ele>
        <time>2022-08-13T12:00:18.000Z</time>
      </trkpt>
      <trkpt lat="45.30924" lon="5.81055">
        <ele>965.89</ele>
        <time>2022-08-13T12:00:23.000Z</time>
      </trkpt>
      <trkpt lat="45.30905" lon="5.81061">
        <ele>970.22</ele>
        <time>2022-08-13T12:00:28.000Z</time>
      </trkpt>
      <trkpt lat="45.30888" lon="5.81068">
        <ele>970.41</ele>
        <time>2022-08-13T12:00:33.000Z</time>
      </trkpt>
      <trkpt lat="45.30871" lon="5.81074">
        <ele>972.35</ele>
        <time>2022-08-13T12:00:38.000Z</time>
      </trkpt>
      <trkpt lat="45.30854" lon="5.8107">
        <ele>975.84</ele>
        <time>2022-08-13T12:00:43.000Z</time>
      </trkpt>
      <trkpt lat="45.30838" lon="5.81064">
        <ele>979.58</ele>
        <time>2022-08-13T12:00:48.000Z</time>
      </trkpt>
      <trkpt lat="45.30819" lon="5.81061">
        <ele>981.64</ele>
        <time>2022-08-13T12:00:53.000Z</time>
      </trkpt>
      <trkpt lat="45.30796" lon="5.81058">
        <ele>980.22</ele>
        <time>2022-08-13T12:00:58.000Z</time>
      </trkpt>
      <trkpt lat="45.30777" lon="5.8106">
        <ele>982.49</ele>
        <time>2022-08-13T12:01:03.000Z</time>
      </trkpt>
      <trkpt lat="45.30758" lon="5.81061">
        <ele>983.11</ele>
        <time>2022-08-13T12:01:08.000Z</time>
      </trkpt>
      <trkpt lat="45.30737" lon="5.81059">
        <ele>983.7</ele>
        <time>2022-08-13T12:01:13.000Z</time>
      </trkpt>
      <trkpt lat="45.30723" lon="5.81056">
        <ele>983.39</ele>
        <time>2022-08-13T12:01:18.000Z</time>
      </trkpt>
      <trkpt lat="45.30713" lon="5.81048">
        <ele>987.88</ele>
        <time>2022-08-13T12:01:23.000Z</time>
      </trkpt>
      <trkpt lat="45.30698" lon="5.8104">
        <ele>991.13</ele>
        <time>2022-08-13T12:01:28.000Z</time>
      </trkpt>
      <trkpt lat="45.30677" lon="5.81038">
        <ele>994.71</ele>
        <time>2022-08-13T12:01:33.000Z</time>
      </trkpt>
      <trkpt lat="45.30659" lon="5.81046">
        <ele>995.16</ele>
        <time>2022-08-13T12:01:38.000Z</time>
      </trkpt>
      <trkpt lat="45.30642" lon="5.81062">
        <ele>997.3</ele>
        <time>2022-08-13T12:01:43.000Z</time>
      </trkpt>
      <trkpt lat="45.30622" lon="5.81078">
        <ele>999.1</ele>
        <time>2022-08-13T12:01:48.000Z</time>
      </trkpt>
      <trkpt lat="45.30609" lon="5.81096">
        <ele>1001.47</ele>
        <time>2022-08-13T12:01:53.000Z</time>
      </trkpt>
      <trkpt lat="45.30593" lon="5.81108">
        <ele>998.62</ele>
        <time>2022-08-13T12:01:58.000Z</time>
      </trkpt>
      <trkpt lat="45.3057" lon="5.8111">
        <ele>997.05</ele>
        <time>2022-08-13T12:02:03.000Z</time>
      </trkpt>
      <trkpt lat="45.30548" lon="5.81101">
        <ele>999.63</ele>
        <time>2022-08-13T12:02:08.000Z</time>
      </trkpt>
      <trkpt lat="45.30522" lon="5.8109">
        <ele>1003.6</ele>
        <time>2022-08-13T12:02:13.000Z</time>
      </trkpt>
      <trkpt lat="45.30509" lon="5.81078">
        <ele>1004.1</ele>
        <time>2022-08-13T12:02:18.000Z</time>
      </trkpt>
      <trkpt lat="45.30493" lon="5.81078">
        <ele>1006.77</ele>
        <time>2022-08-13T12:02:23.000Z</time>
      </trkpt>
      <trkpt lat="45.30479" lon="5.81078">
        <ele>1009.79</ele>
        <time>2022-08-13T12:02:28.000Z</time>
      </trkpt>
      <trkpt lat="45.3046" lon="5.81084">
        <ele>1010.73</ele>
        <time>2022-08-13T12:02:33.000Z</time>
      </trkpt>
      <trkpt lat="45.3044" lon="5.81093">
        <ele>1012.6</ele>
        <time>2022-08-13T12:02:38.000Z</time>
      </trkpt>
      <trkpt lat="45.30426" lon="5.81099">
        <ele>1014.92</ele>
        <time>2022-08-13T12:02:43.000Z</time>
      </trkpt>
      <trkpt lat="45.3041" lon="5.81098">
        <ele>1019.35</ele>
        <time>2022-08-13T12:02:48.000Z</time>
      </trkpt>
      <trkpt lat="45.30394" lon="5.81095">
        <ele>1024.65</ele>
        <time>2022-08-13T12:02:53.000Z</time>
      </trkpt>
      <trkpt lat="45.30378" lon="5.81089">
        <ele>1023.47</ele>
        <time>2022-08-13T12:02:58.000Z</time>
      </trkpt>
      <trkpt lat="45.3036" lon="5.81079">
        <ele>1026.88</ele>
        <time>2022-08-13T12:03:03.000Z</time>
      </trkpt>
      <trkpt lat="45.30348" lon="5.81069">
        <ele>1028.06</ele>
        <time>2022-08-13T12:03:08.000Z</time>
      </trkpt>
      <trkpt lat="45.30334" lon="5.81057">
        <ele>1027.51</ele>
        <time>2022-08-13T12:03:13.000Z</time>
      </trkpt>
      <trkpt lat="45.30317" lon="5.81049">
        <ele>1026.62</ele>
        <time>2022-08-13T12:03:18.000Z</time>
      </trkpt>
      <trkpt lat="45.303" lon="5.81045">
        <ele>1027.19</ele>
        <time>2022-08-13T12:03:23.000Z</time>
      </trkpt>
      <trkpt lat="45.30282" lon="5.81041">
        <ele>1029.4</ele>
        <time>2022-08-13T12:03:28.000Z</time>
      </trkpt>
      <trkpt lat="45.30269" lon="5.81039">
        <ele>1034.61</ele>
        <time>2022-08-13T12:03:33.000Z</time>
      </trkpt>
      <trkpt lat="45.30251" lon="5.81038">
        <ele>1034.45</ele>
        <time>2022-08-13T12:03:38.000Z</time>
      </trkpt>
      <trkpt lat="45.30232" lon="5.81038">
        <ele>1033.89</ele>
        <time>2022-08-13T12:03:43.000Z</time>
      </trkpt>
      <trkpt lat="45.30216" lon="5.81034">
        <ele>1037.91</ele>
        <time>2022-08-13T12:03:48.000Z</time>
      </trkpt>
      <trkpt lat="45.30199" lon="5.81023">
        <ele>1037.53</ele>
        <time>2022-08-13T12:03:53.000Z</time>
      </trkpt>
      <trkpt lat="45.30183" lon="5.81013">
        <ele>1038.41</ele>
        <time>2022-08-13T12:03:58.000Z</time>
      </trkpt>
      <trkpt lat="45.30166" lon="5.81007">
        <ele>1041.55</ele>
        <time>2022-08-13T12:04:03.000Z</time>
      </trkpt>
      <trkpt lat="45.30144" lon="5.81003">
        <ele>1041.29</ele>
        <time>2022-08-13T12:04:08.000Z</time>
      </trkpt>
      <trkpt lat="45.30128" lon="5.80999">
        <ele>1041.84</ele>
        <time>2022-08-13T12:04:13.000Z</time>
      </trkpt>
      <trkpt lat="45.30112" lon="5.80994">
        <ele>1041.75</ele>
        <time>2022-08-13T12:04:18.000Z</time>
      </trkpt>
      <trkpt lat="45.30096" lon="5.8099">
        <ele>1042.4</ele>
        <time>2022-08-13T12:04:23.000Z</time>
      </trkpt>
      <trkpt lat="45.30082" lon="5.80991">
        <ele>1042.13</ele>
        <time>2022-08-13T12:04:28.000Z</time>
      </trkpt>
      <trkpt lat="45.30066" lon="5.80994">
        <ele>1041.02</ele>
        <time>2022-08-13T12:04:33.000Z</time>
      </trkpt>
      <trkpt lat="45.30049" lon="5.80994">
        <ele>1039.51</ele>
        <time>2022-08-13T12:04:38.000Z</time>
      </trkpt>
      <trkpt lat="45.30032" lon="5.80991">
        <ele>1042.53</ele>
        <time>2022-08-13T12:04:43.000Z</time>
      </trkpt>
      <trkpt lat="45.30017" lon="5.80981">
        <ele>1045.79</ele>
        <time>2022-08-13T12:04:48.000Z</time>
      </trkpt>
      <trkpt lat="45.30002" lon="5.80976">
        <ele>1049.23</ele>
        <time>2022-08-13T12:04:53.000Z</time>
      </trkpt>
      <trkpt lat="45.29985" lon="5.80967">
        <ele>1047.25</ele>
        <time>2022-08-13T12:04:58.000Z</time>
      </trkpt>
      <trkpt lat="45.2997" lon="5.80964">
        <ele>1050.15</ele>
        <time>2022-08-13T12:05:03.000Z</time>
      </trkpt>
      <trkpt lat="45.29953" lon="5.80964">
        <ele>1051</ele>
        <time>2022-08-13T12:05:08.000Z</time>
      </trkpt>
      <trkpt lat="45.29939" lon="5.8097">
        <ele>1053.03</ele>
        <time>2022-08-13T12:05:13.000Z</time>
      </trkpt>
      <trkpt lat="45.29926" lon="5.80981">
        <ele>1052.82</ele>
        <time>2022-08-13T12:05:18.000Z</time>
      </trkpt>
      <trkpt lat="45.29917" lon="5.80984">
        <ele>1055.9</ele>
        <time>2022-08-13T12:05:23.000Z</time>
      </trkpt>
      <trkpt lat="45.29906" lon="5.80992">
        <ele>1054.62</ele>
        <time>2022-08-13T12:05:28.000Z</time>
      </trkpt>
      <trkpt lat="45.29892" lon="5.80995">
        <ele>1054.45</ele>
        <time>2022-08-13T12:05:33.000Z</time>
      </trkpt>
      <trkpt lat="45.2987" lon="5.80992">
        <ele>1054.3</ele>
        <time>2022-08-13T12:05:38.000Z</time>
      </trkpt>
      <trkpt lat="45.29849" lon="5.80989">
        <ele>1055.76</ele>
        <time>2022-08-13T12:05:43.000Z</time>
      </trkpt>
      <trkpt lat="45.29828" lon="5.80989">
        <ele>1062.88</ele>
        <time>2022-08-13T12:05:48.000Z</time>
      </trkpt>
      <trkpt lat="45.2981" lon="5.80996">
        <ele>1064.62</ele>
        <time>2022-08-13T12:05:53.000Z</time>
      </trkpt>
      <trkpt lat="45.29793" lon="5.81001">
        <ele>1068.53</ele>
        <time>2022-08-13T12:05:58.000Z</time>
      </trkpt>
      <trkpt lat="45.29777" lon="5.81">
        <ele>1070.82</ele>
        <time>2022-08-13T12:06:03.000Z</time>
      </trkpt>
      <trkpt lat="45.29761" lon="5.80992">
        <ele>1070.26</ele>
        <time>2022-08-13T12:06:08.000Z</time>
      </trkpt>
      <trkpt lat="45.29746" lon="5.80987">
        <ele>1074.43</ele>
        <time>2022-08-13T12:06:13.000Z</time>
      </trkpt>
      <trkpt lat="45.29735" lon="5.8099">
        <ele>1076.92</ele>
        <time>2022-08-13T12:06:19.000Z</time>
      </trkpt>
      <trkpt lat="45.29723" lon="5.80998">
        <ele>1080.86</ele>
        <time>2022-08-13T12:06:24.000Z</time>
      </trkpt>
      <trkpt lat="45.29708" lon="5.80999">
        <ele>1083.16</ele>
        <time>2022-08-13T12:06:29.000Z</time>
      </trkpt>
      <trkpt lat="45.29693" lon="5.80999">
        <ele>1083.91</ele>
        <time>2022-08-13T12:06:34.000Z</time>
      </trkpt>
      <trkpt lat="45.29678" lon="5.80995">
        <ele>1086.67</ele>
        <time>2022-08-13T12:06:39.000Z</time>
      </trkpt>
      <trkpt lat="45.29663" lon="5.80991">
        <ele>1089.97</ele>
        <time>2022-08-13T12:06:44.000Z</time>
      </trkpt>
      <trkpt lat="45.29646" lon="5.80988">
        <ele>1091.04</ele>
        <time>2022-08-13T12:06:49.000Z</time>
      </trkpt>
      <trkpt lat="45.29631" lon="5.80982">
        <ele>1092.66</ele>
        <time>2022-08-13T12:06:54.000Z</time>
      </trkpt>
      <trkpt lat="45.29615" lon="5.80977">
        <ele>1091.86</ele>
        <time>2022-08-13T12:06:59.000Z</time>
      </trkpt>
      <trkpt lat="45.29599" lon="5.80975">
        <ele>1093.71</ele>
        <time>2022-08-13T12:07:04.000Z</time>
      </trkpt>
      <trkpt lat="45.29585" lon="5.80971">
        <ele>1094.02</ele>
        <time>2022-08-13T12:07:09.000Z</time>
      </trkpt>
      <trkpt lat="45.29569" lon="5.80969">
        <ele>1096.77</ele>
        <time>2022-08-13T12:07:14.000Z</time>
      </trkpt>
      <trkpt lat="45.29554" lon="5.80971">
        <ele>1102.54</ele>
        <time>2022-08-13T12:07:19.000Z</time>
      </trkpt>
      <trkpt lat="45.2954" lon="5.80975">
        <ele>1103.83</ele>
        <time>2022-08-13T12:07:24.000Z</time>
      </trkpt>
      <trkpt lat="45.29525" lon="5.80969">
        <ele>1103.52</ele>
        <time>2022-08-13T12:07:29.000Z</time>
      </trkpt>
      <trkpt lat="45.29511" lon="5.80961">
        <ele>1106.43</ele>
        <time>2022-08-13T12:07:34.000Z</time>
      </trkpt>
      <trkpt lat="45.29496" lon="5.80954">
        <ele>1107.96</ele>
        <time>2022-08-13T12:07:39.000Z</time>
      </trkpt>
      <trkpt lat="45.29483" lon="5.80948">
        <ele>1110.34</ele>
        <time>2022-08-13T12:07:44.000Z</time>
      </trkpt>
      <trkpt lat="45.29467" lon="5.80945">
        <ele>1112.68</ele>
        <time>2022-08-13T12:07:49.000Z</time>
      </trkpt>
      <trkpt lat="45.29453" lon="5.80941">
        <ele>1117.21</ele>
        <time>2022-08-13T12:07:54.000Z</time>
      </trkpt>
      <trkpt lat="45.29438" lon="5.80945">
        <ele>1123.7</ele>
        <time>2022-08-13T12:07:59.000Z</time>
      </trkpt>
      <trkpt lat="45.29422" lon="5.80956">
        <ele>1127.06</ele>
        <time>2022-08-13T12:08:04.000Z</time>
      </trkpt>
      <trkpt lat="45.29409" lon="5.80966">
        <ele>1127.91</ele>
        <time>2022-08-13T12:08:09.000Z</time>
      </trkpt>
      <trkpt lat="45.29394" lon="5.80962">
        <ele>1125.94</ele>
        <time>2022-08-13T12:08:14.000Z</time>
      </trkpt>
      <trkpt lat="45.29379" lon="5.80962">
        <ele>1127.78</ele>
        <time>2022-08-13T12:08:19.000Z</time>
      </trkpt>
      <trkpt lat="45.29366" lon="5.80965">
        <ele>1131.67</ele>
        <time>2022-08-13T12:08:24.000Z</time>
      </trkpt>
      <trkpt lat="45.29354" lon="5.80972">
        <ele>1135.35</ele>
        <time>2022-08-13T12:08:29.000Z</time>
      </trkpt>
      <trkpt lat="45.29342" lon="5.80977">
        <ele>1138.68</ele>
        <time>2022-08-13T12:08:34.000Z</time>
      </trkpt>
      <trkpt lat="45.29326" lon="5.80984">
        <ele>1139.43</ele>
        <time>2022-08-13T12:08:39.000Z</time>
      </trkpt>
      <trkpt lat="45.29317" lon="5.8099">
        <ele>1143.35</ele>
        <time>2022-08-13T12:08:44.000Z</time>
      </trkpt>
      <trkpt lat="45.29302" lon="5.81">
        <ele>1146.8</ele>
        <time>2022-08-13T12:08:49.000Z</time>
      </trkpt>
      <trkpt lat="45.29287" lon="5.81009">
        <ele>1145.23</ele>
        <time>2022-08-13T12:08:54.000Z</time>
      </trkpt>
      <trkpt lat="45.29275" lon="5.81018">
        <ele>1145.62</ele>
        <time>2022-08-13T12:08:59.000Z</time>
      </trkpt>
      <trkpt lat="45.29265" lon="5.81022">
        <ele>1150.6</ele>
        <time>2022-08-13T12:09:04.000Z</time>
      </trkpt>
      <trkpt lat="45.2925" lon="5.81031">
        <ele>1150.12</ele>
        <time>2022-08-13T12:09:09.000Z</time>
      </trkpt>
      <trkpt lat="45.29235" lon="5.81032">
        <ele>1151.21</ele>
        <time>2022-08-13T12:09:14.000Z</time>
      </trkpt>
      <trkpt lat="45.2922" lon="5.81031">
        <ele>1157.48</ele>
        <time>2022-08-13T12:09:19.000Z</time>
      </trkpt>
      <trkpt lat="45.29203" lon="5.81018">
        <ele>1155.88</ele>
        <time>2022-08-13T12:09:24.000Z</time>
      </trkpt>
      <trkpt lat="45.29188" lon="5.81001">
        <ele>1154.74</ele>
        <time>2022-08-13T12:09:29.000Z</time>
      </trkpt>
      <trkpt lat="45.29173" lon="5.80988">
        <ele>1156.31</ele>
        <time>2022-08-13T12:09:34.000Z</time>
      </trkpt>
      <trkpt lat="45.29162" lon="5.80974">
        <ele>1158.16</ele>
        <time>2022-08-13T12:09:39.000Z</time>
      </trkpt>
      <trkpt lat="45.29151" lon="5.8096">
        <ele>1161.74</ele>
        <time>2022-08-13T12:09:44.000Z</time>
      </trkpt>
      <trkpt lat="45.29136" lon="5.80947">
        <ele>1159.52</ele>
        <time>2022-08-13T12:09:49.000Z</time>
      </trkpt>
      <trkpt lat="45.2912" lon="5.80934">
        <ele>1160.17</ele>
        <time>2022-08-13T12:09:54.000Z</time>
      </trkpt>
      <trkpt lat="45.29109" lon="5.80914">
        <ele>1162.27</ele>
        <time>2022-08-13T12:09:59.000Z</time>
      </trkpt>
      <trkpt lat="45.29102" lon="5.80895">
        <ele>1165.08</ele>
        <time>2022-08-13T12:10:04.000Z</time>
      </trkpt>
      <trkpt lat="45.29095" lon="5.8088">
        <ele>1167.22</ele>
        <time>2022-08-13T12:10:09.000Z</time>
      </trkpt>
      <trkpt lat="45.29086" lon="5.80862">
        <ele>1168.1</ele>
        <time>2022-08-13T12:10:14.000Z</time>
      </trkpt>
      <trkpt lat="45.29077" lon="5.80847">
        <ele>1169.02</ele>
        <time>2022-08-13T12:10:19.000Z</time>
      </trkpt>
      <trkpt lat="45.2907" lon="5.80832">
        <ele>1171.59</ele>
        <time>2022-08-13T12:10:24.000Z</time>
      </trkpt>
      <trkpt lat="45.29064" lon="5.80815">
        <ele>1173.54</ele>
        <time>2022-08-13T12:10:29.000Z</time>
      </trkpt>
      <trkpt lat="45.29056" lon="5.80801">
        <ele>1173.72</ele>
        <time>2022-08-13T12:10:34.000Z</time>
      </trkpt>
      <trkpt lat="45.29046" lon="5.80787">
        <ele>1174.01</ele>
        <time>2022-08-13T12:10:39.000Z</time>
      </trkpt>
      <trkpt lat="45.29039" lon="5.8077">
        <ele>1173.54</ele>
        <time>2022-08-13T12:10:44.000Z</time>
      </trkpt>
      <trkpt lat="45.29031" lon="5.80755">
        <ele>1178.82</ele>
        <time>2022-08-13T12:10:49.000Z</time>
      </trkpt>
      <trkpt lat="45.29022" lon="5.8074">
        <ele>1181.3</ele>
        <time>2022-08-13T12:10:54.000Z</time>
      </trkpt>
      <trkpt lat="45.29013" lon="5.80726">
        <ele>1184.43</ele>
        <time>2022-08-13T12:10:59.000Z</time>
      </trkpt>
      <trkpt lat="45.29006" lon="5.80713">
        <ele>1189.1</ele>
        <time>2022-08-13T12:11:04.000Z</time>
      </trkpt>
      <trkpt lat="45.28997" lon="5.80703">
        <ele>1191.46</ele>
        <time>2022-08-13T12:11:09.000Z</time>
      </trkpt>
      <trkpt lat="45.28988" lon="5.8069">
        <ele>1195.35</ele>
        <time>2022-08-13T12:11:14.000Z</time>
      </trkpt>
      <trkpt lat="45.28986" lon="5.8067">
        <ele>1200.7</ele>
        <time>2022-08-13T12:11:19.000Z</time>
      </trkpt>
      <trkpt lat="45.28985" lon="5.80648">
        <ele>1198.88</ele>
        <time>2022-08-13T12:11:24.000Z</time>
      </trkpt>
      <trkpt lat="45.28985" lon="5.80632">
        <ele>1201.06</ele>
        <time>2022-08-13T12:11:29.000Z</time>
      </trkpt>
      <trkpt lat="45.28983" lon="5.8061">
        <ele>1201.66</ele>
        <time>2022-08-13T12:11:34.000Z</time>
      </trkpt>
      <trkpt lat="45.2898" lon="5.80594">
        <ele>1204.9</ele>
        <time>2022-08-13T12:11:39.000Z</time>
      </trkpt>
      <trkpt lat="45.28973" lon="5.80577">
        <ele>1205.15</ele>
        <time>2022-08-13T12:11:44.000Z</time>
      </trkpt>
      <trkpt lat="45.28961" lon="5.80567">
        <ele>1207.47</ele>
        <time>2022-08-13T12:11:49.000Z</time>
      </trkpt>
      <trkpt lat="45.28947" lon="5.80568">
        <ele>1211.71</ele>
        <time>2022-08-13T12:11:54.000Z</time>
      </trkpt>
      <trkpt lat="45.28934" lon="5.80582">
        <ele>1217.14</ele>
        <time>2022-08-13T12:11:59.000Z</time>
      </trkpt>
      <trkpt lat="45.28927" lon="5.806">
        <ele>1221.48</ele>
        <time>2022-08-13T12:12:04.000Z</time>
      </trkpt>
      <trkpt lat="45.28924" lon="5.80617">
        <ele>1226.27</ele>
        <time>2022-08-13T12:12:09.000Z</time>
      </trkpt>
      <trkpt lat="45.28919" lon="5.80641">
        <ele>1230.05</ele>
        <time>2022-08-13T12:12:14.000Z</time>
      </trkpt>
      <trkpt lat="45.28914" lon="5.80658">
        <ele>1229.52</ele>
        <time>2022-08-13T12:12:19.000Z</time>
      </trkpt>
      <trkpt lat="45.28909" lon="5.80675">
        <ele>1229.13</ele>
        <time>2022-08-13T12:12:24.000Z</time>
      </trkpt>
      <trkpt lat="45.28902" lon="5.80691">
        <ele>1228.95</ele>
        <time>2022-08-13T12:12:29.000Z</time>
      </trkpt>
      <trkpt lat="45.28901" lon="5.80708">
        <ele>1232.44</ele>
        <time>2022-08-13T12:12:34.000Z</time>
      </trkpt>
      <trkpt lat="45.28914" lon="5.80723">
        <ele>1233.4</ele>
        <time>2022-08-13T12:12:39.000Z</time>
      </trkpt>
      <trkpt lat="45.28927" lon="5.80731">
        <ele>1235.45</ele>
        <time>2022-08-13T12:12:44.000Z</time>
      </trkpt>
      <trkpt lat="45.28942" lon="5.80744">
        <ele>1240.11</ele>
        <time>2022-08-13T12:12:49.000Z</time>
      </trkpt>
      <trkpt lat="45.28957" lon="5.80759">
        <ele>1240.64</ele>
        <time>2022-08-13T12:12:54.000Z</time>
      </trkpt>
      <trkpt lat="45.28969" lon="5.80774">
        <ele>1242.32</ele>
        <time>2022-08-13T12:12:59.000Z</time>
      </trkpt>
      <trkpt lat="45.28977" lon="5.80792">
        <ele>1243.17</ele>
        <time>2022-08-13T12:13:04.000Z</time>
      </trkpt>
      <trkpt lat="45.28983" lon="5.80811">
        <ele>1241.14</ele>
        <time>2022-08-13T12:13:09.000Z</time>
      </trkpt>
      <trkpt lat="45.28987" lon="5.80837">
        <ele>1242.16</ele>
        <time>2022-08-13T12:13:14.000Z</time>
      </trkpt>
      <trkpt lat="45.28983" lon="5.80861">
        <ele>1242.15</ele>
        <time>2022-08-13T12:13:19.000Z</time>
      </trkpt>
      <trkpt lat="45.28979" lon="5.80887">
        <ele>1242.49</ele>
        <time>2022-08-13T12:13:24.000Z</time>
      </trkpt>
      <trkpt lat="45.28987" lon="5.8091">
        <ele>1245.84</ele>
        <time>2022-08-13T12:13:29.000Z</time>
      </trkpt>
      <trkpt lat="45.28998" lon="5.80929">
        <ele>1249.42</ele>
        <time>2022-08-13T12:13:34.000Z</time>
      </trkpt>
      <trkpt lat="45.29004" lon="5.80953">
        <ele>1251.71</ele>
        <time>2022-08-13T12:13:39.000Z</time>
      </trkpt>
      <trkpt lat="45.29006" lon="5.8098">
        <ele>1252.5</ele>
        <time>2022-08-13T12:13:44.000Z</time>
      </trkpt>
      <trkpt lat="45.29005" lon="5.81008">
        <ele>1254.4</ele>
        <time>2022-08-13T12:13:49.000Z</time>
      </trkpt>
      <trkpt lat="45.28999" lon="5.81031">
        <ele>1255.47</ele>
        <time>2022-08-13T12:13:54.000Z</time>
      </trkpt>
      <trkpt lat="45.28994" lon="5.81055">
        <ele>1253.7</ele>
        <time>2022-08-13T12:13:59.000Z</time>
      </trkpt>
      <trkpt lat="45.28986" lon="5.81076">
        <ele>1249.74</ele>
        <time>2022-08-13T12:14:04.000Z</time>
      </trkpt>
      <trkpt lat="45.2897" lon="5.81094">
        <ele>1245.96</ele>
        <time>2022-08-13T12:14:09.000Z</time>
      </trkpt>
      <trkpt lat="45.28948" lon="5.81097">
        <ele>1240.81</ele>
        <time>2022-08-13T12:14:14.000Z</time>
      </trkpt>
      <trkpt lat="45.28926" lon="5.81098">
        <ele>1242.29</ele>
        <time>2022-08-13T12:14:19.000Z</time>
      </trkpt>
      <trkpt lat="45.28905" lon="5.81105">
        <ele>1243.92</ele>
        <time>2022-08-13T12:14:24.000Z</time>
      </trkpt>
      <trkpt lat="45.28891" lon="5.81126">
        <ele>1244.07</ele>
        <time>2022-08-13T12:14:29.000Z</time>
      </trkpt>
      <trkpt lat="45.28887" lon="5.81151">
        <ele>1248.72</ele>
        <time>2022-08-13T12:14:34.000Z</time>
      </trkpt>
      <trkpt lat="45.28881" lon="5.81172">
        <ele>1248.04</ele>
        <time>2022-08-13T12:14:39.000Z</time>
      </trkpt>
      <trkpt lat="45.28872" lon="5.81191">
        <ele>1249.22</ele>
        <time>2022-08-13T12:14:44.000Z</time>
      </trkpt>
      <trkpt lat="45.28859" lon="5.81208">
        <ele>1251.2</ele>
        <time>2022-08-13T12:14:49.000Z</time>
      </trkpt>
      <trkpt lat="45.28849" lon="5.81228">
        <ele>1253.69</ele>
        <time>2022-08-13T12:14:54.000Z</time>
      </trkpt>
      <trkpt lat="45.28846" lon="5.81249">
        <ele>1257.04</ele>
        <time>2022-08-13T12:14:59.000Z</time>
      </trkpt>
      <trkpt lat="45.28842" lon="5.81268">
        <ele>1258.87</ele>
        <time>2022-08-13T12:15:04.000Z</time>
      </trkpt>
      <trkpt lat="45.28832" lon="5.81283">
        <ele>1258.22</ele>
        <time>2022-08-13T12:15:09.000Z</time>
      </trkpt>
      <trkpt lat="45.28818" lon="5.81297">
        <ele>1260.85</ele>
        <time>2022-08-13T12:15:14.000Z</time>
      </trkpt>
      <trkpt lat="45.28807" lon="5.81312">
        <ele>1263.97</ele>
        <time>2022-08-13T12:15:19.000Z</time>
      </trkpt>
      <trkpt lat="45.28797" lon="5.81329">
        <ele>1263.92</ele>
        <time>2022-08-13T12:15:24.000Z</time>
      </trkpt>
      <trkpt lat="45.28788" lon="5.81346">
        <ele>1265.79</ele>
        <time>2022-08-13T12:15:29.000Z</time>
      </trkpt>
      <trkpt lat="45.28781" lon="5.81364">
        <ele>1266.35</ele>
        <time>2022-08-13T12:15:34.000Z</time>
      </trkpt>
      <trkpt lat="45.28775" lon="5.81385">
        <ele>1267.64</ele>
        <time>2022-08-13T12:15:39.000Z</time>
      </trkpt>
      <trkpt lat="45.28768" lon="5.81404">
        <ele>1267.42</ele>
        <time>2022-08-13T12:15:44.000Z</time>
      </trkpt>
      <trkpt lat="45.28759" lon="5.81422">
        <ele>1267.15</ele>
        <time>2022-08-13T12:15:49.000Z</time>
      </trkpt>
      <trkpt lat="45.28751" lon="5.8144">
        <ele>1270.19</ele>
        <time>2022-08-13T12:15:54.000Z</time>
      </trkpt>
      <trkpt lat="45.28736" lon="5.8145">
        <ele>1271.71</ele>
        <time>2022-08-13T12:15:59.000Z</time>
      </trkpt>
      <trkpt lat="45.28719" lon="5.8146">
        <ele>1267.99</ele>
        <time>2022-08-13T12:16:04.000Z</time>
      </trkpt>
      <trkpt lat="45.28705" lon="5.81468">
        <ele>1268.33</ele>
        <time>2022-08-13T12:16:09.000Z</time>
      </trkpt>
      <trkpt lat="45.28689" lon="5.81479">
        <ele>1268.17</ele>
        <time>2022-08-13T12:16:14.000Z</time>
      </trkpt>
      <trkpt lat="45.28676" lon="5.815">
        <ele>1272</ele>
        <time>2022-08-13T12:16:19.000Z</time>
      </trkpt>
      <trkpt lat="45.28672" lon="5.81531">
        <ele>1273.76</ele>
        <time>2022-08-13T12:16:24.000Z</time>
      </trkpt>
      <trkpt lat="45.2868" lon="5.81563">
        <ele>1274.03</ele>
        <time>2022-08-13T12:16:29.000Z</time>
      </trkpt>
      <trkpt lat="45.28699" lon="5.8158">
        <ele>1276.75</ele>
        <time>2022-08-13T12:16:34.000Z</time>
      </trkpt>
      <trkpt lat="45.28716" lon="5.81589">
        <ele>1279.3</ele>
        <time>2022-08-13T12:16:39.000Z</time>
      </trkpt>
      <trkpt lat="45.2873" lon="5.81607">
        <ele>1279.72</ele>
        <time>2022-08-13T12:16:44.000Z</time>
      </trkpt>
      <trkpt lat="45.28739" lon="5.81625">
        <ele>1283.75</ele>
        <time>2022-08-13T12:16:49.000Z</time>
      </trkpt>
      <trkpt lat="45.28748" lon="5.81649">
        <ele>1287.32</ele>
        <time>2022-08-13T12:16:54.000Z</time>
      </trkpt>
      <trkpt lat="45.28765" lon="5.81662">
        <ele>1290.06</ele>
        <time>2022-08-13T12:16:59.000Z</time>
      </trkpt>
      <trkpt lat="45.28784" lon="5.81659">
        <ele>1289.08</ele>
        <time>2022-08-13T12:17:04.000Z</time>
      </trkpt>
      <trkpt lat="45.28802" lon="5.81647">
        <ele>1288.23</ele>
        <time>2022-08-13T12:17:09.000Z</time>
      </trkpt>
      <trkpt lat="45.2882" lon="5.8165">
        <ele>1292.4</ele>
        <time>2022-08-13T12:17:14.000Z</time>
      </trkpt>
      <trkpt lat="45.28836" lon="5.81664">
        <ele>1297.4</ele>
        <time>2022-08-13T12:17:19.000Z</time>
      </trkpt>
      <trkpt lat="45.28851" lon="5.81681">
        <ele>1303.33</ele>
        <time>2022-08-13T12:17:24.000Z</time>
      </trkpt>
      <trkpt lat="45.28864" lon="5.81707">
        <ele>1302.3</ele>
        <time>2022-08-13T12:17:29.000Z</time>
      </trkpt>
      <trkpt lat="45.28889" lon="5.81717">
        <ele>1304.7</ele>
        <time>2022-08-13T12:17:34.000Z</time>
      </trkpt>
      <trkpt lat="45.28912" lon="5.81724">
        <ele>1300.41</ele>
        <time>2022-08-13T12:17:39.000Z</time>
      </trkpt>
      <trkpt lat="45.28935" lon="5.81728">
        <ele>1302.17</ele>
        <time>2022-08-13T12:17:44.000Z</time>
      </trkpt>
      <trkpt lat="45.2896" lon="5.81736">
        <ele>1302.93</ele>
        <time>2022-08-13T12:17:49.000Z</time>
      </trkpt>
      <trkpt lat="45.28986" lon="5.81727">
        <ele>1302.33</ele>
        <time>2022-08-13T12:17:54.000Z</time>
      </trkpt>
      <trkpt lat="45.29005" lon="5.81705">
        <ele>1303.91</ele>
        <time>2022-08-13T12:17:59.000Z</time>
      </trkpt>
      <trkpt lat="45.29019" lon="5.8167">
        <ele>1299.72</ele>
        <time>2022-08-13T12:18:04.000Z</time>
      </trkpt>
      <trkpt lat="45.29039" lon="5.81651">
        <ele>1300.63</ele>
        <time>2022-08-13T12:18:09.000Z</time>
      </trkpt>
      <trkpt lat="45.29065" lon="5.8164">
        <ele>1300.31</ele>
        <time>2022-08-13T12:18:14.000Z</time>
      </trkpt>
      <trkpt lat="45.29089" lon="5.8163">
        <ele>1301.27</ele>
        <time>2022-08-13T12:18:19.000Z</time>
      </trkpt>
      <trkpt lat="45.2911" lon="5.81612">
        <ele>1303.54</ele>
        <time>2022-08-13T12:18:24.000Z</time>
      </trkpt>
      <trkpt lat="45.29131" lon="5.8159">
        <ele>1303.31</ele>
        <time>2022-08-13T12:18:29.000Z</time>
      </trkpt>
      <trkpt lat="45.29155" lon="5.81578">
        <ele>1301.86</ele>
        <time>2022-08-13T12:18:34.000Z</time>
      </trkpt>
      <trkpt lat="45.29176" lon="5.81575">
        <ele>1301.83</ele>
        <time>2022-08-13T12:18:39.000Z</time>
      </trkpt>
      <trkpt lat="45.29195" lon="5.81572">
        <ele>1299.4</ele>
        <time>2022-08-13T12:18:44.000Z</time>
      </trkpt>
      <trkpt lat="45.29207" lon="5.81568">
        <ele>1301.31</ele>
        <time>2022-08-13T12:18:49.000Z</time>
      </trkpt>
      <trkpt lat="45.29224" lon="5.81564">
        <ele>1299.75</ele>
        <time>2022-08-13T12:18:54.000Z</time>
      </trkpt>
      <trkpt lat="45.29243" lon="5.81565">
        <ele>1301.56</ele>
        <time>2022-08-13T12:18:59.000Z</time>
      </trkpt>
      <trkpt lat="45.29264" lon="5.81562">
        <ele>1306.82</ele>
        <time>2022-08-13T12:19:04.000Z</time>
      </trkpt>
      <trkpt lat="45.29284" lon="5.8156">
        <ele>1309.53</ele>
        <time>2022-08-13T12:19:09.000Z</time>
      </trkpt>
      <trkpt lat="45.29305" lon="5.81558">
        <ele>1313.7</ele>
        <time>2022-08-13T12:19:14.000Z</time>
      </trkpt>
      <trkpt lat="45.29326" lon="5.81558">
        <ele>1315.47</ele>
        <time>2022-08-13T12:19:19.000Z</time>
      </trkpt>
      <trkpt lat="45.29345" lon="5.81561">
        <ele>1317.74</ele>
        <time>2022-08-13T12:19:24.000Z</time>
      </trkpt>
      <trkpt lat="45.29366" lon="5.81567">
        <ele>1318.03</ele>
        <time>2022-08-13T12:19:29.000Z</time>
      </trkpt>
      <trkpt lat="45.29381" lon="5.81581">
        <ele>1317.47</ele>
        <time>2022-08-13T12:19:34.000Z</time>
      </trkpt>
      <trkpt lat="45.294" lon="5.81594">
        <ele>1322.34</ele>
        <time>2022-08-13T12:19:39.000Z</time>
      </trkpt>
      <trkpt lat="45.29409" lon="5.816">
        <ele>1328.2</ele>
        <time>2022-08-13T12:19:44.000Z</time>
      </trkpt>
      <trkpt lat="45.29418" lon="5.81608">
        <ele>1330.94</ele>
        <time>2022-08-13T12:19:50.000Z</time>
      </trkpt>
      <trkpt lat="45.2943" lon="5.81618">
        <ele>1329.02</ele>
        <time>2022-08-13T12:19:55.000Z</time>
      </trkpt>
      <trkpt lat="45.29443" lon="5.81628">
        <ele>1327.11</ele>
        <time>2022-08-13T12:20:00.000Z</time>
      </trkpt>
      <trkpt lat="45.29455" lon="5.81636">
        <ele>1325.37</ele>
        <time>2022-08-13T12:20:05.000Z</time>
      </trkpt>
      <trkpt lat="45.29469" lon="5.81647">
        <ele>1321.51</ele>
        <time>2022-08-13T12:20:10.000Z</time>
      </trkpt>
      <trkpt lat="45.29485" lon="5.81667">
        <ele>1316.91</ele>
        <time>2022-08-13T12:20:15.000Z</time>
      </trkpt>
      <trkpt lat="45.29501" lon="5.81688">
        <ele>1314.81</ele>
        <time>2022-08-13T12:20:20.000Z</time>
      </trkpt>
      <trkpt lat="45.29506" lon="5.817">
        <ele>1309.47</ele>
        <time>2022-08-13T12:20:35.000Z</time>
      </trkpt>
      <trkpt lat="45.29515" lon="5.81699">
        <ele>1306.63</ele>
        <time>2022-08-13T12:23:07.000Z</time>
      </trkpt>
      <trkpt lat="45.29524" lon="5.81704">
        <ele>1305.79</ele>
        <time>2022-08-13T12:23:12.000Z</time>
      </trkpt>
      <trkpt lat="45.29534" lon="5.81708">
        <ele>1302.98</ele>
        <time>2022-08-13T12:23:18.000Z</time>
      </trkpt>
      <trkpt lat="45.29547" lon="5.81716">
        <ele>1304.77</ele>
        <time>2022-08-13T12:23:23.000Z</time>
      </trkpt>
      <trkpt lat="45.29564" lon="5.81731">
        <ele>1305.97</ele>
        <time>2022-08-13T12:23:28.000Z</time>
      </trkpt>
      <trkpt lat="45.2959" lon="5.81726">
        <ele>1305.17</ele>
        <time>2022-08-13T12:23:33.000Z</time>
      </trkpt>
      <trkpt lat="45.29618" lon="5.81717">
        <ele>1302.49</ele>
        <time>2022-08-13T12:23:38.000Z</time>
      </trkpt>
      <trkpt lat="45.29649" lon="5.81712">
        <ele>1299.44</ele>
        <time>2022-08-13T12:23:43.000Z</time>
      </trkpt>
      <trkpt lat="45.29684" lon="5.81691">
        <ele>1295.11</ele>
        <time>2022-08-13T12:23:48.000Z</time>
      </trkpt>
      <trkpt lat="45.29721" lon="5.81694">
        <ele>1293.16</ele>
        <time>2022-08-13T12:23:53.000Z</time>
      </trkpt>
      <trkpt lat="45.29763" lon="5.81701">
        <ele>1290.82</ele>
        <time>2022-08-13T12:23:58.000Z</time>
      </trkpt>
      <trkpt lat="45.29799" lon="5.81698">
        <ele>1287.42</ele>
        <time>2022-08-13T12:24:03.000Z</time>
      </trkpt>
      <trkpt lat="45.29829" lon="5.81676">
        <ele>1284.69</ele>
        <time>2022-08-13T12:24:08.000Z</time>
      </trkpt>
      <trkpt lat="45.29869" lon="5.81665">
        <ele>1281.64</ele>
        <time>2022-08-13T12:24:13.000Z</time>
      </trkpt>
      <trkpt lat="45.29905" lon="5.8164">
        <ele>1280.5</ele>
        <time>2022-08-13T12:24:18.000Z</time>
      </trkpt>
      <trkpt lat="45.29941" lon="5.81639">
        <ele>1274.17</ele>
        <time>2022-08-13T12:24:23.000Z</time>
      </trkpt>
      <trkpt lat="45.29971" lon="5.81659">
        <ele>1273.01</ele>
        <time>2022-08-13T12:24:28.000Z</time>
      </trkpt>
      <trkpt lat="45.30006" lon="5.81673">
        <ele>1270.18</ele>
        <time>2022-08-13T12:24:33.000Z</time>
      </trkpt>
      <trkpt lat="45.30041" lon="5.81683">
        <ele>1270.76</ele>
        <time>2022-08-13T12:24:38.000Z</time>
      </trkpt>
      <trkpt lat="45.3008" lon="5.81698">
        <ele>1272.58</ele>
        <time>2022-08-13T12:24:43.000Z</time>
      </trkpt>
      <trkpt lat="45.30118" lon="5.81715">
        <ele>1266.35</ele>
        <time>2022-08-13T12:24:48.000Z</time>
      </trkpt>
      <trkpt lat="45.30157" lon="5.81736">
        <ele>1260.93</ele>
        <time>2022-08-13T12:24:53.000Z</time>
      </trkpt>
      <trkpt lat="45.30183" lon="5.8179">
        <ele>1254.79</ele>
        <time>2022-08-13T12:24:58.000Z</time>
      </trkpt>
      <trkpt lat="45.30195" lon="5.81829">
        <ele>1252.4</ele>
        <time>2022-08-13T12:25:03.000Z</time>
      </trkpt>
      <trkpt lat="45.30212" lon="5.81869">
        <ele>1251.7</ele>
        <time>2022-08-13T12:25:08.000Z</time>
      </trkpt>
      <trkpt lat="45.30216" lon="5.81916">
        <ele>1252.76</ele>
        <time>2022-08-13T12:25:13.000Z</time>
      </trkpt>
      <trkpt lat="45.30242" lon="5.81955">
        <ele>1251.53</ele>
        <time>2022-08-13T12:25:18.000Z</time>
      </trkpt>
      <trkpt lat="45.30275" lon="5.81993">
        <ele>1248.83</ele>
        <time>2022-08-13T12:25:23.000Z</time>
      </trkpt>
      <trkpt lat="45.30309" lon="5.82013">
        <ele>1247.21</ele>
        <time>2022-08-13T12:25:28.000Z</time>
      </trkpt>
      <trkpt lat="45.30344" lon="5.82015">
        <ele>1241.89</ele>
        <time>2022-08-13T12:25:33.000Z</time>
      </trkpt>
      <trkpt lat="45.30363" lon="5.8205">
        <ele>1235.42</ele>
        <time>2022-08-13T12:25:38.000Z</time>
      </trkpt>
      <trkpt lat="45.30382" lon="5.82094">
        <ele>1237.17</ele>
        <time>2022-08-13T12:25:43.000Z</time>
      </trkpt>
      <trkpt lat="45.30424" lon="5.82113">
        <ele>1238.62</ele>
        <time>2022-08-13T12:25:48.000Z</time>
      </trkpt>
      <trkpt lat="45.30472" lon="5.82132">
        <ele>1234.86</ele>
        <time>2022-08-13T12:25:53.000Z</time>
      </trkpt>
      <trkpt lat="45.30505" lon="5.82148">
        <ele>1234.1</ele>
        <time>2022-08-13T12:25:58.000Z</time>
      </trkpt>
      <trkpt lat="45.30521" lon="5.82145">
        <ele>1232.4</ele>
        <time>2022-08-13T12:26:03.000Z</time>
      </trkpt>
      <trkpt lat="45.30525" lon="5.82118">
        <ele>1235.13</ele>
        <time>2022-08-13T12:26:08.000Z</time>
      </trkpt>
      <trkpt lat="45.30533" lon="5.82101">
        <ele>1236.44</ele>
        <time>2022-08-13T12:26:13.000Z</time>
      </trkpt>
      <trkpt lat="45.30543" lon="5.82086">
        <ele>1238.7</ele>
        <time>2022-08-13T12:26:18.000Z</time>
      </trkpt>
      <trkpt lat="45.30548" lon="5.82067">
        <ele>1241.97</ele>
        <time>2022-08-13T12:26:23.000Z</time>
      </trkpt>
      <trkpt lat="45.30562" lon="5.8207">
        <ele>1242.6</ele>
        <time>2022-08-13T12:26:28.000Z</time>
      </trkpt>
      <trkpt lat="45.30557" lon="5.82095">
        <ele>1240.46</ele>
        <time>2022-08-13T12:26:33.000Z</time>
      </trkpt>
      <trkpt lat="45.30551" lon="5.82117">
        <ele>1242.12</ele>
        <time>2022-08-13T12:26:38.000Z</time>
      </trkpt>
      <trkpt lat="45.30555" lon="5.82139">
        <ele>1245.07</ele>
        <time>2022-08-13T12:26:43.000Z</time>
      </trkpt>
      <trkpt lat="45.30567" lon="5.82154">
        <ele>1248.91</ele>
        <time>2022-08-13T12:26:48.000Z</time>
      </trkpt>
      <trkpt lat="45.30573" lon="5.82173">
        <ele>1252.84</ele>
        <time>2022-08-13T12:26:53.000Z</time>
      </trkpt>
      <trkpt lat="45.30575" lon="5.82193">
        <ele>1253.4</ele>
        <time>2022-08-13T12:26:58.000Z</time>
      </trkpt>
      <trkpt lat="45.30573" lon="5.82212">
        <ele>1256.13</ele>
        <time>2022-08-13T12:27:03.000Z</time>
      </trkpt>
      <trkpt lat="45.30572" lon="5.82234">
        <ele>1259.67</ele>
        <time>2022-08-13T12:27:08.000Z</time>
      </trkpt>
      <trkpt lat="45.30572" lon="5.82254">
        <ele>1268.11</ele>
        <time>2022-08-13T12:27:13.000Z</time>
      </trkpt>
      <trkpt lat="45.30572" lon="5.82275">
        <ele>1267.98</ele>
        <time>2022-08-13T12:27:18.000Z</time>
      </trkpt>
      <trkpt lat="45.3057" lon="5.82295">
        <ele>1269.09</ele>
        <time>2022-08-13T12:27:23.000Z</time>
      </trkpt>
      <trkpt lat="45.30567" lon="5.82316">
        <ele>1269.25</ele>
        <time>2022-08-13T12:27:28.000Z</time>
      </trkpt>
      <trkpt lat="45.30565" lon="5.82338">
        <ele>1268.8</ele>
        <time>2022-08-13T12:27:33.000Z</time>
      </trkpt>
      <trkpt lat="45.30561" lon="5.8236">
        <ele>1270.12</ele>
        <time>2022-08-13T12:27:38.000Z</time>
      </trkpt>
      <trkpt lat="45.30558" lon="5.82381">
        <ele>1270.88</ele>
        <time>2022-08-13T12:27:43.000Z</time>
      </trkpt>
      <trkpt lat="45.30554" lon="5.82403">
        <ele>1270.43</ele>
        <time>2022-08-13T12:27:48.000Z</time>
      </trkpt>
      <trkpt lat="45.30547" lon="5.82424">
        <ele>1268.34</ele>
        <time>2022-08-13T12:27:53.000Z</time>
      </trkpt>
      <trkpt lat="45.30544" lon="5.82446">
        <ele>1268.24</ele>
        <time>2022-08-13T12:27:58.000Z</time>
      </trkpt>
      <trkpt lat="45.30542" lon="5.82468">
        <ele>1267.9</ele>
        <time>2022-08-13T12:28:03.000Z</time>
      </trkpt>
      <trkpt lat="45.30543" lon="5.82494">
        <ele>1272.27</ele>
        <time>2022-08-13T12:28:08.000Z</time>
      </trkpt>
      <trkpt lat="45.30542" lon="5.82519">
        <ele>1272.63</ele>
        <time>2022-08-13T12:28:13.000Z</time>
      </trkpt>
      <trkpt lat="45.3054" lon="5.82544">
        <ele>1272.84</ele>
        <time>2022-08-13T12:28:18.000Z</time>
      </trkpt>
      <trkpt lat="45.30537" lon="5.82568">
        <ele>1272.47</ele>
        <time>2022-08-13T12:28:23.000Z</time>
      </trkpt>
      <trkpt lat="45.3053" lon="5.82587">
        <ele>1273.89</ele>
        <time>2022-08-13T12:28:28.000Z</time>
      </trkpt>
      <trkpt lat="45.30521" lon="5.82608">
        <ele>1274.65</ele>
        <time>2022-08-13T12:28:33.000Z</time>
      </trkpt>
      <trkpt lat="45.30511" lon="5.82627">
        <ele>1275.67</ele>
        <time>2022-08-13T12:28:38.000Z</time>
      </trkpt>
      <trkpt lat="45.305" lon="5.82641">
        <ele>1277.99</ele>
        <time>2022-08-13T12:28:43.000Z</time>
      </trkpt>
      <trkpt lat="45.30488" lon="5.82656">
        <ele>1278.32</ele>
        <time>2022-08-13T12:28:48.000Z</time>
      </trkpt>
      <trkpt lat="45.30481" lon="5.82664">
        <ele>1282.41</ele>
        <time>2022-08-13T12:28:54.000Z</time>
      </trkpt>
      <trkpt lat="45.30471" lon="5.82668">
        <ele>1283.54</ele>
        <time>2022-08-13T12:28:59.000Z</time>
      </trkpt>
      <trkpt lat="45.30455" lon="5.82678">
        <ele>1287.93</ele>
        <time>2022-08-13T12:29:04.000Z</time>
      </trkpt>
      <trkpt lat="45.30439" lon="5.82691">
        <ele>1292.2</ele>
        <time>2022-08-13T12:29:09.000Z</time>
      </trkpt>
      <trkpt lat="45.30425" lon="5.8271">
        <ele>1293.93</ele>
        <time>2022-08-13T12:29:14.000Z</time>
      </trkpt>
      <trkpt lat="45.30415" lon="5.82727">
        <ele>1299.88</ele>
        <time>2022-08-13T12:29:19.000Z</time>
      </trkpt>
      <trkpt lat="45.30408" lon="5.82745">
        <ele>1302.65</ele>
        <time>2022-08-13T12:29:24.000Z</time>
      </trkpt>
      <trkpt lat="45.304" lon="5.82763">
        <ele>1299.74</ele>
        <time>2022-08-13T12:29:29.000Z</time>
      </trkpt>
      <trkpt lat="45.3039" lon="5.82779">
        <ele>1308.68</ele>
        <time>2022-08-13T12:29:34.000Z</time>
      </trkpt>
      <trkpt lat="45.3038" lon="5.82795">
        <ele>1312.45</ele>
        <time>2022-08-13T12:29:39.000Z</time>
      </trkpt>
      <trkpt lat="45.30371" lon="5.82811">
        <ele>1315.58</ele>
        <time>2022-08-13T12:29:44.000Z</time>
      </trkpt>
      <trkpt lat="45.30358" lon="5.82826">
        <ele>1314.82</ele>
        <time>2022-08-13T12:29:49.000Z</time>
      </trkpt>
      <trkpt lat="45.30347" lon="5.82841">
        <ele>1317.01</ele>
        <time>2022-08-13T12:29:54.000Z</time>
      </trkpt>
      <trkpt lat="45.30344" lon="5.82858">
        <ele>1323.61</ele>
        <time>2022-08-13T12:29:59.000Z</time>
      </trkpt>
      <trkpt lat="45.30341" lon="5.82876">
        <ele>1327.37</ele>
        <time>2022-08-13T12:30:04.000Z</time>
      </trkpt>
      <trkpt lat="45.30342" lon="5.82893">
        <ele>1330.96</ele>
        <time>2022-08-13T12:30:09.000Z</time>
      </trkpt>
      <trkpt lat="45.30352" lon="5.8291">
        <ele>1332.13</ele>
        <time>2022-08-13T12:30:14.000Z</time>
      </trkpt>
      <trkpt lat="45.30366" lon="5.82922">
        <ele>1335.75</ele>
        <time>2022-08-13T12:30:19.000Z</time>
      </trkpt>
      <trkpt lat="45.30381" lon="5.82931">
        <ele>1338.57</ele>
        <time>2022-08-13T12:30:24.000Z</time>
      </trkpt>
      <trkpt lat="45.30398" lon="5.82927">
        <ele>1336.3</ele>
        <time>2022-08-13T12:30:29.000Z</time>
      </trkpt>
      <trkpt lat="45.30414" lon="5.82924">
        <ele>1337.58</ele>
        <time>2022-08-13T12:30:34.000Z</time>
      </trkpt>
      <trkpt lat="45.30429" lon="5.82916">
        <ele>1336.13</ele>
        <time>2022-08-13T12:30:39.000Z</time>
      </trkpt>
      <trkpt lat="45.30444" lon="5.82911">
        <ele>1336.88</ele>
        <time>2022-08-13T12:30:44.000Z</time>
      </trkpt>
      <trkpt lat="45.30461" lon="5.82916">
        <ele>1339.64</ele>
        <time>2022-08-13T12:30:49.000Z</time>
      </trkpt>
      <trkpt lat="45.30471" lon="5.82932">
        <ele>1338.55</ele>
        <time>2022-08-13T12:30:54.000Z</time>
      </trkpt>
      <trkpt lat="45.30468" lon="5.82951">
        <ele>1339.88</ele>
        <time>2022-08-13T12:30:59.000Z</time>
      </trkpt>
      <trkpt lat="45.3046" lon="5.82971">
        <ele>1341.07</ele>
        <time>2022-08-13T12:31:04.000Z</time>
      </trkpt>
      <trkpt lat="45.30451" lon="5.82989">
        <ele>1342.49</ele>
        <time>2022-08-13T12:31:09.000Z</time>
      </trkpt>
      <trkpt lat="45.30446" lon="5.8301">
        <ele>1343.71</ele>
        <time>2022-08-13T12:31:14.000Z</time>
      </trkpt>
      <trkpt lat="45.30443" lon="5.83032">
        <ele>1345.65</ele>
        <time>2022-08-13T12:31:19.000Z</time>
      </trkpt>
      <trkpt lat="45.3044" lon="5.83055">
        <ele>1347.74</ele>
        <time>2022-08-13T12:31:24.000Z</time>
      </trkpt>
      <trkpt lat="45.30436" lon="5.83075">
        <ele>1349.83</ele>
        <time>2022-08-13T12:31:29.000Z</time>
      </trkpt>
      <trkpt lat="45.30429" lon="5.83094">
        <ele>1350.37</ele>
        <time>2022-08-13T12:31:34.000Z</time>
      </trkpt>
      <trkpt lat="45.30424" lon="5.83115">
        <ele>1353.02</ele>
        <time>2022-08-13T12:31:39.000Z</time>
      </trkpt>
      <trkpt lat="45.30418" lon="5.83136">
        <ele>1353.08</ele>
        <time>2022-08-13T12:31:44.000Z</time>
      </trkpt>
      <trkpt lat="45.30412" lon="5.83157">
        <ele>1354.85</ele>
        <time>2022-08-13T12:31:49.000Z</time>
      </trkpt>
      <trkpt lat="45.30406" lon="5.83176">
        <ele>1357.13</ele>
        <time>2022-08-13T12:31:54.000Z</time>
      </trkpt>
      <trkpt lat="45.304" lon="5.83196">
        <ele>1361.29</ele>
        <time>2022-08-13T12:31:59.000Z</time>
      </trkpt>
      <trkpt lat="45.30395" lon="5.83216">
        <ele>1363.67</ele>
        <time>2022-08-13T12:32:04.000Z</time>
      </trkpt>
      <trkpt lat="45.3039" lon="5.83235">
        <ele>1366.85</ele>
        <time>2022-08-13T12:32:09.000Z</time>
      </trkpt>
      <trkpt lat="45.30388" lon="5.83257">
        <ele>1369.89</ele>
        <time>2022-08-13T12:32:14.000Z</time>
      </trkpt>
      <trkpt lat="45.30386" lon="5.8328">
        <ele>1372.41</ele>
        <time>2022-08-13T12:32:19.000Z</time>
      </trkpt>
      <trkpt lat="45.30383" lon="5.83301">
        <ele>1373.24</ele>
        <time>2022-08-13T12:32:24.000Z</time>
      </trkpt>
      <trkpt lat="45.30371" lon="5.83315">
        <ele>1373.75</ele>
        <time>2022-08-13T12:32:29.000Z</time>
      </trkpt>
      <trkpt lat="45.30355" lon="5.83323">
        <ele>1370.72</ele>
        <time>2022-08-13T12:32:34.000Z</time>
      </trkpt>
      <trkpt lat="45.30339" lon="5.8333">
        <ele>1370.54</ele>
        <time>2022-08-13T12:32:39.000Z</time>
      </trkpt>
      <trkpt lat="45.30326" lon="5.8334">
        <ele>1372.82</ele>
        <time>2022-08-13T12:32:44.000Z</time>
      </trkpt>
      <trkpt lat="45.30312" lon="5.83349">
        <ele>1373.43</ele>
        <time>2022-08-13T12:32:49.000Z</time>
      </trkpt>
      <trkpt lat="45.30297" lon="5.83362">
        <ele>1374.75</ele>
        <time>2022-08-13T12:32:54.000Z</time>
      </trkpt>
      <trkpt lat="45.30286" lon="5.83379">
        <ele>1375.5</ele>
        <time>2022-08-13T12:32:59.000Z</time>
      </trkpt>
      <trkpt lat="45.30275" lon="5.83394">
        <ele>1380.69</ele>
        <time>2022-08-13T12:33:04.000Z</time>
      </trkpt>
      <trkpt lat="45.30262" lon="5.83405">
        <ele>1382.81</ele>
        <time>2022-08-13T12:33:09.000Z</time>
      </trkpt>
      <trkpt lat="45.30251" lon="5.83417">
        <ele>1383.89</ele>
        <time>2022-08-13T12:33:14.000Z</time>
      </trkpt>
      <trkpt lat="45.30239" lon="5.83428">
        <ele>1386.23</ele>
        <time>2022-08-13T12:33:19.000Z</time>
      </trkpt>
      <trkpt lat="45.30225" lon="5.83438">
        <ele>1387.22</ele>
        <time>2022-08-13T12:33:24.000Z</time>
      </trkpt>
      <trkpt lat="45.30208" lon="5.83441">
        <ele>1392.84</ele>
        <time>2022-08-13T12:33:29.000Z</time>
      </trkpt>
      <trkpt lat="45.30192" lon="5.83431">
        <ele>1393.29</ele>
        <time>2022-08-13T12:33:34.000Z</time>
      </trkpt>
      <trkpt lat="45.30178" lon="5.83417">
        <ele>1394.56</ele>
        <time>2022-08-13T12:33:39.000Z</time>
      </trkpt>
      <trkpt lat="45.30166" lon="5.83404">
        <ele>1398.39</ele>
        <time>2022-08-13T12:33:44.000Z</time>
      </trkpt>
      <trkpt lat="45.30154" lon="5.83413">
        <ele>1398.7</ele>
        <time>2022-08-13T12:33:49.000Z</time>
      </trkpt>
      <trkpt lat="45.30155" lon="5.83438">
        <ele>1402.8</ele>
        <time>2022-08-13T12:33:54.000Z</time>
      </trkpt>
      <trkpt lat="45.30162" lon="5.83461">
        <ele>1404.75</ele>
        <time>2022-08-13T12:33:59.000Z</time>
      </trkpt>
      <trkpt lat="45.30169" lon="5.83485">
        <ele>1407.95</ele>
        <time>2022-08-13T12:34:04.000Z</time>
      </trkpt>
      <trkpt lat="45.30174" lon="5.83508">
        <ele>1409.98</ele>
        <time>2022-08-13T12:34:09.000Z</time>
      </trkpt>
      <trkpt lat="45.30181" lon="5.83529">
        <ele>1411.87</ele>
        <time>2022-08-13T12:34:14.000Z</time>
      </trkpt>
      <trkpt lat="45.3019" lon="5.83545">
        <ele>1414.56</ele>
        <time>2022-08-13T12:34:19.000Z</time>
      </trkpt>
      <trkpt lat="45.30201" lon="5.83558">
        <ele>1416.64</ele>
        <time>2022-08-13T12:34:24.000Z</time>
      </trkpt>
      <trkpt lat="45.30216" lon="5.83569">
        <ele>1419.63</ele>
        <time>2022-08-13T12:34:29.000Z</time>
      </trkpt>
      <trkpt lat="45.30228" lon="5.83579">
        <ele>1425.94</ele>
        <time>2022-08-13T12:34:34.000Z</time>
      </trkpt>
      <trkpt lat="45.30239" lon="5.83593">
        <ele>1426.81</ele>
        <time>2022-08-13T12:34:39.000Z</time>
      </trkpt>
      <trkpt lat="45.30247" lon="5.83611">
        <ele>1425.63</ele>
        <time>2022-08-13T12:34:44.000Z</time>
      </trkpt>
      <trkpt lat="45.30262" lon="5.83617">
        <ele>1424.45</ele>
        <time>2022-08-13T12:34:49.000Z</time>
      </trkpt>
      <trkpt lat="45.30277" lon="5.83609">
        <ele>1427.47</ele>
        <time>2022-08-13T12:34:54.000Z</time>
      </trkpt>
      <trkpt lat="45.30283" lon="5.83623">
        <ele>1428.05</ele>
        <time>2022-08-13T12:34:59.000Z</time>
      </trkpt>
      <trkpt lat="45.30274" lon="5.83643">
        <ele>1432.6</ele>
        <time>2022-08-13T12:35:04.000Z</time>
      </trkpt>
      <trkpt lat="45.30262" lon="5.83659">
        <ele>1433.75</ele>
        <time>2022-08-13T12:35:09.000Z</time>
      </trkpt>
      <trkpt lat="45.30252" lon="5.83672">
        <ele>1434.51</ele>
        <time>2022-08-13T12:35:14.000Z</time>
      </trkpt>
      <trkpt lat="45.30243" lon="5.83682">
        <ele>1436.01</ele>
        <time>2022-08-13T12:35:19.000Z</time>
      </trkpt>
      <trkpt lat="45.30234" lon="5.83684">
        <ele>1436.71</ele>
        <time>2022-08-13T12:36:53.000Z</time>
      </trkpt>
      <trkpt lat="45.30242" lon="5.83681">
        <ele>1439.34</ele>
        <time>2022-08-13T12:38:14.000Z</time>
      </trkpt>
      <trkpt lat="45.30246" lon="5.83694">
        <ele>1443.24</ele>
        <time>2022-08-13T12:39:32.000Z</time>
      </trkpt>
      <trkpt lat="45.30257" lon="5.837">
        <ele>1440.56</ele>
        <time>2022-08-13T12:39:39.000Z</time>
      </trkpt>
      <trkpt lat="45.30272" lon="5.83712">
        <ele>1439.96</ele>
        <time>2022-08-13T12:39:44.000Z</time>
      </trkpt>
      <trkpt lat="45.30291" lon="5.8373">
        <ele>1439.47</ele>
        <time>2022-08-13T12:39:49.000Z</time>
      </trkpt>
      <trkpt lat="45.30315" lon="5.83755">
        <ele>1436.18</ele>
        <time>2022-08-13T12:39:54.000Z</time>
      </trkpt>
      <trkpt lat="45.30352" lon="5.83781">
        <ele>1433.22</ele>
        <time>2022-08-13T12:39:59.000Z</time>
      </trkpt>
      <trkpt lat="45.3039" lon="5.83808">
        <ele>1430.93</ele>
        <time>2022-08-13T12:40:04.000Z</time>
      </trkpt>
      <trkpt lat="45.30423" lon="5.83859">
        <ele>1424.85</ele>
        <time>2022-08-13T12:40:09.000Z</time>
      </trkpt>
      <trkpt lat="45.30459" lon="5.83903">
        <ele>1418.27</ele>
        <time>2022-08-13T12:40:14.000Z</time>
      </trkpt>
      <trkpt lat="45.305" lon="5.83938">
        <ele>1414.56</ele>
        <time>2022-08-13T12:40:19.000Z</time>
      </trkpt>
      <trkpt lat="45.30523" lon="5.84002">
        <ele>1407.85</ele>
        <time>2022-08-13T12:40:24.000Z</time>
      </trkpt>
      <trkpt lat="45.30528" lon="5.84064">
        <ele>1402.15</ele>
        <time>2022-08-13T12:40:29.000Z</time>
      </trkpt>
      <trkpt lat="45.30501" lon="5.84055">
        <ele>1394.65</ele>
        <time>2022-08-13T12:40:34.000Z</time>
      </trkpt>
      <trkpt lat="45.30459" lon="5.84019">
        <ele>1389.55</ele>
        <time>2022-08-13T12:40:39.000Z</time>
      </trkpt>
      <trkpt lat="45.30403" lon="5.83999">
        <ele>1385.25</ele>
        <time>2022-08-13T12:40:44.000Z</time>
      </trkpt>
      <trkpt lat="45.30358" lon="5.83944">
        <ele>1377.34</ele>
        <time>2022-08-13T12:40:49.000Z</time>
      </trkpt>
      <trkpt lat="45.30319" lon="5.8391">
        <ele>1371.54</ele>
        <time>2022-08-13T12:40:54.000Z</time>
      </trkpt>
      <trkpt lat="45.30325" lon="5.83961">
        <ele>1361.43</ele>
        <time>2022-08-13T12:40:59.000Z</time>
      </trkpt>
      <trkpt lat="45.30353" lon="5.84017">
        <ele>1359.12</ele>
        <time>2022-08-13T12:41:04.000Z</time>
      </trkpt>
      <trkpt lat="45.30333" lon="5.84046">
        <ele>1356.49</ele>
        <time>2022-08-13T12:41:09.000Z</time>
      </trkpt>
      <trkpt lat="45.30297" lon="5.84003">
        <ele>1352.5</ele>
        <time>2022-08-13T12:41:14.000Z</time>
      </trkpt>
      <trkpt lat="45.30249" lon="5.83952">
        <ele>1349.05</ele>
        <time>2022-08-13T12:41:19.000Z</time>
      </trkpt>
      <trkpt lat="45.3019" lon="5.83934">
        <ele>1342.39</ele>
        <time>2022-08-13T12:41:24.000Z</time>
      </trkpt>
      <trkpt lat="45.30139" lon="5.83941">
        <ele>1339.11</ele>
        <time>2022-08-13T12:41:29.000Z</time>
      </trkpt>
      <trkpt lat="45.30134" lon="5.83963">
        <ele>1333.94</ele>
        <time>2022-08-13T12:41:34.000Z</time>
      </trkpt>
      <trkpt lat="45.30176" lon="5.83973">
        <ele>1331.61</ele>
        <time>2022-08-13T12:41:39.000Z</time>
      </trkpt>
      <trkpt lat="45.30217" lon="5.84003">
        <ele>1328.22</ele>
        <time>2022-08-13T12:41:44.000Z</time>
      </trkpt>
      <trkpt lat="45.30238" lon="5.84079">
        <ele>1330.43</ele>
        <time>2022-08-13T12:41:49.000Z</time>
      </trkpt>
      <trkpt lat="45.30218" lon="5.84089">
        <ele>1329.15</ele>
        <time>2022-08-13T12:41:54.000Z</time>
      </trkpt>
      <trkpt lat="45.30201" lon="5.84054">
        <ele>1325.46</ele>
        <time>2022-08-13T12:41:59.000Z</time>
      </trkpt>
      <trkpt lat="45.30172" lon="5.84046">
        <ele>1321.49</ele>
        <time>2022-08-13T12:42:04.000Z</time>
      </trkpt>
      <trkpt lat="45.30156" lon="5.84054">
        <ele>1322.08</ele>
        <time>2022-08-13T12:42:09.000Z</time>
      </trkpt>
      <trkpt lat="45.30138" lon="5.84051">
        <ele>1323.11</ele>
        <time>2022-08-13T12:42:14.000Z</time>
      </trkpt>
      <trkpt lat="45.3011" lon="5.84065">
        <ele>1317.54</ele>
        <time>2022-08-13T12:42:19.000Z</time>
      </trkpt>
      <trkpt lat="45.30088" lon="5.8407">
        <ele>1310.97</ele>
        <time>2022-08-13T12:42:24.000Z</time>
      </trkpt>
      <trkpt lat="45.30079" lon="5.84072">
        <ele>1302.6</ele>
        <time>2022-08-13T12:42:54.000Z</time>
      </trkpt>
      <trkpt lat="45.30054" lon="5.84077">
        <ele>1296.97</ele>
        <time>2022-08-13T12:42:59.000Z</time>
      </trkpt>
      <trkpt lat="45.30009" lon="5.84079">
        <ele>1290.2</ele>
        <time>2022-08-13T12:43:04.000Z</time>
      </trkpt>
      <trkpt lat="45.29962" lon="5.84053">
        <ele>1286.76</ele>
        <time>2022-08-13T12:43:09.000Z</time>
      </trkpt>
      <trkpt lat="45.29943" lon="5.84069">
        <ele>1284.04</ele>
        <time>2022-08-13T12:43:14.000Z</time>
      </trkpt>
      <trkpt lat="45.29978" lon="5.84101">
        <ele>1279.49</ele>
        <time>2022-08-13T12:43:19.000Z</time>
      </trkpt>
      <trkpt lat="45.30019" lon="5.84141">
        <ele>1279.51</ele>
        <time>2022-08-13T12:43:24.000Z</time>
      </trkpt>
      <trkpt lat="45.30021" lon="5.84193">
        <ele>1275.67</ele>
        <time>2022-08-13T12:43:29.000Z</time>
      </trkpt>
      <trkpt lat="45.29967" lon="5.84213">
        <ele>1269.69</ele>
        <time>2022-08-13T12:43:34.000Z</time>
      </trkpt>
      <trkpt lat="45.29917" lon="5.84267">
        <ele>1263.08</ele>
        <time>2022-08-13T12:43:39.000Z</time>
      </trkpt>
      <trkpt lat="45.29859" lon="5.84328">
        <ele>1254.17</ele>
        <time>2022-08-13T12:43:44.000Z</time>
      </trkpt>
      <trkpt lat="45.2979" lon="5.84389">
        <ele>1241.76</ele>
        <time>2022-08-13T12:43:49.000Z</time>
      </trkpt>
      <trkpt lat="45.29725" lon="5.8445">
        <ele>1236.63</ele>
        <time>2022-08-13T12:43:54.000Z</time>
      </trkpt>
      <trkpt lat="45.29672" lon="5.84501">
        <ele>1235.89</ele>
        <time>2022-08-13T12:43:59.000Z</time>
      </trkpt>
      <trkpt lat="45.29643" lon="5.84543">
        <ele>1234.13</ele>
        <time>2022-08-13T12:44:04.000Z</time>
      </trkpt>
      <trkpt lat="45.29635" lon="5.84526">
        <ele>1226.52</ele>
        <time>2022-08-13T12:44:09.000Z</time>
      </trkpt>
      <trkpt lat="45.29655" lon="5.84486">
        <ele>1223.19</ele>
        <time>2022-08-13T12:44:14.000Z</time>
      </trkpt>
      <trkpt lat="45.29689" lon="5.84437">
        <ele>1219.08</ele>
        <time>2022-08-13T12:44:19.000Z</time>
      </trkpt>
      <trkpt lat="45.29722" lon="5.84371">
        <ele>1213.31</ele>
        <time>2022-08-13T12:44:24.000Z</time>
      </trkpt>
      <trkpt lat="45.29765" lon="5.84307">
        <ele>1208.05</ele>
        <time>2022-08-13T12:44:29.000Z</time>
      </trkpt>
      <trkpt lat="45.29763" lon="5.84262">
        <ele>1206.02</ele>
        <time>2022-08-13T12:44:34.000Z</time>
      </trkpt>
      <trkpt lat="45.29718" lon="5.84262">
        <ele>1201.96</ele>
        <time>2022-08-13T12:44:39.000Z</time>
      </trkpt>
      <trkpt lat="45.2967" lon="5.84254">
        <ele>1199.02</ele>
        <time>2022-08-13T12:44:44.000Z</time>
      </trkpt>
      <trkpt lat="45.29637" lon="5.84206">
        <ele>1194.5</ele>
        <time>2022-08-13T12:44:49.000Z</time>
      </trkpt>
      <trkpt lat="45.29599" lon="5.84145">
        <ele>1188.39</ele>
        <time>2022-08-13T12:44:54.000Z</time>
      </trkpt>
      <trkpt lat="45.29536" lon="5.84128">
        <ele>1183.25</ele>
        <time>2022-08-13T12:44:59.000Z</time>
      </trkpt>
      <trkpt lat="45.29474" lon="5.8414">
        <ele>1176.5</ele>
        <time>2022-08-13T12:45:04.000Z</time>
      </trkpt>
      <trkpt lat="45.29427" lon="5.8412">
        <ele>1173.84</ele>
        <time>2022-08-13T12:45:09.000Z</time>
      </trkpt>
      <trkpt lat="45.29369" lon="5.84137">
        <ele>1172.32</ele>
        <time>2022-08-13T12:45:14.000Z</time>
      </trkpt>
      <trkpt lat="45.29304" lon="5.84145">
        <ele>1160.54</ele>
        <time>2022-08-13T12:45:19.000Z</time>
      </trkpt>
      <trkpt lat="45.29229" lon="5.8414">
        <ele>1144.13</ele>
        <time>2022-08-13T12:45:24.000Z</time>
      </trkpt>
      <trkpt lat="45.29153" lon="5.84119">
        <ele>1134.85</ele>
        <time>2022-08-13T12:45:29.000Z</time>
      </trkpt>
      <trkpt lat="45.2907" lon="5.84134">
        <ele>1126.07</ele>
        <time>2022-08-13T12:45:34.000Z</time>
      </trkpt>
      <trkpt lat="45.28995" lon="5.84168">
        <ele>1118.84</ele>
        <time>2022-08-13T12:45:39.000Z</time>
      </trkpt>
      <trkpt lat="45.28924" lon="5.84185">
        <ele>1112</ele>
        <time>2022-08-13T12:45:44.000Z</time>
      </trkpt>
      <trkpt lat="45.28883" lon="5.842">
        <ele>1110.4</ele>
        <time>2022-08-13T12:45:49.000Z</time>
      </trkpt>
      <trkpt lat="45.28926" lon="5.84221">
        <ele>1104.75</ele>
        <time>2022-08-13T12:45:54.000Z</time>
      </trkpt>
      <trkpt lat="45.28962" lon="5.84235">
        <ele>1102.83</ele>
        <time>2022-08-13T12:45:59.000Z</time>
      </trkpt>
      <trkpt lat="45.28937" lon="5.84251">
        <ele>1100.16</ele>
        <time>2022-08-13T12:46:04.000Z</time>
      </trkpt>
      <trkpt lat="45.28816" lon="5.84307">
        <ele>1088.97</ele>
        <time>2022-08-13T12:46:16.000Z</time>
      </trkpt>
      <trkpt lat="45.288" lon="5.84346">
        <ele>1078.67</ele>
        <time>2022-08-13T12:46:21.000Z</time>
      </trkpt>
      <trkpt lat="45.28856" lon="5.84361">
        <ele>1075.63</ele>
        <time>2022-08-13T12:46:26.000Z</time>
      </trkpt>
      <trkpt lat="45.28916" lon="5.84363">
        <ele>1069.7</ele>
        <time>2022-08-13T12:46:31.000Z</time>
      </trkpt>
      <trkpt lat="45.28973" lon="5.84398">
        <ele>1062.05</ele>
        <time>2022-08-13T12:46:36.000Z</time>
      </trkpt>
      <trkpt lat="45.29027" lon="5.84448">
        <ele>1058.4</ele>
        <time>2022-08-13T12:46:41.000Z</time>
      </trkpt>
      <trkpt lat="45.2908" lon="5.84498">
        <ele>1054.84</ele>
        <time>2022-08-13T12:46:46.000Z</time>
      </trkpt>
      <trkpt lat="45.29132" lon="5.84541">
        <ele>1049.07</ele>
        <time>2022-08-13T12:46:51.000Z</time>
      </trkpt>
      <trkpt lat="45.29179" lon="5.84564">
        <ele>1046.37</ele>
        <time>2022-08-13T12:46:56.000Z</time>
      </trkpt>
      <trkpt lat="45.29146" lon="5.84588">
        <ele>1041.44</ele>
        <time>2022-08-13T12:47:01.000Z</time>
      </trkpt>
      <trkpt lat="45.29101" lon="5.84615">
        <ele>1034.96</ele>
        <time>2022-08-13T12:47:06.000Z</time>
      </trkpt>
      <trkpt lat="45.29045" lon="5.84595">
        <ele>1028.25</ele>
        <time>2022-08-13T12:47:11.000Z</time>
      </trkpt>
      <trkpt lat="45.28982" lon="5.84579">
        <ele>1024.56</ele>
        <time>2022-08-13T12:47:16.000Z</time>
      </trkpt>
      <trkpt lat="45.28947" lon="5.84589">
        <ele>1022.73</ele>
        <time>2022-08-13T12:47:21.000Z</time>
      </trkpt>
      <trkpt lat="45.28994" lon="5.84636">
        <ele>1024.42</ele>
        <time>2022-08-13T12:47:26.000Z</time>
      </trkpt>
      <trkpt lat="45.29045" lon="5.84672">
        <ele>1016.65</ele>
        <time>2022-08-13T12:47:31.000Z</time>
      </trkpt>
      <trkpt lat="45.29093" lon="5.84733">
        <ele>1008.07</ele>
        <time>2022-08-13T12:47:36.000Z</time>
      </trkpt>
      <trkpt lat="45.29106" lon="5.84787">
        <ele>1001.41</ele>
        <time>2022-08-13T12:47:41.000Z</time>
      </trkpt>
      <trkpt lat="45.29052" lon="5.84756">
        <ele>1000.47</ele>
        <time>2022-08-13T12:47:46.000Z</time>
      </trkpt>
      <trkpt lat="45.29007" lon="5.84725">
        <ele>995.87</ele>
        <time>2022-08-13T12:47:51.000Z</time>
      </trkpt>
      <trkpt lat="45.28956" lon="5.84759">
        <ele>994.4</ele>
        <time>2022-08-13T12:47:56.000Z</time>
      </trkpt>
      <trkpt lat="45.28895" lon="5.84784">
        <ele>989.39</ele>
        <time>2022-08-13T12:48:01.000Z</time>
      </trkpt>
      <trkpt lat="45.28825" lon="5.84818">
        <ele>983.34</ele>
        <time>2022-08-13T12:48:06.000Z</time>
      </trkpt>
      <trkpt lat="45.2878" lon="5.84894">
        <ele>979.66</ele>
        <time>2022-08-13T12:48:11.000Z</time>
      </trkpt>
      <trkpt lat="45.28752" lon="5.84975">
        <ele>973.88</ele>
        <time>2022-08-13T12:48:16.000Z</time>
      </trkpt>
      <trkpt lat="45.28761" lon="5.85019">
        <ele>966.35</ele>
        <time>2022-08-13T12:48:21.000Z</time>
      </trkpt>
      <trkpt lat="45.2881" lon="5.85041">
        <ele>958.55</ele>
        <time>2022-08-13T12:48:26.000Z</time>
      </trkpt>
      <trkpt lat="45.28842" lon="5.84981">
        <ele>953.23</ele>
        <time>2022-08-13T12:48:31.000Z</time>
      </trkpt>
      <trkpt lat="45.28858" lon="5.84959">
        <ele>954.52</ele>
        <time>2022-08-13T12:48:36.000Z</time>
      </trkpt>
      <trkpt lat="45.28869" lon="5.84959">
        <ele>937.56</ele>
        <time>2022-08-13T13:08:44.000Z</time>
      </trkpt>
      <trkpt lat="45.28884" lon="5.84957">
        <ele>936.11</ele>
        <time>2022-08-13T13:08:49.000Z</time>
      </trkpt>
      <trkpt lat="45.28898" lon="5.84943">
        <ele>935.73</ele>
        <time>2022-08-13T13:08:54.000Z</time>
      </trkpt>
      <trkpt lat="45.28914" lon="5.84929">
        <ele>937.37</ele>
        <time>2022-08-13T13:08:59.000Z</time>
      </trkpt>
      <trkpt lat="45.28931" lon="5.84915">
        <ele>937.59</ele>
        <time>2022-08-13T13:09:04.000Z</time>
      </trkpt>
      <trkpt lat="45.28958" lon="5.84926">
        <ele>939.53</ele>
        <time>2022-08-13T13:09:09.000Z</time>
      </trkpt>
      <trkpt lat="45.28954" lon="5.84954">
        <ele>939.56</ele>
        <time>2022-08-13T13:09:14.000Z</time>
      </trkpt>
      <trkpt lat="45.2895" lon="5.8499">
        <ele>939.33</ele>
        <time>2022-08-13T13:09:19.000Z</time>
      </trkpt>
      <trkpt lat="45.2895" lon="5.85024">
        <ele>939.84</ele>
        <time>2022-08-13T13:09:24.000Z</time>
      </trkpt>
      <trkpt lat="45.28958" lon="5.85057">
        <ele>948.15</ele>
        <time>2022-08-13T13:09:29.000Z</time>
      </trkpt>
      <trkpt lat="45.28976" lon="5.85082">
        <ele>951.24</ele>
        <time>2022-08-13T13:09:34.000Z</time>
      </trkpt>
      <trkpt lat="45.28995" lon="5.85108">
        <ele>952.64</ele>
        <time>2022-08-13T13:09:39.000Z</time>
      </trkpt>
      <trkpt lat="45.29012" lon="5.85133">
        <ele>955.77</ele>
        <time>2022-08-13T13:09:44.000Z</time>
      </trkpt>
      <trkpt lat="45.29037" lon="5.85145">
        <ele>957.4</ele>
        <time>2022-08-13T13:09:49.000Z</time>
      </trkpt>
      <trkpt lat="45.29065" lon="5.85148">
        <ele>954.87</ele>
        <time>2022-08-13T13:09:54.000Z</time>
      </trkpt>
      <trkpt lat="45.29096" lon="5.85158">
        <ele>956.11</ele>
        <time>2022-08-13T13:09:59.000Z</time>
      </trkpt>
      <trkpt lat="45.2913" lon="5.85173">
        <ele>955.9</ele>
        <time>2022-08-13T13:10:04.000Z</time>
      </trkpt>
      <trkpt lat="45.29162" lon="5.85182">
        <ele>956.03</ele>
        <time>2022-08-13T13:10:09.000Z</time>
      </trkpt>
      <trkpt lat="45.29198" lon="5.85189">
        <ele>956.64</ele>
        <time>2022-08-13T13:10:14.000Z</time>
      </trkpt>
      <trkpt lat="45.29225" lon="5.85206">
        <ele>954.33</ele>
        <time>2022-08-13T13:10:19.000Z</time>
      </trkpt>
      <trkpt lat="45.29246" lon="5.85244">
        <ele>947.3</ele>
        <time>2022-08-13T13:10:24.000Z</time>
      </trkpt>
      <trkpt lat="45.29227" lon="5.85279">
        <ele>950</ele>
        <time>2022-08-13T13:10:29.000Z</time>
      </trkpt>
      <trkpt lat="45.29202" lon="5.85301">
        <ele>952.09</ele>
        <time>2022-08-13T13:10:34.000Z</time>
      </trkpt>
      <trkpt lat="45.29173" lon="5.85305">
        <ele>953.23</ele>
        <time>2022-08-13T13:10:39.000Z</time>
      </trkpt>
      <trkpt lat="45.29147" lon="5.85305">
        <ele>955.55</ele>
        <time>2022-08-13T13:10:44.000Z</time>
      </trkpt>
      <trkpt lat="45.29114" lon="5.8532">
        <ele>959.46</ele>
        <time>2022-08-13T13:10:49.000Z</time>
      </trkpt>
      <trkpt lat="45.29083" lon="5.85329">
        <ele>956.07</ele>
        <time>2022-08-13T13:10:54.000Z</time>
      </trkpt>
      <trkpt lat="45.29065" lon="5.85359">
        <ele>962.12</ele>
        <time>2022-08-13T13:10:59.000Z</time>
      </trkpt>
      <trkpt lat="45.29059" lon="5.85404">
        <ele>964.17</ele>
        <time>2022-08-13T13:11:04.000Z</time>
      </trkpt>
      <trkpt lat="45.29057" lon="5.85447">
        <ele>964.46</ele>
        <time>2022-08-13T13:11:09.000Z</time>
      </trkpt>
      <trkpt lat="45.29053" lon="5.85486">
        <ele>964.74</ele>
        <time>2022-08-13T13:11:14.000Z</time>
      </trkpt>
      <trkpt lat="45.2905" lon="5.85524">
        <ele>967.18</ele>
        <time>2022-08-13T13:11:19.000Z</time>
      </trkpt>
      <trkpt lat="45.29047" lon="5.85561">
        <ele>968.52</ele>
        <time>2022-08-13T13:11:24.000Z</time>
      </trkpt>
      <trkpt lat="45.29055" lon="5.85602">
        <ele>970.2</ele>
        <time>2022-08-13T13:11:29.000Z</time>
      </trkpt>
      <trkpt lat="45.29067" lon="5.8564">
        <ele>971.23</ele>
        <time>2022-08-13T13:11:34.000Z</time>
      </trkpt>
      <trkpt lat="45.29071" lon="5.85679">
        <ele>974.63</ele>
        <time>2022-08-13T13:11:39.000Z</time>
      </trkpt>
      <trkpt lat="45.29068" lon="5.85716">
        <ele>975.14</ele>
        <time>2022-08-13T13:11:44.000Z</time>
      </trkpt>
      <trkpt lat="45.29069" lon="5.85749">
        <ele>977.68</ele>
        <time>2022-08-13T13:11:49.000Z</time>
      </trkpt>
      <trkpt lat="45.29061" lon="5.85776">
        <ele>979.58</ele>
        <time>2022-08-13T13:11:54.000Z</time>
      </trkpt>
      <trkpt lat="45.29046" lon="5.85802">
        <ele>981.99</ele>
        <time>2022-08-13T13:11:59.000Z</time>
      </trkpt>
      <trkpt lat="45.29038" lon="5.85832">
        <ele>984.29</ele>
        <time>2022-08-13T13:12:04.000Z</time>
      </trkpt>
      <trkpt lat="45.2905" lon="5.85863">
        <ele>984.76</ele>
        <time>2022-08-13T13:12:09.000Z</time>
      </trkpt>
      <trkpt lat="45.29073" lon="5.85864">
        <ele>988.26</ele>
        <time>2022-08-13T13:12:14.000Z</time>
      </trkpt>
      <trkpt lat="45.291" lon="5.85871">
        <ele>990.5</ele>
        <time>2022-08-13T13:12:19.000Z</time>
      </trkpt>
      <trkpt lat="45.29123" lon="5.85875">
        <ele>987.67</ele>
        <time>2022-08-13T13:12:24.000Z</time>
      </trkpt>
      <trkpt lat="45.29135" lon="5.85898">
        <ele>991.44</ele>
        <time>2022-08-13T13:12:29.000Z</time>
      </trkpt>
      <trkpt lat="45.29135" lon="5.85938">
        <ele>995.09</ele>
        <time>2022-08-13T13:12:34.000Z</time>
      </trkpt>
      <trkpt lat="45.29146" lon="5.85983">
        <ele>995.7</ele>
        <time>2022-08-13T13:12:39.000Z</time>
      </trkpt>
      <trkpt lat="45.29161" lon="5.86022">
        <ele>997.52</ele>
        <time>2022-08-13T13:12:44.000Z</time>
      </trkpt>
      <trkpt lat="45.29182" lon="5.86056">
        <ele>994.73</ele>
        <time>2022-08-13T13:12:49.000Z</time>
      </trkpt>
      <trkpt lat="45.29198" lon="5.86084">
        <ele>997.46</ele>
        <time>2022-08-13T13:12:54.000Z</time>
      </trkpt>
      <trkpt lat="45.29207" lon="5.86121">
        <ele>998.66</ele>
        <time>2022-08-13T13:12:59.000Z</time>
      </trkpt>
      <trkpt lat="45.29217" lon="5.86158">
        <ele>998.58</ele>
        <time>2022-08-13T13:13:04.000Z</time>
      </trkpt>
      <trkpt lat="45.29238" lon="5.86187">
        <ele>995.68</ele>
        <time>2022-08-13T13:13:09.000Z</time>
      </trkpt>
      <trkpt lat="45.29263" lon="5.86204">
        <ele>992.58</ele>
        <time>2022-08-13T13:13:14.000Z</time>
      </trkpt>
      <trkpt lat="45.29284" lon="5.86224">
        <ele>995.78</ele>
        <time>2022-08-13T13:13:19.000Z</time>
      </trkpt>
      <trkpt lat="45.29301" lon="5.86249">
        <ele>996.38</ele>
        <time>2022-08-13T13:13:24.000Z</time>
      </trkpt>
      <trkpt lat="45.29322" lon="5.86278">
        <ele>997.03</ele>
        <time>2022-08-13T13:13:29.000Z</time>
      </trkpt>
      <trkpt lat="45.29339" lon="5.86314">
        <ele>997.5</ele>
        <time>2022-08-13T13:13:34.000Z</time>
      </trkpt>
      <trkpt lat="45.29356" lon="5.86352">
        <ele>1000.67</ele>
        <time>2022-08-13T13:13:39.000Z</time>
      </trkpt>
      <trkpt lat="45.29379" lon="5.8639">
        <ele>996.44</ele>
        <time>2022-08-13T13:13:44.000Z</time>
      </trkpt>
      <trkpt lat="45.29403" lon="5.86412">
        <ele>990.77</ele>
        <time>2022-08-13T13:13:49.000Z</time>
      </trkpt>
      <trkpt lat="45.29431" lon="5.86428">
        <ele>992.36</ele>
        <time>2022-08-13T13:13:54.000Z</time>
      </trkpt>
      <trkpt lat="45.29465" lon="5.86441">
        <ele>992.33</ele>
        <time>2022-08-13T13:13:59.000Z</time>
      </trkpt>
      <trkpt lat="45.29497" lon="5.86448">
        <ele>993.9</ele>
        <time>2022-08-13T13:14:04.000Z</time>
      </trkpt>
      <trkpt lat="45.2953" lon="5.86446">
        <ele>998.27</ele>
        <time>2022-08-13T13:14:09.000Z</time>
      </trkpt>
      <trkpt lat="45.29568" lon="5.86444">
        <ele>999.87</ele>
        <time>2022-08-13T13:14:14.000Z</time>
      </trkpt>
      <trkpt lat="45.29611" lon="5.86444">
        <ele>1000.08</ele>
        <time>2022-08-13T13:14:19.000Z</time>
      </trkpt>
      <trkpt lat="45.29604" lon="5.8651">
        <ele>1001.96</ele>
        <time>2022-08-13T13:14:24.000Z</time>
      </trkpt>
      <trkpt lat="45.29617" lon="5.86584">
        <ele>996.74</ele>
        <time>2022-08-13T13:14:29.000Z</time>
      </trkpt>
      <trkpt lat="45.29659" lon="5.86615">
        <ele>995.26</ele>
        <time>2022-08-13T13:14:34.000Z</time>
      </trkpt>
      <trkpt lat="45.29706" lon="5.86644">
        <ele>992.8</ele>
        <time>2022-08-13T13:14:39.000Z</time>
      </trkpt>
      <trkpt lat="45.29755" lon="5.8665">
        <ele>993.86</ele>
        <time>2022-08-13T13:14:44.000Z</time>
      </trkpt>
      <trkpt lat="45.29799" lon="5.86666">
        <ele>996.47</ele>
        <time>2022-08-13T13:14:49.000Z</time>
      </trkpt>
      <trkpt lat="45.29845" lon="5.86671">
        <ele>993.58</ele>
        <time>2022-08-13T13:14:54.000Z</time>
      </trkpt>
      <trkpt lat="45.29892" lon="5.86689">
        <ele>990.72</ele>
        <time>2022-08-13T13:14:59.000Z</time>
      </trkpt>
      <trkpt lat="45.29933" lon="5.86727">
        <ele>990.94</ele>
        <time>2022-08-13T13:15:04.000Z</time>
      </trkpt>
      <trkpt lat="45.29968" lon="5.86729">
        <ele>993.14</ele>
        <time>2022-08-13T13:15:09.000Z</time>
      </trkpt>
      <trkpt lat="45.29993" lon="5.86747">
        <ele>991.78</ele>
        <time>2022-08-13T13:15:14.000Z</time>
      </trkpt>
      <trkpt lat="45.29993" lon="5.86778">
        <ele>991.54</ele>
        <time>2022-08-13T13:15:19.000Z</time>
      </trkpt>
      <trkpt lat="45.29982" lon="5.86811">
        <ele>990.48</ele>
        <time>2022-08-13T13:15:24.000Z</time>
      </trkpt>
      <trkpt lat="45.29967" lon="5.8684">
        <ele>992.7</ele>
        <time>2022-08-13T13:15:29.000Z</time>
      </trkpt>
      <trkpt lat="45.29958" lon="5.86872">
        <ele>993.91</ele>
        <time>2022-08-13T13:15:34.000Z</time>
      </trkpt>
      <trkpt lat="45.29972" lon="5.86895">
        <ele>996.79</ele>
        <time>2022-08-13T13:15:39.000Z</time>
      </trkpt>
      <trkpt lat="45.29995" lon="5.86894">
        <ele>1002.58</ele>
        <time>2022-08-13T13:15:44.000Z</time>
      </trkpt>
      <trkpt lat="45.30021" lon="5.86891">
        <ele>1006.48</ele>
        <time>2022-08-13T13:15:49.000Z</time>
      </trkpt>
      <trkpt lat="45.30056" lon="5.86894">
        <ele>1007.42</ele>
        <time>2022-08-13T13:15:54.000Z</time>
      </trkpt>
      <trkpt lat="45.30057" lon="5.86934">
        <ele>1009.83</ele>
        <time>2022-08-13T13:15:59.000Z</time>
      </trkpt>
      <trkpt lat="45.30043" lon="5.86972">
        <ele>1005.67</ele>
        <time>2022-08-13T13:16:04.000Z</time>
      </trkpt>
      <trkpt lat="45.30028" lon="5.87008">
        <ele>1004.98</ele>
        <time>2022-08-13T13:16:09.000Z</time>
      </trkpt>
      <trkpt lat="45.30035" lon="5.8705">
        <ele>1010.41</ele>
        <time>2022-08-13T13:16:14.000Z</time>
      </trkpt>
      <trkpt lat="45.30045" lon="5.87089">
        <ele>1015.04</ele>
        <time>2022-08-13T13:16:19.000Z</time>
      </trkpt>
      <trkpt lat="45.30058" lon="5.87125">
        <ele>1016.19</ele>
        <time>2022-08-13T13:16:24.000Z</time>
      </trkpt>
      <trkpt lat="45.30068" lon="5.87162">
        <ele>1018.36</ele>
        <time>2022-08-13T13:16:29.000Z</time>
      </trkpt>
      <trkpt lat="45.30078" lon="5.87201">
        <ele>1021.39</ele>
        <time>2022-08-13T13:16:34.000Z</time>
      </trkpt>
      <trkpt lat="45.30089" lon="5.87235">
        <ele>1020.73</ele>
        <time>2022-08-13T13:16:39.000Z</time>
      </trkpt>
      <trkpt lat="45.30101" lon="5.87272">
        <ele>1019.59</ele>
        <time>2022-08-13T13:16:44.000Z</time>
      </trkpt>
      <trkpt lat="45.30112" lon="5.87315">
        <ele>1023.67</ele>
        <time>2022-08-13T13:16:49.000Z</time>
      </trkpt>
      <trkpt lat="45.30131" lon="5.87348">
        <ele>1024.41</ele>
        <time>2022-08-13T13:16:54.000Z</time>
      </trkpt>
      <trkpt lat="45.30144" lon="5.87385">
        <ele>1024.23</ele>
        <time>2022-08-13T13:16:59.000Z</time>
      </trkpt>
      <trkpt lat="45.30159" lon="5.87422">
        <ele>1030.22</ele>
        <time>2022-08-13T13:17:04.000Z</time>
      </trkpt>
      <trkpt lat="45.30175" lon="5.87459">
        <ele>1030.49</ele>
        <time>2022-08-13T13:17:09.000Z</time>
      </trkpt>
      <trkpt lat="45.30186" lon="5.87496">
        <ele>1030.4</ele>
        <time>2022-08-13T13:17:14.000Z</time>
      </trkpt>
      <trkpt lat="45.30198" lon="5.87539">
        <ele>1029.71</ele>
        <time>2022-08-13T13:17:19.000Z</time>
      </trkpt>
      <trkpt lat="45.3021" lon="5.87584">
        <ele>1026.75</ele>
        <time>2022-08-13T13:17:24.000Z</time>
      </trkpt>
      <trkpt lat="45.30226" lon="5.8763">
        <ele>1023.39</ele>
        <time>2022-08-13T13:17:29.000Z</time>
      </trkpt>
      <trkpt lat="45.30244" lon="5.87679">
        <ele>1019.97</ele>
        <time>2022-08-13T13:17:34.000Z</time>
      </trkpt>
      <trkpt lat="45.30263" lon="5.87729">
        <ele>1018.66</ele>
        <time>2022-08-13T13:17:39.000Z</time>
      </trkpt>
      <trkpt lat="45.30285" lon="5.87786">
        <ele>1015.14</ele>
        <time>2022-08-13T13:17:44.000Z</time>
      </trkpt>
      <trkpt lat="45.3031" lon="5.87844">
        <ele>1011.46</ele>
        <time>2022-08-13T13:17:49.000Z</time>
      </trkpt>
      <trkpt lat="45.30343" lon="5.87905">
        <ele>1008.08</ele>
        <time>2022-08-13T13:17:54.000Z</time>
      </trkpt>
      <trkpt lat="45.30388" lon="5.8796">
        <ele>1002.33</ele>
        <time>2022-08-13T13:17:59.000Z</time>
      </trkpt>
      <trkpt lat="45.30448" lon="5.87996">
        <ele>997.25</ele>
        <time>2022-08-13T13:18:04.000Z</time>
      </trkpt>
      <trkpt lat="45.30511" lon="5.88">
        <ele>997.97</ele>
        <time>2022-08-13T13:18:09.000Z</time>
      </trkpt>
      <trkpt lat="45.30569" lon="5.8798">
        <ele>990.72</ele>
        <time>2022-08-13T13:18:14.000Z</time>
      </trkpt>
      <trkpt lat="45.30626" lon="5.88">
        <ele>984.65</ele>
        <time>2022-08-13T13:18:19.000Z</time>
      </trkpt>
      <trkpt lat="45.30673" lon="5.88056">
        <ele>981.95</ele>
        <time>2022-08-13T13:18:24.000Z</time>
      </trkpt>
      <trkpt lat="45.30717" lon="5.88111">
        <ele>981.11</ele>
        <time>2022-08-13T13:18:29.000Z</time>
      </trkpt>
      <trkpt lat="45.30754" lon="5.88169">
        <ele>978.43</ele>
        <time>2022-08-13T13:18:34.000Z</time>
      </trkpt>
      <trkpt lat="45.30778" lon="5.88227">
        <ele>978.96</ele>
        <time>2022-08-13T13:18:39.000Z</time>
      </trkpt>
      <trkpt lat="45.30792" lon="5.88288">
        <ele>980.14</ele>
        <time>2022-08-13T13:18:44.000Z</time>
      </trkpt>
      <trkpt lat="45.30807" lon="5.88348">
        <ele>979.17</ele>
        <time>2022-08-13T13:18:49.000Z</time>
      </trkpt>
      <trkpt lat="45.30831" lon="5.88399">
        <ele>974.66</ele>
        <time>2022-08-13T13:18:54.000Z</time>
      </trkpt>
      <trkpt lat="45.30855" lon="5.88448">
        <ele>975.12</ele>
        <time>2022-08-13T13:18:59.000Z</time>
      </trkpt>
      <trkpt lat="45.30876" lon="5.88503">
        <ele>974.27</ele>
        <time>2022-08-13T13:19:04.000Z</time>
      </trkpt>
      <trkpt lat="45.309" lon="5.88558">
        <ele>972.73</ele>
        <time>2022-08-13T13:19:09.000Z</time>
      </trkpt>
      <trkpt lat="45.30924" lon="5.8862">
        <ele>972.34</ele>
        <time>2022-08-13T13:19:14.000Z</time>
      </trkpt>
      <trkpt lat="45.30952" lon="5.8867">
        <ele>968.2</ele>
        <time>2022-08-13T13:19:19.000Z</time>
      </trkpt>
      <trkpt lat="45.30978" lon="5.88707">
        <ele>973.45</ele>
        <time>2022-08-13T13:19:24.000Z</time>
      </trkpt>
      <trkpt lat="45.30995" lon="5.88719">
        <ele>969.89</ele>
        <time>2022-08-13T13:19:29.000Z</time>
      </trkpt>
      <trkpt lat="45.30985" lon="5.88713">
        <ele>970.65</ele>
        <time>2022-08-13T13:21:17.000Z</time>
      </trkpt>
      <trkpt lat="45.3098" lon="5.887">
        <ele>969.2</ele>
        <time>2022-08-13T13:21:22.000Z</time>
      </trkpt>
      <trkpt lat="45.30973" lon="5.8869">
        <ele>968.62</ele>
        <time>2022-08-13T13:21:31.000Z</time>
      </trkpt>
      <trkpt lat="45.3095" lon="5.88665">
        <ele>967.96</ele>
        <time>2022-08-13T13:21:36.000Z</time>
      </trkpt>
      <trkpt lat="45.30942" lon="5.88654">
        <ele>967.38</ele>
        <time>2022-08-13T13:21:41.000Z</time>
      </trkpt>
      <trkpt lat="45.30925" lon="5.88623">
        <ele>968.77</ele>
        <time>2022-08-13T13:21:46.000Z</time>
      </trkpt>
      <trkpt lat="45.30901" lon="5.88565">
        <ele>965.9</ele>
        <time>2022-08-13T13:21:51.000Z</time>
      </trkpt>
      <trkpt lat="45.30875" lon="5.88503">
        <ele>965.76</ele>
        <time>2022-08-13T13:21:56.000Z</time>
      </trkpt>
      <trkpt lat="45.30854" lon="5.88445">
        <ele>967.91</ele>
        <time>2022-08-13T13:22:01.000Z</time>
      </trkpt>
      <trkpt lat="45.30845" lon="5.88425">
        <ele>967.92</ele>
        <time>2022-08-13T13:22:03.000Z</time>
      </trkpt>
    </trkseg>
  </trk>
</gpx>